<?xml version="1.0" encoding="UTF-8" standalone="no" ?>
<gpx xmlns="http://www.topografix.com/GPX/1/1" xmlns:xsi="http://www.w3.org/2001/XMLSchema-instance" xsi:schemaLocation="http://www.topografix.com/GPX/1/1 http://www.topografix.com/GPX/1/1/gpx.xsd" version="1.1" creator="VisuGPX - https://www.visugpx.com">
  <metadata>
    <name>Anello di Bignone sentiero 4</name>
    <desc><![CDATA[AlpineQuest Track 15/04/2018 09:46:21]]></desc>
  </metadata>
  <trk>
    <name><![CDATA[sentiero 4]]></name>
    <trkseg>
      <trkpt lat="43.90338" lon="7.72087">
        <ele>957.522</ele>
        <time>2018-04-15T07:46:21Z</time>
      </trkpt>
      <trkpt lat="43.90341" lon="7.72076">
        <ele>928.029</ele>
        <time>2018-04-15T07:46:28Z</time>
      </trkpt>
      <trkpt lat="43.90346" lon="7.72069">
        <ele>914.516</ele>
        <time>2018-04-15T07:46:36Z</time>
      </trkpt>
      <trkpt lat="43.90346" lon="7.72074">
        <ele>904.972</ele>
        <time>2018-04-15T07:46:40Z</time>
      </trkpt>
      <trkpt lat="43.90339" lon="7.72078">
        <ele>904.843</ele>
        <time>2018-04-15T07:46:42Z</time>
      </trkpt>
      <trkpt lat="43.90336" lon="7.72092">
        <ele>905.26</ele>
        <time>2018-04-15T07:46:44Z</time>
      </trkpt>
      <trkpt lat="43.90332" lon="7.72104">
        <ele>908.547</ele>
        <time>2018-04-15T07:46:46Z</time>
      </trkpt>
      <trkpt lat="43.90328" lon="7.7212">
        <ele>911.461</ele>
        <time>2018-04-15T07:46:48Z</time>
      </trkpt>
      <trkpt lat="43.90335" lon="7.72154">
        <ele>912.097</ele>
        <time>2018-04-15T07:46:50Z</time>
      </trkpt>
      <trkpt lat="43.90327" lon="7.7217">
        <ele>912.579</ele>
        <time>2018-04-15T07:46:52Z</time>
      </trkpt>
      <trkpt lat="43.90324" lon="7.72182">
        <ele>914.157</ele>
        <time>2018-04-15T07:46:54Z</time>
      </trkpt>
      <trkpt lat="43.90322" lon="7.72197">
        <ele>915.923</ele>
        <time>2018-04-15T07:46:56Z</time>
      </trkpt>
      <trkpt lat="43.90317" lon="7.72212">
        <ele>917.574</ele>
        <time>2018-04-15T07:46:58Z</time>
      </trkpt>
      <trkpt lat="43.90315" lon="7.7223">
        <ele>917.548</ele>
        <time>2018-04-15T07:47:00Z</time>
      </trkpt>
      <trkpt lat="43.90316" lon="7.72245">
        <ele>916.769</ele>
        <time>2018-04-15T07:47:02Z</time>
      </trkpt>
      <trkpt lat="43.90317" lon="7.72262">
        <ele>913.192</ele>
        <time>2018-04-15T07:47:04Z</time>
      </trkpt>
      <trkpt lat="43.90319" lon="7.72279">
        <ele>911.292</ele>
        <time>2018-04-15T07:47:06Z</time>
      </trkpt>
      <trkpt lat="43.90317" lon="7.72292">
        <ele>911.559</ele>
        <time>2018-04-15T07:47:08Z</time>
      </trkpt>
      <trkpt lat="43.90318" lon="7.72316">
        <ele>910.99</ele>
        <time>2018-04-15T07:47:10Z</time>
      </trkpt>
      <trkpt lat="43.90314" lon="7.72334">
        <ele>911.675</ele>
        <time>2018-04-15T07:47:12Z</time>
      </trkpt>
      <trkpt lat="43.90308" lon="7.72355">
        <ele>912.26</ele>
        <time>2018-04-15T07:47:14Z</time>
      </trkpt>
      <trkpt lat="43.90311" lon="7.72373">
        <ele>910.23</ele>
        <time>2018-04-15T07:47:16Z</time>
      </trkpt>
      <trkpt lat="43.90309" lon="7.7239">
        <ele>909.468</ele>
        <time>2018-04-15T07:47:18Z</time>
      </trkpt>
      <trkpt lat="43.90308" lon="7.72406">
        <ele>907.629</ele>
        <time>2018-04-15T07:47:20Z</time>
      </trkpt>
      <trkpt lat="43.90304" lon="7.7243">
        <ele>909.422</ele>
        <time>2018-04-15T07:47:22Z</time>
      </trkpt>
      <trkpt lat="43.90303" lon="7.72449">
        <ele>913.326</ele>
        <time>2018-04-15T07:47:24Z</time>
      </trkpt>
      <trkpt lat="43.90301" lon="7.72467">
        <ele>915.373</ele>
        <time>2018-04-15T07:47:26Z</time>
      </trkpt>
      <trkpt lat="43.90299" lon="7.72487">
        <ele>916.36</ele>
        <time>2018-04-15T07:47:28Z</time>
      </trkpt>
      <trkpt lat="43.90296" lon="7.72506">
        <ele>916.651</ele>
        <time>2018-04-15T07:47:30Z</time>
      </trkpt>
      <trkpt lat="43.90292" lon="7.72521">
        <ele>915.28</ele>
        <time>2018-04-15T07:47:32Z</time>
      </trkpt>
      <trkpt lat="43.90285" lon="7.7254">
        <ele>910.995</ele>
        <time>2018-04-15T07:47:34Z</time>
      </trkpt>
      <trkpt lat="43.90278" lon="7.72556">
        <ele>908.687</ele>
        <time>2018-04-15T07:47:36Z</time>
      </trkpt>
      <trkpt lat="43.90272" lon="7.72563">
        <ele>907.464</ele>
        <time>2018-04-15T07:47:37Z</time>
      </trkpt>
      <trkpt lat="43.90256" lon="7.72564">
        <ele>906.267</ele>
        <time>2018-04-15T07:47:39Z</time>
      </trkpt>
      <trkpt lat="43.90241" lon="7.72557">
        <ele>904.311</ele>
        <time>2018-04-15T07:47:41Z</time>
      </trkpt>
      <trkpt lat="43.90234" lon="7.72555">
        <ele>903.063</ele>
        <time>2018-04-15T07:47:42Z</time>
      </trkpt>
      <trkpt lat="43.90221" lon="7.72548">
        <ele>903.675</ele>
        <time>2018-04-15T07:47:44Z</time>
      </trkpt>
      <trkpt lat="43.90209" lon="7.72542">
        <ele>907.011</ele>
        <time>2018-04-15T07:47:46Z</time>
      </trkpt>
      <trkpt lat="43.902" lon="7.7254">
        <ele>908.522</ele>
        <time>2018-04-15T07:47:48Z</time>
      </trkpt>
      <trkpt lat="43.90188" lon="7.72545">
        <ele>909.834</ele>
        <time>2018-04-15T07:47:50Z</time>
      </trkpt>
      <trkpt lat="43.90175" lon="7.72548">
        <ele>911.538</ele>
        <time>2018-04-15T07:47:52Z</time>
      </trkpt>
      <trkpt lat="43.90161" lon="7.72551">
        <ele>912.663</ele>
        <time>2018-04-15T07:47:54Z</time>
      </trkpt>
      <trkpt lat="43.90148" lon="7.72553">
        <ele>912.947</ele>
        <time>2018-04-15T07:47:56Z</time>
      </trkpt>
      <trkpt lat="43.90136" lon="7.72546">
        <ele>913.599</ele>
        <time>2018-04-15T07:47:58Z</time>
      </trkpt>
      <trkpt lat="43.90129" lon="7.72534">
        <ele>914.495</ele>
        <time>2018-04-15T07:48:00Z</time>
      </trkpt>
      <trkpt lat="43.90121" lon="7.72516">
        <ele>914.017</ele>
        <time>2018-04-15T07:48:02Z</time>
      </trkpt>
      <trkpt lat="43.90111" lon="7.72502">
        <ele>911.836</ele>
        <time>2018-04-15T07:48:04Z</time>
      </trkpt>
      <trkpt lat="43.90103" lon="7.72497">
        <ele>911.493</ele>
        <time>2018-04-15T07:48:06Z</time>
      </trkpt>
      <trkpt lat="43.90095" lon="7.72499">
        <ele>909.788</ele>
        <time>2018-04-15T07:48:08Z</time>
      </trkpt>
      <trkpt lat="43.90091" lon="7.72501">
        <ele>909.727</ele>
        <time>2018-04-15T07:48:09Z</time>
      </trkpt>
      <trkpt lat="43.90082" lon="7.72505">
        <ele>909.263</ele>
        <time>2018-04-15T07:48:11Z</time>
      </trkpt>
      <trkpt lat="43.90075" lon="7.7251">
        <ele>909.632</ele>
        <time>2018-04-15T07:48:13Z</time>
      </trkpt>
      <trkpt lat="43.90064" lon="7.72515">
        <ele>910.722</ele>
        <time>2018-04-15T07:48:15Z</time>
      </trkpt>
      <trkpt lat="43.9005" lon="7.72514">
        <ele>910.767</ele>
        <time>2018-04-15T07:48:17Z</time>
      </trkpt>
      <trkpt lat="43.90036" lon="7.72512">
        <ele>911.358</ele>
        <time>2018-04-15T07:48:19Z</time>
      </trkpt>
      <trkpt lat="43.90022" lon="7.72509">
        <ele>911.866</ele>
        <time>2018-04-15T07:48:21Z</time>
      </trkpt>
      <trkpt lat="43.90008" lon="7.72507">
        <ele>913.982</ele>
        <time>2018-04-15T07:48:23Z</time>
      </trkpt>
      <trkpt lat="43.89997" lon="7.72503">
        <ele>915.162</ele>
        <time>2018-04-15T07:48:25Z</time>
      </trkpt>
      <trkpt lat="43.89989" lon="7.72498">
        <ele>916.078</ele>
        <time>2018-04-15T07:48:48Z</time>
      </trkpt>
      <trkpt lat="43.89983" lon="7.72497">
        <ele>916.025</ele>
        <time>2018-04-15T07:48:50Z</time>
      </trkpt>
      <trkpt lat="43.89984" lon="7.72503">
        <ele>916.309</ele>
        <time>2018-04-15T07:48:54Z</time>
      </trkpt>
      <trkpt lat="43.8999" lon="7.72504">
        <ele>916.902</ele>
        <time>2018-04-15T07:48:55Z</time>
      </trkpt>
      <trkpt lat="43.89999" lon="7.72506">
        <ele>917.822</ele>
        <time>2018-04-15T07:48:57Z</time>
      </trkpt>
      <trkpt lat="43.90009" lon="7.72511">
        <ele>920.471</ele>
        <time>2018-04-15T07:48:59Z</time>
      </trkpt>
      <trkpt lat="43.9002" lon="7.72518">
        <ele>922.354</ele>
        <time>2018-04-15T07:49:01Z</time>
      </trkpt>
      <trkpt lat="43.90034" lon="7.72525">
        <ele>923.892</ele>
        <time>2018-04-15T07:49:03Z</time>
      </trkpt>
      <trkpt lat="43.90052" lon="7.72524">
        <ele>924.412</ele>
        <time>2018-04-15T07:49:05Z</time>
      </trkpt>
      <trkpt lat="43.9007" lon="7.72524">
        <ele>926.481</ele>
        <time>2018-04-15T07:49:07Z</time>
      </trkpt>
      <trkpt lat="43.90093" lon="7.72537">
        <ele>929.498</ele>
        <time>2018-04-15T07:49:10Z</time>
      </trkpt>
      <trkpt lat="43.90099" lon="7.72551">
        <ele>929.601</ele>
        <time>2018-04-15T07:49:12Z</time>
      </trkpt>
      <trkpt lat="43.90105" lon="7.72569">
        <ele>932.244</ele>
        <time>2018-04-15T07:49:14Z</time>
      </trkpt>
      <trkpt lat="43.90112" lon="7.72585">
        <ele>935.164</ele>
        <time>2018-04-15T07:49:16Z</time>
      </trkpt>
      <trkpt lat="43.90115" lon="7.72595">
        <ele>935.443</ele>
        <time>2018-04-15T07:49:18Z</time>
      </trkpt>
      <trkpt lat="43.90117" lon="7.72599">
        <ele>935.601</ele>
        <time>2018-04-15T07:49:19Z</time>
      </trkpt>
      <trkpt lat="43.90114" lon="7.72597">
        <ele>935.917</ele>
        <time>2018-04-15T07:49:25Z</time>
      </trkpt>
      <trkpt lat="43.90111" lon="7.72595">
        <ele>935.824</ele>
        <time>2018-04-15T07:49:28Z</time>
      </trkpt>
      <trkpt lat="43.90113" lon="7.72591">
        <ele>935.997</ele>
        <time>2018-04-15T07:49:34Z</time>
      </trkpt>
      <trkpt lat="43.90115" lon="7.72588">
        <ele>936.247</ele>
        <time>2018-04-15T07:49:36Z</time>
      </trkpt>
      <trkpt lat="43.90112" lon="7.72587">
        <ele>936.657</ele>
        <time>2018-04-15T07:49:43Z</time>
      </trkpt>
      <trkpt lat="43.90111" lon="7.72583">
        <ele>937.306</ele>
        <time>2018-04-15T07:49:46Z</time>
      </trkpt>
      <trkpt lat="43.90106" lon="7.7258">
        <ele>943.222</ele>
        <time>2018-04-15T07:49:59Z</time>
      </trkpt>
      <trkpt lat="43.90097" lon="7.72575">
        <ele>944.945</ele>
        <time>2018-04-15T07:50:01Z</time>
      </trkpt>
      <trkpt lat="43.90088" lon="7.72578">
        <ele>946.057</ele>
        <time>2018-04-15T07:50:03Z</time>
      </trkpt>
      <trkpt lat="43.90076" lon="7.72581">
        <ele>948.769</ele>
        <time>2018-04-15T07:50:05Z</time>
      </trkpt>
      <trkpt lat="43.90059" lon="7.72583">
        <ele>949.87</ele>
        <time>2018-04-15T07:50:07Z</time>
      </trkpt>
      <trkpt lat="43.90052" lon="7.72599">
        <ele>950.203</ele>
        <time>2018-04-15T07:50:09Z</time>
      </trkpt>
      <trkpt lat="43.90046" lon="7.72606">
        <ele>950.146</ele>
        <time>2018-04-15T07:50:10Z</time>
      </trkpt>
      <trkpt lat="43.90029" lon="7.72624">
        <ele>949.256</ele>
        <time>2018-04-15T07:50:12Z</time>
      </trkpt>
      <trkpt lat="43.90011" lon="7.72641">
        <ele>948.504</ele>
        <time>2018-04-15T07:50:14Z</time>
      </trkpt>
      <trkpt lat="43.89993" lon="7.72658">
        <ele>947.36</ele>
        <time>2018-04-15T07:50:16Z</time>
      </trkpt>
      <trkpt lat="43.89979" lon="7.72671">
        <ele>945.469</ele>
        <time>2018-04-15T07:50:18Z</time>
      </trkpt>
      <trkpt lat="43.89966" lon="7.72684">
        <ele>945.134</ele>
        <time>2018-04-15T07:50:20Z</time>
      </trkpt>
      <trkpt lat="43.89954" lon="7.72697">
        <ele>945.756</ele>
        <time>2018-04-15T07:50:22Z</time>
      </trkpt>
      <trkpt lat="43.89945" lon="7.72706">
        <ele>944.849</ele>
        <time>2018-04-15T07:50:24Z</time>
      </trkpt>
      <trkpt lat="43.89939" lon="7.72712">
        <ele>944.52</ele>
        <time>2018-04-15T07:50:26Z</time>
      </trkpt>
      <trkpt lat="43.89933" lon="7.72712">
        <ele>944.405</ele>
        <time>2018-04-15T07:50:28Z</time>
      </trkpt>
      <trkpt lat="43.89933" lon="7.72716">
        <ele>944.319</ele>
        <time>2018-04-15T07:50:30Z</time>
      </trkpt>
      <trkpt lat="43.8994" lon="7.72721">
        <ele>943.815</ele>
        <time>2018-04-15T07:50:53Z</time>
      </trkpt>
      <trkpt lat="43.8994" lon="7.72724">
        <ele>946.994</ele>
        <time>2018-04-15T07:51:07Z</time>
      </trkpt>
      <trkpt lat="43.89942" lon="7.72726">
        <ele>947.853</ele>
        <time>2018-04-15T07:51:34Z</time>
      </trkpt>
      <trkpt lat="43.89945" lon="7.72723">
        <ele>948.08</ele>
        <time>2018-04-15T07:52:10Z</time>
      </trkpt>
      <trkpt lat="43.89948" lon="7.72723">
        <ele>948.136</ele>
        <time>2018-04-15T07:52:14Z</time>
      </trkpt>
      <trkpt lat="43.89951" lon="7.72726">
        <ele>948.223</ele>
        <time>2018-04-15T07:52:19Z</time>
      </trkpt>
      <trkpt lat="43.89949" lon="7.72722">
        <ele>949.304</ele>
        <time>2018-04-15T07:52:41Z</time>
      </trkpt>
      <trkpt lat="43.89946" lon="7.72722">
        <ele>949.544</ele>
        <time>2018-04-15T07:52:46Z</time>
      </trkpt>
      <trkpt lat="43.89943" lon="7.72721">
        <ele>949.743</ele>
        <time>2018-04-15T07:52:50Z</time>
      </trkpt>
      <trkpt lat="43.89945" lon="7.72724">
        <ele>950.347</ele>
        <time>2018-04-15T07:53:01Z</time>
      </trkpt>
      <trkpt lat="43.89948" lon="7.72726">
        <ele>951.226</ele>
        <time>2018-04-15T07:53:10Z</time>
      </trkpt>
      <trkpt lat="43.89949" lon="7.72723">
        <ele>951.518</ele>
        <time>2018-04-15T07:53:22Z</time>
      </trkpt>
      <trkpt lat="43.89949" lon="7.72719">
        <ele>951.747</ele>
        <time>2018-04-15T07:53:28Z</time>
      </trkpt>
      <trkpt lat="43.89948" lon="7.72716">
        <ele>954.876</ele>
        <time>2018-04-15T07:53:47Z</time>
      </trkpt>
      <trkpt lat="43.89944" lon="7.72713">
        <ele>955.123</ele>
        <time>2018-04-15T07:53:59Z</time>
      </trkpt>
      <trkpt lat="43.89942" lon="7.72716">
        <ele>955.249</ele>
        <time>2018-04-15T07:54:09Z</time>
      </trkpt>
      <trkpt lat="43.89939" lon="7.72717">
        <ele>955.338</ele>
        <time>2018-04-15T07:54:16Z</time>
      </trkpt>
      <trkpt lat="43.89938" lon="7.72713">
        <ele>955.248</ele>
        <time>2018-04-15T07:54:35Z</time>
      </trkpt>
      <trkpt lat="43.89939" lon="7.72717">
        <ele>956.367</ele>
        <time>2018-04-15T07:55:29Z</time>
      </trkpt>
      <trkpt lat="43.8994" lon="7.72721">
        <ele>956.424</ele>
        <time>2018-04-15T07:55:38Z</time>
      </trkpt>
      <trkpt lat="43.89941" lon="7.72717">
        <ele>956.478</ele>
        <time>2018-04-15T07:55:47Z</time>
      </trkpt>
      <trkpt lat="43.89939" lon="7.72719">
        <ele>958.456</ele>
        <time>2018-04-15T07:56:24Z</time>
      </trkpt>
      <trkpt lat="43.89936" lon="7.72725">
        <ele>957.515</ele>
        <time>2018-04-15T07:56:29Z</time>
      </trkpt>
      <trkpt lat="43.89936" lon="7.72729">
        <ele>956.716</ele>
        <time>2018-04-15T07:56:33Z</time>
      </trkpt>
      <trkpt lat="43.89934" lon="7.72734">
        <ele>956.609</ele>
        <time>2018-04-15T07:56:37Z</time>
      </trkpt>
      <trkpt lat="43.89933" lon="7.72738">
        <ele>956.44</ele>
        <time>2018-04-15T07:56:39Z</time>
      </trkpt>
      <trkpt lat="43.89932" lon="7.72742">
        <ele>956.311</ele>
        <time>2018-04-15T07:56:41Z</time>
      </trkpt>
      <trkpt lat="43.8993" lon="7.72746">
        <ele>956.367</ele>
        <time>2018-04-15T07:56:43Z</time>
      </trkpt>
      <trkpt lat="43.89929" lon="7.72752">
        <ele>956.468</ele>
        <time>2018-04-15T07:56:45Z</time>
      </trkpt>
      <trkpt lat="43.89929" lon="7.72761">
        <ele>956.673</ele>
        <time>2018-04-15T07:56:49Z</time>
      </trkpt>
      <trkpt lat="43.89927" lon="7.72767">
        <ele>956.852</ele>
        <time>2018-04-15T07:56:53Z</time>
      </trkpt>
      <trkpt lat="43.89924" lon="7.72772">
        <ele>957.025</ele>
        <time>2018-04-15T07:56:56Z</time>
      </trkpt>
      <trkpt lat="43.89923" lon="7.72776">
        <ele>957.245</ele>
        <time>2018-04-15T07:56:58Z</time>
      </trkpt>
      <trkpt lat="43.89921" lon="7.72781">
        <ele>957.478</ele>
        <time>2018-04-15T07:57:00Z</time>
      </trkpt>
      <trkpt lat="43.8992" lon="7.72785">
        <ele>957.77</ele>
        <time>2018-04-15T07:57:03Z</time>
      </trkpt>
      <trkpt lat="43.89919" lon="7.72789">
        <ele>957.847</ele>
        <time>2018-04-15T07:57:05Z</time>
      </trkpt>
      <trkpt lat="43.89914" lon="7.72794">
        <ele>957.928</ele>
        <time>2018-04-15T07:57:07Z</time>
      </trkpt>
      <trkpt lat="43.89913" lon="7.72798">
        <ele>957.967</ele>
        <time>2018-04-15T07:57:09Z</time>
      </trkpt>
      <trkpt lat="43.8991" lon="7.72802">
        <ele>957.921</ele>
        <time>2018-04-15T07:57:11Z</time>
      </trkpt>
      <trkpt lat="43.89907" lon="7.72806">
        <ele>958.162</ele>
        <time>2018-04-15T07:57:14Z</time>
      </trkpt>
      <trkpt lat="43.89904" lon="7.72809">
        <ele>958.51</ele>
        <time>2018-04-15T07:57:17Z</time>
      </trkpt>
      <trkpt lat="43.89902" lon="7.72811">
        <ele>958.692</ele>
        <time>2018-04-15T07:57:19Z</time>
      </trkpt>
      <trkpt lat="43.89899" lon="7.72814">
        <ele>958.659</ele>
        <time>2018-04-15T07:57:21Z</time>
      </trkpt>
      <trkpt lat="43.89896" lon="7.72817">
        <ele>958.565</ele>
        <time>2018-04-15T07:57:23Z</time>
      </trkpt>
      <trkpt lat="43.89894" lon="7.7282">
        <ele>958.801</ele>
        <time>2018-04-15T07:57:26Z</time>
      </trkpt>
      <trkpt lat="43.8989" lon="7.7282">
        <ele>958.994</ele>
        <time>2018-04-15T07:57:28Z</time>
      </trkpt>
      <trkpt lat="43.89887" lon="7.72818">
        <ele>959.213</ele>
        <time>2018-04-15T07:57:31Z</time>
      </trkpt>
      <trkpt lat="43.89884" lon="7.72819">
        <ele>959.143</ele>
        <time>2018-04-15T07:57:34Z</time>
      </trkpt>
      <trkpt lat="43.8988" lon="7.7282">
        <ele>959.092</ele>
        <time>2018-04-15T07:57:39Z</time>
      </trkpt>
      <trkpt lat="43.89877" lon="7.72822">
        <ele>959.166</ele>
        <time>2018-04-15T07:57:41Z</time>
      </trkpt>
      <trkpt lat="43.8987" lon="7.72825">
        <ele>959.23</ele>
        <time>2018-04-15T07:57:43Z</time>
      </trkpt>
      <trkpt lat="43.89868" lon="7.72829">
        <ele>959.4</ele>
        <time>2018-04-15T07:57:45Z</time>
      </trkpt>
      <trkpt lat="43.89865" lon="7.72833">
        <ele>959.636</ele>
        <time>2018-04-15T07:57:47Z</time>
      </trkpt>
      <trkpt lat="43.89862" lon="7.72834">
        <ele>959.722</ele>
        <time>2018-04-15T07:57:49Z</time>
      </trkpt>
      <trkpt lat="43.89859" lon="7.72834">
        <ele>959.839</ele>
        <time>2018-04-15T07:57:51Z</time>
      </trkpt>
      <trkpt lat="43.89855" lon="7.72838">
        <ele>960.037</ele>
        <time>2018-04-15T07:57:54Z</time>
      </trkpt>
      <trkpt lat="43.89852" lon="7.7284">
        <ele>960.212</ele>
        <time>2018-04-15T07:57:56Z</time>
      </trkpt>
      <trkpt lat="43.89848" lon="7.72843">
        <ele>960.395</ele>
        <time>2018-04-15T07:57:58Z</time>
      </trkpt>
      <trkpt lat="43.89846" lon="7.72846">
        <ele>960.704</ele>
        <time>2018-04-15T07:58:01Z</time>
      </trkpt>
      <trkpt lat="43.89843" lon="7.72851">
        <ele>960.704</ele>
        <time>2018-04-15T07:58:04Z</time>
      </trkpt>
      <trkpt lat="43.8984" lon="7.72854">
        <ele>961.004</ele>
        <time>2018-04-15T07:58:07Z</time>
      </trkpt>
      <trkpt lat="43.89837" lon="7.72856">
        <ele>961.135</ele>
        <time>2018-04-15T07:58:09Z</time>
      </trkpt>
      <trkpt lat="43.89833" lon="7.72858">
        <ele>961.362</ele>
        <time>2018-04-15T07:58:12Z</time>
      </trkpt>
      <trkpt lat="43.89831" lon="7.72862">
        <ele>961.578</ele>
        <time>2018-04-15T07:58:14Z</time>
      </trkpt>
      <trkpt lat="43.89828" lon="7.72865">
        <ele>961.866</ele>
        <time>2018-04-15T07:58:17Z</time>
      </trkpt>
      <trkpt lat="43.89826" lon="7.72869">
        <ele>962.125</ele>
        <time>2018-04-15T07:58:20Z</time>
      </trkpt>
      <trkpt lat="43.89824" lon="7.72874">
        <ele>962.226</ele>
        <time>2018-04-15T07:58:22Z</time>
      </trkpt>
      <trkpt lat="43.89822" lon="7.72879">
        <ele>962.146</ele>
        <time>2018-04-15T07:58:24Z</time>
      </trkpt>
      <trkpt lat="43.89819" lon="7.72884">
        <ele>962.101</ele>
        <time>2018-04-15T07:58:26Z</time>
      </trkpt>
      <trkpt lat="43.89818" lon="7.72887">
        <ele>962.235</ele>
        <time>2018-04-15T07:58:28Z</time>
      </trkpt>
      <trkpt lat="43.89816" lon="7.7289">
        <ele>962.522</ele>
        <time>2018-04-15T07:58:32Z</time>
      </trkpt>
      <trkpt lat="43.89814" lon="7.72895">
        <ele>962.887</ele>
        <time>2018-04-15T07:58:35Z</time>
      </trkpt>
      <trkpt lat="43.89811" lon="7.72897">
        <ele>962.959</ele>
        <time>2018-04-15T07:58:37Z</time>
      </trkpt>
      <trkpt lat="43.89808" lon="7.729">
        <ele>963.182</ele>
        <time>2018-04-15T07:58:40Z</time>
      </trkpt>
      <trkpt lat="43.89806" lon="7.72905">
        <ele>963.219</ele>
        <time>2018-04-15T07:58:42Z</time>
      </trkpt>
      <trkpt lat="43.89804" lon="7.72908">
        <ele>963.365</ele>
        <time>2018-04-15T07:58:44Z</time>
      </trkpt>
      <trkpt lat="43.89802" lon="7.72911">
        <ele>963.469</ele>
        <time>2018-04-15T07:58:47Z</time>
      </trkpt>
      <trkpt lat="43.89798" lon="7.72911">
        <ele>963.474</ele>
        <time>2018-04-15T07:58:51Z</time>
      </trkpt>
      <trkpt lat="43.89796" lon="7.72913">
        <ele>963.397</ele>
        <time>2018-04-15T07:58:53Z</time>
      </trkpt>
      <trkpt lat="43.89793" lon="7.72915">
        <ele>962.01</ele>
        <time>2018-04-15T07:58:58Z</time>
      </trkpt>
      <trkpt lat="43.8979" lon="7.72921">
        <ele>960.837</ele>
        <time>2018-04-15T07:59:02Z</time>
      </trkpt>
      <trkpt lat="43.89786" lon="7.72924">
        <ele>960.452</ele>
        <time>2018-04-15T07:59:05Z</time>
      </trkpt>
      <trkpt lat="43.89782" lon="7.72925">
        <ele>960.352</ele>
        <time>2018-04-15T07:59:07Z</time>
      </trkpt>
      <trkpt lat="43.89778" lon="7.72926">
        <ele>960.453</ele>
        <time>2018-04-15T07:59:10Z</time>
      </trkpt>
      <trkpt lat="43.89775" lon="7.72927">
        <ele>960.782</ele>
        <time>2018-04-15T07:59:13Z</time>
      </trkpt>
      <trkpt lat="43.89772" lon="7.72929">
        <ele>961.261</ele>
        <time>2018-04-15T07:59:16Z</time>
      </trkpt>
      <trkpt lat="43.8977" lon="7.72929">
        <ele>961.652</ele>
        <time>2018-04-15T07:59:18Z</time>
      </trkpt>
      <trkpt lat="43.89765" lon="7.72929">
        <ele>962.141</ele>
        <time>2018-04-15T07:59:21Z</time>
      </trkpt>
      <trkpt lat="43.89761" lon="7.72928">
        <ele>962.573</ele>
        <time>2018-04-15T07:59:23Z</time>
      </trkpt>
      <trkpt lat="43.89757" lon="7.72927">
        <ele>963.273</ele>
        <time>2018-04-15T07:59:26Z</time>
      </trkpt>
      <trkpt lat="43.89753" lon="7.72926">
        <ele>963.611</ele>
        <time>2018-04-15T07:59:28Z</time>
      </trkpt>
      <trkpt lat="43.89749" lon="7.72928">
        <ele>964.073</ele>
        <time>2018-04-15T07:59:31Z</time>
      </trkpt>
      <trkpt lat="43.89745" lon="7.72929">
        <ele>964.465</ele>
        <time>2018-04-15T07:59:34Z</time>
      </trkpt>
      <trkpt lat="43.89742" lon="7.7293">
        <ele>964.754</ele>
        <time>2018-04-15T07:59:36Z</time>
      </trkpt>
      <trkpt lat="43.89738" lon="7.72931">
        <ele>964.908</ele>
        <time>2018-04-15T07:59:38Z</time>
      </trkpt>
      <trkpt lat="43.89735" lon="7.72932">
        <ele>965.374</ele>
        <time>2018-04-15T07:59:41Z</time>
      </trkpt>
      <trkpt lat="43.89731" lon="7.72935">
        <ele>965.932</ele>
        <time>2018-04-15T07:59:44Z</time>
      </trkpt>
      <trkpt lat="43.89728" lon="7.72937">
        <ele>966.306</ele>
        <time>2018-04-15T07:59:47Z</time>
      </trkpt>
      <trkpt lat="43.89728" lon="7.72941">
        <ele>966.82</ele>
        <time>2018-04-15T07:59:50Z</time>
      </trkpt>
      <trkpt lat="43.89726" lon="7.72944">
        <ele>966.975</ele>
        <time>2018-04-15T07:59:51Z</time>
      </trkpt>
      <trkpt lat="43.89723" lon="7.72951">
        <ele>967.46</ele>
        <time>2018-04-15T07:59:54Z</time>
      </trkpt>
      <trkpt lat="43.89721" lon="7.72955">
        <ele>967.82</ele>
        <time>2018-04-15T07:59:57Z</time>
      </trkpt>
      <trkpt lat="43.89719" lon="7.72959">
        <ele>968.427</ele>
        <time>2018-04-15T08:00:01Z</time>
      </trkpt>
      <trkpt lat="43.89717" lon="7.72962">
        <ele>968.668</ele>
        <time>2018-04-15T08:00:03Z</time>
      </trkpt>
      <trkpt lat="43.89715" lon="7.72966">
        <ele>968.722</ele>
        <time>2018-04-15T08:00:05Z</time>
      </trkpt>
      <trkpt lat="43.89713" lon="7.72968">
        <ele>968.792</ele>
        <time>2018-04-15T08:00:08Z</time>
      </trkpt>
      <trkpt lat="43.89712" lon="7.72973">
        <ele>968.801</ele>
        <time>2018-04-15T08:00:13Z</time>
      </trkpt>
      <trkpt lat="43.89711" lon="7.72976">
        <ele>968.86</ele>
        <time>2018-04-15T08:00:17Z</time>
      </trkpt>
      <trkpt lat="43.89714" lon="7.72974">
        <ele>968.857</ele>
        <time>2018-04-15T08:00:24Z</time>
      </trkpt>
      <trkpt lat="43.89712" lon="7.72977">
        <ele>968.928</ele>
        <time>2018-04-15T08:00:27Z</time>
      </trkpt>
      <trkpt lat="43.8971" lon="7.72981">
        <ele>968.874</ele>
        <time>2018-04-15T08:00:31Z</time>
      </trkpt>
      <trkpt lat="43.89708" lon="7.72986">
        <ele>968.866</ele>
        <time>2018-04-15T08:00:35Z</time>
      </trkpt>
      <trkpt lat="43.89706" lon="7.72993">
        <ele>968.805</ele>
        <time>2018-04-15T08:00:37Z</time>
      </trkpt>
      <trkpt lat="43.89703" lon="7.72996">
        <ele>968.745</ele>
        <time>2018-04-15T08:00:38Z</time>
      </trkpt>
      <trkpt lat="43.89702" lon="7.72999">
        <ele>968.534</ele>
        <time>2018-04-15T08:00:41Z</time>
      </trkpt>
      <trkpt lat="43.897" lon="7.73003">
        <ele>968.708</ele>
        <time>2018-04-15T08:00:43Z</time>
      </trkpt>
      <trkpt lat="43.89697" lon="7.73006">
        <ele>968.951</ele>
        <time>2018-04-15T08:00:45Z</time>
      </trkpt>
      <trkpt lat="43.89695" lon="7.7301">
        <ele>968.892</ele>
        <time>2018-04-15T08:00:50Z</time>
      </trkpt>
      <trkpt lat="43.89693" lon="7.73014">
        <ele>968.804</ele>
        <time>2018-04-15T08:00:52Z</time>
      </trkpt>
      <trkpt lat="43.8969" lon="7.73017">
        <ele>968.546</ele>
        <time>2018-04-15T08:00:55Z</time>
      </trkpt>
      <trkpt lat="43.89687" lon="7.73015">
        <ele>968.888</ele>
        <time>2018-04-15T08:01:22Z</time>
      </trkpt>
      <trkpt lat="43.89685" lon="7.73015">
        <ele>970.115</ele>
        <time>2018-04-15T08:01:59Z</time>
      </trkpt>
      <trkpt lat="43.89682" lon="7.7302">
        <ele>970.213</ele>
        <time>2018-04-15T08:02:02Z</time>
      </trkpt>
      <trkpt lat="43.89681" lon="7.73026">
        <ele>970.253</ele>
        <time>2018-04-15T08:02:04Z</time>
      </trkpt>
      <trkpt lat="43.8968" lon="7.73029">
        <ele>970.138</ele>
        <time>2018-04-15T08:02:06Z</time>
      </trkpt>
      <trkpt lat="43.89677" lon="7.73031">
        <ele>970.031</ele>
        <time>2018-04-15T08:02:08Z</time>
      </trkpt>
      <trkpt lat="43.89673" lon="7.73034">
        <ele>969.7</ele>
        <time>2018-04-15T08:02:10Z</time>
      </trkpt>
      <trkpt lat="43.8967" lon="7.73036">
        <ele>969.519</ele>
        <time>2018-04-15T08:02:12Z</time>
      </trkpt>
      <trkpt lat="43.89666" lon="7.73038">
        <ele>969.44</ele>
        <time>2018-04-15T08:02:15Z</time>
      </trkpt>
      <trkpt lat="43.89663" lon="7.73041">
        <ele>969.564</ele>
        <time>2018-04-15T08:02:18Z</time>
      </trkpt>
      <trkpt lat="43.89661" lon="7.73045">
        <ele>969.691</ele>
        <time>2018-04-15T08:02:20Z</time>
      </trkpt>
      <trkpt lat="43.89657" lon="7.73049">
        <ele>969.576</ele>
        <time>2018-04-15T08:02:24Z</time>
      </trkpt>
      <trkpt lat="43.89654" lon="7.73048">
        <ele>969.606</ele>
        <time>2018-04-15T08:02:26Z</time>
      </trkpt>
      <trkpt lat="43.89651" lon="7.7305">
        <ele>969.718</ele>
        <time>2018-04-15T08:02:30Z</time>
      </trkpt>
      <trkpt lat="43.89647" lon="7.73052">
        <ele>969.847</ele>
        <time>2018-04-15T08:02:32Z</time>
      </trkpt>
      <trkpt lat="43.89642" lon="7.73052">
        <ele>970.116</ele>
        <time>2018-04-15T08:02:35Z</time>
      </trkpt>
      <trkpt lat="43.89638" lon="7.73052">
        <ele>970.456</ele>
        <time>2018-04-15T08:02:38Z</time>
      </trkpt>
      <trkpt lat="43.89635" lon="7.73053">
        <ele>970.849</ele>
        <time>2018-04-15T08:02:40Z</time>
      </trkpt>
      <trkpt lat="43.89632" lon="7.73054">
        <ele>970.995</ele>
        <time>2018-04-15T08:02:42Z</time>
      </trkpt>
      <trkpt lat="43.8963" lon="7.73056">
        <ele>970.802</ele>
        <time>2018-04-15T08:02:45Z</time>
      </trkpt>
      <trkpt lat="43.89627" lon="7.73058">
        <ele>970.478</ele>
        <time>2018-04-15T08:02:48Z</time>
      </trkpt>
      <trkpt lat="43.89623" lon="7.73059">
        <ele>970.342</ele>
        <time>2018-04-15T08:02:51Z</time>
      </trkpt>
      <trkpt lat="43.8962" lon="7.73061">
        <ele>970.413</ele>
        <time>2018-04-15T08:02:54Z</time>
      </trkpt>
      <trkpt lat="43.89617" lon="7.73063">
        <ele>970.925</ele>
        <time>2018-04-15T08:02:58Z</time>
      </trkpt>
      <trkpt lat="43.89614" lon="7.73063">
        <ele>971.323</ele>
        <time>2018-04-15T08:03:00Z</time>
      </trkpt>
      <trkpt lat="43.89611" lon="7.73063">
        <ele>971.657</ele>
        <time>2018-04-15T08:03:02Z</time>
      </trkpt>
      <trkpt lat="43.89608" lon="7.73064">
        <ele>972.028</ele>
        <time>2018-04-15T08:03:05Z</time>
      </trkpt>
      <trkpt lat="43.89605" lon="7.73067">
        <ele>972.428</ele>
        <time>2018-04-15T08:03:07Z</time>
      </trkpt>
      <trkpt lat="43.89602" lon="7.73069">
        <ele>972.962</ele>
        <time>2018-04-15T08:03:09Z</time>
      </trkpt>
      <trkpt lat="43.89599" lon="7.73071">
        <ele>973.235</ele>
        <time>2018-04-15T08:03:11Z</time>
      </trkpt>
      <trkpt lat="43.89596" lon="7.73076">
        <ele>973.544</ele>
        <time>2018-04-15T08:03:14Z</time>
      </trkpt>
      <trkpt lat="43.89595" lon="7.7308">
        <ele>974.038</ele>
        <time>2018-04-15T08:03:18Z</time>
      </trkpt>
      <trkpt lat="43.89594" lon="7.73085">
        <ele>974.408</ele>
        <time>2018-04-15T08:03:20Z</time>
      </trkpt>
      <trkpt lat="43.89594" lon="7.7309">
        <ele>974.649</ele>
        <time>2018-04-15T08:03:23Z</time>
      </trkpt>
      <trkpt lat="43.89593" lon="7.73094">
        <ele>974.716</ele>
        <time>2018-04-15T08:03:25Z</time>
      </trkpt>
      <trkpt lat="43.89591" lon="7.73097">
        <ele>974.791</ele>
        <time>2018-04-15T08:03:27Z</time>
      </trkpt>
      <trkpt lat="43.89589" lon="7.731">
        <ele>974.916</ele>
        <time>2018-04-15T08:03:31Z</time>
      </trkpt>
      <trkpt lat="43.89588" lon="7.73104">
        <ele>974.997</ele>
        <time>2018-04-15T08:03:32Z</time>
      </trkpt>
      <trkpt lat="43.89586" lon="7.73106">
        <ele>975.186</ele>
        <time>2018-04-15T08:03:34Z</time>
      </trkpt>
      <trkpt lat="43.89583" lon="7.73108">
        <ele>975.505</ele>
        <time>2018-04-15T08:03:37Z</time>
      </trkpt>
      <trkpt lat="43.89579" lon="7.7311">
        <ele>975.694</ele>
        <time>2018-04-15T08:03:40Z</time>
      </trkpt>
      <trkpt lat="43.89576" lon="7.73112">
        <ele>975.949</ele>
        <time>2018-04-15T08:03:43Z</time>
      </trkpt>
      <trkpt lat="43.89576" lon="7.73107">
        <ele>976.347</ele>
        <time>2018-04-15T08:03:45Z</time>
      </trkpt>
      <trkpt lat="43.89574" lon="7.73103">
        <ele>977.006</ele>
        <time>2018-04-15T08:03:48Z</time>
      </trkpt>
      <trkpt lat="43.8957" lon="7.73097">
        <ele>977.876</ele>
        <time>2018-04-15T08:03:52Z</time>
      </trkpt>
      <trkpt lat="43.89567" lon="7.73095">
        <ele>980.066</ele>
        <time>2018-04-15T08:03:59Z</time>
      </trkpt>
      <trkpt lat="43.89566" lon="7.73091">
        <ele>981.101</ele>
        <time>2018-04-15T08:04:03Z</time>
      </trkpt>
      <trkpt lat="43.89562" lon="7.73086">
        <ele>981.586</ele>
        <time>2018-04-15T08:04:06Z</time>
      </trkpt>
      <trkpt lat="43.89559" lon="7.73085">
        <ele>982.384</ele>
        <time>2018-04-15T08:04:16Z</time>
      </trkpt>
      <trkpt lat="43.89557" lon="7.73087">
        <ele>982.904</ele>
        <time>2018-04-15T08:04:20Z</time>
      </trkpt>
      <trkpt lat="43.89556" lon="7.73092">
        <ele>983.16</ele>
        <time>2018-04-15T08:04:23Z</time>
      </trkpt>
      <trkpt lat="43.89554" lon="7.73094">
        <ele>983.437</ele>
        <time>2018-04-15T08:04:26Z</time>
      </trkpt>
      <trkpt lat="43.89551" lon="7.73095">
        <ele>983.817</ele>
        <time>2018-04-15T08:04:30Z</time>
      </trkpt>
      <trkpt lat="43.89548" lon="7.73096">
        <ele>984.504</ele>
        <time>2018-04-15T08:04:33Z</time>
      </trkpt>
      <trkpt lat="43.89545" lon="7.73099">
        <ele>985.351</ele>
        <time>2018-04-15T08:04:39Z</time>
      </trkpt>
      <trkpt lat="43.89542" lon="7.73101">
        <ele>985.865</ele>
        <time>2018-04-15T08:04:41Z</time>
      </trkpt>
      <trkpt lat="43.89539" lon="7.73103">
        <ele>986.806</ele>
        <time>2018-04-15T08:04:45Z</time>
      </trkpt>
      <trkpt lat="43.89537" lon="7.73107">
        <ele>987.191</ele>
        <time>2018-04-15T08:04:48Z</time>
      </trkpt>
      <trkpt lat="43.89535" lon="7.7311">
        <ele>987.659</ele>
        <time>2018-04-15T08:04:51Z</time>
      </trkpt>
      <trkpt lat="43.89532" lon="7.73112">
        <ele>987.918</ele>
        <time>2018-04-15T08:04:53Z</time>
      </trkpt>
      <trkpt lat="43.89529" lon="7.73113">
        <ele>988.244</ele>
        <time>2018-04-15T08:04:55Z</time>
      </trkpt>
      <trkpt lat="43.89526" lon="7.73113">
        <ele>988.886</ele>
        <time>2018-04-15T08:04:58Z</time>
      </trkpt>
      <trkpt lat="43.89523" lon="7.73113">
        <ele>989.684</ele>
        <time>2018-04-15T08:05:01Z</time>
      </trkpt>
      <trkpt lat="43.8952" lon="7.73111">
        <ele>990.558</ele>
        <time>2018-04-15T08:05:05Z</time>
      </trkpt>
      <trkpt lat="43.89516" lon="7.73109">
        <ele>991.208</ele>
        <time>2018-04-15T08:05:09Z</time>
      </trkpt>
      <trkpt lat="43.89514" lon="7.73107">
        <ele>992.105</ele>
        <time>2018-04-15T08:05:13Z</time>
      </trkpt>
      <trkpt lat="43.89511" lon="7.73107">
        <ele>993.121</ele>
        <time>2018-04-15T08:05:17Z</time>
      </trkpt>
      <trkpt lat="43.89508" lon="7.73105">
        <ele>995.098</ele>
        <time>2018-04-15T08:05:33Z</time>
      </trkpt>
      <trkpt lat="43.89506" lon="7.73103">
        <ele>995.415</ele>
        <time>2018-04-15T08:05:39Z</time>
      </trkpt>
      <trkpt lat="43.89508" lon="7.73105">
        <ele>995.852</ele>
        <time>2018-04-15T08:06:07Z</time>
      </trkpt>
      <trkpt lat="43.89511" lon="7.73106">
        <ele>996.43</ele>
        <time>2018-04-15T08:06:16Z</time>
      </trkpt>
      <trkpt lat="43.8951" lon="7.7311">
        <ele>996.343</ele>
        <time>2018-04-15T08:06:28Z</time>
      </trkpt>
      <trkpt lat="43.89507" lon="7.73108">
        <ele>996.018</ele>
        <time>2018-04-15T08:06:34Z</time>
      </trkpt>
      <trkpt lat="43.89504" lon="7.73108">
        <ele>995.641</ele>
        <time>2018-04-15T08:06:38Z</time>
      </trkpt>
      <trkpt lat="43.895" lon="7.73107">
        <ele>994.284</ele>
        <time>2018-04-15T08:06:42Z</time>
      </trkpt>
      <trkpt lat="43.89498" lon="7.73106">
        <ele>995.145</ele>
        <time>2018-04-15T08:07:17Z</time>
      </trkpt>
      <trkpt lat="43.89495" lon="7.73105">
        <ele>995.884</ele>
        <time>2018-04-15T08:07:20Z</time>
      </trkpt>
      <trkpt lat="43.89492" lon="7.73104">
        <ele>996.504</ele>
        <time>2018-04-15T08:07:23Z</time>
      </trkpt>
      <trkpt lat="43.89488" lon="7.73106">
        <ele>996.998</ele>
        <time>2018-04-15T08:07:26Z</time>
      </trkpt>
      <trkpt lat="43.89484" lon="7.73107">
        <ele>997.369</ele>
        <time>2018-04-15T08:07:28Z</time>
      </trkpt>
      <trkpt lat="43.89481" lon="7.73111">
        <ele>998.232</ele>
        <time>2018-04-15T08:07:34Z</time>
      </trkpt>
      <trkpt lat="43.89479" lon="7.73115">
        <ele>998.388</ele>
        <time>2018-04-15T08:07:36Z</time>
      </trkpt>
      <trkpt lat="43.89475" lon="7.73117">
        <ele>998.566</ele>
        <time>2018-04-15T08:07:39Z</time>
      </trkpt>
      <trkpt lat="43.89472" lon="7.73121">
        <ele>998.731</ele>
        <time>2018-04-15T08:07:42Z</time>
      </trkpt>
      <trkpt lat="43.89469" lon="7.73124">
        <ele>998.859</ele>
        <time>2018-04-15T08:07:44Z</time>
      </trkpt>
      <trkpt lat="43.89465" lon="7.73127">
        <ele>998.991</ele>
        <time>2018-04-15T08:07:47Z</time>
      </trkpt>
      <trkpt lat="43.89462" lon="7.73129">
        <ele>999.246</ele>
        <time>2018-04-15T08:07:49Z</time>
      </trkpt>
      <trkpt lat="43.89459" lon="7.73132">
        <ele>999.429</ele>
        <time>2018-04-15T08:07:51Z</time>
      </trkpt>
      <trkpt lat="43.89452" lon="7.73134">
        <ele>999.746</ele>
        <time>2018-04-15T08:07:54Z</time>
      </trkpt>
      <trkpt lat="43.8945" lon="7.73134">
        <ele>1000.088</ele>
        <time>2018-04-15T08:07:56Z</time>
      </trkpt>
      <trkpt lat="43.89447" lon="7.73135">
        <ele>1000.704</ele>
        <time>2018-04-15T08:07:59Z</time>
      </trkpt>
      <trkpt lat="43.89444" lon="7.73137">
        <ele>1001.066</ele>
        <time>2018-04-15T08:08:01Z</time>
      </trkpt>
      <trkpt lat="43.89441" lon="7.73137">
        <ele>1001.426</ele>
        <time>2018-04-15T08:08:04Z</time>
      </trkpt>
      <trkpt lat="43.89437" lon="7.73138">
        <ele>1001.82</ele>
        <time>2018-04-15T08:08:07Z</time>
      </trkpt>
      <trkpt lat="43.89434" lon="7.73139">
        <ele>1001.987</ele>
        <time>2018-04-15T08:08:09Z</time>
      </trkpt>
      <trkpt lat="43.89431" lon="7.7314">
        <ele>1002.325</ele>
        <time>2018-04-15T08:08:12Z</time>
      </trkpt>
      <trkpt lat="43.89427" lon="7.73142">
        <ele>1002.626</ele>
        <time>2018-04-15T08:08:14Z</time>
      </trkpt>
      <trkpt lat="43.89423" lon="7.73143">
        <ele>1002.953</ele>
        <time>2018-04-15T08:08:16Z</time>
      </trkpt>
      <trkpt lat="43.89419" lon="7.73143">
        <ele>1003.246</ele>
        <time>2018-04-15T08:08:19Z</time>
      </trkpt>
      <trkpt lat="43.89416" lon="7.73143">
        <ele>1003.427</ele>
        <time>2018-04-15T08:08:21Z</time>
      </trkpt>
      <trkpt lat="43.89412" lon="7.73145">
        <ele>1003.553</ele>
        <time>2018-04-15T08:08:23Z</time>
      </trkpt>
      <trkpt lat="43.8941" lon="7.73149">
        <ele>1003.541</ele>
        <time>2018-04-15T08:08:25Z</time>
      </trkpt>
      <trkpt lat="43.89408" lon="7.73153">
        <ele>1003.444</ele>
        <time>2018-04-15T08:08:28Z</time>
      </trkpt>
      <trkpt lat="43.89407" lon="7.73157">
        <ele>1003.724</ele>
        <time>2018-04-15T08:08:32Z</time>
      </trkpt>
      <trkpt lat="43.89404" lon="7.7316">
        <ele>1004.071</ele>
        <time>2018-04-15T08:08:34Z</time>
      </trkpt>
      <trkpt lat="43.89401" lon="7.7316">
        <ele>1004.846</ele>
        <time>2018-04-15T08:08:38Z</time>
      </trkpt>
      <trkpt lat="43.89398" lon="7.73161">
        <ele>1005.62</ele>
        <time>2018-04-15T08:08:42Z</time>
      </trkpt>
      <trkpt lat="43.89395" lon="7.73163">
        <ele>1005.896</ele>
        <time>2018-04-15T08:08:44Z</time>
      </trkpt>
      <trkpt lat="43.89391" lon="7.73164">
        <ele>1006.185</ele>
        <time>2018-04-15T08:08:46Z</time>
      </trkpt>
      <trkpt lat="43.89387" lon="7.73166">
        <ele>1006.769</ele>
        <time>2018-04-15T08:08:49Z</time>
      </trkpt>
      <trkpt lat="43.89383" lon="7.73166">
        <ele>1007.061</ele>
        <time>2018-04-15T08:08:51Z</time>
      </trkpt>
      <trkpt lat="43.8938" lon="7.73169">
        <ele>1007.371</ele>
        <time>2018-04-15T08:08:53Z</time>
      </trkpt>
      <trkpt lat="43.89377" lon="7.73172">
        <ele>1007.706</ele>
        <time>2018-04-15T08:08:56Z</time>
      </trkpt>
      <trkpt lat="43.89375" lon="7.73174">
        <ele>1008.073</ele>
        <time>2018-04-15T08:08:58Z</time>
      </trkpt>
      <trkpt lat="43.89372" lon="7.73176">
        <ele>1008.197</ele>
        <time>2018-04-15T08:09:00Z</time>
      </trkpt>
      <trkpt lat="43.8937" lon="7.7318">
        <ele>1008.595</ele>
        <time>2018-04-15T08:09:03Z</time>
      </trkpt>
      <trkpt lat="43.89367" lon="7.73181">
        <ele>1008.942</ele>
        <time>2018-04-15T08:09:05Z</time>
      </trkpt>
      <trkpt lat="43.89364" lon="7.73183">
        <ele>1009.4</ele>
        <time>2018-04-15T08:09:08Z</time>
      </trkpt>
      <trkpt lat="43.89362" lon="7.73186">
        <ele>1009.675</ele>
        <time>2018-04-15T08:09:11Z</time>
      </trkpt>
      <trkpt lat="43.89358" lon="7.73186">
        <ele>1009.784</ele>
        <time>2018-04-15T08:09:14Z</time>
      </trkpt>
      <trkpt lat="43.89351" lon="7.73187">
        <ele>1010.141</ele>
        <time>2018-04-15T08:09:17Z</time>
      </trkpt>
      <trkpt lat="43.89348" lon="7.73189">
        <ele>1010.451</ele>
        <time>2018-04-15T08:09:19Z</time>
      </trkpt>
      <trkpt lat="43.89344" lon="7.7319">
        <ele>1010.831</ele>
        <time>2018-04-15T08:09:21Z</time>
      </trkpt>
      <trkpt lat="43.89341" lon="7.73192">
        <ele>1011.461</ele>
        <time>2018-04-15T08:09:24Z</time>
      </trkpt>
      <trkpt lat="43.89338" lon="7.73194">
        <ele>1011.852</ele>
        <time>2018-04-15T08:09:26Z</time>
      </trkpt>
      <trkpt lat="43.89335" lon="7.73196">
        <ele>1012.218</ele>
        <time>2018-04-15T08:09:29Z</time>
      </trkpt>
      <trkpt lat="43.89331" lon="7.73196">
        <ele>1012.245</ele>
        <time>2018-04-15T08:09:31Z</time>
      </trkpt>
      <trkpt lat="43.89327" lon="7.73197">
        <ele>1012.443</ele>
        <time>2018-04-15T08:09:34Z</time>
      </trkpt>
      <trkpt lat="43.89323" lon="7.73198">
        <ele>1012.613</ele>
        <time>2018-04-15T08:09:37Z</time>
      </trkpt>
      <trkpt lat="43.8932" lon="7.732">
        <ele>1012.996</ele>
        <time>2018-04-15T08:09:40Z</time>
      </trkpt>
      <trkpt lat="43.89317" lon="7.73201">
        <ele>1013.414</ele>
        <time>2018-04-15T08:09:44Z</time>
      </trkpt>
      <trkpt lat="43.89314" lon="7.73202">
        <ele>1013.551</ele>
        <time>2018-04-15T08:09:46Z</time>
      </trkpt>
      <trkpt lat="43.89312" lon="7.73203">
        <ele>1013.789</ele>
        <time>2018-04-15T08:09:51Z</time>
      </trkpt>
      <trkpt lat="43.89309" lon="7.73203">
        <ele>1014.342</ele>
        <time>2018-04-15T08:09:55Z</time>
      </trkpt>
      <trkpt lat="43.89303" lon="7.73203">
        <ele>1015.128</ele>
        <time>2018-04-15T08:09:58Z</time>
      </trkpt>
      <trkpt lat="43.89299" lon="7.73204">
        <ele>1015.485</ele>
        <time>2018-04-15T08:10:00Z</time>
      </trkpt>
      <trkpt lat="43.89295" lon="7.73207">
        <ele>1015.961</ele>
        <time>2018-04-15T08:10:03Z</time>
      </trkpt>
      <trkpt lat="43.89293" lon="7.73208">
        <ele>1016.297</ele>
        <time>2018-04-15T08:10:05Z</time>
      </trkpt>
      <trkpt lat="43.8929" lon="7.7321">
        <ele>1017.255</ele>
        <time>2018-04-15T08:10:10Z</time>
      </trkpt>
      <trkpt lat="43.89285" lon="7.73211">
        <ele>1017.889</ele>
        <time>2018-04-15T08:10:13Z</time>
      </trkpt>
      <trkpt lat="43.89281" lon="7.73211">
        <ele>1017.989</ele>
        <time>2018-04-15T08:10:15Z</time>
      </trkpt>
      <trkpt lat="43.89277" lon="7.73211">
        <ele>1018.286</ele>
        <time>2018-04-15T08:10:17Z</time>
      </trkpt>
      <trkpt lat="43.89275" lon="7.73211">
        <ele>1018.545</ele>
        <time>2018-04-15T08:10:19Z</time>
      </trkpt>
      <trkpt lat="43.89272" lon="7.7321">
        <ele>1018.882</ele>
        <time>2018-04-15T08:10:21Z</time>
      </trkpt>
      <trkpt lat="43.89269" lon="7.73208">
        <ele>1019.54</ele>
        <time>2018-04-15T08:10:25Z</time>
      </trkpt>
      <trkpt lat="43.89265" lon="7.73209">
        <ele>1019.775</ele>
        <time>2018-04-15T08:10:27Z</time>
      </trkpt>
      <trkpt lat="43.89262" lon="7.73207">
        <ele>1020.086</ele>
        <time>2018-04-15T08:10:30Z</time>
      </trkpt>
      <trkpt lat="43.89259" lon="7.73207">
        <ele>1020.495</ele>
        <time>2018-04-15T08:10:34Z</time>
      </trkpt>
      <trkpt lat="43.89255" lon="7.73208">
        <ele>1021.018</ele>
        <time>2018-04-15T08:10:37Z</time>
      </trkpt>
      <trkpt lat="43.89251" lon="7.73211">
        <ele>1021.299</ele>
        <time>2018-04-15T08:10:39Z</time>
      </trkpt>
      <trkpt lat="43.89248" lon="7.73213">
        <ele>1021.597</ele>
        <time>2018-04-15T08:10:41Z</time>
      </trkpt>
      <trkpt lat="43.89244" lon="7.73215">
        <ele>1022.035</ele>
        <time>2018-04-15T08:10:43Z</time>
      </trkpt>
      <trkpt lat="43.89241" lon="7.73218">
        <ele>1022.359</ele>
        <time>2018-04-15T08:10:45Z</time>
      </trkpt>
      <trkpt lat="43.89239" lon="7.73219">
        <ele>1022.914</ele>
        <time>2018-04-15T08:10:48Z</time>
      </trkpt>
      <trkpt lat="43.89235" lon="7.73222">
        <ele>1023.786</ele>
        <time>2018-04-15T08:10:52Z</time>
      </trkpt>
      <trkpt lat="43.89233" lon="7.73224">
        <ele>1024.753</ele>
        <time>2018-04-15T08:10:55Z</time>
      </trkpt>
      <trkpt lat="43.89231" lon="7.73227">
        <ele>1025.981</ele>
        <time>2018-04-15T08:10:59Z</time>
      </trkpt>
      <trkpt lat="43.89227" lon="7.73228">
        <ele>1026.579</ele>
        <time>2018-04-15T08:11:01Z</time>
      </trkpt>
      <trkpt lat="43.89224" lon="7.73231">
        <ele>1026.934</ele>
        <time>2018-04-15T08:11:04Z</time>
      </trkpt>
      <trkpt lat="43.89222" lon="7.73233">
        <ele>1027.308</ele>
        <time>2018-04-15T08:11:06Z</time>
      </trkpt>
      <trkpt lat="43.89218" lon="7.73235">
        <ele>1027.543</ele>
        <time>2018-04-15T08:11:08Z</time>
      </trkpt>
      <trkpt lat="43.89215" lon="7.73235">
        <ele>1027.9</ele>
        <time>2018-04-15T08:11:10Z</time>
      </trkpt>
      <trkpt lat="43.89211" lon="7.73235">
        <ele>1028.156</ele>
        <time>2018-04-15T08:11:12Z</time>
      </trkpt>
      <trkpt lat="43.89206" lon="7.73234">
        <ele>1028.474</ele>
        <time>2018-04-15T08:11:14Z</time>
      </trkpt>
      <trkpt lat="43.89203" lon="7.73233">
        <ele>1029.378</ele>
        <time>2018-04-15T08:11:19Z</time>
      </trkpt>
      <trkpt lat="43.892" lon="7.7323">
        <ele>1029.795</ele>
        <time>2018-04-15T08:11:22Z</time>
      </trkpt>
      <trkpt lat="43.89197" lon="7.73229">
        <ele>1030.053</ele>
        <time>2018-04-15T08:11:24Z</time>
      </trkpt>
      <trkpt lat="43.89194" lon="7.73226">
        <ele>1030.618</ele>
        <time>2018-04-15T08:11:27Z</time>
      </trkpt>
      <trkpt lat="43.89191" lon="7.73223">
        <ele>1030.928</ele>
        <time>2018-04-15T08:11:29Z</time>
      </trkpt>
      <trkpt lat="43.89188" lon="7.73222">
        <ele>1031.12</ele>
        <time>2018-04-15T08:11:31Z</time>
      </trkpt>
      <trkpt lat="43.89185" lon="7.7322">
        <ele>1031.353</ele>
        <time>2018-04-15T08:11:33Z</time>
      </trkpt>
      <trkpt lat="43.89182" lon="7.73219">
        <ele>1031.607</ele>
        <time>2018-04-15T08:11:37Z</time>
      </trkpt>
      <trkpt lat="43.89179" lon="7.73217">
        <ele>1032.272</ele>
        <time>2018-04-15T08:11:42Z</time>
      </trkpt>
      <trkpt lat="43.89176" lon="7.73215">
        <ele>1033.034</ele>
        <time>2018-04-15T08:11:46Z</time>
      </trkpt>
      <trkpt lat="43.89173" lon="7.73215">
        <ele>1033.68</ele>
        <time>2018-04-15T08:11:50Z</time>
      </trkpt>
      <trkpt lat="43.8917" lon="7.73215">
        <ele>1034.304</ele>
        <time>2018-04-15T08:11:53Z</time>
      </trkpt>
      <trkpt lat="43.89166" lon="7.73213">
        <ele>1035.012</ele>
        <time>2018-04-15T08:11:56Z</time>
      </trkpt>
      <trkpt lat="43.89164" lon="7.73213">
        <ele>1035.722</ele>
        <time>2018-04-15T08:11:59Z</time>
      </trkpt>
      <trkpt lat="43.8916" lon="7.73211">
        <ele>1036.269</ele>
        <time>2018-04-15T08:12:02Z</time>
      </trkpt>
      <trkpt lat="43.89156" lon="7.7321">
        <ele>1036.362</ele>
        <time>2018-04-15T08:12:04Z</time>
      </trkpt>
      <trkpt lat="43.89154" lon="7.73211">
        <ele>1036.507</ele>
        <time>2018-04-15T08:12:06Z</time>
      </trkpt>
      <trkpt lat="43.8915" lon="7.73211">
        <ele>1036.777</ele>
        <time>2018-04-15T08:12:09Z</time>
      </trkpt>
      <trkpt lat="43.89148" lon="7.73208">
        <ele>1037</ele>
        <time>2018-04-15T08:12:12Z</time>
      </trkpt>
      <trkpt lat="43.89144" lon="7.73206">
        <ele>1037.319</ele>
        <time>2018-04-15T08:12:15Z</time>
      </trkpt>
      <trkpt lat="43.89141" lon="7.73205">
        <ele>1037.614</ele>
        <time>2018-04-15T08:12:18Z</time>
      </trkpt>
      <trkpt lat="43.89138" lon="7.73207">
        <ele>1038.225</ele>
        <time>2018-04-15T08:12:22Z</time>
      </trkpt>
      <trkpt lat="43.89133" lon="7.73206">
        <ele>1038.733</ele>
        <time>2018-04-15T08:12:26Z</time>
      </trkpt>
      <trkpt lat="43.8913" lon="7.73203">
        <ele>1039.179</ele>
        <time>2018-04-15T08:12:28Z</time>
      </trkpt>
      <trkpt lat="43.89127" lon="7.73202">
        <ele>1039.443</ele>
        <time>2018-04-15T08:12:30Z</time>
      </trkpt>
      <trkpt lat="43.89124" lon="7.732">
        <ele>1039.675</ele>
        <time>2018-04-15T08:12:33Z</time>
      </trkpt>
      <trkpt lat="43.8912" lon="7.732">
        <ele>1039.954</ele>
        <time>2018-04-15T08:12:35Z</time>
      </trkpt>
      <trkpt lat="43.89117" lon="7.732">
        <ele>1040.165</ele>
        <time>2018-04-15T08:12:38Z</time>
      </trkpt>
      <trkpt lat="43.89114" lon="7.73202">
        <ele>1040.381</ele>
        <time>2018-04-15T08:12:40Z</time>
      </trkpt>
      <trkpt lat="43.89111" lon="7.73201">
        <ele>1040.974</ele>
        <time>2018-04-15T08:12:43Z</time>
      </trkpt>
      <trkpt lat="43.89108" lon="7.73199">
        <ele>1041.51</ele>
        <time>2018-04-15T08:12:45Z</time>
      </trkpt>
      <trkpt lat="43.89101" lon="7.73199">
        <ele>1042.401</ele>
        <time>2018-04-15T08:12:49Z</time>
      </trkpt>
      <trkpt lat="43.89098" lon="7.73199">
        <ele>1042.867</ele>
        <time>2018-04-15T08:12:51Z</time>
      </trkpt>
      <trkpt lat="43.89096" lon="7.73199">
        <ele>1043.139</ele>
        <time>2018-04-15T08:12:53Z</time>
      </trkpt>
      <trkpt lat="43.89092" lon="7.73198">
        <ele>1043.676</ele>
        <time>2018-04-15T08:12:56Z</time>
      </trkpt>
      <trkpt lat="43.89088" lon="7.73198">
        <ele>1044.154</ele>
        <time>2018-04-15T08:12:58Z</time>
      </trkpt>
      <trkpt lat="43.89083" lon="7.73196">
        <ele>1044.589</ele>
        <time>2018-04-15T08:13:00Z</time>
      </trkpt>
      <trkpt lat="43.8908" lon="7.73195">
        <ele>1045.451</ele>
        <time>2018-04-15T08:13:04Z</time>
      </trkpt>
      <trkpt lat="43.89077" lon="7.73193">
        <ele>1047.066</ele>
        <time>2018-04-15T08:13:12Z</time>
      </trkpt>
      <trkpt lat="43.89074" lon="7.73192">
        <ele>1048.007</ele>
        <time>2018-04-15T08:13:16Z</time>
      </trkpt>
      <trkpt lat="43.89071" lon="7.73192">
        <ele>1048.813</ele>
        <time>2018-04-15T08:13:20Z</time>
      </trkpt>
      <trkpt lat="43.89068" lon="7.7319">
        <ele>1049.119</ele>
        <time>2018-04-15T08:13:22Z</time>
      </trkpt>
      <trkpt lat="43.89066" lon="7.73186">
        <ele>1049.649</ele>
        <time>2018-04-15T08:13:25Z</time>
      </trkpt>
      <trkpt lat="43.89061" lon="7.73186">
        <ele>1050.146</ele>
        <time>2018-04-15T08:13:28Z</time>
      </trkpt>
      <trkpt lat="43.89058" lon="7.73186">
        <ele>1050.51</ele>
        <time>2018-04-15T08:13:31Z</time>
      </trkpt>
      <trkpt lat="43.89055" lon="7.73188">
        <ele>1050.938</ele>
        <time>2018-04-15T08:13:33Z</time>
      </trkpt>
      <trkpt lat="43.89052" lon="7.73188">
        <ele>1051.315</ele>
        <time>2018-04-15T08:13:34Z</time>
      </trkpt>
      <trkpt lat="43.89048" lon="7.7319">
        <ele>1051.905</ele>
        <time>2018-04-15T08:13:38Z</time>
      </trkpt>
      <trkpt lat="43.89045" lon="7.73192">
        <ele>1052.455</ele>
        <time>2018-04-15T08:13:43Z</time>
      </trkpt>
      <trkpt lat="43.89042" lon="7.73192">
        <ele>1053.731</ele>
        <time>2018-04-15T08:13:48Z</time>
      </trkpt>
      <trkpt lat="43.89039" lon="7.73193">
        <ele>1054.555</ele>
        <time>2018-04-15T08:13:51Z</time>
      </trkpt>
      <trkpt lat="43.89036" lon="7.73196">
        <ele>1055.279</ele>
        <time>2018-04-15T08:13:56Z</time>
      </trkpt>
      <trkpt lat="43.89031" lon="7.732">
        <ele>1055.796</ele>
        <time>2018-04-15T08:13:59Z</time>
      </trkpt>
      <trkpt lat="43.89027" lon="7.73201">
        <ele>1056.556</ele>
        <time>2018-04-15T08:14:02Z</time>
      </trkpt>
      <trkpt lat="43.89024" lon="7.73202">
        <ele>1056.845</ele>
        <time>2018-04-15T08:14:03Z</time>
      </trkpt>
      <trkpt lat="43.8902" lon="7.73204">
        <ele>1057.638</ele>
        <time>2018-04-15T08:14:06Z</time>
      </trkpt>
      <trkpt lat="43.89016" lon="7.73206">
        <ele>1057.92</ele>
        <time>2018-04-15T08:14:08Z</time>
      </trkpt>
      <trkpt lat="43.89013" lon="7.73205">
        <ele>1058.328</ele>
        <time>2018-04-15T08:14:11Z</time>
      </trkpt>
      <trkpt lat="43.8901" lon="7.73205">
        <ele>1059.175</ele>
        <time>2018-04-15T08:14:15Z</time>
      </trkpt>
      <trkpt lat="43.89007" lon="7.73204">
        <ele>1059.708</ele>
        <time>2018-04-15T08:14:18Z</time>
      </trkpt>
      <trkpt lat="43.89004" lon="7.73205">
        <ele>1060.179</ele>
        <time>2018-04-15T08:14:21Z</time>
      </trkpt>
      <trkpt lat="43.89001" lon="7.73206">
        <ele>1060.594</ele>
        <time>2018-04-15T08:14:24Z</time>
      </trkpt>
      <trkpt lat="43.88997" lon="7.73208">
        <ele>1061.06</ele>
        <time>2018-04-15T08:14:27Z</time>
      </trkpt>
      <trkpt lat="43.88994" lon="7.73208">
        <ele>1061.879</ele>
        <time>2018-04-15T08:14:30Z</time>
      </trkpt>
      <trkpt lat="43.88989" lon="7.73207">
        <ele>1062.507</ele>
        <time>2018-04-15T08:14:33Z</time>
      </trkpt>
      <trkpt lat="43.88986" lon="7.73204">
        <ele>1062.92</ele>
        <time>2018-04-15T08:14:35Z</time>
      </trkpt>
      <trkpt lat="43.88985" lon="7.732">
        <ele>1063.298</ele>
        <time>2018-04-15T08:14:37Z</time>
      </trkpt>
      <trkpt lat="43.88981" lon="7.73197">
        <ele>1063.74</ele>
        <time>2018-04-15T08:14:39Z</time>
      </trkpt>
      <trkpt lat="43.88979" lon="7.73194">
        <ele>1064.73</ele>
        <time>2018-04-15T08:14:43Z</time>
      </trkpt>
      <trkpt lat="43.88977" lon="7.7319">
        <ele>1065.383</ele>
        <time>2018-04-15T08:14:46Z</time>
      </trkpt>
      <trkpt lat="43.88974" lon="7.73186">
        <ele>1065.595</ele>
        <time>2018-04-15T08:14:48Z</time>
      </trkpt>
      <trkpt lat="43.88972" lon="7.73182">
        <ele>1066.2</ele>
        <time>2018-04-15T08:14:52Z</time>
      </trkpt>
      <trkpt lat="43.8897" lon="7.73179">
        <ele>1066.71</ele>
        <time>2018-04-15T08:14:55Z</time>
      </trkpt>
      <trkpt lat="43.88967" lon="7.73176">
        <ele>1067.474</ele>
        <time>2018-04-15T08:14:58Z</time>
      </trkpt>
      <trkpt lat="43.88964" lon="7.73173">
        <ele>1068.598</ele>
        <time>2018-04-15T08:15:02Z</time>
      </trkpt>
      <trkpt lat="43.88961" lon="7.73169">
        <ele>1069.661</ele>
        <time>2018-04-15T08:15:05Z</time>
      </trkpt>
      <trkpt lat="43.88959" lon="7.73166">
        <ele>1070.498</ele>
        <time>2018-04-15T08:15:08Z</time>
      </trkpt>
      <trkpt lat="43.88956" lon="7.73167">
        <ele>1070.878</ele>
        <time>2018-04-15T08:15:10Z</time>
      </trkpt>
      <trkpt lat="43.88952" lon="7.73167">
        <ele>1071.382</ele>
        <time>2018-04-15T08:15:13Z</time>
      </trkpt>
      <trkpt lat="43.88949" lon="7.73168">
        <ele>1071.705</ele>
        <time>2018-04-15T08:15:16Z</time>
      </trkpt>
      <trkpt lat="43.88945" lon="7.73167">
        <ele>1071.895</ele>
        <time>2018-04-15T08:15:18Z</time>
      </trkpt>
      <trkpt lat="43.88941" lon="7.73167">
        <ele>1072.516</ele>
        <time>2018-04-15T08:15:23Z</time>
      </trkpt>
      <trkpt lat="43.88939" lon="7.73165">
        <ele>1072.648</ele>
        <time>2018-04-15T08:15:26Z</time>
      </trkpt>
      <trkpt lat="43.88936" lon="7.73165">
        <ele>1072.768</ele>
        <time>2018-04-15T08:15:31Z</time>
      </trkpt>
      <trkpt lat="43.88932" lon="7.73164">
        <ele>1072.745</ele>
        <time>2018-04-15T08:15:34Z</time>
      </trkpt>
      <trkpt lat="43.88929" lon="7.73165">
        <ele>1072.731</ele>
        <time>2018-04-15T08:15:36Z</time>
      </trkpt>
      <trkpt lat="43.88926" lon="7.73162">
        <ele>1072.433</ele>
        <time>2018-04-15T08:15:40Z</time>
      </trkpt>
      <trkpt lat="43.88924" lon="7.73158">
        <ele>1072.351</ele>
        <time>2018-04-15T08:15:42Z</time>
      </trkpt>
      <trkpt lat="43.8892" lon="7.73152">
        <ele>1072.313</ele>
        <time>2018-04-15T08:15:47Z</time>
      </trkpt>
      <trkpt lat="43.88914" lon="7.73149">
        <ele>1072.141</ele>
        <time>2018-04-15T08:15:50Z</time>
      </trkpt>
      <trkpt lat="43.8891" lon="7.73148">
        <ele>1072.066</ele>
        <time>2018-04-15T08:15:52Z</time>
      </trkpt>
      <trkpt lat="43.88907" lon="7.73145">
        <ele>1072.477</ele>
        <time>2018-04-15T08:15:56Z</time>
      </trkpt>
      <trkpt lat="43.88905" lon="7.73142">
        <ele>1073.051</ele>
        <time>2018-04-15T08:16:00Z</time>
      </trkpt>
      <trkpt lat="43.88901" lon="7.73143">
        <ele>1073.569</ele>
        <time>2018-04-15T08:16:05Z</time>
      </trkpt>
      <trkpt lat="43.88897" lon="7.73143">
        <ele>1073.699</ele>
        <time>2018-04-15T08:16:08Z</time>
      </trkpt>
      <trkpt lat="43.88894" lon="7.73141">
        <ele>1073.785</ele>
        <time>2018-04-15T08:16:11Z</time>
      </trkpt>
      <trkpt lat="43.88889" lon="7.7314">
        <ele>1073.808</ele>
        <time>2018-04-15T08:16:12Z</time>
      </trkpt>
      <trkpt lat="43.88883" lon="7.73139">
        <ele>1073.731</ele>
        <time>2018-04-15T08:16:14Z</time>
      </trkpt>
      <trkpt lat="43.88878" lon="7.73141">
        <ele>1073.493</ele>
        <time>2018-04-15T08:16:17Z</time>
      </trkpt>
      <trkpt lat="43.88874" lon="7.73143">
        <ele>1073.504</ele>
        <time>2018-04-15T08:16:19Z</time>
      </trkpt>
      <trkpt lat="43.8887" lon="7.73144">
        <ele>1073.719</ele>
        <time>2018-04-15T08:16:22Z</time>
      </trkpt>
      <trkpt lat="43.88866" lon="7.73147">
        <ele>1073.71</ele>
        <time>2018-04-15T08:16:24Z</time>
      </trkpt>
      <trkpt lat="43.88862" lon="7.73147">
        <ele>1073.761</ele>
        <time>2018-04-15T08:16:26Z</time>
      </trkpt>
      <trkpt lat="43.88855" lon="7.73151">
        <ele>1073.908</ele>
        <time>2018-04-15T08:16:29Z</time>
      </trkpt>
      <trkpt lat="43.8885" lon="7.73152">
        <ele>1074.045</ele>
        <time>2018-04-15T08:16:31Z</time>
      </trkpt>
      <trkpt lat="43.88847" lon="7.73153">
        <ele>1074.122</ele>
        <time>2018-04-15T08:16:33Z</time>
      </trkpt>
      <trkpt lat="43.88845" lon="7.73158">
        <ele>1074.265</ele>
        <time>2018-04-15T08:16:36Z</time>
      </trkpt>
      <trkpt lat="43.88842" lon="7.7316">
        <ele>1074.503</ele>
        <time>2018-04-15T08:16:39Z</time>
      </trkpt>
      <trkpt lat="43.8884" lon="7.73164">
        <ele>1074.729</ele>
        <time>2018-04-15T08:16:41Z</time>
      </trkpt>
      <trkpt lat="43.88836" lon="7.73168">
        <ele>1074.809</ele>
        <time>2018-04-15T08:16:43Z</time>
      </trkpt>
      <trkpt lat="43.88834" lon="7.73171">
        <ele>1074.772</ele>
        <time>2018-04-15T08:16:45Z</time>
      </trkpt>
      <trkpt lat="43.88831" lon="7.73175">
        <ele>1074.848</ele>
        <time>2018-04-15T08:16:47Z</time>
      </trkpt>
      <trkpt lat="43.88829" lon="7.73179">
        <ele>1074.909</ele>
        <time>2018-04-15T08:16:50Z</time>
      </trkpt>
      <trkpt lat="43.88827" lon="7.73182">
        <ele>1074.638</ele>
        <time>2018-04-15T08:16:53Z</time>
      </trkpt>
      <trkpt lat="43.88825" lon="7.73184">
        <ele>1074.463</ele>
        <time>2018-04-15T08:16:56Z</time>
      </trkpt>
      <trkpt lat="43.88821" lon="7.73186">
        <ele>1074.525</ele>
        <time>2018-04-15T08:16:58Z</time>
      </trkpt>
      <trkpt lat="43.88819" lon="7.7319">
        <ele>1074.572</ele>
        <time>2018-04-15T08:17:01Z</time>
      </trkpt>
      <trkpt lat="43.88815" lon="7.73191">
        <ele>1074.438</ele>
        <time>2018-04-15T08:17:03Z</time>
      </trkpt>
      <trkpt lat="43.88812" lon="7.73192">
        <ele>1074.29</ele>
        <time>2018-04-15T08:17:05Z</time>
      </trkpt>
      <trkpt lat="43.88809" lon="7.73195">
        <ele>1074.068</ele>
        <time>2018-04-15T08:17:09Z</time>
      </trkpt>
      <trkpt lat="43.88807" lon="7.73199">
        <ele>1073.612</ele>
        <time>2018-04-15T08:17:12Z</time>
      </trkpt>
      <trkpt lat="43.88803" lon="7.73202">
        <ele>1073.302</ele>
        <time>2018-04-15T08:17:14Z</time>
      </trkpt>
      <trkpt lat="43.88801" lon="7.73204">
        <ele>1073.165</ele>
        <time>2018-04-15T08:17:17Z</time>
      </trkpt>
      <trkpt lat="43.88794" lon="7.73206">
        <ele>1073.356</ele>
        <time>2018-04-15T08:17:20Z</time>
      </trkpt>
      <trkpt lat="43.8879" lon="7.73205">
        <ele>1073.353</ele>
        <time>2018-04-15T08:17:22Z</time>
      </trkpt>
      <trkpt lat="43.88787" lon="7.73203">
        <ele>1073.363</ele>
        <time>2018-04-15T08:17:24Z</time>
      </trkpt>
      <trkpt lat="43.88784" lon="7.73201">
        <ele>1073.6</ele>
        <time>2018-04-15T08:17:28Z</time>
      </trkpt>
      <trkpt lat="43.88781" lon="7.732">
        <ele>1073.681</ele>
        <time>2018-04-15T08:17:30Z</time>
      </trkpt>
      <trkpt lat="43.88778" lon="7.73198">
        <ele>1073.823</ele>
        <time>2018-04-15T08:17:34Z</time>
      </trkpt>
      <trkpt lat="43.88774" lon="7.73199">
        <ele>1073.888</ele>
        <time>2018-04-15T08:17:36Z</time>
      </trkpt>
      <trkpt lat="43.88771" lon="7.73201">
        <ele>1073.796</ele>
        <time>2018-04-15T08:17:39Z</time>
      </trkpt>
      <trkpt lat="43.88765" lon="7.73198">
        <ele>1073.516</ele>
        <time>2018-04-15T08:17:42Z</time>
      </trkpt>
      <trkpt lat="43.88758" lon="7.73198">
        <ele>1073.288</ele>
        <time>2018-04-15T08:17:44Z</time>
      </trkpt>
      <trkpt lat="43.88755" lon="7.732">
        <ele>1073.183</ele>
        <time>2018-04-15T08:17:47Z</time>
      </trkpt>
      <trkpt lat="43.88752" lon="7.73201">
        <ele>1072.982</ele>
        <time>2018-04-15T08:17:52Z</time>
      </trkpt>
      <trkpt lat="43.88749" lon="7.73203">
        <ele>1073.132</ele>
        <time>2018-04-15T08:17:55Z</time>
      </trkpt>
      <trkpt lat="43.88742" lon="7.73207">
        <ele>1073.233</ele>
        <time>2018-04-15T08:17:57Z</time>
      </trkpt>
      <trkpt lat="43.88739" lon="7.73209">
        <ele>1073.318</ele>
        <time>2018-04-15T08:17:59Z</time>
      </trkpt>
      <trkpt lat="43.88736" lon="7.7321">
        <ele>1073.321</ele>
        <time>2018-04-15T08:18:02Z</time>
      </trkpt>
      <trkpt lat="43.88731" lon="7.73213">
        <ele>1073.348</ele>
        <time>2018-04-15T08:18:05Z</time>
      </trkpt>
      <trkpt lat="43.88727" lon="7.73215">
        <ele>1073.311</ele>
        <time>2018-04-15T08:18:07Z</time>
      </trkpt>
      <trkpt lat="43.88721" lon="7.73215">
        <ele>1073.369</ele>
        <time>2018-04-15T08:18:10Z</time>
      </trkpt>
      <trkpt lat="43.88716" lon="7.73215">
        <ele>1073.503</ele>
        <time>2018-04-15T08:18:12Z</time>
      </trkpt>
      <trkpt lat="43.8871" lon="7.73218">
        <ele>1073.743</ele>
        <time>2018-04-15T08:18:15Z</time>
      </trkpt>
      <trkpt lat="43.88706" lon="7.73219">
        <ele>1073.741</ele>
        <time>2018-04-15T08:18:17Z</time>
      </trkpt>
      <trkpt lat="43.88703" lon="7.73219">
        <ele>1073.847</ele>
        <time>2018-04-15T08:18:19Z</time>
      </trkpt>
      <trkpt lat="43.88699" lon="7.73219">
        <ele>1073.906</ele>
        <time>2018-04-15T08:18:21Z</time>
      </trkpt>
      <trkpt lat="43.88695" lon="7.73218">
        <ele>1073.919</ele>
        <time>2018-04-15T08:18:23Z</time>
      </trkpt>
      <trkpt lat="43.8869" lon="7.73217">
        <ele>1073.939</ele>
        <time>2018-04-15T08:18:25Z</time>
      </trkpt>
      <trkpt lat="43.88687" lon="7.73217">
        <ele>1073.975</ele>
        <time>2018-04-15T08:18:28Z</time>
      </trkpt>
      <trkpt lat="43.88684" lon="7.73214">
        <ele>1073.854</ele>
        <time>2018-04-15T08:18:30Z</time>
      </trkpt>
      <trkpt lat="43.8868" lon="7.73213">
        <ele>1073.546</ele>
        <time>2018-04-15T08:18:34Z</time>
      </trkpt>
      <trkpt lat="43.88677" lon="7.73214">
        <ele>1073.549</ele>
        <time>2018-04-15T08:18:36Z</time>
      </trkpt>
      <trkpt lat="43.88674" lon="7.73215">
        <ele>1073.622</ele>
        <time>2018-04-15T08:18:38Z</time>
      </trkpt>
      <trkpt lat="43.88671" lon="7.73216">
        <ele>1073.66</ele>
        <time>2018-04-15T08:18:41Z</time>
      </trkpt>
      <trkpt lat="43.88667" lon="7.73217">
        <ele>1073.823</ele>
        <time>2018-04-15T08:18:44Z</time>
      </trkpt>
      <trkpt lat="43.88664" lon="7.73216">
        <ele>1074.158</ele>
        <time>2018-04-15T08:18:48Z</time>
      </trkpt>
      <trkpt lat="43.88659" lon="7.73217">
        <ele>1074.426</ele>
        <time>2018-04-15T08:18:50Z</time>
      </trkpt>
      <trkpt lat="43.88652" lon="7.73218">
        <ele>1075.015</ele>
        <time>2018-04-15T08:18:54Z</time>
      </trkpt>
      <trkpt lat="43.88648" lon="7.73218">
        <ele>1075.25</ele>
        <time>2018-04-15T08:18:56Z</time>
      </trkpt>
      <trkpt lat="43.88644" lon="7.73216">
        <ele>1075.601</ele>
        <time>2018-04-15T08:18:59Z</time>
      </trkpt>
      <trkpt lat="43.8864" lon="7.73218">
        <ele>1075.975</ele>
        <time>2018-04-15T08:19:02Z</time>
      </trkpt>
      <trkpt lat="43.88635" lon="7.73218">
        <ele>1076.295</ele>
        <time>2018-04-15T08:19:05Z</time>
      </trkpt>
      <trkpt lat="43.88627" lon="7.73214">
        <ele>1076.696</ele>
        <time>2018-04-15T08:19:10Z</time>
      </trkpt>
      <trkpt lat="43.88624" lon="7.73214">
        <ele>1076.905</ele>
        <time>2018-04-15T08:19:13Z</time>
      </trkpt>
      <trkpt lat="43.88621" lon="7.73214">
        <ele>1077.045</ele>
        <time>2018-04-15T08:19:16Z</time>
      </trkpt>
      <trkpt lat="43.88618" lon="7.73213">
        <ele>1077.211</ele>
        <time>2018-04-15T08:19:18Z</time>
      </trkpt>
      <trkpt lat="43.88614" lon="7.73214">
        <ele>1077.665</ele>
        <time>2018-04-15T08:19:21Z</time>
      </trkpt>
      <trkpt lat="43.88611" lon="7.73213">
        <ele>1077.94</ele>
        <time>2018-04-15T08:19:23Z</time>
      </trkpt>
      <trkpt lat="43.88608" lon="7.73212">
        <ele>1078.378</ele>
        <time>2018-04-15T08:19:28Z</time>
      </trkpt>
      <trkpt lat="43.886" lon="7.73211">
        <ele>1078.421</ele>
        <time>2018-04-15T08:19:32Z</time>
      </trkpt>
      <trkpt lat="43.88597" lon="7.7321">
        <ele>1078.868</ele>
        <time>2018-04-15T08:19:36Z</time>
      </trkpt>
      <trkpt lat="43.8859" lon="7.73212">
        <ele>1079.31</ele>
        <time>2018-04-15T08:19:40Z</time>
      </trkpt>
      <trkpt lat="43.88586" lon="7.73214">
        <ele>1079.568</ele>
        <time>2018-04-15T08:19:42Z</time>
      </trkpt>
      <trkpt lat="43.88579" lon="7.73214">
        <ele>1079.724</ele>
        <time>2018-04-15T08:19:45Z</time>
      </trkpt>
      <trkpt lat="43.88576" lon="7.73213">
        <ele>1079.747</ele>
        <time>2018-04-15T08:19:46Z</time>
      </trkpt>
      <trkpt lat="43.88574" lon="7.73212">
        <ele>1079.692</ele>
        <time>2018-04-15T08:19:48Z</time>
      </trkpt>
      <trkpt lat="43.88569" lon="7.73212">
        <ele>1079.767</ele>
        <time>2018-04-15T08:19:50Z</time>
      </trkpt>
      <trkpt lat="43.88566" lon="7.73209">
        <ele>1079.865</ele>
        <time>2018-04-15T08:19:53Z</time>
      </trkpt>
      <trkpt lat="43.88564" lon="7.73205">
        <ele>1079.751</ele>
        <time>2018-04-15T08:19:56Z</time>
      </trkpt>
      <trkpt lat="43.88559" lon="7.73203">
        <ele>1079.583</ele>
        <time>2018-04-15T08:19:58Z</time>
      </trkpt>
      <trkpt lat="43.88555" lon="7.73202">
        <ele>1079.467</ele>
        <time>2018-04-15T08:20:00Z</time>
      </trkpt>
      <trkpt lat="43.88552" lon="7.732">
        <ele>1079.296</ele>
        <time>2018-04-15T08:20:03Z</time>
      </trkpt>
      <trkpt lat="43.88549" lon="7.73199">
        <ele>1079.348</ele>
        <time>2018-04-15T08:20:07Z</time>
      </trkpt>
      <trkpt lat="43.88544" lon="7.73198">
        <ele>1079.455</ele>
        <time>2018-04-15T08:20:10Z</time>
      </trkpt>
      <trkpt lat="43.88539" lon="7.73196">
        <ele>1079.441</ele>
        <time>2018-04-15T08:20:12Z</time>
      </trkpt>
      <trkpt lat="43.88535" lon="7.73194">
        <ele>1079.498</ele>
        <time>2018-04-15T08:20:15Z</time>
      </trkpt>
      <trkpt lat="43.88532" lon="7.73192">
        <ele>1079.644</ele>
        <time>2018-04-15T08:20:17Z</time>
      </trkpt>
      <trkpt lat="43.88528" lon="7.73191">
        <ele>1079.751</ele>
        <time>2018-04-15T08:20:19Z</time>
      </trkpt>
      <trkpt lat="43.88522" lon="7.73192">
        <ele>1079.951</ele>
        <time>2018-04-15T08:20:22Z</time>
      </trkpt>
      <trkpt lat="43.88515" lon="7.73193">
        <ele>1080.204</ele>
        <time>2018-04-15T08:20:25Z</time>
      </trkpt>
      <trkpt lat="43.8851" lon="7.73193">
        <ele>1080.235</ele>
        <time>2018-04-15T08:20:27Z</time>
      </trkpt>
      <trkpt lat="43.88505" lon="7.73194">
        <ele>1080.282</ele>
        <time>2018-04-15T08:20:29Z</time>
      </trkpt>
      <trkpt lat="43.88502" lon="7.73194">
        <ele>1080.376</ele>
        <time>2018-04-15T08:20:33Z</time>
      </trkpt>
      <trkpt lat="43.88499" lon="7.73195">
        <ele>1080.4</ele>
        <time>2018-04-15T08:20:35Z</time>
      </trkpt>
      <trkpt lat="43.88495" lon="7.73193">
        <ele>1080.277</ele>
        <time>2018-04-15T08:20:38Z</time>
      </trkpt>
      <trkpt lat="43.88493" lon="7.73191">
        <ele>1080.063</ele>
        <time>2018-04-15T08:20:40Z</time>
      </trkpt>
      <trkpt lat="43.88489" lon="7.7319">
        <ele>1079.924</ele>
        <time>2018-04-15T08:20:42Z</time>
      </trkpt>
      <trkpt lat="43.88485" lon="7.7319">
        <ele>1079.789</ele>
        <time>2018-04-15T08:20:44Z</time>
      </trkpt>
      <trkpt lat="43.88482" lon="7.7319">
        <ele>1079.76</ele>
        <time>2018-04-15T08:20:46Z</time>
      </trkpt>
      <trkpt lat="43.8848" lon="7.73189">
        <ele>1079.557</ele>
        <time>2018-04-15T08:20:49Z</time>
      </trkpt>
      <trkpt lat="43.88474" lon="7.73187">
        <ele>1079.299</ele>
        <time>2018-04-15T08:20:51Z</time>
      </trkpt>
      <trkpt lat="43.88471" lon="7.73186">
        <ele>1079.091</ele>
        <time>2018-04-15T08:20:53Z</time>
      </trkpt>
      <trkpt lat="43.88467" lon="7.73184">
        <ele>1079.057</ele>
        <time>2018-04-15T08:20:56Z</time>
      </trkpt>
      <trkpt lat="43.88464" lon="7.73182">
        <ele>1079.05</ele>
        <time>2018-04-15T08:20:58Z</time>
      </trkpt>
      <trkpt lat="43.88461" lon="7.73181">
        <ele>1078.981</ele>
        <time>2018-04-15T08:21:01Z</time>
      </trkpt>
      <trkpt lat="43.88459" lon="7.7318">
        <ele>1078.834</ele>
        <time>2018-04-15T08:21:04Z</time>
      </trkpt>
      <trkpt lat="43.88455" lon="7.73179">
        <ele>1078.641</ele>
        <time>2018-04-15T08:21:07Z</time>
      </trkpt>
      <trkpt lat="43.8845" lon="7.7318">
        <ele>1078.52</ele>
        <time>2018-04-15T08:21:09Z</time>
      </trkpt>
      <trkpt lat="43.88445" lon="7.73181">
        <ele>1078.102</ele>
        <time>2018-04-15T08:21:12Z</time>
      </trkpt>
      <trkpt lat="43.88441" lon="7.73181">
        <ele>1077.884</ele>
        <time>2018-04-15T08:21:14Z</time>
      </trkpt>
      <trkpt lat="43.88437" lon="7.73181">
        <ele>1077.928</ele>
        <time>2018-04-15T08:21:16Z</time>
      </trkpt>
      <trkpt lat="43.88433" lon="7.73183">
        <ele>1077.857</ele>
        <time>2018-04-15T08:21:18Z</time>
      </trkpt>
      <trkpt lat="43.8843" lon="7.73184">
        <ele>1077.467</ele>
        <time>2018-04-15T08:21:22Z</time>
      </trkpt>
      <trkpt lat="43.88428" lon="7.73186">
        <ele>1077.01</ele>
        <time>2018-04-15T08:21:25Z</time>
      </trkpt>
      <trkpt lat="43.88425" lon="7.73187">
        <ele>1076.849</ele>
        <time>2018-04-15T08:21:27Z</time>
      </trkpt>
      <trkpt lat="43.88421" lon="7.73187">
        <ele>1076.772</ele>
        <time>2018-04-15T08:21:29Z</time>
      </trkpt>
      <trkpt lat="43.88416" lon="7.73186">
        <ele>1076.647</ele>
        <time>2018-04-15T08:21:32Z</time>
      </trkpt>
      <trkpt lat="43.88412" lon="7.73186">
        <ele>1076.499</ele>
        <time>2018-04-15T08:21:34Z</time>
      </trkpt>
      <trkpt lat="43.88409" lon="7.73186">
        <ele>1076.298</ele>
        <time>2018-04-15T08:21:37Z</time>
      </trkpt>
      <trkpt lat="43.88406" lon="7.73187">
        <ele>1076.181</ele>
        <time>2018-04-15T08:21:39Z</time>
      </trkpt>
      <trkpt lat="43.88403" lon="7.73186">
        <ele>1076.045</ele>
        <time>2018-04-15T08:21:42Z</time>
      </trkpt>
      <trkpt lat="43.88399" lon="7.73185">
        <ele>1075.836</ele>
        <time>2018-04-15T08:21:44Z</time>
      </trkpt>
      <trkpt lat="43.88394" lon="7.73187">
        <ele>1075.516</ele>
        <time>2018-04-15T08:21:46Z</time>
      </trkpt>
      <trkpt lat="43.88391" lon="7.73189">
        <ele>1075.302</ele>
        <time>2018-04-15T08:21:48Z</time>
      </trkpt>
      <trkpt lat="43.88388" lon="7.73191">
        <ele>1075.073</ele>
        <time>2018-04-15T08:21:51Z</time>
      </trkpt>
      <trkpt lat="43.88385" lon="7.73194">
        <ele>1074.625</ele>
        <time>2018-04-15T08:21:54Z</time>
      </trkpt>
      <trkpt lat="43.88383" lon="7.73198">
        <ele>1074.546</ele>
        <time>2018-04-15T08:21:57Z</time>
      </trkpt>
      <trkpt lat="43.8838" lon="7.73201">
        <ele>1074.544</ele>
        <time>2018-04-15T08:22:01Z</time>
      </trkpt>
      <trkpt lat="43.88377" lon="7.73203">
        <ele>1074.545</ele>
        <time>2018-04-15T08:22:03Z</time>
      </trkpt>
      <trkpt lat="43.88375" lon="7.73206">
        <ele>1074.417</ele>
        <time>2018-04-15T08:22:05Z</time>
      </trkpt>
      <trkpt lat="43.88373" lon="7.73208">
        <ele>1074.366</ele>
        <time>2018-04-15T08:22:07Z</time>
      </trkpt>
      <trkpt lat="43.8837" lon="7.73208">
        <ele>1074.375</ele>
        <time>2018-04-15T08:22:09Z</time>
      </trkpt>
      <trkpt lat="43.88367" lon="7.73209">
        <ele>1074.369</ele>
        <time>2018-04-15T08:22:11Z</time>
      </trkpt>
      <trkpt lat="43.88363" lon="7.7321">
        <ele>1074.188</ele>
        <time>2018-04-15T08:22:15Z</time>
      </trkpt>
      <trkpt lat="43.88358" lon="7.73214">
        <ele>1074.055</ele>
        <time>2018-04-15T08:22:18Z</time>
      </trkpt>
      <trkpt lat="43.88354" lon="7.73215">
        <ele>1073.964</ele>
        <time>2018-04-15T08:22:20Z</time>
      </trkpt>
      <trkpt lat="43.88352" lon="7.73218">
        <ele>1073.819</ele>
        <time>2018-04-15T08:22:24Z</time>
      </trkpt>
      <trkpt lat="43.88351" lon="7.73221">
        <ele>1073.609</ele>
        <time>2018-04-15T08:22:26Z</time>
      </trkpt>
      <trkpt lat="43.88348" lon="7.73225">
        <ele>1073.547</ele>
        <time>2018-04-15T08:22:34Z</time>
      </trkpt>
      <trkpt lat="43.88347" lon="7.7323">
        <ele>1073.369</ele>
        <time>2018-04-15T08:22:38Z</time>
      </trkpt>
      <trkpt lat="43.88346" lon="7.73234">
        <ele>1073.352</ele>
        <time>2018-04-15T08:22:42Z</time>
      </trkpt>
      <trkpt lat="43.88345" lon="7.73237">
        <ele>1073.326</ele>
        <time>2018-04-15T08:22:44Z</time>
      </trkpt>
      <trkpt lat="43.88343" lon="7.73241">
        <ele>1073.136</ele>
        <time>2018-04-15T08:22:55Z</time>
      </trkpt>
      <trkpt lat="43.88342" lon="7.73245">
        <ele>1072.977</ele>
        <time>2018-04-15T08:22:58Z</time>
      </trkpt>
      <trkpt lat="43.88341" lon="7.73249">
        <ele>1073.186</ele>
        <time>2018-04-15T08:23:01Z</time>
      </trkpt>
      <trkpt lat="43.8834" lon="7.73254">
        <ele>1073.597</ele>
        <time>2018-04-15T08:23:05Z</time>
      </trkpt>
      <trkpt lat="43.8834" lon="7.73259">
        <ele>1073.624</ele>
        <time>2018-04-15T08:23:07Z</time>
      </trkpt>
      <trkpt lat="43.88339" lon="7.73263">
        <ele>1073.613</ele>
        <time>2018-04-15T08:23:10Z</time>
      </trkpt>
      <trkpt lat="43.88341" lon="7.7327">
        <ele>1073.639</ele>
        <time>2018-04-15T08:23:11Z</time>
      </trkpt>
      <trkpt lat="43.88342" lon="7.73274">
        <ele>1073.981</ele>
        <time>2018-04-15T08:23:14Z</time>
      </trkpt>
      <trkpt lat="43.88341" lon="7.73279">
        <ele>1074.462</ele>
        <time>2018-04-15T08:23:17Z</time>
      </trkpt>
      <trkpt lat="43.88341" lon="7.73283">
        <ele>1075.111</ele>
        <time>2018-04-15T08:23:20Z</time>
      </trkpt>
      <trkpt lat="43.88341" lon="7.73288">
        <ele>1075.712</ele>
        <time>2018-04-15T08:23:22Z</time>
      </trkpt>
      <trkpt lat="43.88341" lon="7.73293">
        <ele>1076.346</ele>
        <time>2018-04-15T08:23:24Z</time>
      </trkpt>
      <trkpt lat="43.88341" lon="7.73298">
        <ele>1076.967</ele>
        <time>2018-04-15T08:23:28Z</time>
      </trkpt>
      <trkpt lat="43.88342" lon="7.73303">
        <ele>1077.4</ele>
        <time>2018-04-15T08:23:31Z</time>
      </trkpt>
      <trkpt lat="43.88343" lon="7.73308">
        <ele>1077.857</ele>
        <time>2018-04-15T08:23:34Z</time>
      </trkpt>
      <trkpt lat="43.88345" lon="7.73313">
        <ele>1078.375</ele>
        <time>2018-04-15T08:23:37Z</time>
      </trkpt>
      <trkpt lat="43.88346" lon="7.73317">
        <ele>1078.896</ele>
        <time>2018-04-15T08:23:40Z</time>
      </trkpt>
      <trkpt lat="43.88346" lon="7.73326">
        <ele>1079.319</ele>
        <time>2018-04-15T08:23:43Z</time>
      </trkpt>
      <trkpt lat="43.88347" lon="7.7333">
        <ele>1079.936</ele>
        <time>2018-04-15T08:23:46Z</time>
      </trkpt>
      <trkpt lat="43.88345" lon="7.73335">
        <ele>1080.562</ele>
        <time>2018-04-15T08:23:49Z</time>
      </trkpt>
      <trkpt lat="43.88346" lon="7.73341">
        <ele>1081.005</ele>
        <time>2018-04-15T08:23:51Z</time>
      </trkpt>
      <trkpt lat="43.88347" lon="7.73344">
        <ele>1081.388</ele>
        <time>2018-04-15T08:23:53Z</time>
      </trkpt>
      <trkpt lat="43.88346" lon="7.7335">
        <ele>1081.932</ele>
        <time>2018-04-15T08:23:56Z</time>
      </trkpt>
      <trkpt lat="43.88348" lon="7.73354">
        <ele>1082.346</ele>
        <time>2018-04-15T08:24:00Z</time>
      </trkpt>
      <trkpt lat="43.88348" lon="7.73359">
        <ele>1082.45</ele>
        <time>2018-04-15T08:24:02Z</time>
      </trkpt>
      <trkpt lat="43.88348" lon="7.73364">
        <ele>1082.563</ele>
        <time>2018-04-15T08:24:04Z</time>
      </trkpt>
      <trkpt lat="43.88348" lon="7.73371">
        <ele>1082.587</ele>
        <time>2018-04-15T08:24:06Z</time>
      </trkpt>
      <trkpt lat="43.88346" lon="7.73374">
        <ele>1082.581</ele>
        <time>2018-04-15T08:24:08Z</time>
      </trkpt>
      <trkpt lat="43.88346" lon="7.73379">
        <ele>1082.696</ele>
        <time>2018-04-15T08:24:11Z</time>
      </trkpt>
      <trkpt lat="43.88345" lon="7.73384">
        <ele>1082.929</ele>
        <time>2018-04-15T08:24:15Z</time>
      </trkpt>
      <trkpt lat="43.88345" lon="7.73392">
        <ele>1083.372</ele>
        <time>2018-04-15T08:24:18Z</time>
      </trkpt>
      <trkpt lat="43.88344" lon="7.73395">
        <ele>1083.841</ele>
        <time>2018-04-15T08:24:21Z</time>
      </trkpt>
      <trkpt lat="43.88342" lon="7.73399">
        <ele>1084.454</ele>
        <time>2018-04-15T08:24:24Z</time>
      </trkpt>
      <trkpt lat="43.8834" lon="7.73404">
        <ele>1084.871</ele>
        <time>2018-04-15T08:24:26Z</time>
      </trkpt>
      <trkpt lat="43.88339" lon="7.73408">
        <ele>1085.74</ele>
        <time>2018-04-15T08:24:30Z</time>
      </trkpt>
      <trkpt lat="43.88339" lon="7.73413">
        <ele>1086.185</ele>
        <time>2018-04-15T08:24:32Z</time>
      </trkpt>
      <trkpt lat="43.88339" lon="7.73417">
        <ele>1086.798</ele>
        <time>2018-04-15T08:24:34Z</time>
      </trkpt>
      <trkpt lat="43.88339" lon="7.73422">
        <ele>1087.592</ele>
        <time>2018-04-15T08:24:37Z</time>
      </trkpt>
      <trkpt lat="43.88339" lon="7.73428">
        <ele>1088.4</ele>
        <time>2018-04-15T08:24:40Z</time>
      </trkpt>
      <trkpt lat="43.88338" lon="7.73432">
        <ele>1088.857</ele>
        <time>2018-04-15T08:24:42Z</time>
      </trkpt>
      <trkpt lat="43.88336" lon="7.73436">
        <ele>1089.034</ele>
        <time>2018-04-15T08:24:44Z</time>
      </trkpt>
      <trkpt lat="43.88335" lon="7.73442">
        <ele>1089.032</ele>
        <time>2018-04-15T08:24:46Z</time>
      </trkpt>
      <trkpt lat="43.88332" lon="7.73448">
        <ele>1089.078</ele>
        <time>2018-04-15T08:24:48Z</time>
      </trkpt>
      <trkpt lat="43.8833" lon="7.73455">
        <ele>1089.364</ele>
        <time>2018-04-15T08:24:51Z</time>
      </trkpt>
      <trkpt lat="43.88327" lon="7.73457">
        <ele>1089.634</ele>
        <time>2018-04-15T08:24:53Z</time>
      </trkpt>
      <trkpt lat="43.88323" lon="7.73458">
        <ele>1089.909</ele>
        <time>2018-04-15T08:24:55Z</time>
      </trkpt>
      <trkpt lat="43.88319" lon="7.73461">
        <ele>1090.117</ele>
        <time>2018-04-15T08:24:57Z</time>
      </trkpt>
      <trkpt lat="43.88316" lon="7.73466">
        <ele>1090.353</ele>
        <time>2018-04-15T08:24:59Z</time>
      </trkpt>
      <trkpt lat="43.88314" lon="7.7347">
        <ele>1090.811</ele>
        <time>2018-04-15T08:25:02Z</time>
      </trkpt>
      <trkpt lat="43.88313" lon="7.73473">
        <ele>1091.126</ele>
        <time>2018-04-15T08:25:04Z</time>
      </trkpt>
      <trkpt lat="43.88312" lon="7.73478">
        <ele>1091.55</ele>
        <time>2018-04-15T08:25:07Z</time>
      </trkpt>
      <trkpt lat="43.8831" lon="7.73485">
        <ele>1091.962</ele>
        <time>2018-04-15T08:25:12Z</time>
      </trkpt>
      <trkpt lat="43.88308" lon="7.73491">
        <ele>1092.477</ele>
        <time>2018-04-15T08:25:15Z</time>
      </trkpt>
      <trkpt lat="43.88308" lon="7.73497">
        <ele>1092.805</ele>
        <time>2018-04-15T08:25:17Z</time>
      </trkpt>
      <trkpt lat="43.88307" lon="7.73501">
        <ele>1093.536</ele>
        <time>2018-04-15T08:25:21Z</time>
      </trkpt>
      <trkpt lat="43.88307" lon="7.73507">
        <ele>1094.06</ele>
        <time>2018-04-15T08:25:23Z</time>
      </trkpt>
      <trkpt lat="43.88306" lon="7.73513">
        <ele>1094.597</ele>
        <time>2018-04-15T08:25:25Z</time>
      </trkpt>
      <trkpt lat="43.88305" lon="7.73517">
        <ele>1095.371</ele>
        <time>2018-04-15T08:25:28Z</time>
      </trkpt>
      <trkpt lat="43.88305" lon="7.73521">
        <ele>1096.105</ele>
        <time>2018-04-15T08:25:31Z</time>
      </trkpt>
      <trkpt lat="43.88304" lon="7.73528">
        <ele>1097.114</ele>
        <time>2018-04-15T08:25:34Z</time>
      </trkpt>
      <trkpt lat="43.88304" lon="7.73532">
        <ele>1097.508</ele>
        <time>2018-04-15T08:25:36Z</time>
      </trkpt>
      <trkpt lat="43.88304" lon="7.73538">
        <ele>1097.869</ele>
        <time>2018-04-15T08:25:38Z</time>
      </trkpt>
      <trkpt lat="43.88304" lon="7.73546">
        <ele>1098.202</ele>
        <time>2018-04-15T08:25:40Z</time>
      </trkpt>
      <trkpt lat="43.88303" lon="7.7355">
        <ele>1098.478</ele>
        <time>2018-04-15T08:25:43Z</time>
      </trkpt>
      <trkpt lat="43.88303" lon="7.73555">
        <ele>1098.468</ele>
        <time>2018-04-15T08:25:45Z</time>
      </trkpt>
      <trkpt lat="43.88303" lon="7.73558">
        <ele>1098.541</ele>
        <time>2018-04-15T08:25:47Z</time>
      </trkpt>
      <trkpt lat="43.88303" lon="7.73562">
        <ele>1098.625</ele>
        <time>2018-04-15T08:25:50Z</time>
      </trkpt>
      <trkpt lat="43.88299" lon="7.73569">
        <ele>1098.69</ele>
        <time>2018-04-15T08:25:52Z</time>
      </trkpt>
      <trkpt lat="43.88296" lon="7.73572">
        <ele>1098.615</ele>
        <time>2018-04-15T08:25:55Z</time>
      </trkpt>
      <trkpt lat="43.88293" lon="7.73575">
        <ele>1098.576</ele>
        <time>2018-04-15T08:25:57Z</time>
      </trkpt>
      <trkpt lat="43.88291" lon="7.73578">
        <ele>1098.807</ele>
        <time>2018-04-15T08:25:59Z</time>
      </trkpt>
      <trkpt lat="43.88289" lon="7.73583">
        <ele>1098.948</ele>
        <time>2018-04-15T08:26:01Z</time>
      </trkpt>
      <trkpt lat="43.88287" lon="7.73587">
        <ele>1098.804</ele>
        <time>2018-04-15T08:26:04Z</time>
      </trkpt>
      <trkpt lat="43.88284" lon="7.73591">
        <ele>1098.581</ele>
        <time>2018-04-15T08:26:08Z</time>
      </trkpt>
      <trkpt lat="43.88279" lon="7.73597">
        <ele>1098.348</ele>
        <time>2018-04-15T08:26:11Z</time>
      </trkpt>
      <trkpt lat="43.88276" lon="7.73598">
        <ele>1098.146</ele>
        <time>2018-04-15T08:26:15Z</time>
      </trkpt>
      <trkpt lat="43.88274" lon="7.736">
        <ele>1098.058</ele>
        <time>2018-04-15T08:26:17Z</time>
      </trkpt>
      <trkpt lat="43.88271" lon="7.73602">
        <ele>1098.081</ele>
        <time>2018-04-15T08:26:19Z</time>
      </trkpt>
      <trkpt lat="43.88267" lon="7.73604">
        <ele>1098.147</ele>
        <time>2018-04-15T08:26:22Z</time>
      </trkpt>
      <trkpt lat="43.88264" lon="7.73605">
        <ele>1098.326</ele>
        <time>2018-04-15T08:26:25Z</time>
      </trkpt>
      <trkpt lat="43.88261" lon="7.73605">
        <ele>1098.442</ele>
        <time>2018-04-15T08:26:27Z</time>
      </trkpt>
      <trkpt lat="43.88257" lon="7.73606">
        <ele>1098.622</ele>
        <time>2018-04-15T08:26:29Z</time>
      </trkpt>
      <trkpt lat="43.88255" lon="7.73608">
        <ele>1098.829</ele>
        <time>2018-04-15T08:26:31Z</time>
      </trkpt>
      <trkpt lat="43.88251" lon="7.7361">
        <ele>1099.507</ele>
        <time>2018-04-15T08:26:35Z</time>
      </trkpt>
      <trkpt lat="43.88248" lon="7.73611">
        <ele>1099.938</ele>
        <time>2018-04-15T08:26:37Z</time>
      </trkpt>
      <trkpt lat="43.88242" lon="7.73614">
        <ele>1100.552</ele>
        <time>2018-04-15T08:26:40Z</time>
      </trkpt>
      <trkpt lat="43.88237" lon="7.73617">
        <ele>1101.38</ele>
        <time>2018-04-15T08:26:45Z</time>
      </trkpt>
      <trkpt lat="43.88231" lon="7.73619">
        <ele>1102.352</ele>
        <time>2018-04-15T08:26:51Z</time>
      </trkpt>
      <trkpt lat="43.88228" lon="7.73622">
        <ele>1102.862</ele>
        <time>2018-04-15T08:26:54Z</time>
      </trkpt>
      <trkpt lat="43.88221" lon="7.7363">
        <ele>1103.492</ele>
        <time>2018-04-15T08:26:57Z</time>
      </trkpt>
      <trkpt lat="43.88219" lon="7.73634">
        <ele>1103.959</ele>
        <time>2018-04-15T08:26:59Z</time>
      </trkpt>
      <trkpt lat="43.88217" lon="7.73638">
        <ele>1105.273</ele>
        <time>2018-04-15T08:27:06Z</time>
      </trkpt>
      <trkpt lat="43.88215" lon="7.73638">
        <ele>1106.1</ele>
        <time>2018-04-15T08:27:13Z</time>
      </trkpt>
      <trkpt lat="43.88213" lon="7.73642">
        <ele>1107.785</ele>
        <time>2018-04-15T08:27:23Z</time>
      </trkpt>
      <trkpt lat="43.88208" lon="7.73649">
        <ele>1108.642</ele>
        <time>2018-04-15T08:27:28Z</time>
      </trkpt>
      <trkpt lat="43.88206" lon="7.73653">
        <ele>1108.744</ele>
        <time>2018-04-15T08:27:30Z</time>
      </trkpt>
      <trkpt lat="43.88204" lon="7.73657">
        <ele>1108.819</ele>
        <time>2018-04-15T08:27:32Z</time>
      </trkpt>
      <trkpt lat="43.88202" lon="7.73655">
        <ele>1109.163</ele>
        <time>2018-04-15T08:27:44Z</time>
      </trkpt>
      <trkpt lat="43.88199" lon="7.73655">
        <ele>1109.655</ele>
        <time>2018-04-15T08:27:51Z</time>
      </trkpt>
      <trkpt lat="43.88196" lon="7.73654">
        <ele>1110.114</ele>
        <time>2018-04-15T08:27:58Z</time>
      </trkpt>
      <trkpt lat="43.88193" lon="7.73654">
        <ele>1110.776</ele>
        <time>2018-04-15T08:28:09Z</time>
      </trkpt>
      <trkpt lat="43.88195" lon="7.73657">
        <ele>1110.694</ele>
        <time>2018-04-15T08:28:14Z</time>
      </trkpt>
      <trkpt lat="43.88193" lon="7.7366">
        <ele>1108.562</ele>
        <time>2018-04-15T08:28:31Z</time>
      </trkpt>
      <trkpt lat="43.88188" lon="7.73662">
        <ele>1107.666</ele>
        <time>2018-04-15T08:29:06Z</time>
      </trkpt>
      <trkpt lat="43.88185" lon="7.73661">
        <ele>1111.531</ele>
        <time>2018-04-15T08:29:39Z</time>
      </trkpt>
      <trkpt lat="43.88181" lon="7.73659">
        <ele>1114.337</ele>
        <time>2018-04-15T08:29:49Z</time>
      </trkpt>
      <trkpt lat="43.88176" lon="7.73658">
        <ele>1115.063</ele>
        <time>2018-04-15T08:29:51Z</time>
      </trkpt>
      <trkpt lat="43.88173" lon="7.73657">
        <ele>1116.373</ele>
        <time>2018-04-15T08:29:55Z</time>
      </trkpt>
      <trkpt lat="43.8817" lon="7.73657">
        <ele>1116.826</ele>
        <time>2018-04-15T08:30:00Z</time>
      </trkpt>
      <trkpt lat="43.88166" lon="7.73655">
        <ele>1117.292</ele>
        <time>2018-04-15T08:30:02Z</time>
      </trkpt>
      <trkpt lat="43.88161" lon="7.73653">
        <ele>1119.064</ele>
        <time>2018-04-15T08:30:14Z</time>
      </trkpt>
      <trkpt lat="43.88158" lon="7.73652">
        <ele>1119.296</ele>
        <time>2018-04-15T08:30:16Z</time>
      </trkpt>
      <trkpt lat="43.88155" lon="7.73652">
        <ele>1120.163</ele>
        <time>2018-04-15T08:30:21Z</time>
      </trkpt>
      <trkpt lat="43.88149" lon="7.73652">
        <ele>1120.741</ele>
        <time>2018-04-15T08:30:23Z</time>
      </trkpt>
      <trkpt lat="43.88146" lon="7.73652">
        <ele>1121.995</ele>
        <time>2018-04-15T08:30:29Z</time>
      </trkpt>
      <trkpt lat="43.88142" lon="7.73654">
        <ele>1122.997</ele>
        <time>2018-04-15T08:30:37Z</time>
      </trkpt>
      <trkpt lat="43.88137" lon="7.73654">
        <ele>1125.203</ele>
        <time>2018-04-15T08:30:47Z</time>
      </trkpt>
      <trkpt lat="43.88134" lon="7.73653">
        <ele>1126.095</ele>
        <time>2018-04-15T08:30:50Z</time>
      </trkpt>
      <trkpt lat="43.88125" lon="7.73651">
        <ele>1126.664</ele>
        <time>2018-04-15T08:30:53Z</time>
      </trkpt>
      <trkpt lat="43.88116" lon="7.7365">
        <ele>1130.334</ele>
        <time>2018-04-15T08:31:09Z</time>
      </trkpt>
      <trkpt lat="43.88112" lon="7.7365">
        <ele>1131.258</ele>
        <time>2018-04-15T08:31:15Z</time>
      </trkpt>
      <trkpt lat="43.88108" lon="7.73651">
        <ele>1133.446</ele>
        <time>2018-04-15T08:31:24Z</time>
      </trkpt>
      <trkpt lat="43.88103" lon="7.73651">
        <ele>1134.486</ele>
        <time>2018-04-15T08:31:27Z</time>
      </trkpt>
      <trkpt lat="43.88097" lon="7.73652">
        <ele>1135.014</ele>
        <time>2018-04-15T08:31:30Z</time>
      </trkpt>
      <trkpt lat="43.88081" lon="7.73655">
        <ele>1135.762</ele>
        <time>2018-04-15T08:31:37Z</time>
      </trkpt>
      <trkpt lat="43.88075" lon="7.73657">
        <ele>1135.854</ele>
        <time>2018-04-15T08:31:38Z</time>
      </trkpt>
      <trkpt lat="43.88066" lon="7.73657">
        <ele>1136.125</ele>
        <time>2018-04-15T08:31:40Z</time>
      </trkpt>
      <trkpt lat="43.88063" lon="7.73658">
        <ele>1136.28</ele>
        <time>2018-04-15T08:31:43Z</time>
      </trkpt>
      <trkpt lat="43.8806" lon="7.73656">
        <ele>1136.712</ele>
        <time>2018-04-15T08:31:48Z</time>
      </trkpt>
      <trkpt lat="43.88055" lon="7.73657">
        <ele>1137.038</ele>
        <time>2018-04-15T08:31:51Z</time>
      </trkpt>
      <trkpt lat="43.88046" lon="7.73657">
        <ele>1137.505</ele>
        <time>2018-04-15T08:31:54Z</time>
      </trkpt>
      <trkpt lat="43.88043" lon="7.73658">
        <ele>1137.666</ele>
        <time>2018-04-15T08:31:55Z</time>
      </trkpt>
      <trkpt lat="43.88037" lon="7.73656">
        <ele>1138.81</ele>
        <time>2018-04-15T08:32:01Z</time>
      </trkpt>
      <trkpt lat="43.88034" lon="7.73656">
        <ele>1139.893</ele>
        <time>2018-04-15T08:32:06Z</time>
      </trkpt>
      <trkpt lat="43.88031" lon="7.73655">
        <ele>1140.735</ele>
        <time>2018-04-15T08:32:09Z</time>
      </trkpt>
      <trkpt lat="43.88027" lon="7.73653">
        <ele>1141.2</ele>
        <time>2018-04-15T08:32:11Z</time>
      </trkpt>
      <trkpt lat="43.88025" lon="7.7365">
        <ele>1141.597</ele>
        <time>2018-04-15T08:32:13Z</time>
      </trkpt>
      <trkpt lat="43.88023" lon="7.73647">
        <ele>1141.974</ele>
        <time>2018-04-15T08:32:21Z</time>
      </trkpt>
      <trkpt lat="43.88022" lon="7.73644">
        <ele>1142.537</ele>
        <time>2018-04-15T08:32:24Z</time>
      </trkpt>
      <trkpt lat="43.88018" lon="7.73642">
        <ele>1142.816</ele>
        <time>2018-04-15T08:32:27Z</time>
      </trkpt>
      <trkpt lat="43.88015" lon="7.73641">
        <ele>1143.031</ele>
        <time>2018-04-15T08:32:29Z</time>
      </trkpt>
      <trkpt lat="43.88012" lon="7.73641">
        <ele>1144.264</ele>
        <time>2018-04-15T08:32:39Z</time>
      </trkpt>
      <trkpt lat="43.88009" lon="7.7364">
        <ele>1144.806</ele>
        <time>2018-04-15T08:32:44Z</time>
      </trkpt>
      <trkpt lat="43.88006" lon="7.7364">
        <ele>1145.195</ele>
        <time>2018-04-15T08:32:46Z</time>
      </trkpt>
      <trkpt lat="43.88003" lon="7.73639">
        <ele>1145.866</ele>
        <time>2018-04-15T08:32:48Z</time>
      </trkpt>
      <trkpt lat="43.88" lon="7.73639">
        <ele>1146.624</ele>
        <time>2018-04-15T08:32:51Z</time>
      </trkpt>
      <trkpt lat="43.87997" lon="7.73638">
        <ele>1147.154</ele>
        <time>2018-04-15T08:32:53Z</time>
      </trkpt>
      <trkpt lat="43.87992" lon="7.73637">
        <ele>1147.931</ele>
        <time>2018-04-15T08:32:56Z</time>
      </trkpt>
      <trkpt lat="43.87989" lon="7.73636">
        <ele>1148.501</ele>
        <time>2018-04-15T08:32:58Z</time>
      </trkpt>
      <trkpt lat="43.87985" lon="7.73634">
        <ele>1150.665</ele>
        <time>2018-04-15T08:33:08Z</time>
      </trkpt>
      <trkpt lat="43.87982" lon="7.73635">
        <ele>1151.294</ele>
        <time>2018-04-15T08:33:12Z</time>
      </trkpt>
      <trkpt lat="43.87979" lon="7.73632">
        <ele>1151.954</ele>
        <time>2018-04-15T08:33:19Z</time>
      </trkpt>
      <trkpt lat="43.87979" lon="7.73628">
        <ele>1151.951</ele>
        <time>2018-04-15T08:33:23Z</time>
      </trkpt>
      <trkpt lat="43.87973" lon="7.73624">
        <ele>1151.755</ele>
        <time>2018-04-15T08:33:25Z</time>
      </trkpt>
      <trkpt lat="43.87971" lon="7.7362">
        <ele>1151.728</ele>
        <time>2018-04-15T08:33:28Z</time>
      </trkpt>
      <trkpt lat="43.8797" lon="7.73617">
        <ele>1152.035</ele>
        <time>2018-04-15T08:33:31Z</time>
      </trkpt>
      <trkpt lat="43.87967" lon="7.73613">
        <ele>1152.301</ele>
        <time>2018-04-15T08:33:34Z</time>
      </trkpt>
      <trkpt lat="43.87965" lon="7.73609">
        <ele>1152.546</ele>
        <time>2018-04-15T08:33:36Z</time>
      </trkpt>
      <trkpt lat="43.87962" lon="7.73607">
        <ele>1152.982</ele>
        <time>2018-04-15T08:33:38Z</time>
      </trkpt>
      <trkpt lat="43.87958" lon="7.73605">
        <ele>1153.625</ele>
        <time>2018-04-15T08:33:44Z</time>
      </trkpt>
      <trkpt lat="43.87956" lon="7.73601">
        <ele>1154.565</ele>
        <time>2018-04-15T08:33:50Z</time>
      </trkpt>
      <trkpt lat="43.87953" lon="7.736">
        <ele>1155.05</ele>
        <time>2018-04-15T08:33:53Z</time>
      </trkpt>
      <trkpt lat="43.8795" lon="7.73599">
        <ele>1155.444</ele>
        <time>2018-04-15T08:33:59Z</time>
      </trkpt>
      <trkpt lat="43.8795" lon="7.73595">
        <ele>1156.634</ele>
        <time>2018-04-15T08:34:10Z</time>
      </trkpt>
      <trkpt lat="43.87948" lon="7.73592">
        <ele>1158.46</ele>
        <time>2018-04-15T08:34:17Z</time>
      </trkpt>
      <trkpt lat="43.87946" lon="7.73588">
        <ele>1159.238</ele>
        <time>2018-04-15T08:34:23Z</time>
      </trkpt>
      <trkpt lat="43.87946" lon="7.73583">
        <ele>1159.459</ele>
        <time>2018-04-15T08:34:27Z</time>
      </trkpt>
      <trkpt lat="43.87947" lon="7.73579">
        <ele>1159.663</ele>
        <time>2018-04-15T08:34:29Z</time>
      </trkpt>
      <trkpt lat="43.87946" lon="7.73574">
        <ele>1159.906</ele>
        <time>2018-04-15T08:34:32Z</time>
      </trkpt>
      <trkpt lat="43.87948" lon="7.73567">
        <ele>1160.448</ele>
        <time>2018-04-15T08:34:35Z</time>
      </trkpt>
      <trkpt lat="43.87946" lon="7.73564">
        <ele>1161.992</ele>
        <time>2018-04-15T08:34:42Z</time>
      </trkpt>
      <trkpt lat="43.87946" lon="7.73559">
        <ele>1163.824</ele>
        <time>2018-04-15T08:34:46Z</time>
      </trkpt>
      <trkpt lat="43.87946" lon="7.73555">
        <ele>1164.82</ele>
        <time>2018-04-15T08:34:50Z</time>
      </trkpt>
      <trkpt lat="43.87946" lon="7.7355">
        <ele>1165.974</ele>
        <time>2018-04-15T08:34:55Z</time>
      </trkpt>
      <trkpt lat="43.87943" lon="7.73549">
        <ele>1166.882</ele>
        <time>2018-04-15T08:34:58Z</time>
      </trkpt>
      <trkpt lat="43.87939" lon="7.73545">
        <ele>1168.073</ele>
        <time>2018-04-15T08:35:04Z</time>
      </trkpt>
      <trkpt lat="43.87936" lon="7.73544">
        <ele>1168.141</ele>
        <time>2018-04-15T08:35:06Z</time>
      </trkpt>
      <trkpt lat="43.87934" lon="7.73541">
        <ele>1168.684</ele>
        <time>2018-04-15T08:35:12Z</time>
      </trkpt>
      <trkpt lat="43.87931" lon="7.73541">
        <ele>1168.826</ele>
        <time>2018-04-15T08:35:14Z</time>
      </trkpt>
      <trkpt lat="43.87927" lon="7.73541">
        <ele>1169.031</ele>
        <time>2018-04-15T08:35:16Z</time>
      </trkpt>
      <trkpt lat="43.87924" lon="7.73541">
        <ele>1169.345</ele>
        <time>2018-04-15T08:35:25Z</time>
      </trkpt>
      <trkpt lat="43.87921" lon="7.73541">
        <ele>1169.489</ele>
        <time>2018-04-15T08:35:29Z</time>
      </trkpt>
      <trkpt lat="43.87918" lon="7.7354">
        <ele>1169.85</ele>
        <time>2018-04-15T08:35:32Z</time>
      </trkpt>
      <trkpt lat="43.87915" lon="7.73538">
        <ele>1170.403</ele>
        <time>2018-04-15T08:35:35Z</time>
      </trkpt>
      <trkpt lat="43.87913" lon="7.73535">
        <ele>1170.697</ele>
        <time>2018-04-15T08:35:40Z</time>
      </trkpt>
      <trkpt lat="43.87911" lon="7.73533">
        <ele>1171.126</ele>
        <time>2018-04-15T08:35:43Z</time>
      </trkpt>
      <trkpt lat="43.87908" lon="7.73531">
        <ele>1171.581</ele>
        <time>2018-04-15T08:35:48Z</time>
      </trkpt>
      <trkpt lat="43.87902" lon="7.73534">
        <ele>1171.522</ele>
        <time>2018-04-15T08:35:53Z</time>
      </trkpt>
      <trkpt lat="43.879" lon="7.73531">
        <ele>1171.673</ele>
        <time>2018-04-15T08:36:04Z</time>
      </trkpt>
      <trkpt lat="43.87899" lon="7.73526">
        <ele>1171.881</ele>
        <time>2018-04-15T08:36:08Z</time>
      </trkpt>
      <trkpt lat="43.87894" lon="7.7352">
        <ele>1171.861</ele>
        <time>2018-04-15T08:36:10Z</time>
      </trkpt>
      <trkpt lat="43.87891" lon="7.73516">
        <ele>1172.053</ele>
        <time>2018-04-15T08:36:12Z</time>
      </trkpt>
      <trkpt lat="43.87888" lon="7.73514">
        <ele>1172.592</ele>
        <time>2018-04-15T08:36:15Z</time>
      </trkpt>
      <trkpt lat="43.87886" lon="7.73512">
        <ele>1172.789</ele>
        <time>2018-04-15T08:36:17Z</time>
      </trkpt>
      <trkpt lat="43.87882" lon="7.73511">
        <ele>1172.926</ele>
        <time>2018-04-15T08:36:18Z</time>
      </trkpt>
      <trkpt lat="43.87877" lon="7.7351">
        <ele>1173.245</ele>
        <time>2018-04-15T08:36:21Z</time>
      </trkpt>
      <trkpt lat="43.87875" lon="7.73508">
        <ele>1174.015</ele>
        <time>2018-04-15T08:36:25Z</time>
      </trkpt>
      <trkpt lat="43.87872" lon="7.73506">
        <ele>1174.691</ele>
        <time>2018-04-15T08:36:29Z</time>
      </trkpt>
      <trkpt lat="43.87867" lon="7.73504">
        <ele>1176.498</ele>
        <time>2018-04-15T08:36:37Z</time>
      </trkpt>
      <trkpt lat="43.87864" lon="7.73505">
        <ele>1177.415</ele>
        <time>2018-04-15T08:36:41Z</time>
      </trkpt>
      <trkpt lat="43.8786" lon="7.73506">
        <ele>1178.657</ele>
        <time>2018-04-15T08:36:49Z</time>
      </trkpt>
      <trkpt lat="43.87857" lon="7.73505">
        <ele>1179.204</ele>
        <time>2018-04-15T08:36:56Z</time>
      </trkpt>
      <trkpt lat="43.87853" lon="7.73506">
        <ele>1179.928</ele>
        <time>2018-04-15T08:37:00Z</time>
      </trkpt>
      <trkpt lat="43.8785" lon="7.73508">
        <ele>1181.302</ele>
        <time>2018-04-15T08:37:08Z</time>
      </trkpt>
      <trkpt lat="43.87847" lon="7.73509">
        <ele>1181.823</ele>
        <time>2018-04-15T08:37:11Z</time>
      </trkpt>
      <trkpt lat="43.87844" lon="7.73511">
        <ele>1182.467</ele>
        <time>2018-04-15T08:37:16Z</time>
      </trkpt>
      <trkpt lat="43.87836" lon="7.73511">
        <ele>1183.21</ele>
        <time>2018-04-15T08:37:18Z</time>
      </trkpt>
      <trkpt lat="43.87832" lon="7.73512">
        <ele>1183.926</ele>
        <time>2018-04-15T08:37:20Z</time>
      </trkpt>
      <trkpt lat="43.87829" lon="7.73511">
        <ele>1184.654</ele>
        <time>2018-04-15T08:37:22Z</time>
      </trkpt>
      <trkpt lat="43.87826" lon="7.7351">
        <ele>1185.379</ele>
        <time>2018-04-15T08:37:24Z</time>
      </trkpt>
      <trkpt lat="43.87818" lon="7.73512">
        <ele>1186.535</ele>
        <time>2018-04-15T08:37:27Z</time>
      </trkpt>
      <trkpt lat="43.87811" lon="7.73512">
        <ele>1188.235</ele>
        <time>2018-04-15T08:37:30Z</time>
      </trkpt>
      <trkpt lat="43.87807" lon="7.73513">
        <ele>1189.069</ele>
        <time>2018-04-15T08:37:32Z</time>
      </trkpt>
      <trkpt lat="43.87804" lon="7.73515">
        <ele>1190.46</ele>
        <time>2018-04-15T08:37:35Z</time>
      </trkpt>
      <trkpt lat="43.878" lon="7.73517">
        <ele>1192.245</ele>
        <time>2018-04-15T08:37:41Z</time>
      </trkpt>
      <trkpt lat="43.87797" lon="7.73517">
        <ele>1193.03</ele>
        <time>2018-04-15T08:37:45Z</time>
      </trkpt>
      <trkpt lat="43.87793" lon="7.73514">
        <ele>1193.712</ele>
        <time>2018-04-15T08:37:47Z</time>
      </trkpt>
      <trkpt lat="43.87791" lon="7.73512">
        <ele>1194.095</ele>
        <time>2018-04-15T08:37:51Z</time>
      </trkpt>
      <trkpt lat="43.87788" lon="7.73514">
        <ele>1195.51</ele>
        <time>2018-04-15T08:37:59Z</time>
      </trkpt>
      <trkpt lat="43.87785" lon="7.73516">
        <ele>1196.553</ele>
        <time>2018-04-15T08:38:07Z</time>
      </trkpt>
      <trkpt lat="43.87782" lon="7.73516">
        <ele>1197.294</ele>
        <time>2018-04-15T08:38:11Z</time>
      </trkpt>
      <trkpt lat="43.8778" lon="7.73512">
        <ele>1197.695</ele>
        <time>2018-04-15T08:38:20Z</time>
      </trkpt>
      <trkpt lat="43.87777" lon="7.73509">
        <ele>1198.516</ele>
        <time>2018-04-15T08:38:26Z</time>
      </trkpt>
      <trkpt lat="43.87773" lon="7.73509">
        <ele>1199.482</ele>
        <time>2018-04-15T08:38:34Z</time>
      </trkpt>
      <trkpt lat="43.87769" lon="7.73509">
        <ele>1199.728</ele>
        <time>2018-04-15T08:38:36Z</time>
      </trkpt>
      <trkpt lat="43.87766" lon="7.73509">
        <ele>1200.007</ele>
        <time>2018-04-15T08:38:39Z</time>
      </trkpt>
      <trkpt lat="43.87763" lon="7.73509">
        <ele>1201.202</ele>
        <time>2018-04-15T08:38:48Z</time>
      </trkpt>
      <trkpt lat="43.8776" lon="7.73508">
        <ele>1201.321</ele>
        <time>2018-04-15T08:38:49Z</time>
      </trkpt>
      <trkpt lat="43.87756" lon="7.73508">
        <ele>1201.97</ele>
        <time>2018-04-15T08:38:52Z</time>
      </trkpt>
      <trkpt lat="43.87751" lon="7.73509">
        <ele>1202.31</ele>
        <time>2018-04-15T08:38:54Z</time>
      </trkpt>
      <trkpt lat="43.87748" lon="7.7351">
        <ele>1202.912</ele>
        <time>2018-04-15T08:38:57Z</time>
      </trkpt>
      <trkpt lat="43.87745" lon="7.73509">
        <ele>1203.324</ele>
        <time>2018-04-15T08:38:59Z</time>
      </trkpt>
      <trkpt lat="43.87742" lon="7.73508">
        <ele>1203.895</ele>
        <time>2018-04-15T08:39:01Z</time>
      </trkpt>
      <trkpt lat="43.87739" lon="7.73507">
        <ele>1207.248</ele>
        <time>2018-04-15T08:39:14Z</time>
      </trkpt>
      <trkpt lat="43.87736" lon="7.73508">
        <ele>1208.111</ele>
        <time>2018-04-15T08:39:18Z</time>
      </trkpt>
      <trkpt lat="43.8773" lon="7.7351">
        <ele>1209.095</ele>
        <time>2018-04-15T08:39:22Z</time>
      </trkpt>
      <trkpt lat="43.87727" lon="7.7351">
        <ele>1210.56</ele>
        <time>2018-04-15T08:39:29Z</time>
      </trkpt>
      <trkpt lat="43.87724" lon="7.73508">
        <ele>1211.501</ele>
        <time>2018-04-15T08:39:33Z</time>
      </trkpt>
      <trkpt lat="43.87721" lon="7.73508">
        <ele>1212.402</ele>
        <time>2018-04-15T08:39:38Z</time>
      </trkpt>
      <trkpt lat="43.87723" lon="7.73504">
        <ele>1213.489</ele>
        <time>2018-04-15T08:39:43Z</time>
      </trkpt>
      <trkpt lat="43.8772" lon="7.73504">
        <ele>1215.579</ele>
        <time>2018-04-15T08:39:52Z</time>
      </trkpt>
      <trkpt lat="43.87717" lon="7.73506">
        <ele>1217.078</ele>
        <time>2018-04-15T08:40:00Z</time>
      </trkpt>
      <trkpt lat="43.87715" lon="7.73507">
        <ele>1219.995</ele>
        <time>2018-04-15T08:40:11Z</time>
      </trkpt>
      <trkpt lat="43.87713" lon="7.73503">
        <ele>1223.351</ele>
        <time>2018-04-15T08:40:21Z</time>
      </trkpt>
      <trkpt lat="43.8771" lon="7.73503">
        <ele>1224.511</ele>
        <time>2018-04-15T08:40:25Z</time>
      </trkpt>
      <trkpt lat="43.87708" lon="7.73503">
        <ele>1226.311</ele>
        <time>2018-04-15T08:40:34Z</time>
      </trkpt>
      <trkpt lat="43.87705" lon="7.73505">
        <ele>1227.18</ele>
        <time>2018-04-15T08:40:39Z</time>
      </trkpt>
      <trkpt lat="43.87703" lon="7.73507">
        <ele>1229.73</ele>
        <time>2018-04-15T08:40:50Z</time>
      </trkpt>
      <trkpt lat="43.87699" lon="7.73505">
        <ele>1233.202</ele>
        <time>2018-04-15T08:41:03Z</time>
      </trkpt>
      <trkpt lat="43.87698" lon="7.73501">
        <ele>1234.477</ele>
        <time>2018-04-15T08:41:10Z</time>
      </trkpt>
      <trkpt lat="43.87694" lon="7.73502">
        <ele>1236.579</ele>
        <time>2018-04-15T08:41:24Z</time>
      </trkpt>
      <trkpt lat="43.87691" lon="7.73503">
        <ele>1237.491</ele>
        <time>2018-04-15T08:41:27Z</time>
      </trkpt>
      <trkpt lat="43.87687" lon="7.73505">
        <ele>1238.735</ele>
        <time>2018-04-15T08:41:33Z</time>
      </trkpt>
      <trkpt lat="43.87685" lon="7.73503">
        <ele>1239.918</ele>
        <time>2018-04-15T08:41:40Z</time>
      </trkpt>
      <trkpt lat="43.87683" lon="7.73501">
        <ele>1241.858</ele>
        <time>2018-04-15T08:41:49Z</time>
      </trkpt>
      <trkpt lat="43.87683" lon="7.73497">
        <ele>1242.686</ele>
        <time>2018-04-15T08:41:54Z</time>
      </trkpt>
      <trkpt lat="43.87683" lon="7.73492">
        <ele>1244.327</ele>
        <time>2018-04-15T08:42:00Z</time>
      </trkpt>
      <trkpt lat="43.87683" lon="7.73488">
        <ele>1245.466</ele>
        <time>2018-04-15T08:42:07Z</time>
      </trkpt>
      <trkpt lat="43.87679" lon="7.73488">
        <ele>1246.094</ele>
        <time>2018-04-15T08:42:11Z</time>
      </trkpt>
      <trkpt lat="43.87677" lon="7.73493">
        <ele>1246.543</ele>
        <time>2018-04-15T08:42:15Z</time>
      </trkpt>
      <trkpt lat="43.87675" lon="7.73496">
        <ele>1247.494</ele>
        <time>2018-04-15T08:42:22Z</time>
      </trkpt>
      <trkpt lat="43.87671" lon="7.73498">
        <ele>1247.957</ele>
        <time>2018-04-15T08:42:24Z</time>
      </trkpt>
      <trkpt lat="43.87669" lon="7.73501">
        <ele>1248.185</ele>
        <time>2018-04-15T08:42:26Z</time>
      </trkpt>
      <trkpt lat="43.87666" lon="7.73507">
        <ele>1249.419</ele>
        <time>2018-04-15T08:42:34Z</time>
      </trkpt>
      <trkpt lat="43.87664" lon="7.73509">
        <ele>1250.787</ele>
        <time>2018-04-15T08:42:50Z</time>
      </trkpt>
      <trkpt lat="43.87658" lon="7.73511">
        <ele>1251.96</ele>
        <time>2018-04-15T08:42:53Z</time>
      </trkpt>
      <trkpt lat="43.87655" lon="7.73514">
        <ele>1253.035</ele>
        <time>2018-04-15T08:42:56Z</time>
      </trkpt>
      <trkpt lat="43.87653" lon="7.73516">
        <ele>1254.915</ele>
        <time>2018-04-15T08:43:01Z</time>
      </trkpt>
      <trkpt lat="43.8765" lon="7.73519">
        <ele>1256.658</ele>
        <time>2018-04-15T08:43:06Z</time>
      </trkpt>
      <trkpt lat="43.87649" lon="7.73523">
        <ele>1257.279</ele>
        <time>2018-04-15T08:43:12Z</time>
      </trkpt>
      <trkpt lat="43.8765" lon="7.73527">
        <ele>1258.323</ele>
        <time>2018-04-15T08:43:18Z</time>
      </trkpt>
      <trkpt lat="43.87647" lon="7.73529">
        <ele>1260.065</ele>
        <time>2018-04-15T08:43:29Z</time>
      </trkpt>
      <trkpt lat="43.87643" lon="7.73532">
        <ele>1260.943</ele>
        <time>2018-04-15T08:43:35Z</time>
      </trkpt>
      <trkpt lat="43.8764" lon="7.73534">
        <ele>1262.549</ele>
        <time>2018-04-15T08:43:53Z</time>
      </trkpt>
      <trkpt lat="43.87638" lon="7.73538">
        <ele>1264.523</ele>
        <time>2018-04-15T08:44:10Z</time>
      </trkpt>
      <trkpt lat="43.87642" lon="7.73539">
        <ele>1265.016</ele>
        <time>2018-04-15T08:44:14Z</time>
      </trkpt>
      <trkpt lat="43.87644" lon="7.73542">
        <ele>1265.318</ele>
        <time>2018-04-15T08:44:17Z</time>
      </trkpt>
      <trkpt lat="43.87643" lon="7.73546">
        <ele>1265.703</ele>
        <time>2018-04-15T08:44:20Z</time>
      </trkpt>
      <trkpt lat="43.87644" lon="7.7355">
        <ele>1266.197</ele>
        <time>2018-04-15T08:44:23Z</time>
      </trkpt>
      <trkpt lat="43.87641" lon="7.73551">
        <ele>1266.441</ele>
        <time>2018-04-15T08:44:39Z</time>
      </trkpt>
      <trkpt lat="43.87643" lon="7.73556">
        <ele>1265.492</ele>
        <time>2018-04-15T08:44:53Z</time>
      </trkpt>
      <trkpt lat="43.8764" lon="7.73556">
        <ele>1265.637</ele>
        <time>2018-04-15T08:45:12Z</time>
      </trkpt>
      <trkpt lat="43.87638" lon="7.73558">
        <ele>1266.285</ele>
        <time>2018-04-15T08:45:20Z</time>
      </trkpt>
      <trkpt lat="43.87634" lon="7.73559">
        <ele>1266.622</ele>
        <time>2018-04-15T08:45:24Z</time>
      </trkpt>
      <trkpt lat="43.8763" lon="7.73561">
        <ele>1266.906</ele>
        <time>2018-04-15T08:45:26Z</time>
      </trkpt>
      <trkpt lat="43.87627" lon="7.73563">
        <ele>1267.168</ele>
        <time>2018-04-15T08:45:28Z</time>
      </trkpt>
      <trkpt lat="43.87625" lon="7.73565">
        <ele>1267.538</ele>
        <time>2018-04-15T08:45:31Z</time>
      </trkpt>
      <trkpt lat="43.87622" lon="7.73568">
        <ele>1267.824</ele>
        <time>2018-04-15T08:45:34Z</time>
      </trkpt>
      <trkpt lat="43.87618" lon="7.7357">
        <ele>1268.626</ele>
        <time>2018-04-15T08:45:41Z</time>
      </trkpt>
      <trkpt lat="43.87616" lon="7.73572">
        <ele>1269.222</ele>
        <time>2018-04-15T08:45:44Z</time>
      </trkpt>
      <trkpt lat="43.87612" lon="7.73573">
        <ele>1269.571</ele>
        <time>2018-04-15T08:45:46Z</time>
      </trkpt>
      <trkpt lat="43.87607" lon="7.73578">
        <ele>1270.455</ele>
        <time>2018-04-15T08:45:50Z</time>
      </trkpt>
      <trkpt lat="43.87604" lon="7.73582">
        <ele>1270.898</ele>
        <time>2018-04-15T08:45:52Z</time>
      </trkpt>
      <trkpt lat="43.87599" lon="7.73588">
        <ele>1271.797</ele>
        <time>2018-04-15T08:45:55Z</time>
      </trkpt>
      <trkpt lat="43.87595" lon="7.73594">
        <ele>1272.547</ele>
        <time>2018-04-15T08:45:58Z</time>
      </trkpt>
      <trkpt lat="43.87593" lon="7.73598">
        <ele>1273.501</ele>
        <time>2018-04-15T08:46:03Z</time>
      </trkpt>
      <trkpt lat="43.87592" lon="7.73602">
        <ele>1274.529</ele>
        <time>2018-04-15T08:46:08Z</time>
      </trkpt>
      <trkpt lat="43.87589" lon="7.73611">
        <ele>1275.215</ele>
        <time>2018-04-15T08:46:10Z</time>
      </trkpt>
      <trkpt lat="43.87585" lon="7.73613">
        <ele>1276.445</ele>
        <time>2018-04-15T08:46:13Z</time>
      </trkpt>
      <trkpt lat="43.87582" lon="7.73614">
        <ele>1277.019</ele>
        <time>2018-04-15T08:46:15Z</time>
      </trkpt>
      <trkpt lat="43.87579" lon="7.7362">
        <ele>1277.829</ele>
        <time>2018-04-15T08:46:18Z</time>
      </trkpt>
      <trkpt lat="43.87577" lon="7.73624">
        <ele>1278.331</ele>
        <time>2018-04-15T08:46:20Z</time>
      </trkpt>
      <trkpt lat="43.87574" lon="7.73625">
        <ele>1278.641</ele>
        <time>2018-04-15T08:46:22Z</time>
      </trkpt>
      <trkpt lat="43.87575" lon="7.73628">
        <ele>1279.014</ele>
        <time>2018-04-15T08:46:24Z</time>
      </trkpt>
      <trkpt lat="43.87575" lon="7.73633">
        <ele>1279.838</ele>
        <time>2018-04-15T08:46:28Z</time>
      </trkpt>
      <trkpt lat="43.87574" lon="7.73637">
        <ele>1280.511</ele>
        <time>2018-04-15T08:46:34Z</time>
      </trkpt>
      <trkpt lat="43.87572" lon="7.7364">
        <ele>1280.758</ele>
        <time>2018-04-15T08:46:37Z</time>
      </trkpt>
      <trkpt lat="43.87569" lon="7.73649">
        <ele>1280.769</ele>
        <time>2018-04-15T08:46:45Z</time>
      </trkpt>
      <trkpt lat="43.87567" lon="7.73653">
        <ele>1281.116</ele>
        <time>2018-04-15T08:46:49Z</time>
      </trkpt>
      <trkpt lat="43.87565" lon="7.73658">
        <ele>1281.456</ele>
        <time>2018-04-15T08:46:51Z</time>
      </trkpt>
      <trkpt lat="43.87564" lon="7.73662">
        <ele>1282.009</ele>
        <time>2018-04-15T08:46:54Z</time>
      </trkpt>
      <trkpt lat="43.87562" lon="7.73665">
        <ele>1282.295</ele>
        <time>2018-04-15T08:46:56Z</time>
      </trkpt>
      <trkpt lat="43.87561" lon="7.73671">
        <ele>1282.643</ele>
        <time>2018-04-15T08:46:58Z</time>
      </trkpt>
      <trkpt lat="43.8756" lon="7.73675">
        <ele>1284.036</ele>
        <time>2018-04-15T08:47:09Z</time>
      </trkpt>
      <trkpt lat="43.87558" lon="7.73679">
        <ele>1283.992</ele>
        <time>2018-04-15T08:47:12Z</time>
      </trkpt>
      <trkpt lat="43.87557" lon="7.73682">
        <ele>1283.956</ele>
        <time>2018-04-15T08:47:18Z</time>
      </trkpt>
      <trkpt lat="43.87554" lon="7.73686">
        <ele>1284.47</ele>
        <time>2018-04-15T08:47:22Z</time>
      </trkpt>
      <trkpt lat="43.87549" lon="7.73688">
        <ele>1284.767</ele>
        <time>2018-04-15T08:47:25Z</time>
      </trkpt>
      <trkpt lat="43.87546" lon="7.7369">
        <ele>1285.096</ele>
        <time>2018-04-15T08:47:28Z</time>
      </trkpt>
      <trkpt lat="43.87543" lon="7.73692">
        <ele>1285.215</ele>
        <time>2018-04-15T08:47:30Z</time>
      </trkpt>
      <trkpt lat="43.87542" lon="7.73696">
        <ele>1285.399</ele>
        <time>2018-04-15T08:47:35Z</time>
      </trkpt>
      <trkpt lat="43.87539" lon="7.73697">
        <ele>1285.667</ele>
        <time>2018-04-15T08:47:38Z</time>
      </trkpt>
      <trkpt lat="43.87536" lon="7.73698">
        <ele>1285.966</ele>
        <time>2018-04-15T08:47:41Z</time>
      </trkpt>
      <trkpt lat="43.87533" lon="7.73698">
        <ele>1286.023</ele>
        <time>2018-04-15T08:47:44Z</time>
      </trkpt>
      <trkpt lat="43.8753" lon="7.73698">
        <ele>1285.986</ele>
        <time>2018-04-15T08:47:48Z</time>
      </trkpt>
      <trkpt lat="43.87528" lon="7.73694">
        <ele>1285.934</ele>
        <time>2018-04-15T08:47:51Z</time>
      </trkpt>
      <trkpt lat="43.87526" lon="7.7369">
        <ele>1285.798</ele>
        <time>2018-04-15T08:47:54Z</time>
      </trkpt>
      <trkpt lat="43.87518" lon="7.73685">
        <ele>1285.356</ele>
        <time>2018-04-15T08:47:57Z</time>
      </trkpt>
      <trkpt lat="43.8751" lon="7.73685">
        <ele>1285.118</ele>
        <time>2018-04-15T08:47:59Z</time>
      </trkpt>
      <trkpt lat="43.87505" lon="7.73683">
        <ele>1284.112</ele>
        <time>2018-04-15T08:48:06Z</time>
      </trkpt>
      <trkpt lat="43.87501" lon="7.73683">
        <ele>1283.688</ele>
        <time>2018-04-15T08:48:09Z</time>
      </trkpt>
      <trkpt lat="43.87498" lon="7.73683">
        <ele>1283.201</ele>
        <time>2018-04-15T08:48:11Z</time>
      </trkpt>
      <trkpt lat="43.87494" lon="7.73682">
        <ele>1282.734</ele>
        <time>2018-04-15T08:48:13Z</time>
      </trkpt>
      <trkpt lat="43.87491" lon="7.73678">
        <ele>1281.835</ele>
        <time>2018-04-15T08:48:17Z</time>
      </trkpt>
      <trkpt lat="43.87488" lon="7.73677">
        <ele>1280.364</ele>
        <time>2018-04-15T08:48:39Z</time>
      </trkpt>
      <trkpt lat="43.87483" lon="7.73677">
        <ele>1280.4</ele>
        <time>2018-04-15T08:48:41Z</time>
      </trkpt>
      <trkpt lat="43.87477" lon="7.73678">
        <ele>1280.691</ele>
        <time>2018-04-15T08:49:02Z</time>
      </trkpt>
      <trkpt lat="43.87473" lon="7.7368">
        <ele>1280.733</ele>
        <time>2018-04-15T08:49:08Z</time>
      </trkpt>
      <trkpt lat="43.87465" lon="7.7368">
        <ele>1280.583</ele>
        <time>2018-04-15T08:49:23Z</time>
      </trkpt>
      <trkpt lat="43.8746" lon="7.7368">
        <ele>1280.955</ele>
        <time>2018-04-15T08:49:32Z</time>
      </trkpt>
      <trkpt lat="43.87455" lon="7.73679">
        <ele>1281.27</ele>
        <time>2018-04-15T08:49:35Z</time>
      </trkpt>
      <trkpt lat="43.87449" lon="7.73681">
        <ele>1281.315</ele>
        <time>2018-04-15T08:49:39Z</time>
      </trkpt>
      <trkpt lat="43.87441" lon="7.73683">
        <ele>1281.219</ele>
        <time>2018-04-15T08:49:47Z</time>
      </trkpt>
      <trkpt lat="43.87434" lon="7.73689">
        <ele>1281.347</ele>
        <time>2018-04-15T08:49:49Z</time>
      </trkpt>
      <trkpt lat="43.87428" lon="7.73694">
        <ele>1281.792</ele>
        <time>2018-04-15T08:49:54Z</time>
      </trkpt>
      <trkpt lat="43.87423" lon="7.73692">
        <ele>1282.295</ele>
        <time>2018-04-15T08:50:01Z</time>
      </trkpt>
      <trkpt lat="43.87418" lon="7.73689">
        <ele>1282.295</ele>
        <time>2018-04-15T08:50:02Z</time>
      </trkpt>
      <trkpt lat="43.87412" lon="7.73684">
        <ele>1282.317</ele>
        <time>2018-04-15T08:50:04Z</time>
      </trkpt>
      <trkpt lat="43.87409" lon="7.73682">
        <ele>1283.039</ele>
        <time>2018-04-15T08:50:16Z</time>
      </trkpt>
      <trkpt lat="43.87407" lon="7.7368">
        <ele>1282.85</ele>
        <time>2018-04-15T08:50:20Z</time>
      </trkpt>
      <trkpt lat="43.87404" lon="7.73678">
        <ele>1283.037</ele>
        <time>2018-04-15T08:50:25Z</time>
      </trkpt>
      <trkpt lat="43.87401" lon="7.73673">
        <ele>1283.215</ele>
        <time>2018-04-15T08:50:27Z</time>
      </trkpt>
      <trkpt lat="43.87398" lon="7.73668">
        <ele>1283.227</ele>
        <time>2018-04-15T08:50:29Z</time>
      </trkpt>
      <trkpt lat="43.87395" lon="7.73665">
        <ele>1283.227</ele>
        <time>2018-04-15T08:50:30Z</time>
      </trkpt>
      <trkpt lat="43.87392" lon="7.7366">
        <ele>1283.158</ele>
        <time>2018-04-15T08:50:32Z</time>
      </trkpt>
      <trkpt lat="43.8739" lon="7.73657">
        <ele>1283.442</ele>
        <time>2018-04-15T08:50:36Z</time>
      </trkpt>
      <trkpt lat="43.87386" lon="7.73657">
        <ele>1283.626</ele>
        <time>2018-04-15T08:50:38Z</time>
      </trkpt>
      <trkpt lat="43.87378" lon="7.73657">
        <ele>1284.941</ele>
        <time>2018-04-15T08:50:51Z</time>
      </trkpt>
      <trkpt lat="43.87375" lon="7.7366">
        <ele>1285.578</ele>
        <time>2018-04-15T08:50:56Z</time>
      </trkpt>
      <trkpt lat="43.87372" lon="7.73663">
        <ele>1285.836</ele>
        <time>2018-04-15T08:50:58Z</time>
      </trkpt>
      <trkpt lat="43.87366" lon="7.73666">
        <ele>1285.999</ele>
        <time>2018-04-15T08:51:00Z</time>
      </trkpt>
      <trkpt lat="43.87363" lon="7.73666">
        <ele>1286.086</ele>
        <time>2018-04-15T08:51:08Z</time>
      </trkpt>
      <trkpt lat="43.8736" lon="7.73666">
        <ele>1285.905</ele>
        <time>2018-04-15T08:51:24Z</time>
      </trkpt>
      <trkpt lat="43.87354" lon="7.73663">
        <ele>1285.716</ele>
        <time>2018-04-15T08:51:29Z</time>
      </trkpt>
      <trkpt lat="43.8735" lon="7.73661">
        <ele>1285.616</ele>
        <time>2018-04-15T08:51:53Z</time>
      </trkpt>
      <trkpt lat="43.87344" lon="7.73661">
        <ele>1285.618</ele>
        <time>2018-04-15T08:51:55Z</time>
      </trkpt>
      <trkpt lat="43.87341" lon="7.73661">
        <ele>1285.622</ele>
        <time>2018-04-15T08:51:57Z</time>
      </trkpt>
      <trkpt lat="43.87337" lon="7.73661">
        <ele>1285.64</ele>
        <time>2018-04-15T08:51:59Z</time>
      </trkpt>
      <trkpt lat="43.87333" lon="7.73662">
        <ele>1285.673</ele>
        <time>2018-04-15T08:52:01Z</time>
      </trkpt>
      <trkpt lat="43.87329" lon="7.73661">
        <ele>1285.722</ele>
        <time>2018-04-15T08:52:04Z</time>
      </trkpt>
      <trkpt lat="43.87326" lon="7.73662">
        <ele>1285.755</ele>
        <time>2018-04-15T08:52:06Z</time>
      </trkpt>
      <trkpt lat="43.87322" lon="7.73659">
        <ele>1285.79</ele>
        <time>2018-04-15T08:52:08Z</time>
      </trkpt>
      <trkpt lat="43.87318" lon="7.73659">
        <ele>1285.807</ele>
        <time>2018-04-15T08:52:10Z</time>
      </trkpt>
      <trkpt lat="43.87315" lon="7.7366">
        <ele>1285.856</ele>
        <time>2018-04-15T08:52:13Z</time>
      </trkpt>
      <trkpt lat="43.87306" lon="7.73663">
        <ele>1286.771</ele>
        <time>2018-04-15T08:52:31Z</time>
      </trkpt>
      <trkpt lat="43.87303" lon="7.73663">
        <ele>1287.069</ele>
        <time>2018-04-15T08:52:33Z</time>
      </trkpt>
      <trkpt lat="43.87299" lon="7.73664">
        <ele>1287.348</ele>
        <time>2018-04-15T08:52:35Z</time>
      </trkpt>
      <trkpt lat="43.87296" lon="7.73664">
        <ele>1287.35</ele>
        <time>2018-04-15T08:52:37Z</time>
      </trkpt>
      <trkpt lat="43.87293" lon="7.73666">
        <ele>1287.236</ele>
        <time>2018-04-15T08:52:40Z</time>
      </trkpt>
      <trkpt lat="43.87289" lon="7.73665">
        <ele>1286.856</ele>
        <time>2018-04-15T08:52:43Z</time>
      </trkpt>
      <trkpt lat="43.87286" lon="7.73667">
        <ele>1286.303</ele>
        <time>2018-04-15T08:52:46Z</time>
      </trkpt>
      <trkpt lat="43.87283" lon="7.73666">
        <ele>1285.866</ele>
        <time>2018-04-15T08:52:50Z</time>
      </trkpt>
      <trkpt lat="43.8728" lon="7.73665">
        <ele>1285.673</ele>
        <time>2018-04-15T08:52:56Z</time>
      </trkpt>
      <trkpt lat="43.87282" lon="7.73661">
        <ele>1284.25</ele>
        <time>2018-04-15T08:53:09Z</time>
      </trkpt>
      <trkpt lat="43.87284" lon="7.73661">
        <ele>1281.471</ele>
        <time>2018-04-15T08:53:29Z</time>
      </trkpt>
      <trkpt lat="43.87284" lon="7.73657">
        <ele>1280.844</ele>
        <time>2018-04-15T08:53:37Z</time>
      </trkpt>
      <trkpt lat="43.87282" lon="7.73654">
        <ele>1280.875</ele>
        <time>2018-04-15T08:53:39Z</time>
      </trkpt>
      <trkpt lat="43.8728" lon="7.73651">
        <ele>1280.87</ele>
        <time>2018-04-15T08:53:41Z</time>
      </trkpt>
      <trkpt lat="43.87278" lon="7.73648">
        <ele>1280.869</ele>
        <time>2018-04-15T08:53:43Z</time>
      </trkpt>
      <trkpt lat="43.87277" lon="7.73644">
        <ele>1281.885</ele>
        <time>2018-04-15T08:53:56Z</time>
      </trkpt>
      <trkpt lat="43.87276" lon="7.7364">
        <ele>1282.763</ele>
        <time>2018-04-15T08:54:02Z</time>
      </trkpt>
      <trkpt lat="43.87276" lon="7.73636">
        <ele>1283.208</ele>
        <time>2018-04-15T08:54:07Z</time>
      </trkpt>
      <trkpt lat="43.87274" lon="7.73633">
        <ele>1283.609</ele>
        <time>2018-04-15T08:54:10Z</time>
      </trkpt>
      <trkpt lat="43.87272" lon="7.7363">
        <ele>1284.24</ele>
        <time>2018-04-15T08:54:21Z</time>
      </trkpt>
      <trkpt lat="43.87271" lon="7.73625">
        <ele>1285.493</ele>
        <time>2018-04-15T08:54:26Z</time>
      </trkpt>
      <trkpt lat="43.87272" lon="7.73621">
        <ele>1286.509</ele>
        <time>2018-04-15T08:54:32Z</time>
      </trkpt>
      <trkpt lat="43.87272" lon="7.73617">
        <ele>1287.29</ele>
        <time>2018-04-15T08:54:37Z</time>
      </trkpt>
      <trkpt lat="43.87273" lon="7.73613">
        <ele>1288.299</ele>
        <time>2018-04-15T08:54:41Z</time>
      </trkpt>
      <trkpt lat="43.87273" lon="7.73609">
        <ele>1289.431</ele>
        <time>2018-04-15T08:54:45Z</time>
      </trkpt>
      <trkpt lat="43.87273" lon="7.73604">
        <ele>1291.119</ele>
        <time>2018-04-15T08:54:50Z</time>
      </trkpt>
      <trkpt lat="43.87272" lon="7.736">
        <ele>1291.395</ele>
        <time>2018-04-15T08:54:54Z</time>
      </trkpt>
      <trkpt lat="43.87272" lon="7.73595">
        <ele>1292.258</ele>
        <time>2018-04-15T08:54:58Z</time>
      </trkpt>
      <trkpt lat="43.87271" lon="7.73591">
        <ele>1293.11</ele>
        <time>2018-04-15T08:55:02Z</time>
      </trkpt>
      <trkpt lat="43.87265" lon="7.73589">
        <ele>1294.603</ele>
        <time>2018-04-15T08:55:10Z</time>
      </trkpt>
      <trkpt lat="43.87266" lon="7.73585">
        <ele>1295.137</ele>
        <time>2018-04-15T08:55:18Z</time>
      </trkpt>
      <trkpt lat="43.87262" lon="7.73585">
        <ele>1295.457</ele>
        <time>2018-04-15T08:55:29Z</time>
      </trkpt>
      <trkpt lat="43.87263" lon="7.73582">
        <ele>1296.309</ele>
        <time>2018-04-15T08:55:43Z</time>
      </trkpt>
      <trkpt lat="43.87266" lon="7.73579">
        <ele>1296.462</ele>
        <time>2018-04-15T08:55:47Z</time>
      </trkpt>
      <trkpt lat="43.87269" lon="7.73578">
        <ele>1296.664</ele>
        <time>2018-04-15T08:55:55Z</time>
      </trkpt>
      <trkpt lat="43.87267" lon="7.73575">
        <ele>1298.129</ele>
        <time>2018-04-15T08:56:29Z</time>
      </trkpt>
      <trkpt lat="43.87264" lon="7.73573">
        <ele>1298.664</ele>
        <time>2018-04-15T08:56:33Z</time>
      </trkpt>
      <trkpt lat="43.87261" lon="7.73571">
        <ele>1298.768</ele>
        <time>2018-04-15T08:56:36Z</time>
      </trkpt>
      <trkpt lat="43.87256" lon="7.73572">
        <ele>1299.661</ele>
        <time>2018-04-15T08:56:39Z</time>
      </trkpt>
      <trkpt lat="43.87253" lon="7.73573">
        <ele>1300.049</ele>
        <time>2018-04-15T08:56:41Z</time>
      </trkpt>
      <trkpt lat="43.8725" lon="7.73574">
        <ele>1300.481</ele>
        <time>2018-04-15T08:56:44Z</time>
      </trkpt>
      <trkpt lat="43.87248" lon="7.73576">
        <ele>1300.627</ele>
        <time>2018-04-15T08:56:50Z</time>
      </trkpt>
      <trkpt lat="43.87244" lon="7.73576">
        <ele>1300.415</ele>
        <time>2018-04-15T08:56:52Z</time>
      </trkpt>
      <trkpt lat="43.87242" lon="7.73575">
        <ele>1300.336</ele>
        <time>2018-04-15T08:56:58Z</time>
      </trkpt>
      <trkpt lat="43.87239" lon="7.73577">
        <ele>1299.816</ele>
        <time>2018-04-15T08:57:08Z</time>
      </trkpt>
      <trkpt lat="43.87236" lon="7.73576">
        <ele>1299.522</ele>
        <time>2018-04-15T08:57:12Z</time>
      </trkpt>
      <trkpt lat="43.87232" lon="7.73577">
        <ele>1299.442</ele>
        <time>2018-04-15T08:57:14Z</time>
      </trkpt>
      <trkpt lat="43.8723" lon="7.73578">
        <ele>1299.319</ele>
        <time>2018-04-15T08:57:16Z</time>
      </trkpt>
      <trkpt lat="43.87222" lon="7.73582">
        <ele>1299.064</ele>
        <time>2018-04-15T08:57:19Z</time>
      </trkpt>
      <trkpt lat="43.87217" lon="7.73586">
        <ele>1298.869</ele>
        <time>2018-04-15T08:57:22Z</time>
      </trkpt>
      <trkpt lat="43.87214" lon="7.7359">
        <ele>1298.691</ele>
        <time>2018-04-15T08:57:25Z</time>
      </trkpt>
      <trkpt lat="43.8721" lon="7.73594">
        <ele>1298.745</ele>
        <time>2018-04-15T08:57:28Z</time>
      </trkpt>
      <trkpt lat="43.87206" lon="7.73595">
        <ele>1298.943</ele>
        <time>2018-04-15T08:57:31Z</time>
      </trkpt>
      <trkpt lat="43.87205" lon="7.73599">
        <ele>1300.128</ele>
        <time>2018-04-15T08:57:43Z</time>
      </trkpt>
      <trkpt lat="43.87202" lon="7.73602">
        <ele>1300.274</ele>
        <time>2018-04-15T08:57:46Z</time>
      </trkpt>
      <trkpt lat="43.872" lon="7.73606">
        <ele>1300.391</ele>
        <time>2018-04-15T08:57:48Z</time>
      </trkpt>
      <trkpt lat="43.87198" lon="7.73611">
        <ele>1300.368</ele>
        <time>2018-04-15T08:57:50Z</time>
      </trkpt>
      <trkpt lat="43.87195" lon="7.73614">
        <ele>1300.534</ele>
        <time>2018-04-15T08:57:53Z</time>
      </trkpt>
      <trkpt lat="43.87192" lon="7.73617">
        <ele>1300.678</ele>
        <time>2018-04-15T08:57:56Z</time>
      </trkpt>
      <trkpt lat="43.87189" lon="7.7362">
        <ele>1301.118</ele>
        <time>2018-04-15T08:57:59Z</time>
      </trkpt>
      <trkpt lat="43.87187" lon="7.73624">
        <ele>1301.399</ele>
        <time>2018-04-15T08:58:01Z</time>
      </trkpt>
      <trkpt lat="43.87185" lon="7.73626">
        <ele>1301.541</ele>
        <time>2018-04-15T08:58:02Z</time>
      </trkpt>
      <trkpt lat="43.87181" lon="7.73631">
        <ele>1301.647</ele>
        <time>2018-04-15T08:58:04Z</time>
      </trkpt>
      <trkpt lat="43.87179" lon="7.73633">
        <ele>1301.685</ele>
        <time>2018-04-15T08:58:06Z</time>
      </trkpt>
      <trkpt lat="43.87176" lon="7.73636">
        <ele>1301.541</ele>
        <time>2018-04-15T08:58:09Z</time>
      </trkpt>
      <trkpt lat="43.87175" lon="7.7364">
        <ele>1301.432</ele>
        <time>2018-04-15T08:58:12Z</time>
      </trkpt>
      <trkpt lat="43.87173" lon="7.73644">
        <ele>1301.291</ele>
        <time>2018-04-15T08:58:15Z</time>
      </trkpt>
      <trkpt lat="43.87169" lon="7.73649">
        <ele>1300.986</ele>
        <time>2018-04-15T08:58:17Z</time>
      </trkpt>
      <trkpt lat="43.87166" lon="7.73653">
        <ele>1300.764</ele>
        <time>2018-04-15T08:58:19Z</time>
      </trkpt>
      <trkpt lat="43.87164" lon="7.73657">
        <ele>1300.371</ele>
        <time>2018-04-15T08:58:22Z</time>
      </trkpt>
      <trkpt lat="43.8716" lon="7.73661">
        <ele>1300.326</ele>
        <time>2018-04-15T08:58:25Z</time>
      </trkpt>
      <trkpt lat="43.87157" lon="7.73664">
        <ele>1300.571</ele>
        <time>2018-04-15T08:58:28Z</time>
      </trkpt>
      <trkpt lat="43.87155" lon="7.7367">
        <ele>1300.455</ele>
        <time>2018-04-15T08:58:31Z</time>
      </trkpt>
      <trkpt lat="43.87153" lon="7.73674">
        <ele>1300.325</ele>
        <time>2018-04-15T08:58:33Z</time>
      </trkpt>
      <trkpt lat="43.87151" lon="7.73679">
        <ele>1299.96</ele>
        <time>2018-04-15T08:58:37Z</time>
      </trkpt>
      <trkpt lat="43.87149" lon="7.73683">
        <ele>1299.88</ele>
        <time>2018-04-15T08:58:39Z</time>
      </trkpt>
      <trkpt lat="43.87148" lon="7.73687">
        <ele>1299.6</ele>
        <time>2018-04-15T08:58:41Z</time>
      </trkpt>
      <trkpt lat="43.87146" lon="7.73691">
        <ele>1299.169</ele>
        <time>2018-04-15T08:58:44Z</time>
      </trkpt>
      <trkpt lat="43.87143" lon="7.73694">
        <ele>1298.893</ele>
        <time>2018-04-15T08:58:47Z</time>
      </trkpt>
      <trkpt lat="43.87139" lon="7.73699">
        <ele>1298.875</ele>
        <time>2018-04-15T08:58:49Z</time>
      </trkpt>
      <trkpt lat="43.87138" lon="7.73702">
        <ele>1298.804</ele>
        <time>2018-04-15T08:58:51Z</time>
      </trkpt>
      <trkpt lat="43.87136" lon="7.73706">
        <ele>1298.891</ele>
        <time>2018-04-15T08:58:53Z</time>
      </trkpt>
      <trkpt lat="43.87134" lon="7.73709">
        <ele>1299.117</ele>
        <time>2018-04-15T08:58:55Z</time>
      </trkpt>
      <trkpt lat="43.87131" lon="7.73709">
        <ele>1299.748</ele>
        <time>2018-04-15T08:58:59Z</time>
      </trkpt>
      <trkpt lat="43.87129" lon="7.73712">
        <ele>1298.913</ele>
        <time>2018-04-15T08:59:19Z</time>
      </trkpt>
      <trkpt lat="43.87128" lon="7.73717">
        <ele>1297.962</ele>
        <time>2018-04-15T08:59:41Z</time>
      </trkpt>
      <trkpt lat="43.87127" lon="7.7372">
        <ele>1297.662</ele>
        <time>2018-04-15T08:59:46Z</time>
      </trkpt>
      <trkpt lat="43.87122" lon="7.73725">
        <ele>1298.855</ele>
        <time>2018-04-15T09:00:15Z</time>
      </trkpt>
      <trkpt lat="43.87119" lon="7.73723">
        <ele>1299.878</ele>
        <time>2018-04-15T09:00:43Z</time>
      </trkpt>
      <trkpt lat="43.87116" lon="7.73721">
        <ele>1299.957</ele>
        <time>2018-04-15T09:00:47Z</time>
      </trkpt>
      <trkpt lat="43.87118" lon="7.73718">
        <ele>1299.828</ele>
        <time>2018-04-15T09:01:04Z</time>
      </trkpt>
      <trkpt lat="43.87115" lon="7.73717">
        <ele>1299.427</ele>
        <time>2018-04-15T09:01:36Z</time>
      </trkpt>
      <trkpt lat="43.87118" lon="7.73718">
        <ele>1300.547</ele>
        <time>2018-04-15T09:04:39Z</time>
      </trkpt>
      <trkpt lat="43.87116" lon="7.73721">
        <ele>1300.706</ele>
        <time>2018-04-15T09:04:46Z</time>
      </trkpt>
      <trkpt lat="43.87112" lon="7.73718">
        <ele>1299.779</ele>
        <time>2018-04-15T09:05:24Z</time>
      </trkpt>
      <trkpt lat="43.87109" lon="7.73717">
        <ele>1299.834</ele>
        <time>2018-04-15T09:05:29Z</time>
      </trkpt>
      <trkpt lat="43.87106" lon="7.73717">
        <ele>1299.988</ele>
        <time>2018-04-15T09:05:31Z</time>
      </trkpt>
      <trkpt lat="43.87098" lon="7.73711">
        <ele>1300.127</ele>
        <time>2018-04-15T09:05:34Z</time>
      </trkpt>
      <trkpt lat="43.87094" lon="7.73711">
        <ele>1300.083</ele>
        <time>2018-04-15T09:05:36Z</time>
      </trkpt>
      <trkpt lat="43.87093" lon="7.73707">
        <ele>1299.084</ele>
        <time>2018-04-15T09:05:45Z</time>
      </trkpt>
      <trkpt lat="43.87094" lon="7.73703">
        <ele>1298.787</ele>
        <time>2018-04-15T09:05:50Z</time>
      </trkpt>
      <trkpt lat="43.87095" lon="7.73699">
        <ele>1298.554</ele>
        <time>2018-04-15T09:05:53Z</time>
      </trkpt>
      <trkpt lat="43.87098" lon="7.73694">
        <ele>1298.261</ele>
        <time>2018-04-15T09:05:56Z</time>
      </trkpt>
      <trkpt lat="43.87099" lon="7.7369">
        <ele>1298.055</ele>
        <time>2018-04-15T09:05:58Z</time>
      </trkpt>
      <trkpt lat="43.871" lon="7.73684">
        <ele>1297.757</ele>
        <time>2018-04-15T09:06:00Z</time>
      </trkpt>
      <trkpt lat="43.87101" lon="7.73681">
        <ele>1297.433</ele>
        <time>2018-04-15T09:06:02Z</time>
      </trkpt>
      <trkpt lat="43.87102" lon="7.73676">
        <ele>1296.937</ele>
        <time>2018-04-15T09:06:06Z</time>
      </trkpt>
      <trkpt lat="43.87104" lon="7.73672">
        <ele>1296.896</ele>
        <time>2018-04-15T09:06:09Z</time>
      </trkpt>
      <trkpt lat="43.87105" lon="7.73668">
        <ele>1296.88</ele>
        <time>2018-04-15T09:06:10Z</time>
      </trkpt>
      <trkpt lat="43.87108" lon="7.73664">
        <ele>1296.657</ele>
        <time>2018-04-15T09:06:12Z</time>
      </trkpt>
      <trkpt lat="43.87111" lon="7.73659">
        <ele>1296.437</ele>
        <time>2018-04-15T09:06:14Z</time>
      </trkpt>
      <trkpt lat="43.87113" lon="7.73654">
        <ele>1295.95</ele>
        <time>2018-04-15T09:06:17Z</time>
      </trkpt>
      <trkpt lat="43.87114" lon="7.73648">
        <ele>1295.783</ele>
        <time>2018-04-15T09:06:20Z</time>
      </trkpt>
      <trkpt lat="43.87115" lon="7.73644">
        <ele>1295.772</ele>
        <time>2018-04-15T09:06:22Z</time>
      </trkpt>
      <trkpt lat="43.87118" lon="7.73642">
        <ele>1295.76</ele>
        <time>2018-04-15T09:06:25Z</time>
      </trkpt>
      <trkpt lat="43.87119" lon="7.73638">
        <ele>1295.709</ele>
        <time>2018-04-15T09:06:27Z</time>
      </trkpt>
      <trkpt lat="43.8712" lon="7.73634">
        <ele>1295.685</ele>
        <time>2018-04-15T09:06:29Z</time>
      </trkpt>
      <trkpt lat="43.87122" lon="7.7363">
        <ele>1295.68</ele>
        <time>2018-04-15T09:06:32Z</time>
      </trkpt>
      <trkpt lat="43.87122" lon="7.73624">
        <ele>1295.423</ele>
        <time>2018-04-15T09:06:36Z</time>
      </trkpt>
      <trkpt lat="43.87122" lon="7.7362">
        <ele>1295.077</ele>
        <time>2018-04-15T09:06:39Z</time>
      </trkpt>
      <trkpt lat="43.87122" lon="7.73615">
        <ele>1294.819</ele>
        <time>2018-04-15T09:06:42Z</time>
      </trkpt>
      <trkpt lat="43.87122" lon="7.7361">
        <ele>1294.528</ele>
        <time>2018-04-15T09:06:44Z</time>
      </trkpt>
      <trkpt lat="43.87123" lon="7.73604">
        <ele>1294.281</ele>
        <time>2018-04-15T09:06:46Z</time>
      </trkpt>
      <trkpt lat="43.87124" lon="7.73594">
        <ele>1293.901</ele>
        <time>2018-04-15T09:06:49Z</time>
      </trkpt>
      <trkpt lat="43.87126" lon="7.7359">
        <ele>1292.932</ele>
        <time>2018-04-15T09:06:55Z</time>
      </trkpt>
      <trkpt lat="43.8713" lon="7.73581">
        <ele>1292.427</ele>
        <time>2018-04-15T09:06:58Z</time>
      </trkpt>
      <trkpt lat="43.87133" lon="7.73579">
        <ele>1292.148</ele>
        <time>2018-04-15T09:07:00Z</time>
      </trkpt>
      <trkpt lat="43.87136" lon="7.73577">
        <ele>1291.607</ele>
        <time>2018-04-15T09:07:03Z</time>
      </trkpt>
      <trkpt lat="43.87143" lon="7.73575">
        <ele>1291.093</ele>
        <time>2018-04-15T09:07:07Z</time>
      </trkpt>
      <trkpt lat="43.87149" lon="7.7357">
        <ele>1290.535</ele>
        <time>2018-04-15T09:07:10Z</time>
      </trkpt>
      <trkpt lat="43.87151" lon="7.73568">
        <ele>1290.009</ele>
        <time>2018-04-15T09:07:16Z</time>
      </trkpt>
      <trkpt lat="43.87155" lon="7.73566">
        <ele>1289.558</ele>
        <time>2018-04-15T09:07:19Z</time>
      </trkpt>
      <trkpt lat="43.87156" lon="7.73563">
        <ele>1289.442</ele>
        <time>2018-04-15T09:07:22Z</time>
      </trkpt>
      <trkpt lat="43.87157" lon="7.73559">
        <ele>1289.275</ele>
        <time>2018-04-15T09:07:25Z</time>
      </trkpt>
      <trkpt lat="43.87158" lon="7.73556">
        <ele>1288.776</ele>
        <time>2018-04-15T09:07:27Z</time>
      </trkpt>
      <trkpt lat="43.8716" lon="7.7355">
        <ele>1288.17</ele>
        <time>2018-04-15T09:07:32Z</time>
      </trkpt>
      <trkpt lat="43.87163" lon="7.73544">
        <ele>1287.975</ele>
        <time>2018-04-15T09:07:34Z</time>
      </trkpt>
      <trkpt lat="43.87164" lon="7.73539">
        <ele>1287.685</ele>
        <time>2018-04-15T09:07:36Z</time>
      </trkpt>
      <trkpt lat="43.87168" lon="7.73536">
        <ele>1287.258</ele>
        <time>2018-04-15T09:07:39Z</time>
      </trkpt>
      <trkpt lat="43.87172" lon="7.73527">
        <ele>1287.064</ele>
        <time>2018-04-15T09:07:41Z</time>
      </trkpt>
      <trkpt lat="43.87174" lon="7.73523">
        <ele>1286.478</ele>
        <time>2018-04-15T09:07:44Z</time>
      </trkpt>
      <trkpt lat="43.87176" lon="7.7352">
        <ele>1286.05</ele>
        <time>2018-04-15T09:07:47Z</time>
      </trkpt>
      <trkpt lat="43.87178" lon="7.73517">
        <ele>1285.508</ele>
        <time>2018-04-15T09:07:49Z</time>
      </trkpt>
      <trkpt lat="43.87183" lon="7.73512">
        <ele>1285.005</ele>
        <time>2018-04-15T09:07:54Z</time>
      </trkpt>
      <trkpt lat="43.87182" lon="7.73508">
        <ele>1284.619</ele>
        <time>2018-04-15T09:08:01Z</time>
      </trkpt>
      <trkpt lat="43.87182" lon="7.73503">
        <ele>1284.115</ele>
        <time>2018-04-15T09:08:04Z</time>
      </trkpt>
      <trkpt lat="43.87188" lon="7.735">
        <ele>1283.897</ele>
        <time>2018-04-15T09:08:06Z</time>
      </trkpt>
      <trkpt lat="43.87188" lon="7.73496">
        <ele>1283.189</ele>
        <time>2018-04-15T09:08:11Z</time>
      </trkpt>
      <trkpt lat="43.87188" lon="7.73492">
        <ele>1282.964</ele>
        <time>2018-04-15T09:08:13Z</time>
      </trkpt>
      <trkpt lat="43.87188" lon="7.73486">
        <ele>1282.381</ele>
        <time>2018-04-15T09:08:16Z</time>
      </trkpt>
      <trkpt lat="43.87183" lon="7.7347">
        <ele>1281.674</ele>
        <time>2018-04-15T09:08:21Z</time>
      </trkpt>
      <trkpt lat="43.87183" lon="7.73464">
        <ele>1281.273</ele>
        <time>2018-04-15T09:08:23Z</time>
      </trkpt>
      <trkpt lat="43.87181" lon="7.73461">
        <ele>1281.114</ele>
        <time>2018-04-15T09:08:26Z</time>
      </trkpt>
      <trkpt lat="43.87183" lon="7.73457">
        <ele>1281.097</ele>
        <time>2018-04-15T09:08:29Z</time>
      </trkpt>
      <trkpt lat="43.87181" lon="7.73444">
        <ele>1281.113</ele>
        <time>2018-04-15T09:08:32Z</time>
      </trkpt>
      <trkpt lat="43.8718" lon="7.73441">
        <ele>1281.016</ele>
        <time>2018-04-15T09:08:34Z</time>
      </trkpt>
      <trkpt lat="43.87181" lon="7.73437">
        <ele>1280.072</ele>
        <time>2018-04-15T09:08:40Z</time>
      </trkpt>
      <trkpt lat="43.87179" lon="7.73431">
        <ele>1279.218</ele>
        <time>2018-04-15T09:08:43Z</time>
      </trkpt>
      <trkpt lat="43.87178" lon="7.73426">
        <ele>1278.317</ele>
        <time>2018-04-15T09:08:45Z</time>
      </trkpt>
      <trkpt lat="43.87175" lon="7.73418">
        <ele>1277.526</ele>
        <time>2018-04-15T09:08:47Z</time>
      </trkpt>
      <trkpt lat="43.87167" lon="7.73403">
        <ele>1276.385</ele>
        <time>2018-04-15T09:08:50Z</time>
      </trkpt>
      <trkpt lat="43.87167" lon="7.73398">
        <ele>1275.606</ele>
        <time>2018-04-15T09:08:52Z</time>
      </trkpt>
      <trkpt lat="43.87166" lon="7.73395">
        <ele>1274.713</ele>
        <time>2018-04-15T09:08:55Z</time>
      </trkpt>
      <trkpt lat="43.87166" lon="7.7339">
        <ele>1273.959</ele>
        <time>2018-04-15T09:08:57Z</time>
      </trkpt>
      <trkpt lat="43.87165" lon="7.73384">
        <ele>1273.245</ele>
        <time>2018-04-15T09:08:59Z</time>
      </trkpt>
      <trkpt lat="43.87166" lon="7.73377">
        <ele>1272.592</ele>
        <time>2018-04-15T09:09:01Z</time>
      </trkpt>
      <trkpt lat="43.8717" lon="7.73371">
        <ele>1271.848</ele>
        <time>2018-04-15T09:09:03Z</time>
      </trkpt>
      <trkpt lat="43.87173" lon="7.73365">
        <ele>1271.118</ele>
        <time>2018-04-15T09:09:05Z</time>
      </trkpt>
      <trkpt lat="43.87174" lon="7.73359">
        <ele>1270.372</ele>
        <time>2018-04-15T09:09:07Z</time>
      </trkpt>
      <trkpt lat="43.87177" lon="7.73356">
        <ele>1269.668</ele>
        <time>2018-04-15T09:09:09Z</time>
      </trkpt>
      <trkpt lat="43.87179" lon="7.73348">
        <ele>1269</ele>
        <time>2018-04-15T09:09:11Z</time>
      </trkpt>
      <trkpt lat="43.87181" lon="7.7334">
        <ele>1267.423</ele>
        <time>2018-04-15T09:09:15Z</time>
      </trkpt>
      <trkpt lat="43.87182" lon="7.73335">
        <ele>1266.421</ele>
        <time>2018-04-15T09:09:18Z</time>
      </trkpt>
      <trkpt lat="43.87182" lon="7.73329">
        <ele>1265.634</ele>
        <time>2018-04-15T09:09:21Z</time>
      </trkpt>
      <trkpt lat="43.87183" lon="7.73325">
        <ele>1264.271</ele>
        <time>2018-04-15T09:09:27Z</time>
      </trkpt>
      <trkpt lat="43.8718" lon="7.73322">
        <ele>1263.68</ele>
        <time>2018-04-15T09:09:29Z</time>
      </trkpt>
      <trkpt lat="43.87181" lon="7.73318">
        <ele>1261.903</ele>
        <time>2018-04-15T09:09:38Z</time>
      </trkpt>
      <trkpt lat="43.8718" lon="7.73315">
        <ele>1260.383</ele>
        <time>2018-04-15T09:09:42Z</time>
      </trkpt>
      <trkpt lat="43.87178" lon="7.73312">
        <ele>1258.796</ele>
        <time>2018-04-15T09:09:49Z</time>
      </trkpt>
      <trkpt lat="43.87175" lon="7.73308">
        <ele>1258.228</ele>
        <time>2018-04-15T09:09:52Z</time>
      </trkpt>
      <trkpt lat="43.87172" lon="7.73304">
        <ele>1257.821</ele>
        <time>2018-04-15T09:09:54Z</time>
      </trkpt>
      <trkpt lat="43.8717" lon="7.73301">
        <ele>1257.307</ele>
        <time>2018-04-15T09:09:56Z</time>
      </trkpt>
      <trkpt lat="43.87168" lon="7.73298">
        <ele>1256.707</ele>
        <time>2018-04-15T09:09:58Z</time>
      </trkpt>
      <trkpt lat="43.87166" lon="7.73294">
        <ele>1256.116</ele>
        <time>2018-04-15T09:10:00Z</time>
      </trkpt>
      <trkpt lat="43.87164" lon="7.73291">
        <ele>1255.566</ele>
        <time>2018-04-15T09:10:02Z</time>
      </trkpt>
      <trkpt lat="43.87161" lon="7.73288">
        <ele>1254.97</ele>
        <time>2018-04-15T09:10:04Z</time>
      </trkpt>
      <trkpt lat="43.87159" lon="7.73286">
        <ele>1254.687</ele>
        <time>2018-04-15T09:10:06Z</time>
      </trkpt>
      <trkpt lat="43.87157" lon="7.73279">
        <ele>1254.003</ele>
        <time>2018-04-15T09:10:08Z</time>
      </trkpt>
      <trkpt lat="43.87153" lon="7.73265">
        <ele>1253.433</ele>
        <time>2018-04-15T09:10:10Z</time>
      </trkpt>
      <trkpt lat="43.87152" lon="7.73259">
        <ele>1252.857</ele>
        <time>2018-04-15T09:10:12Z</time>
      </trkpt>
      <trkpt lat="43.87151" lon="7.73253">
        <ele>1251.938</ele>
        <time>2018-04-15T09:10:15Z</time>
      </trkpt>
      <trkpt lat="43.87149" lon="7.73248">
        <ele>1251.213</ele>
        <time>2018-04-15T09:10:18Z</time>
      </trkpt>
      <trkpt lat="43.87148" lon="7.73245">
        <ele>1250.656</ele>
        <time>2018-04-15T09:10:20Z</time>
      </trkpt>
      <trkpt lat="43.87147" lon="7.73239">
        <ele>1250.12</ele>
        <time>2018-04-15T09:10:23Z</time>
      </trkpt>
      <trkpt lat="43.87147" lon="7.73234">
        <ele>1249.775</ele>
        <time>2018-04-15T09:10:25Z</time>
      </trkpt>
      <trkpt lat="43.87147" lon="7.73229">
        <ele>1249.3</ele>
        <time>2018-04-15T09:10:27Z</time>
      </trkpt>
      <trkpt lat="43.87148" lon="7.73225">
        <ele>1248.093</ele>
        <time>2018-04-15T09:10:31Z</time>
      </trkpt>
      <trkpt lat="43.87149" lon="7.73221">
        <ele>1247.836</ele>
        <time>2018-04-15T09:10:32Z</time>
      </trkpt>
      <trkpt lat="43.87149" lon="7.73217">
        <ele>1247.001</ele>
        <time>2018-04-15T09:10:35Z</time>
      </trkpt>
      <trkpt lat="43.8715" lon="7.73213">
        <ele>1245.973</ele>
        <time>2018-04-15T09:10:41Z</time>
      </trkpt>
      <trkpt lat="43.87151" lon="7.73209">
        <ele>1245.139</ele>
        <time>2018-04-15T09:10:48Z</time>
      </trkpt>
      <trkpt lat="43.87152" lon="7.73205">
        <ele>1243.365</ele>
        <time>2018-04-15T09:10:57Z</time>
      </trkpt>
      <trkpt lat="43.87152" lon="7.73201">
        <ele>1242.042</ele>
        <time>2018-04-15T09:11:03Z</time>
      </trkpt>
      <trkpt lat="43.87154" lon="7.73198">
        <ele>1241.383</ele>
        <time>2018-04-15T09:11:05Z</time>
      </trkpt>
      <trkpt lat="43.87156" lon="7.73195">
        <ele>1240.499</ele>
        <time>2018-04-15T09:11:08Z</time>
      </trkpt>
      <trkpt lat="43.87159" lon="7.73193">
        <ele>1239.133</ele>
        <time>2018-04-15T09:11:14Z</time>
      </trkpt>
      <trkpt lat="43.87158" lon="7.73188">
        <ele>1238.326</ele>
        <time>2018-04-15T09:11:17Z</time>
      </trkpt>
      <trkpt lat="43.87159" lon="7.73184">
        <ele>1238.151</ele>
        <time>2018-04-15T09:11:21Z</time>
      </trkpt>
      <trkpt lat="43.87162" lon="7.73181">
        <ele>1238.078</ele>
        <time>2018-04-15T09:11:23Z</time>
      </trkpt>
      <trkpt lat="43.87165" lon="7.73176">
        <ele>1237.954</ele>
        <time>2018-04-15T09:11:28Z</time>
      </trkpt>
      <trkpt lat="43.87167" lon="7.7317">
        <ele>1237.802</ele>
        <time>2018-04-15T09:11:30Z</time>
      </trkpt>
      <trkpt lat="43.87167" lon="7.73159">
        <ele>1237.725</ele>
        <time>2018-04-15T09:11:31Z</time>
      </trkpt>
      <trkpt lat="43.87169" lon="7.73148">
        <ele>1237.471</ele>
        <time>2018-04-15T09:11:34Z</time>
      </trkpt>
      <trkpt lat="43.87169" lon="7.73138">
        <ele>1237.197</ele>
        <time>2018-04-15T09:11:38Z</time>
      </trkpt>
      <trkpt lat="43.87169" lon="7.73134">
        <ele>1236.931</ele>
        <time>2018-04-15T09:11:41Z</time>
      </trkpt>
      <trkpt lat="43.87168" lon="7.7313">
        <ele>1236.68</ele>
        <time>2018-04-15T09:11:44Z</time>
      </trkpt>
      <trkpt lat="43.87168" lon="7.73125">
        <ele>1236.482</ele>
        <time>2018-04-15T09:11:46Z</time>
      </trkpt>
      <trkpt lat="43.87168" lon="7.73121">
        <ele>1236.169</ele>
        <time>2018-04-15T09:11:49Z</time>
      </trkpt>
      <trkpt lat="43.87167" lon="7.73114">
        <ele>1235.711</ele>
        <time>2018-04-15T09:11:52Z</time>
      </trkpt>
      <trkpt lat="43.87168" lon="7.73108">
        <ele>1235.466</ele>
        <time>2018-04-15T09:11:54Z</time>
      </trkpt>
      <trkpt lat="43.87171" lon="7.73102">
        <ele>1235.109</ele>
        <time>2018-04-15T09:11:57Z</time>
      </trkpt>
      <trkpt lat="43.87171" lon="7.73097">
        <ele>1234.928</ele>
        <time>2018-04-15T09:11:59Z</time>
      </trkpt>
      <trkpt lat="43.87171" lon="7.73093">
        <ele>1234.556</ele>
        <time>2018-04-15T09:12:02Z</time>
      </trkpt>
      <trkpt lat="43.8717" lon="7.73088">
        <ele>1234.304</ele>
        <time>2018-04-15T09:12:04Z</time>
      </trkpt>
      <trkpt lat="43.87169" lon="7.73081">
        <ele>1234.206</ele>
        <time>2018-04-15T09:12:06Z</time>
      </trkpt>
      <trkpt lat="43.8717" lon="7.73076">
        <ele>1233.769</ele>
        <time>2018-04-15T09:12:09Z</time>
      </trkpt>
      <trkpt lat="43.8717" lon="7.73072">
        <ele>1233.077</ele>
        <time>2018-04-15T09:12:12Z</time>
      </trkpt>
      <trkpt lat="43.87172" lon="7.73068">
        <ele>1231.868</ele>
        <time>2018-04-15T09:12:17Z</time>
      </trkpt>
      <trkpt lat="43.87174" lon="7.73067">
        <ele>1231.3</ele>
        <time>2018-04-15T09:12:25Z</time>
      </trkpt>
      <trkpt lat="43.87177" lon="7.73065">
        <ele>1228.934</ele>
        <time>2018-04-15T09:12:42Z</time>
      </trkpt>
      <trkpt lat="43.8718" lon="7.73066">
        <ele>1228.713</ele>
        <time>2018-04-15T09:12:50Z</time>
      </trkpt>
      <trkpt lat="43.87182" lon="7.73064">
        <ele>1228.509</ele>
        <time>2018-04-15T09:12:57Z</time>
      </trkpt>
      <trkpt lat="43.87179" lon="7.73064">
        <ele>1228.006</ele>
        <time>2018-04-15T09:13:10Z</time>
      </trkpt>
      <trkpt lat="43.87177" lon="7.7306">
        <ele>1224.676</ele>
        <time>2018-04-15T09:13:31Z</time>
      </trkpt>
      <trkpt lat="43.87175" lon="7.73056">
        <ele>1223.839</ele>
        <time>2018-04-15T09:13:37Z</time>
      </trkpt>
      <trkpt lat="43.87173" lon="7.73051">
        <ele>1223.322</ele>
        <time>2018-04-15T09:13:39Z</time>
      </trkpt>
      <trkpt lat="43.87172" lon="7.73047">
        <ele>1222.927</ele>
        <time>2018-04-15T09:13:41Z</time>
      </trkpt>
      <trkpt lat="43.87172" lon="7.73043">
        <ele>1222.418</ele>
        <time>2018-04-15T09:13:44Z</time>
      </trkpt>
      <trkpt lat="43.8717" lon="7.73039">
        <ele>1222.075</ele>
        <time>2018-04-15T09:13:46Z</time>
      </trkpt>
      <trkpt lat="43.8717" lon="7.73035">
        <ele>1221.597</ele>
        <time>2018-04-15T09:13:48Z</time>
      </trkpt>
      <trkpt lat="43.87169" lon="7.73029">
        <ele>1221.216</ele>
        <time>2018-04-15T09:13:50Z</time>
      </trkpt>
      <trkpt lat="43.87169" lon="7.73025">
        <ele>1220.774</ele>
        <time>2018-04-15T09:13:52Z</time>
      </trkpt>
      <trkpt lat="43.87168" lon="7.73021">
        <ele>1220.211</ele>
        <time>2018-04-15T09:13:55Z</time>
      </trkpt>
      <trkpt lat="43.87167" lon="7.73017">
        <ele>1219.353</ele>
        <time>2018-04-15T09:14:01Z</time>
      </trkpt>
      <trkpt lat="43.87165" lon="7.73014">
        <ele>1219.023</ele>
        <time>2018-04-15T09:14:03Z</time>
      </trkpt>
      <trkpt lat="43.87165" lon="7.7301">
        <ele>1218.435</ele>
        <time>2018-04-15T09:14:06Z</time>
      </trkpt>
      <trkpt lat="43.87165" lon="7.73005">
        <ele>1218.061</ele>
        <time>2018-04-15T09:14:08Z</time>
      </trkpt>
      <trkpt lat="43.87164" lon="7.73001">
        <ele>1217.748</ele>
        <time>2018-04-15T09:14:10Z</time>
      </trkpt>
      <trkpt lat="43.87164" lon="7.72997">
        <ele>1217.444</ele>
        <time>2018-04-15T09:14:12Z</time>
      </trkpt>
      <trkpt lat="43.87163" lon="7.72994">
        <ele>1216.699</ele>
        <time>2018-04-15T09:14:17Z</time>
      </trkpt>
      <trkpt lat="43.87161" lon="7.7299">
        <ele>1216.176</ele>
        <time>2018-04-15T09:14:20Z</time>
      </trkpt>
      <trkpt lat="43.87158" lon="7.72987">
        <ele>1215.753</ele>
        <time>2018-04-15T09:14:22Z</time>
      </trkpt>
      <trkpt lat="43.87157" lon="7.72983">
        <ele>1215.313</ele>
        <time>2018-04-15T09:14:24Z</time>
      </trkpt>
      <trkpt lat="43.87155" lon="7.72979">
        <ele>1214.839</ele>
        <time>2018-04-15T09:14:26Z</time>
      </trkpt>
      <trkpt lat="43.87154" lon="7.72975">
        <ele>1214.326</ele>
        <time>2018-04-15T09:14:28Z</time>
      </trkpt>
      <trkpt lat="43.87153" lon="7.72971">
        <ele>1213.547</ele>
        <time>2018-04-15T09:14:31Z</time>
      </trkpt>
      <trkpt lat="43.87151" lon="7.72966">
        <ele>1212.93</ele>
        <time>2018-04-15T09:14:34Z</time>
      </trkpt>
      <trkpt lat="43.87149" lon="7.72963">
        <ele>1212.584</ele>
        <time>2018-04-15T09:14:36Z</time>
      </trkpt>
      <trkpt lat="43.87147" lon="7.7296">
        <ele>1212.124</ele>
        <time>2018-04-15T09:14:38Z</time>
      </trkpt>
      <trkpt lat="43.87147" lon="7.72955">
        <ele>1211.611</ele>
        <time>2018-04-15T09:14:40Z</time>
      </trkpt>
      <trkpt lat="43.87148" lon="7.72951">
        <ele>1211.154</ele>
        <time>2018-04-15T09:14:42Z</time>
      </trkpt>
      <trkpt lat="43.87147" lon="7.72947">
        <ele>1210.744</ele>
        <time>2018-04-15T09:14:45Z</time>
      </trkpt>
      <trkpt lat="43.87146" lon="7.72944">
        <ele>1209.761</ele>
        <time>2018-04-15T09:14:50Z</time>
      </trkpt>
      <trkpt lat="43.87144" lon="7.72939">
        <ele>1208.735</ele>
        <time>2018-04-15T09:14:54Z</time>
      </trkpt>
      <trkpt lat="43.87142" lon="7.72935">
        <ele>1208.131</ele>
        <time>2018-04-15T09:14:56Z</time>
      </trkpt>
      <trkpt lat="43.87141" lon="7.72931">
        <ele>1207.663</ele>
        <time>2018-04-15T09:14:58Z</time>
      </trkpt>
      <trkpt lat="43.8714" lon="7.72927">
        <ele>1206.959</ele>
        <time>2018-04-15T09:15:02Z</time>
      </trkpt>
      <trkpt lat="43.87137" lon="7.72919">
        <ele>1205.6</ele>
        <time>2018-04-15T09:15:08Z</time>
      </trkpt>
      <trkpt lat="43.87133" lon="7.72913">
        <ele>1204.921</ele>
        <time>2018-04-15T09:15:10Z</time>
      </trkpt>
      <trkpt lat="43.87132" lon="7.72907">
        <ele>1204.055</ele>
        <time>2018-04-15T09:15:12Z</time>
      </trkpt>
      <trkpt lat="43.87132" lon="7.72901">
        <ele>1203.22</ele>
        <time>2018-04-15T09:15:14Z</time>
      </trkpt>
      <trkpt lat="43.87131" lon="7.72897">
        <ele>1202.199</ele>
        <time>2018-04-15T09:15:17Z</time>
      </trkpt>
      <trkpt lat="43.87131" lon="7.72889">
        <ele>1201.281</ele>
        <time>2018-04-15T09:15:20Z</time>
      </trkpt>
      <trkpt lat="43.87134" lon="7.72887">
        <ele>1200.412</ele>
        <time>2018-04-15T09:15:31Z</time>
      </trkpt>
      <trkpt lat="43.87131" lon="7.72886">
        <ele>1199.074</ele>
        <time>2018-04-15T09:15:55Z</time>
      </trkpt>
      <trkpt lat="43.87133" lon="7.72883">
        <ele>1198.294</ele>
        <time>2018-04-15T09:16:23Z</time>
      </trkpt>
      <trkpt lat="43.87135" lon="7.72888">
        <ele>1196.867</ele>
        <time>2018-04-15T09:16:41Z</time>
      </trkpt>
      <trkpt lat="43.87133" lon="7.72892">
        <ele>1196.384</ele>
        <time>2018-04-15T09:16:43Z</time>
      </trkpt>
      <trkpt lat="43.87132" lon="7.72897">
        <ele>1195.825</ele>
        <time>2018-04-15T09:16:46Z</time>
      </trkpt>
      <trkpt lat="43.87131" lon="7.72901">
        <ele>1194.711</ele>
        <time>2018-04-15T09:16:51Z</time>
      </trkpt>
      <trkpt lat="43.87128" lon="7.72902">
        <ele>1193.688</ele>
        <time>2018-04-15T09:16:55Z</time>
      </trkpt>
      <trkpt lat="43.87126" lon="7.72904">
        <ele>1192.75</ele>
        <time>2018-04-15T09:16:59Z</time>
      </trkpt>
      <trkpt lat="43.87124" lon="7.72909">
        <ele>1192.142</ele>
        <time>2018-04-15T09:17:02Z</time>
      </trkpt>
      <trkpt lat="43.87121" lon="7.72909">
        <ele>1191.366</ele>
        <time>2018-04-15T09:17:06Z</time>
      </trkpt>
      <trkpt lat="43.87119" lon="7.72913">
        <ele>1190.158</ele>
        <time>2018-04-15T09:17:12Z</time>
      </trkpt>
      <trkpt lat="43.87116" lon="7.7291">
        <ele>1188.743</ele>
        <time>2018-04-15T09:17:19Z</time>
      </trkpt>
      <trkpt lat="43.87113" lon="7.7291">
        <ele>1187.558</ele>
        <time>2018-04-15T09:17:27Z</time>
      </trkpt>
      <trkpt lat="43.8711" lon="7.72911">
        <ele>1185.846</ele>
        <time>2018-04-15T09:17:33Z</time>
      </trkpt>
      <trkpt lat="43.87106" lon="7.7291">
        <ele>1183.987</ele>
        <time>2018-04-15T09:17:39Z</time>
      </trkpt>
      <trkpt lat="43.87103" lon="7.72909">
        <ele>1183.279</ele>
        <time>2018-04-15T09:17:42Z</time>
      </trkpt>
      <trkpt lat="43.871" lon="7.7291">
        <ele>1182.781</ele>
        <time>2018-04-15T09:17:44Z</time>
      </trkpt>
      <trkpt lat="43.87099" lon="7.72913">
        <ele>1182.395</ele>
        <time>2018-04-15T09:17:46Z</time>
      </trkpt>
      <trkpt lat="43.87097" lon="7.72916">
        <ele>1181.631</ele>
        <time>2018-04-15T09:17:49Z</time>
      </trkpt>
      <trkpt lat="43.87093" lon="7.72916">
        <ele>1180.588</ele>
        <time>2018-04-15T09:17:52Z</time>
      </trkpt>
      <trkpt lat="43.87091" lon="7.72917">
        <ele>1179.184</ele>
        <time>2018-04-15T09:17:56Z</time>
      </trkpt>
      <trkpt lat="43.87087" lon="7.72919">
        <ele>1178.157</ele>
        <time>2018-04-15T09:17:59Z</time>
      </trkpt>
      <trkpt lat="43.87083" lon="7.72918">
        <ele>1177.177</ele>
        <time>2018-04-15T09:18:02Z</time>
      </trkpt>
      <trkpt lat="43.8708" lon="7.72917">
        <ele>1176.441</ele>
        <time>2018-04-15T09:18:04Z</time>
      </trkpt>
      <trkpt lat="43.87077" lon="7.72918">
        <ele>1175.898</ele>
        <time>2018-04-15T09:18:06Z</time>
      </trkpt>
      <trkpt lat="43.87074" lon="7.7292">
        <ele>1175.332</ele>
        <time>2018-04-15T09:18:08Z</time>
      </trkpt>
      <trkpt lat="43.87071" lon="7.72921">
        <ele>1174.09</ele>
        <time>2018-04-15T09:18:12Z</time>
      </trkpt>
      <trkpt lat="43.87067" lon="7.72921">
        <ele>1172.546</ele>
        <time>2018-04-15T09:18:17Z</time>
      </trkpt>
      <trkpt lat="43.87063" lon="7.72922">
        <ele>1171.754</ele>
        <time>2018-04-15T09:18:19Z</time>
      </trkpt>
      <trkpt lat="43.87059" lon="7.72922">
        <ele>1170.602</ele>
        <time>2018-04-15T09:18:22Z</time>
      </trkpt>
      <trkpt lat="43.87057" lon="7.72925">
        <ele>1169.286</ele>
        <time>2018-04-15T09:18:26Z</time>
      </trkpt>
      <trkpt lat="43.87052" lon="7.72925">
        <ele>1168.076</ele>
        <time>2018-04-15T09:18:30Z</time>
      </trkpt>
      <trkpt lat="43.87048" lon="7.72923">
        <ele>1167.292</ele>
        <time>2018-04-15T09:18:32Z</time>
      </trkpt>
      <trkpt lat="43.87045" lon="7.72922">
        <ele>1166.704</ele>
        <time>2018-04-15T09:18:34Z</time>
      </trkpt>
      <trkpt lat="43.8704" lon="7.72921">
        <ele>1166.025</ele>
        <time>2018-04-15T09:18:36Z</time>
      </trkpt>
      <trkpt lat="43.87037" lon="7.7292">
        <ele>1165.381</ele>
        <time>2018-04-15T09:18:38Z</time>
      </trkpt>
      <trkpt lat="43.87034" lon="7.7292">
        <ele>1164.652</ele>
        <time>2018-04-15T09:18:40Z</time>
      </trkpt>
      <trkpt lat="43.87029" lon="7.72919">
        <ele>1163.452</ele>
        <time>2018-04-15T09:18:43Z</time>
      </trkpt>
      <trkpt lat="43.87025" lon="7.72919">
        <ele>1162.652</ele>
        <time>2018-04-15T09:18:45Z</time>
      </trkpt>
      <trkpt lat="43.87021" lon="7.72919">
        <ele>1161.862</ele>
        <time>2018-04-15T09:18:47Z</time>
      </trkpt>
      <trkpt lat="43.87017" lon="7.72918">
        <ele>1161.191</ele>
        <time>2018-04-15T09:18:50Z</time>
      </trkpt>
      <trkpt lat="43.87013" lon="7.72921">
        <ele>1160.402</ele>
        <time>2018-04-15T09:18:53Z</time>
      </trkpt>
      <trkpt lat="43.87013" lon="7.72925">
        <ele>1159.428</ele>
        <time>2018-04-15T09:18:57Z</time>
      </trkpt>
      <trkpt lat="43.87009" lon="7.72928">
        <ele>1158.486</ele>
        <time>2018-04-15T09:19:00Z</time>
      </trkpt>
      <trkpt lat="43.87001" lon="7.72931">
        <ele>1157.645</ele>
        <time>2018-04-15T09:19:03Z</time>
      </trkpt>
      <trkpt lat="43.86998" lon="7.72932">
        <ele>1157.07</ele>
        <time>2018-04-15T09:19:05Z</time>
      </trkpt>
      <trkpt lat="43.86997" lon="7.72935">
        <ele>1156.292</ele>
        <time>2018-04-15T09:19:08Z</time>
      </trkpt>
      <trkpt lat="43.86995" lon="7.72938">
        <ele>1154.804</ele>
        <time>2018-04-15T09:19:14Z</time>
      </trkpt>
      <trkpt lat="43.86996" lon="7.72943">
        <ele>1153.993</ele>
        <time>2018-04-15T09:19:17Z</time>
      </trkpt>
      <trkpt lat="43.86998" lon="7.72946">
        <ele>1153.225</ele>
        <time>2018-04-15T09:19:20Z</time>
      </trkpt>
      <trkpt lat="43.86997" lon="7.7295">
        <ele>1152.526</ele>
        <time>2018-04-15T09:19:24Z</time>
      </trkpt>
      <trkpt lat="43.86997" lon="7.72954">
        <ele>1151.314</ele>
        <time>2018-04-15T09:19:30Z</time>
      </trkpt>
      <trkpt lat="43.86995" lon="7.72958">
        <ele>1150.842</ele>
        <time>2018-04-15T09:19:32Z</time>
      </trkpt>
      <trkpt lat="43.86994" lon="7.72961">
        <ele>1149.824</ele>
        <time>2018-04-15T09:19:37Z</time>
      </trkpt>
      <trkpt lat="43.86992" lon="7.72965">
        <ele>1149.137</ele>
        <time>2018-04-15T09:19:40Z</time>
      </trkpt>
      <trkpt lat="43.86993" lon="7.72969">
        <ele>1148.293</ele>
        <time>2018-04-15T09:19:43Z</time>
      </trkpt>
      <trkpt lat="43.86995" lon="7.72974">
        <ele>1147.773</ele>
        <time>2018-04-15T09:19:45Z</time>
      </trkpt>
      <trkpt lat="43.86994" lon="7.72978">
        <ele>1147.202</ele>
        <time>2018-04-15T09:19:48Z</time>
      </trkpt>
      <trkpt lat="43.86996" lon="7.72981">
        <ele>1146.622</ele>
        <time>2018-04-15T09:19:51Z</time>
      </trkpt>
      <trkpt lat="43.86999" lon="7.72984">
        <ele>1145.659</ele>
        <time>2018-04-15T09:19:54Z</time>
      </trkpt>
      <trkpt lat="43.87002" lon="7.72986">
        <ele>1144.739</ele>
        <time>2018-04-15T09:19:57Z</time>
      </trkpt>
      <trkpt lat="43.87002" lon="7.7299">
        <ele>1144.126</ele>
        <time>2018-04-15T09:20:00Z</time>
      </trkpt>
      <trkpt lat="43.87005" lon="7.72992">
        <ele>1143.691</ele>
        <time>2018-04-15T09:20:02Z</time>
      </trkpt>
      <trkpt lat="43.87005" lon="7.72997">
        <ele>1142.689</ele>
        <time>2018-04-15T09:20:06Z</time>
      </trkpt>
      <trkpt lat="43.87006" lon="7.73002">
        <ele>1142.317</ele>
        <time>2018-04-15T09:20:08Z</time>
      </trkpt>
      <trkpt lat="43.87007" lon="7.73006">
        <ele>1141.975</ele>
        <time>2018-04-15T09:20:10Z</time>
      </trkpt>
      <trkpt lat="43.8701" lon="7.73008">
        <ele>1137.803</ele>
        <time>2018-04-15T09:20:23Z</time>
      </trkpt>
      <trkpt lat="43.87009" lon="7.73011">
        <ele>1136.325</ele>
        <time>2018-04-15T09:20:32Z</time>
      </trkpt>
      <trkpt lat="43.87008" lon="7.73015">
        <ele>1136.122</ele>
        <time>2018-04-15T09:20:38Z</time>
      </trkpt>
      <trkpt lat="43.87005" lon="7.73018">
        <ele>1135.536</ele>
        <time>2018-04-15T09:20:44Z</time>
      </trkpt>
      <trkpt lat="43.87002" lon="7.73019">
        <ele>1135.124</ele>
        <time>2018-04-15T09:20:46Z</time>
      </trkpt>
      <trkpt lat="43.86999" lon="7.73021">
        <ele>1134.323</ele>
        <time>2018-04-15T09:20:54Z</time>
      </trkpt>
      <trkpt lat="43.86996" lon="7.73024">
        <ele>1133.513</ele>
        <time>2018-04-15T09:20:58Z</time>
      </trkpt>
      <trkpt lat="43.86995" lon="7.73028">
        <ele>1132.036</ele>
        <time>2018-04-15T09:21:06Z</time>
      </trkpt>
      <trkpt lat="43.8699" lon="7.73027">
        <ele>1131.751</ele>
        <time>2018-04-15T09:21:10Z</time>
      </trkpt>
      <trkpt lat="43.86987" lon="7.73025">
        <ele>1131.357</ele>
        <time>2018-04-15T09:21:13Z</time>
      </trkpt>
      <trkpt lat="43.86982" lon="7.73027">
        <ele>1129.805</ele>
        <time>2018-04-15T09:21:18Z</time>
      </trkpt>
      <trkpt lat="43.86979" lon="7.73024">
        <ele>1128.122</ele>
        <time>2018-04-15T09:21:23Z</time>
      </trkpt>
      <trkpt lat="43.86976" lon="7.73023">
        <ele>1127.006</ele>
        <time>2018-04-15T09:21:26Z</time>
      </trkpt>
      <trkpt lat="43.86973" lon="7.73025">
        <ele>1126.319</ele>
        <time>2018-04-15T09:21:28Z</time>
      </trkpt>
      <trkpt lat="43.8697" lon="7.73024">
        <ele>1125.045</ele>
        <time>2018-04-15T09:21:31Z</time>
      </trkpt>
      <trkpt lat="43.86966" lon="7.73024">
        <ele>1123.763</ele>
        <time>2018-04-15T09:21:34Z</time>
      </trkpt>
      <trkpt lat="43.86963" lon="7.73026">
        <ele>1122.534</ele>
        <time>2018-04-15T09:21:37Z</time>
      </trkpt>
      <trkpt lat="43.8696" lon="7.73027">
        <ele>1121.372</ele>
        <time>2018-04-15T09:21:40Z</time>
      </trkpt>
      <trkpt lat="43.86957" lon="7.73027">
        <ele>1119.271</ele>
        <time>2018-04-15T09:21:46Z</time>
      </trkpt>
      <trkpt lat="43.86954" lon="7.73026">
        <ele>1117.581</ele>
        <time>2018-04-15T09:21:50Z</time>
      </trkpt>
      <trkpt lat="43.86951" lon="7.73026">
        <ele>1116.951</ele>
        <time>2018-04-15T09:21:53Z</time>
      </trkpt>
      <trkpt lat="43.86948" lon="7.73027">
        <ele>1115.954</ele>
        <time>2018-04-15T09:21:58Z</time>
      </trkpt>
      <trkpt lat="43.86939" lon="7.73025">
        <ele>1114.652</ele>
        <time>2018-04-15T09:22:01Z</time>
      </trkpt>
      <trkpt lat="43.86934" lon="7.73023">
        <ele>1113.998</ele>
        <time>2018-04-15T09:22:03Z</time>
      </trkpt>
      <trkpt lat="43.8693" lon="7.73021">
        <ele>1113.266</ele>
        <time>2018-04-15T09:22:05Z</time>
      </trkpt>
      <trkpt lat="43.86926" lon="7.7302">
        <ele>1112.502</ele>
        <time>2018-04-15T09:22:07Z</time>
      </trkpt>
      <trkpt lat="43.86923" lon="7.73018">
        <ele>1111.883</ele>
        <time>2018-04-15T09:22:09Z</time>
      </trkpt>
      <trkpt lat="43.8692" lon="7.73014">
        <ele>1110.73</ele>
        <time>2018-04-15T09:22:13Z</time>
      </trkpt>
      <trkpt lat="43.86917" lon="7.73014">
        <ele>1110.117</ele>
        <time>2018-04-15T09:22:15Z</time>
      </trkpt>
      <trkpt lat="43.86914" lon="7.73012">
        <ele>1109.008</ele>
        <time>2018-04-15T09:22:19Z</time>
      </trkpt>
      <trkpt lat="43.86912" lon="7.73009">
        <ele>1108.228</ele>
        <time>2018-04-15T09:22:22Z</time>
      </trkpt>
      <trkpt lat="43.8691" lon="7.73006">
        <ele>1106.896</ele>
        <time>2018-04-15T09:22:26Z</time>
      </trkpt>
      <trkpt lat="43.86907" lon="7.73004">
        <ele>1106.172</ele>
        <time>2018-04-15T09:22:28Z</time>
      </trkpt>
      <trkpt lat="43.86903" lon="7.73003">
        <ele>1104.772</ele>
        <time>2018-04-15T09:22:32Z</time>
      </trkpt>
      <trkpt lat="43.86902" lon="7.73">
        <ele>1103.134</ele>
        <time>2018-04-15T09:22:37Z</time>
      </trkpt>
      <trkpt lat="43.86899" lon="7.72997">
        <ele>1101.72</ele>
        <time>2018-04-15T09:22:42Z</time>
      </trkpt>
      <trkpt lat="43.86898" lon="7.72992">
        <ele>1100.628</ele>
        <time>2018-04-15T09:22:45Z</time>
      </trkpt>
      <trkpt lat="43.86896" lon="7.72989">
        <ele>1099.642</ele>
        <time>2018-04-15T09:22:48Z</time>
      </trkpt>
      <trkpt lat="43.86894" lon="7.72986">
        <ele>1098.897</ele>
        <time>2018-04-15T09:22:51Z</time>
      </trkpt>
      <trkpt lat="43.86894" lon="7.72982">
        <ele>1096.864</ele>
        <time>2018-04-15T09:22:58Z</time>
      </trkpt>
      <trkpt lat="43.86891" lon="7.72979">
        <ele>1095.511</ele>
        <time>2018-04-15T09:23:02Z</time>
      </trkpt>
      <trkpt lat="43.8689" lon="7.72975">
        <ele>1094.863</ele>
        <time>2018-04-15T09:23:05Z</time>
      </trkpt>
      <trkpt lat="43.86888" lon="7.72973">
        <ele>1092.759</ele>
        <time>2018-04-15T09:23:14Z</time>
      </trkpt>
      <trkpt lat="43.86885" lon="7.72971">
        <ele>1091.743</ele>
        <time>2018-04-15T09:23:17Z</time>
      </trkpt>
      <trkpt lat="43.86881" lon="7.72967">
        <ele>1090.996</ele>
        <time>2018-04-15T09:23:19Z</time>
      </trkpt>
      <trkpt lat="43.86879" lon="7.72965">
        <ele>1089.803</ele>
        <time>2018-04-15T09:23:23Z</time>
      </trkpt>
      <trkpt lat="43.86876" lon="7.72965">
        <ele>1089.278</ele>
        <time>2018-04-15T09:23:26Z</time>
      </trkpt>
      <trkpt lat="43.86874" lon="7.72968">
        <ele>1088.665</ele>
        <time>2018-04-15T09:23:31Z</time>
      </trkpt>
      <trkpt lat="43.86871" lon="7.72968">
        <ele>1087.685</ele>
        <time>2018-04-15T09:23:36Z</time>
      </trkpt>
      <trkpt lat="43.86867" lon="7.72973">
        <ele>1087.318</ele>
        <time>2018-04-15T09:23:39Z</time>
      </trkpt>
      <trkpt lat="43.86864" lon="7.72973">
        <ele>1086.74</ele>
        <time>2018-04-15T09:23:43Z</time>
      </trkpt>
      <trkpt lat="43.86859" lon="7.72972">
        <ele>1086.388</ele>
        <time>2018-04-15T09:23:45Z</time>
      </trkpt>
      <trkpt lat="43.86855" lon="7.72971">
        <ele>1085.919</ele>
        <time>2018-04-15T09:23:47Z</time>
      </trkpt>
      <trkpt lat="43.86852" lon="7.7297">
        <ele>1085.494</ele>
        <time>2018-04-15T09:23:49Z</time>
      </trkpt>
      <trkpt lat="43.86848" lon="7.72967">
        <ele>1084.942</ele>
        <time>2018-04-15T09:23:51Z</time>
      </trkpt>
      <trkpt lat="43.86844" lon="7.72962">
        <ele>1084.368</ele>
        <time>2018-04-15T09:23:53Z</time>
      </trkpt>
      <trkpt lat="43.86842" lon="7.72958">
        <ele>1083.529</ele>
        <time>2018-04-15T09:23:56Z</time>
      </trkpt>
      <trkpt lat="43.86839" lon="7.72955">
        <ele>1083.142</ele>
        <time>2018-04-15T09:23:58Z</time>
      </trkpt>
      <trkpt lat="43.86836" lon="7.72952">
        <ele>1082.615</ele>
        <time>2018-04-15T09:24:00Z</time>
      </trkpt>
      <trkpt lat="43.86832" lon="7.72947">
        <ele>1081.951</ele>
        <time>2018-04-15T09:24:02Z</time>
      </trkpt>
      <trkpt lat="43.8683" lon="7.72944">
        <ele>1081.026</ele>
        <time>2018-04-15T09:24:05Z</time>
      </trkpt>
      <trkpt lat="43.86829" lon="7.72939">
        <ele>1080.057</ele>
        <time>2018-04-15T09:24:08Z</time>
      </trkpt>
      <trkpt lat="43.86829" lon="7.72934">
        <ele>1078.841</ele>
        <time>2018-04-15T09:24:12Z</time>
      </trkpt>
      <trkpt lat="43.86829" lon="7.7293">
        <ele>1077.746</ele>
        <time>2018-04-15T09:24:16Z</time>
      </trkpt>
      <trkpt lat="43.86831" lon="7.72927">
        <ele>1072.331</ele>
        <time>2018-04-15T09:25:09Z</time>
      </trkpt>
      <trkpt lat="43.86831" lon="7.72922">
        <ele>1071.349</ele>
        <time>2018-04-15T09:25:13Z</time>
      </trkpt>
      <trkpt lat="43.8683" lon="7.72918">
        <ele>1070.269</ele>
        <time>2018-04-15T09:25:18Z</time>
      </trkpt>
      <trkpt lat="43.86829" lon="7.72914">
        <ele>1068.347</ele>
        <time>2018-04-15T09:25:25Z</time>
      </trkpt>
      <trkpt lat="43.86827" lon="7.72911">
        <ele>1067.177</ele>
        <time>2018-04-15T09:25:35Z</time>
      </trkpt>
      <trkpt lat="43.8683" lon="7.72908">
        <ele>1067.015</ele>
        <time>2018-04-15T09:25:42Z</time>
      </trkpt>
      <trkpt lat="43.86828" lon="7.72912">
        <ele>1065.345</ele>
        <time>2018-04-15T09:25:49Z</time>
      </trkpt>
      <trkpt lat="43.86826" lon="7.72909">
        <ele>1063.552</ele>
        <time>2018-04-15T09:26:02Z</time>
      </trkpt>
      <trkpt lat="43.86825" lon="7.72905">
        <ele>1063.259</ele>
        <time>2018-04-15T09:26:04Z</time>
      </trkpt>
      <trkpt lat="43.86823" lon="7.72903">
        <ele>1062.589</ele>
        <time>2018-04-15T09:26:08Z</time>
      </trkpt>
      <trkpt lat="43.8682" lon="7.72904">
        <ele>1060.358</ele>
        <time>2018-04-15T09:26:18Z</time>
      </trkpt>
      <trkpt lat="43.8682" lon="7.72899">
        <ele>1059.274</ele>
        <time>2018-04-15T09:26:22Z</time>
      </trkpt>
      <trkpt lat="43.86817" lon="7.72902">
        <ele>1057.764</ele>
        <time>2018-04-15T09:26:29Z</time>
      </trkpt>
      <trkpt lat="43.86816" lon="7.72906">
        <ele>1056.796</ele>
        <time>2018-04-15T09:26:33Z</time>
      </trkpt>
      <trkpt lat="43.86814" lon="7.72907">
        <ele>1056.225</ele>
        <time>2018-04-15T09:26:36Z</time>
      </trkpt>
      <trkpt lat="43.86812" lon="7.72903">
        <ele>1055.068</ele>
        <time>2018-04-15T09:26:42Z</time>
      </trkpt>
      <trkpt lat="43.8681" lon="7.72899">
        <ele>1054.532</ele>
        <time>2018-04-15T09:26:45Z</time>
      </trkpt>
      <trkpt lat="43.8681" lon="7.72895">
        <ele>1053.707</ele>
        <time>2018-04-15T09:26:49Z</time>
      </trkpt>
      <trkpt lat="43.86811" lon="7.72891">
        <ele>1053.38</ele>
        <time>2018-04-15T09:26:51Z</time>
      </trkpt>
      <trkpt lat="43.8681" lon="7.72887">
        <ele>1052.767</ele>
        <time>2018-04-15T09:26:54Z</time>
      </trkpt>
      <trkpt lat="43.86807" lon="7.72885">
        <ele>1052.091</ele>
        <time>2018-04-15T09:26:58Z</time>
      </trkpt>
      <trkpt lat="43.86803" lon="7.72883">
        <ele>1051.752</ele>
        <time>2018-04-15T09:27:00Z</time>
      </trkpt>
      <trkpt lat="43.86802" lon="7.72879">
        <ele>1050.275</ele>
        <time>2018-04-15T09:27:06Z</time>
      </trkpt>
      <trkpt lat="43.868" lon="7.72876">
        <ele>1049.754</ele>
        <time>2018-04-15T09:27:10Z</time>
      </trkpt>
      <trkpt lat="43.86798" lon="7.72872">
        <ele>1049.575</ele>
        <time>2018-04-15T09:27:12Z</time>
      </trkpt>
      <trkpt lat="43.86795" lon="7.72867">
        <ele>1049.472</ele>
        <time>2018-04-15T09:27:14Z</time>
      </trkpt>
      <trkpt lat="43.86793" lon="7.72863">
        <ele>1049.346</ele>
        <time>2018-04-15T09:27:16Z</time>
      </trkpt>
      <trkpt lat="43.86793" lon="7.72858">
        <ele>1048.8</ele>
        <time>2018-04-15T09:27:20Z</time>
      </trkpt>
      <trkpt lat="43.86795" lon="7.72854">
        <ele>1048.273</ele>
        <time>2018-04-15T09:27:23Z</time>
      </trkpt>
      <trkpt lat="43.86795" lon="7.7285">
        <ele>1047.699</ele>
        <time>2018-04-15T09:27:25Z</time>
      </trkpt>
      <trkpt lat="43.86795" lon="7.72846">
        <ele>1046.879</ele>
        <time>2018-04-15T09:27:28Z</time>
      </trkpt>
      <trkpt lat="43.86795" lon="7.72841">
        <ele>1046.225</ele>
        <time>2018-04-15T09:27:31Z</time>
      </trkpt>
      <trkpt lat="43.86793" lon="7.72832">
        <ele>1045.389</ele>
        <time>2018-04-15T09:27:34Z</time>
      </trkpt>
      <trkpt lat="43.86792" lon="7.72828">
        <ele>1044.429</ele>
        <time>2018-04-15T09:27:41Z</time>
      </trkpt>
      <trkpt lat="43.8679" lon="7.72825">
        <ele>1043.057</ele>
        <time>2018-04-15T09:27:46Z</time>
      </trkpt>
      <trkpt lat="43.86786" lon="7.72824">
        <ele>1042.349</ele>
        <time>2018-04-15T09:27:49Z</time>
      </trkpt>
      <trkpt lat="43.86783" lon="7.72816">
        <ele>1042.01</ele>
        <time>2018-04-15T09:27:51Z</time>
      </trkpt>
      <trkpt lat="43.86781" lon="7.72811">
        <ele>1041.441</ele>
        <time>2018-04-15T09:27:53Z</time>
      </trkpt>
      <trkpt lat="43.8678" lon="7.72808">
        <ele>1040.213</ele>
        <time>2018-04-15T09:27:56Z</time>
      </trkpt>
      <trkpt lat="43.86779" lon="7.72804">
        <ele>1039.201</ele>
        <time>2018-04-15T09:27:59Z</time>
      </trkpt>
      <trkpt lat="43.86777" lon="7.72799">
        <ele>1038.679</ele>
        <time>2018-04-15T09:28:01Z</time>
      </trkpt>
      <trkpt lat="43.86777" lon="7.72794">
        <ele>1037.9</ele>
        <time>2018-04-15T09:28:04Z</time>
      </trkpt>
      <trkpt lat="43.86774" lon="7.7279">
        <ele>1037.307</ele>
        <time>2018-04-15T09:28:06Z</time>
      </trkpt>
      <trkpt lat="43.86771" lon="7.72785">
        <ele>1036.841</ele>
        <time>2018-04-15T09:28:08Z</time>
      </trkpt>
      <trkpt lat="43.86765" lon="7.72781">
        <ele>1036.317</ele>
        <time>2018-04-15T09:28:10Z</time>
      </trkpt>
      <trkpt lat="43.8676" lon="7.72777">
        <ele>1035.915</ele>
        <time>2018-04-15T09:28:12Z</time>
      </trkpt>
      <trkpt lat="43.86754" lon="7.72773">
        <ele>1035.416</ele>
        <time>2018-04-15T09:28:15Z</time>
      </trkpt>
      <trkpt lat="43.86751" lon="7.72767">
        <ele>1034.809</ele>
        <time>2018-04-15T09:28:17Z</time>
      </trkpt>
      <trkpt lat="43.86748" lon="7.72765">
        <ele>1034.192</ele>
        <time>2018-04-15T09:28:19Z</time>
      </trkpt>
      <trkpt lat="43.86746" lon="7.7276">
        <ele>1033.353</ele>
        <time>2018-04-15T09:28:22Z</time>
      </trkpt>
      <trkpt lat="43.86744" lon="7.72756">
        <ele>1032.614</ele>
        <time>2018-04-15T09:28:25Z</time>
      </trkpt>
      <trkpt lat="43.86743" lon="7.72752">
        <ele>1032.212</ele>
        <time>2018-04-15T09:28:27Z</time>
      </trkpt>
      <trkpt lat="43.86739" lon="7.72749">
        <ele>1031.459</ele>
        <time>2018-04-15T09:28:30Z</time>
      </trkpt>
      <trkpt lat="43.86737" lon="7.72745">
        <ele>1030.943</ele>
        <time>2018-04-15T09:28:32Z</time>
      </trkpt>
      <trkpt lat="43.86734" lon="7.72742">
        <ele>1030.495</ele>
        <time>2018-04-15T09:28:34Z</time>
      </trkpt>
      <trkpt lat="43.86731" lon="7.72739">
        <ele>1029.774</ele>
        <time>2018-04-15T09:28:36Z</time>
      </trkpt>
      <trkpt lat="43.86729" lon="7.72736">
        <ele>1029.25</ele>
        <time>2018-04-15T09:28:38Z</time>
      </trkpt>
      <trkpt lat="43.86727" lon="7.7273">
        <ele>1028.328</ele>
        <time>2018-04-15T09:28:41Z</time>
      </trkpt>
      <trkpt lat="43.86724" lon="7.72726">
        <ele>1027.575</ele>
        <time>2018-04-15T09:28:43Z</time>
      </trkpt>
      <trkpt lat="43.86722" lon="7.72721">
        <ele>1025.315</ele>
        <time>2018-04-15T09:28:56Z</time>
      </trkpt>
      <trkpt lat="43.8672" lon="7.72719">
        <ele>1024.714</ele>
        <time>2018-04-15T09:28:58Z</time>
      </trkpt>
      <trkpt lat="43.86718" lon="7.72717">
        <ele>1023.888</ele>
        <time>2018-04-15T09:29:01Z</time>
      </trkpt>
      <trkpt lat="43.86715" lon="7.72715">
        <ele>1023.38</ele>
        <time>2018-04-15T09:29:03Z</time>
      </trkpt>
      <trkpt lat="43.86712" lon="7.72712">
        <ele>1022.771</ele>
        <time>2018-04-15T09:29:06Z</time>
      </trkpt>
      <trkpt lat="43.8671" lon="7.72708">
        <ele>1022.006</ele>
        <time>2018-04-15T09:29:10Z</time>
      </trkpt>
      <trkpt lat="43.86708" lon="7.72705">
        <ele>1021.365</ele>
        <time>2018-04-15T09:29:13Z</time>
      </trkpt>
      <trkpt lat="43.86707" lon="7.72699">
        <ele>1020.673</ele>
        <time>2018-04-15T09:29:16Z</time>
      </trkpt>
      <trkpt lat="43.86706" lon="7.72695">
        <ele>1019.982</ele>
        <time>2018-04-15T09:29:19Z</time>
      </trkpt>
      <trkpt lat="43.86704" lon="7.72692">
        <ele>1019.546</ele>
        <time>2018-04-15T09:29:22Z</time>
      </trkpt>
      <trkpt lat="43.86703" lon="7.72688">
        <ele>1018.557</ele>
        <time>2018-04-15T09:29:27Z</time>
      </trkpt>
      <trkpt lat="43.86702" lon="7.72684">
        <ele>1017.934</ele>
        <time>2018-04-15T09:29:30Z</time>
      </trkpt>
      <trkpt lat="43.86699" lon="7.72679">
        <ele>1017.151</ele>
        <time>2018-04-15T09:29:33Z</time>
      </trkpt>
      <trkpt lat="43.86701" lon="7.72675">
        <ele>1016.609</ele>
        <time>2018-04-15T09:29:35Z</time>
      </trkpt>
      <trkpt lat="43.86703" lon="7.7267">
        <ele>1015.951</ele>
        <time>2018-04-15T09:29:38Z</time>
      </trkpt>
      <trkpt lat="43.86704" lon="7.72666">
        <ele>1015.568</ele>
        <time>2018-04-15T09:29:40Z</time>
      </trkpt>
      <trkpt lat="43.86703" lon="7.72661">
        <ele>1014.729</ele>
        <time>2018-04-15T09:29:45Z</time>
      </trkpt>
      <trkpt lat="43.86703" lon="7.72656">
        <ele>1014.017</ele>
        <time>2018-04-15T09:29:48Z</time>
      </trkpt>
      <trkpt lat="43.86703" lon="7.72651">
        <ele>1013.697</ele>
        <time>2018-04-15T09:29:50Z</time>
      </trkpt>
      <trkpt lat="43.86702" lon="7.72648">
        <ele>1012.358</ele>
        <time>2018-04-15T09:30:02Z</time>
      </trkpt>
      <trkpt lat="43.867" lon="7.72645">
        <ele>1011.338</ele>
        <time>2018-04-15T09:30:29Z</time>
      </trkpt>
      <trkpt lat="43.867" lon="7.7265">
        <ele>1009.356</ele>
        <time>2018-04-15T09:31:01Z</time>
      </trkpt>
      <trkpt lat="43.86701" lon="7.72646">
        <ele>1007.041</ele>
        <time>2018-04-15T09:31:37Z</time>
      </trkpt>
      <trkpt lat="43.86704" lon="7.72644">
        <ele>1006.914</ele>
        <time>2018-04-15T09:31:39Z</time>
      </trkpt>
      <trkpt lat="43.86701" lon="7.72642">
        <ele>1006.624</ele>
        <time>2018-04-15T09:31:56Z</time>
      </trkpt>
      <trkpt lat="43.86701" lon="7.72638">
        <ele>1006.491</ele>
        <time>2018-04-15T09:32:01Z</time>
      </trkpt>
      <trkpt lat="43.867" lon="7.72634">
        <ele>1005.547</ele>
        <time>2018-04-15T09:32:13Z</time>
      </trkpt>
      <trkpt lat="43.86701" lon="7.7263">
        <ele>1005.181</ele>
        <time>2018-04-15T09:32:19Z</time>
      </trkpt>
      <trkpt lat="43.86701" lon="7.72626">
        <ele>1005.14</ele>
        <time>2018-04-15T09:32:22Z</time>
      </trkpt>
      <trkpt lat="43.86702" lon="7.72622">
        <ele>1005.025</ele>
        <time>2018-04-15T09:32:26Z</time>
      </trkpt>
      <trkpt lat="43.86706" lon="7.72621">
        <ele>1004.915</ele>
        <time>2018-04-15T09:32:28Z</time>
      </trkpt>
      <trkpt lat="43.86704" lon="7.72614">
        <ele>1004.987</ele>
        <time>2018-04-15T09:32:32Z</time>
      </trkpt>
      <trkpt lat="43.86703" lon="7.72609">
        <ele>1004.934</ele>
        <time>2018-04-15T09:32:34Z</time>
      </trkpt>
      <trkpt lat="43.86702" lon="7.72606">
        <ele>1004.914</ele>
        <time>2018-04-15T09:32:36Z</time>
      </trkpt>
      <trkpt lat="43.867" lon="7.72601">
        <ele>1004.903</ele>
        <time>2018-04-15T09:32:38Z</time>
      </trkpt>
      <trkpt lat="43.86699" lon="7.72598">
        <ele>1004.862</ele>
        <time>2018-04-15T09:32:40Z</time>
      </trkpt>
      <trkpt lat="43.86697" lon="7.72594">
        <ele>1004.782</ele>
        <time>2018-04-15T09:32:43Z</time>
      </trkpt>
      <trkpt lat="43.86694" lon="7.72591">
        <ele>1004.728</ele>
        <time>2018-04-15T09:32:46Z</time>
      </trkpt>
      <trkpt lat="43.86693" lon="7.72586">
        <ele>1004.868</ele>
        <time>2018-04-15T09:32:49Z</time>
      </trkpt>
      <trkpt lat="43.86691" lon="7.72582">
        <ele>1004.985</ele>
        <time>2018-04-15T09:32:51Z</time>
      </trkpt>
      <trkpt lat="43.86689" lon="7.72578">
        <ele>1005.037</ele>
        <time>2018-04-15T09:32:54Z</time>
      </trkpt>
      <trkpt lat="43.86687" lon="7.72573">
        <ele>1004.968</ele>
        <time>2018-04-15T09:32:56Z</time>
      </trkpt>
      <trkpt lat="43.86685" lon="7.7257">
        <ele>1004.929</ele>
        <time>2018-04-15T09:32:58Z</time>
      </trkpt>
      <trkpt lat="43.86684" lon="7.72566">
        <ele>1004.847</ele>
        <time>2018-04-15T09:33:01Z</time>
      </trkpt>
      <trkpt lat="43.86681" lon="7.72564">
        <ele>1004.831</ele>
        <time>2018-04-15T09:33:03Z</time>
      </trkpt>
      <trkpt lat="43.86679" lon="7.72559">
        <ele>1004.955</ele>
        <time>2018-04-15T09:33:07Z</time>
      </trkpt>
      <trkpt lat="43.86676" lon="7.72556">
        <ele>1004.997</ele>
        <time>2018-04-15T09:33:09Z</time>
      </trkpt>
      <trkpt lat="43.86671" lon="7.72552">
        <ele>1005.075</ele>
        <time>2018-04-15T09:33:14Z</time>
      </trkpt>
      <trkpt lat="43.86668" lon="7.72548">
        <ele>1004.994</ele>
        <time>2018-04-15T09:33:16Z</time>
      </trkpt>
      <trkpt lat="43.86665" lon="7.72545">
        <ele>1005.093</ele>
        <time>2018-04-15T09:33:18Z</time>
      </trkpt>
      <trkpt lat="43.86662" lon="7.72542">
        <ele>1005.078</ele>
        <time>2018-04-15T09:33:22Z</time>
      </trkpt>
      <trkpt lat="43.86659" lon="7.72541">
        <ele>1005.053</ele>
        <time>2018-04-15T09:33:24Z</time>
      </trkpt>
      <trkpt lat="43.86656" lon="7.72539">
        <ele>1004.928</ele>
        <time>2018-04-15T09:33:26Z</time>
      </trkpt>
      <trkpt lat="43.86653" lon="7.72535">
        <ele>1004.851</ele>
        <time>2018-04-15T09:33:28Z</time>
      </trkpt>
      <trkpt lat="43.8665" lon="7.72532">
        <ele>1004.763</ele>
        <time>2018-04-15T09:33:31Z</time>
      </trkpt>
      <trkpt lat="43.86648" lon="7.72531">
        <ele>1004.697</ele>
        <time>2018-04-15T09:33:34Z</time>
      </trkpt>
      <trkpt lat="43.86645" lon="7.72528">
        <ele>1004.661</ele>
        <time>2018-04-15T09:33:36Z</time>
      </trkpt>
      <trkpt lat="43.86642" lon="7.72523">
        <ele>1004.578</ele>
        <time>2018-04-15T09:33:39Z</time>
      </trkpt>
      <trkpt lat="43.86639" lon="7.7252">
        <ele>1004.529</ele>
        <time>2018-04-15T09:33:41Z</time>
      </trkpt>
      <trkpt lat="43.86637" lon="7.72515">
        <ele>1004.318</ele>
        <time>2018-04-15T09:33:44Z</time>
      </trkpt>
      <trkpt lat="43.86635" lon="7.72511">
        <ele>1004.189</ele>
        <time>2018-04-15T09:33:46Z</time>
      </trkpt>
      <trkpt lat="43.86633" lon="7.72508">
        <ele>1004.074</ele>
        <time>2018-04-15T09:33:48Z</time>
      </trkpt>
      <trkpt lat="43.86633" lon="7.72503">
        <ele>1003.833</ele>
        <time>2018-04-15T09:33:50Z</time>
      </trkpt>
      <trkpt lat="43.86635" lon="7.72499">
        <ele>1003.581</ele>
        <time>2018-04-15T09:33:52Z</time>
      </trkpt>
      <trkpt lat="43.86636" lon="7.72496">
        <ele>1003.366</ele>
        <time>2018-04-15T09:33:56Z</time>
      </trkpt>
      <trkpt lat="43.86634" lon="7.72486">
        <ele>1003.179</ele>
        <time>2018-04-15T09:33:59Z</time>
      </trkpt>
      <trkpt lat="43.86631" lon="7.72483">
        <ele>1003.117</ele>
        <time>2018-04-15T09:34:00Z</time>
      </trkpt>
      <trkpt lat="43.86628" lon="7.72479">
        <ele>1003.037</ele>
        <time>2018-04-15T09:34:02Z</time>
      </trkpt>
      <trkpt lat="43.86625" lon="7.72476">
        <ele>1002.863</ele>
        <time>2018-04-15T09:34:04Z</time>
      </trkpt>
      <trkpt lat="43.86623" lon="7.72472">
        <ele>1002.771</ele>
        <time>2018-04-15T09:34:06Z</time>
      </trkpt>
      <trkpt lat="43.8662" lon="7.72468">
        <ele>1002.587</ele>
        <time>2018-04-15T09:34:09Z</time>
      </trkpt>
      <trkpt lat="43.86619" lon="7.72464">
        <ele>1002.629</ele>
        <time>2018-04-15T09:34:11Z</time>
      </trkpt>
      <trkpt lat="43.86617" lon="7.7246">
        <ele>1002.581</ele>
        <time>2018-04-15T09:34:13Z</time>
      </trkpt>
      <trkpt lat="43.86615" lon="7.72458">
        <ele>1002.534</ele>
        <time>2018-04-15T09:34:15Z</time>
      </trkpt>
      <trkpt lat="43.86613" lon="7.72454">
        <ele>1002.434</ele>
        <time>2018-04-15T09:34:17Z</time>
      </trkpt>
      <trkpt lat="43.86612" lon="7.72449">
        <ele>1002.366</ele>
        <time>2018-04-15T09:34:19Z</time>
      </trkpt>
      <trkpt lat="43.8661" lon="7.72443">
        <ele>1002.198</ele>
        <time>2018-04-15T09:34:22Z</time>
      </trkpt>
      <trkpt lat="43.8661" lon="7.72439">
        <ele>1001.983</ele>
        <time>2018-04-15T09:34:24Z</time>
      </trkpt>
      <trkpt lat="43.86608" lon="7.72434">
        <ele>1001.671</ele>
        <time>2018-04-15T09:34:27Z</time>
      </trkpt>
      <trkpt lat="43.86604" lon="7.72432">
        <ele>1001.272</ele>
        <time>2018-04-15T09:34:30Z</time>
      </trkpt>
      <trkpt lat="43.86601" lon="7.72431">
        <ele>1001.005</ele>
        <time>2018-04-15T09:34:32Z</time>
      </trkpt>
      <trkpt lat="43.86598" lon="7.72431">
        <ele>1000.788</ele>
        <time>2018-04-15T09:34:34Z</time>
      </trkpt>
      <trkpt lat="43.86594" lon="7.7243">
        <ele>1000.508</ele>
        <time>2018-04-15T09:34:36Z</time>
      </trkpt>
      <trkpt lat="43.86597" lon="7.72427">
        <ele>999.963</ele>
        <time>2018-04-15T09:34:40Z</time>
      </trkpt>
      <trkpt lat="43.86599" lon="7.72424">
        <ele>999.653</ele>
        <time>2018-04-15T09:34:42Z</time>
      </trkpt>
      <trkpt lat="43.86601" lon="7.72421">
        <ele>999.322</ele>
        <time>2018-04-15T09:34:44Z</time>
      </trkpt>
      <trkpt lat="43.86604" lon="7.72418">
        <ele>999.072</ele>
        <time>2018-04-15T09:34:46Z</time>
      </trkpt>
      <trkpt lat="43.86607" lon="7.72415">
        <ele>998.574</ele>
        <time>2018-04-15T09:34:50Z</time>
      </trkpt>
      <trkpt lat="43.8661" lon="7.72412">
        <ele>997.987</ele>
        <time>2018-04-15T09:34:54Z</time>
      </trkpt>
      <trkpt lat="43.86613" lon="7.72408">
        <ele>997.561</ele>
        <time>2018-04-15T09:34:57Z</time>
      </trkpt>
      <trkpt lat="43.86615" lon="7.72406">
        <ele>997.154</ele>
        <time>2018-04-15T09:35:00Z</time>
      </trkpt>
      <trkpt lat="43.86617" lon="7.72404">
        <ele>996.694</ele>
        <time>2018-04-15T09:35:03Z</time>
      </trkpt>
      <trkpt lat="43.86619" lon="7.72401">
        <ele>996.223</ele>
        <time>2018-04-15T09:35:07Z</time>
      </trkpt>
      <trkpt lat="43.86621" lon="7.72397">
        <ele>995.891</ele>
        <time>2018-04-15T09:35:10Z</time>
      </trkpt>
      <trkpt lat="43.86627" lon="7.72396">
        <ele>995.254</ele>
        <time>2018-04-15T09:35:13Z</time>
      </trkpt>
      <trkpt lat="43.86629" lon="7.72393">
        <ele>994.628</ele>
        <time>2018-04-15T09:35:16Z</time>
      </trkpt>
      <trkpt lat="43.86629" lon="7.72389">
        <ele>993.925</ele>
        <time>2018-04-15T09:35:20Z</time>
      </trkpt>
      <trkpt lat="43.86627" lon="7.72387">
        <ele>992.904</ele>
        <time>2018-04-15T09:35:25Z</time>
      </trkpt>
      <trkpt lat="43.86624" lon="7.72385">
        <ele>991.652</ele>
        <time>2018-04-15T09:35:31Z</time>
      </trkpt>
      <trkpt lat="43.86625" lon="7.72381">
        <ele>991.08</ele>
        <time>2018-04-15T09:35:34Z</time>
      </trkpt>
      <trkpt lat="43.86628" lon="7.72377">
        <ele>990.465</ele>
        <time>2018-04-15T09:35:37Z</time>
      </trkpt>
      <trkpt lat="43.86629" lon="7.72373">
        <ele>990.1</ele>
        <time>2018-04-15T09:35:39Z</time>
      </trkpt>
      <trkpt lat="43.86632" lon="7.72368">
        <ele>989.342</ele>
        <time>2018-04-15T09:35:42Z</time>
      </trkpt>
      <trkpt lat="43.86633" lon="7.72365">
        <ele>988.865</ele>
        <time>2018-04-15T09:35:44Z</time>
      </trkpt>
      <trkpt lat="43.86635" lon="7.72361">
        <ele>988.028</ele>
        <time>2018-04-15T09:35:48Z</time>
      </trkpt>
      <trkpt lat="43.86637" lon="7.72358">
        <ele>987.417</ele>
        <time>2018-04-15T09:35:58Z</time>
      </trkpt>
      <trkpt lat="43.8664" lon="7.7236">
        <ele>985.111</ele>
        <time>2018-04-15T09:36:34Z</time>
      </trkpt>
      <trkpt lat="43.86644" lon="7.72357">
        <ele>983.533</ele>
        <time>2018-04-15T09:36:46Z</time>
      </trkpt>
      <trkpt lat="43.86647" lon="7.72356">
        <ele>982.149</ele>
        <time>2018-04-15T09:36:55Z</time>
      </trkpt>
      <trkpt lat="43.86645" lon="7.72358">
        <ele>980.681</ele>
        <time>2018-04-15T09:37:11Z</time>
      </trkpt>
      <trkpt lat="43.86642" lon="7.72358">
        <ele>979.143</ele>
        <time>2018-04-15T09:37:49Z</time>
      </trkpt>
      <trkpt lat="43.86644" lon="7.72358">
        <ele>974.918</ele>
        <time>2018-04-15T09:39:27Z</time>
      </trkpt>
      <trkpt lat="43.86644" lon="7.72354">
        <ele>974.022</ele>
        <time>2018-04-15T09:40:43Z</time>
      </trkpt>
      <trkpt lat="43.86646" lon="7.72356">
        <ele>972.401</ele>
        <time>2018-04-15T09:41:58Z</time>
      </trkpt>
      <trkpt lat="43.86648" lon="7.72359">
        <ele>971.577</ele>
        <time>2018-04-15T09:43:44Z</time>
      </trkpt>
      <trkpt lat="43.86648" lon="7.72362">
        <ele>970.311</ele>
        <time>2018-04-15T09:44:22Z</time>
      </trkpt>
      <trkpt lat="43.86649" lon="7.72366">
        <ele>970.712</ele>
        <time>2018-04-15T09:44:49Z</time>
      </trkpt>
      <trkpt lat="43.86649" lon="7.7237">
        <ele>971.088</ele>
        <time>2018-04-15T09:44:52Z</time>
      </trkpt>
      <trkpt lat="43.86651" lon="7.72374">
        <ele>971.134</ele>
        <time>2018-04-15T09:44:53Z</time>
      </trkpt>
      <trkpt lat="43.86653" lon="7.72377">
        <ele>971.249</ele>
        <time>2018-04-15T09:44:56Z</time>
      </trkpt>
      <trkpt lat="43.86655" lon="7.72381">
        <ele>970.47</ele>
        <time>2018-04-15T09:45:12Z</time>
      </trkpt>
      <trkpt lat="43.86657" lon="7.72384">
        <ele>970.178</ele>
        <time>2018-04-15T09:45:16Z</time>
      </trkpt>
      <trkpt lat="43.86657" lon="7.72389">
        <ele>970.133</ele>
        <time>2018-04-15T09:45:19Z</time>
      </trkpt>
      <trkpt lat="43.86656" lon="7.72394">
        <ele>970.332</ele>
        <time>2018-04-15T09:45:23Z</time>
      </trkpt>
      <trkpt lat="43.86656" lon="7.72399">
        <ele>970.678</ele>
        <time>2018-04-15T09:45:26Z</time>
      </trkpt>
      <trkpt lat="43.86656" lon="7.72404">
        <ele>970.774</ele>
        <time>2018-04-15T09:45:29Z</time>
      </trkpt>
      <trkpt lat="43.86657" lon="7.72407">
        <ele>970.996</ele>
        <time>2018-04-15T09:45:33Z</time>
      </trkpt>
      <trkpt lat="43.86657" lon="7.72412">
        <ele>971.244</ele>
        <time>2018-04-15T09:45:35Z</time>
      </trkpt>
      <trkpt lat="43.86659" lon="7.72417">
        <ele>971.605</ele>
        <time>2018-04-15T09:45:38Z</time>
      </trkpt>
      <trkpt lat="43.86661" lon="7.7242">
        <ele>971.957</ele>
        <time>2018-04-15T09:45:41Z</time>
      </trkpt>
      <trkpt lat="43.86664" lon="7.72424">
        <ele>972.373</ele>
        <time>2018-04-15T09:45:45Z</time>
      </trkpt>
      <trkpt lat="43.86666" lon="7.72426">
        <ele>972.833</ele>
        <time>2018-04-15T09:45:48Z</time>
      </trkpt>
      <trkpt lat="43.86667" lon="7.7243">
        <ele>973.002</ele>
        <time>2018-04-15T09:45:51Z</time>
      </trkpt>
      <trkpt lat="43.8667" lon="7.72433">
        <ele>973.071</ele>
        <time>2018-04-15T09:45:53Z</time>
      </trkpt>
      <trkpt lat="43.86673" lon="7.72435">
        <ele>973.182</ele>
        <time>2018-04-15T09:45:55Z</time>
      </trkpt>
      <trkpt lat="43.86674" lon="7.72439">
        <ele>973.363</ele>
        <time>2018-04-15T09:45:59Z</time>
      </trkpt>
      <trkpt lat="43.86672" lon="7.72443">
        <ele>973.37</ele>
        <time>2018-04-15T09:46:02Z</time>
      </trkpt>
      <trkpt lat="43.86675" lon="7.72446">
        <ele>973.33</ele>
        <time>2018-04-15T09:46:05Z</time>
      </trkpt>
      <trkpt lat="43.86678" lon="7.72449">
        <ele>973.684</ele>
        <time>2018-04-15T09:46:09Z</time>
      </trkpt>
      <trkpt lat="43.86681" lon="7.72451">
        <ele>974.101</ele>
        <time>2018-04-15T09:46:12Z</time>
      </trkpt>
      <trkpt lat="43.86684" lon="7.72456">
        <ele>974.372</ele>
        <time>2018-04-15T09:46:15Z</time>
      </trkpt>
      <trkpt lat="43.86687" lon="7.72461">
        <ele>974.538</ele>
        <time>2018-04-15T09:46:17Z</time>
      </trkpt>
      <trkpt lat="43.86689" lon="7.72466">
        <ele>974.77</ele>
        <time>2018-04-15T09:46:19Z</time>
      </trkpt>
      <trkpt lat="43.86691" lon="7.72471">
        <ele>974.761</ele>
        <time>2018-04-15T09:46:21Z</time>
      </trkpt>
      <trkpt lat="43.86694" lon="7.72474">
        <ele>974.63</ele>
        <time>2018-04-15T09:46:25Z</time>
      </trkpt>
      <trkpt lat="43.86697" lon="7.72477">
        <ele>975.144</ele>
        <time>2018-04-15T09:46:30Z</time>
      </trkpt>
      <trkpt lat="43.867" lon="7.72482">
        <ele>975.336</ele>
        <time>2018-04-15T09:46:33Z</time>
      </trkpt>
      <trkpt lat="43.86703" lon="7.72485">
        <ele>975.51</ele>
        <time>2018-04-15T09:46:35Z</time>
      </trkpt>
      <trkpt lat="43.86704" lon="7.72489">
        <ele>975.772</ele>
        <time>2018-04-15T09:46:38Z</time>
      </trkpt>
      <trkpt lat="43.86705" lon="7.72495">
        <ele>975.981</ele>
        <time>2018-04-15T09:46:41Z</time>
      </trkpt>
      <trkpt lat="43.86708" lon="7.72499">
        <ele>975.907</ele>
        <time>2018-04-15T09:46:44Z</time>
      </trkpt>
      <trkpt lat="43.8671" lon="7.72502">
        <ele>975.931</ele>
        <time>2018-04-15T09:46:46Z</time>
      </trkpt>
      <trkpt lat="43.86716" lon="7.72508">
        <ele>976.224</ele>
        <time>2018-04-15T09:46:50Z</time>
      </trkpt>
      <trkpt lat="43.8672" lon="7.72509">
        <ele>976.361</ele>
        <time>2018-04-15T09:46:52Z</time>
      </trkpt>
      <trkpt lat="43.86724" lon="7.72512">
        <ele>976.407</ele>
        <time>2018-04-15T09:46:54Z</time>
      </trkpt>
      <trkpt lat="43.8673" lon="7.72515">
        <ele>976.281</ele>
        <time>2018-04-15T09:46:57Z</time>
      </trkpt>
      <trkpt lat="43.86733" lon="7.72517">
        <ele>976.231</ele>
        <time>2018-04-15T09:46:59Z</time>
      </trkpt>
      <trkpt lat="43.86736" lon="7.7252">
        <ele>976.216</ele>
        <time>2018-04-15T09:47:01Z</time>
      </trkpt>
      <trkpt lat="43.86738" lon="7.72523">
        <ele>976.229</ele>
        <time>2018-04-15T09:47:03Z</time>
      </trkpt>
      <trkpt lat="43.8674" lon="7.72526">
        <ele>976.319</ele>
        <time>2018-04-15T09:47:06Z</time>
      </trkpt>
      <trkpt lat="43.86741" lon="7.72532">
        <ele>976.464</ele>
        <time>2018-04-15T09:47:10Z</time>
      </trkpt>
      <trkpt lat="43.86741" lon="7.72537">
        <ele>976.345</ele>
        <time>2018-04-15T09:47:12Z</time>
      </trkpt>
      <trkpt lat="43.86742" lon="7.72541">
        <ele>976.307</ele>
        <time>2018-04-15T09:47:15Z</time>
      </trkpt>
      <trkpt lat="43.86743" lon="7.72545">
        <ele>976.286</ele>
        <time>2018-04-15T09:47:18Z</time>
      </trkpt>
      <trkpt lat="43.86744" lon="7.72549">
        <ele>976.41</ele>
        <time>2018-04-15T09:47:21Z</time>
      </trkpt>
      <trkpt lat="43.86745" lon="7.72553">
        <ele>976.742</ele>
        <time>2018-04-15T09:47:32Z</time>
      </trkpt>
      <trkpt lat="43.86746" lon="7.72556">
        <ele>976.617</ele>
        <time>2018-04-15T09:47:49Z</time>
      </trkpt>
      <trkpt lat="43.86749" lon="7.72559">
        <ele>976.097</ele>
        <time>2018-04-15T09:47:55Z</time>
      </trkpt>
      <trkpt lat="43.86752" lon="7.72559">
        <ele>975.738</ele>
        <time>2018-04-15T09:48:01Z</time>
      </trkpt>
      <trkpt lat="43.86755" lon="7.72557">
        <ele>975.561</ele>
        <time>2018-04-15T09:48:06Z</time>
      </trkpt>
      <trkpt lat="43.86759" lon="7.72558">
        <ele>975.452</ele>
        <time>2018-04-15T09:48:09Z</time>
      </trkpt>
      <trkpt lat="43.86762" lon="7.72554">
        <ele>975.31</ele>
        <time>2018-04-15T09:48:12Z</time>
      </trkpt>
      <trkpt lat="43.86765" lon="7.72552">
        <ele>974.779</ele>
        <time>2018-04-15T09:48:17Z</time>
      </trkpt>
      <trkpt lat="43.86773" lon="7.72551">
        <ele>974.288</ele>
        <time>2018-04-15T09:48:21Z</time>
      </trkpt>
      <trkpt lat="43.86777" lon="7.7255">
        <ele>973.675</ele>
        <time>2018-04-15T09:48:25Z</time>
      </trkpt>
      <trkpt lat="43.86781" lon="7.7255">
        <ele>973.445</ele>
        <time>2018-04-15T09:48:27Z</time>
      </trkpt>
      <trkpt lat="43.86784" lon="7.7255">
        <ele>973.034</ele>
        <time>2018-04-15T09:48:31Z</time>
      </trkpt>
      <trkpt lat="43.86789" lon="7.72554">
        <ele>972.553</ele>
        <time>2018-04-15T09:48:35Z</time>
      </trkpt>
      <trkpt lat="43.86792" lon="7.72555">
        <ele>972.485</ele>
        <time>2018-04-15T09:48:37Z</time>
      </trkpt>
      <trkpt lat="43.86796" lon="7.72557">
        <ele>972.328</ele>
        <time>2018-04-15T09:48:40Z</time>
      </trkpt>
      <trkpt lat="43.86798" lon="7.7256">
        <ele>972.321</ele>
        <time>2018-04-15T09:48:42Z</time>
      </trkpt>
      <trkpt lat="43.86801" lon="7.72562">
        <ele>972.239</ele>
        <time>2018-04-15T09:48:44Z</time>
      </trkpt>
      <trkpt lat="43.86804" lon="7.72562">
        <ele>972.176</ele>
        <time>2018-04-15T09:48:46Z</time>
      </trkpt>
      <trkpt lat="43.86808" lon="7.72562">
        <ele>972.036</ele>
        <time>2018-04-15T09:48:50Z</time>
      </trkpt>
      <trkpt lat="43.8681" lon="7.7256">
        <ele>972.079</ele>
        <time>2018-04-15T09:48:52Z</time>
      </trkpt>
      <trkpt lat="43.86813" lon="7.72558">
        <ele>971.961</ele>
        <time>2018-04-15T09:48:56Z</time>
      </trkpt>
      <trkpt lat="43.86816" lon="7.72558">
        <ele>970.869</ele>
        <time>2018-04-15T09:49:09Z</time>
      </trkpt>
      <trkpt lat="43.86824" lon="7.72557">
        <ele>970.326</ele>
        <time>2018-04-15T09:49:12Z</time>
      </trkpt>
      <trkpt lat="43.86827" lon="7.72557">
        <ele>969.69</ele>
        <time>2018-04-15T09:49:16Z</time>
      </trkpt>
      <trkpt lat="43.86832" lon="7.72559">
        <ele>969.224</ele>
        <time>2018-04-15T09:49:18Z</time>
      </trkpt>
      <trkpt lat="43.86836" lon="7.7256">
        <ele>968.714</ele>
        <time>2018-04-15T09:49:21Z</time>
      </trkpt>
      <trkpt lat="43.86839" lon="7.7256">
        <ele>968.111</ele>
        <time>2018-04-15T09:49:23Z</time>
      </trkpt>
      <trkpt lat="43.86842" lon="7.7256">
        <ele>967.527</ele>
        <time>2018-04-15T09:49:25Z</time>
      </trkpt>
      <trkpt lat="43.86846" lon="7.7256">
        <ele>966.903</ele>
        <time>2018-04-15T09:49:27Z</time>
      </trkpt>
      <trkpt lat="43.86849" lon="7.72561">
        <ele>966.314</ele>
        <time>2018-04-15T09:49:29Z</time>
      </trkpt>
      <trkpt lat="43.86851" lon="7.72563">
        <ele>965.607</ele>
        <time>2018-04-15T09:49:33Z</time>
      </trkpt>
      <trkpt lat="43.86855" lon="7.72565">
        <ele>964.829</ele>
        <time>2018-04-15T09:49:37Z</time>
      </trkpt>
      <trkpt lat="43.86859" lon="7.72565">
        <ele>963.669</ele>
        <time>2018-04-15T09:49:45Z</time>
      </trkpt>
      <trkpt lat="43.86862" lon="7.72564">
        <ele>963.188</ele>
        <time>2018-04-15T09:49:48Z</time>
      </trkpt>
      <trkpt lat="43.86865" lon="7.72563">
        <ele>962.957</ele>
        <time>2018-04-15T09:49:50Z</time>
      </trkpt>
      <trkpt lat="43.86868" lon="7.72564">
        <ele>962.563</ele>
        <time>2018-04-15T09:49:52Z</time>
      </trkpt>
      <trkpt lat="43.86871" lon="7.72562">
        <ele>962.006</ele>
        <time>2018-04-15T09:49:55Z</time>
      </trkpt>
      <trkpt lat="43.86874" lon="7.72562">
        <ele>961.546</ele>
        <time>2018-04-15T09:49:57Z</time>
      </trkpt>
      <trkpt lat="43.86877" lon="7.72561">
        <ele>960.921</ele>
        <time>2018-04-15T09:50:00Z</time>
      </trkpt>
      <trkpt lat="43.8688" lon="7.72561">
        <ele>960.567</ele>
        <time>2018-04-15T09:50:02Z</time>
      </trkpt>
      <trkpt lat="43.86883" lon="7.72561">
        <ele>960.1</ele>
        <time>2018-04-15T09:50:06Z</time>
      </trkpt>
      <trkpt lat="43.86887" lon="7.72561">
        <ele>959.463</ele>
        <time>2018-04-15T09:50:09Z</time>
      </trkpt>
      <trkpt lat="43.86891" lon="7.72562">
        <ele>959.227</ele>
        <time>2018-04-15T09:50:12Z</time>
      </trkpt>
      <trkpt lat="43.86896" lon="7.7256">
        <ele>958.954</ele>
        <time>2018-04-15T09:50:15Z</time>
      </trkpt>
      <trkpt lat="43.86898" lon="7.72558">
        <ele>958.776</ele>
        <time>2018-04-15T09:50:18Z</time>
      </trkpt>
      <trkpt lat="43.86902" lon="7.72556">
        <ele>958.83</ele>
        <time>2018-04-15T09:50:22Z</time>
      </trkpt>
      <trkpt lat="43.86905" lon="7.72556">
        <ele>958.588</ele>
        <time>2018-04-15T09:50:26Z</time>
      </trkpt>
      <trkpt lat="43.86908" lon="7.72554">
        <ele>958.394</ele>
        <time>2018-04-15T09:50:28Z</time>
      </trkpt>
      <trkpt lat="43.8691" lon="7.7255">
        <ele>958.213</ele>
        <time>2018-04-15T09:50:32Z</time>
      </trkpt>
      <trkpt lat="43.86915" lon="7.72549">
        <ele>958.141</ele>
        <time>2018-04-15T09:50:36Z</time>
      </trkpt>
      <trkpt lat="43.86916" lon="7.72545">
        <ele>958.019</ele>
        <time>2018-04-15T09:50:38Z</time>
      </trkpt>
      <trkpt lat="43.86917" lon="7.72541">
        <ele>957.886</ele>
        <time>2018-04-15T09:50:41Z</time>
      </trkpt>
      <trkpt lat="43.8692" lon="7.72537">
        <ele>957.993</ele>
        <time>2018-04-15T09:50:45Z</time>
      </trkpt>
      <trkpt lat="43.86923" lon="7.72534">
        <ele>957.844</ele>
        <time>2018-04-15T09:50:48Z</time>
      </trkpt>
      <trkpt lat="43.86924" lon="7.72529">
        <ele>957.791</ele>
        <time>2018-04-15T09:50:50Z</time>
      </trkpt>
      <trkpt lat="43.86925" lon="7.72525">
        <ele>957.58</ele>
        <time>2018-04-15T09:50:52Z</time>
      </trkpt>
      <trkpt lat="43.86928" lon="7.72522">
        <ele>957.456</ele>
        <time>2018-04-15T09:50:54Z</time>
      </trkpt>
      <trkpt lat="43.86932" lon="7.72518">
        <ele>957.116</ele>
        <time>2018-04-15T09:50:56Z</time>
      </trkpt>
      <trkpt lat="43.86935" lon="7.72514">
        <ele>956.868</ele>
        <time>2018-04-15T09:50:58Z</time>
      </trkpt>
      <trkpt lat="43.86936" lon="7.7251">
        <ele>956.552</ele>
        <time>2018-04-15T09:51:01Z</time>
      </trkpt>
      <trkpt lat="43.86939" lon="7.7251">
        <ele>956.233</ele>
        <time>2018-04-15T09:51:05Z</time>
      </trkpt>
      <trkpt lat="43.86943" lon="7.72506">
        <ele>955.803</ele>
        <time>2018-04-15T09:51:10Z</time>
      </trkpt>
      <trkpt lat="43.86944" lon="7.72502">
        <ele>955.151</ele>
        <time>2018-04-15T09:51:19Z</time>
      </trkpt>
      <trkpt lat="43.86947" lon="7.72501">
        <ele>954.683</ele>
        <time>2018-04-15T09:51:23Z</time>
      </trkpt>
      <trkpt lat="43.86949" lon="7.72503">
        <ele>953.108</ele>
        <time>2018-04-15T09:51:32Z</time>
      </trkpt>
      <trkpt lat="43.86952" lon="7.72503">
        <ele>952.921</ele>
        <time>2018-04-15T09:51:36Z</time>
      </trkpt>
      <trkpt lat="43.86955" lon="7.72503">
        <ele>949.767</ele>
        <time>2018-04-15T09:52:08Z</time>
      </trkpt>
      <trkpt lat="43.86958" lon="7.72502">
        <ele>949.455</ele>
        <time>2018-04-15T09:52:11Z</time>
      </trkpt>
      <trkpt lat="43.86961" lon="7.72501">
        <ele>949.277</ele>
        <time>2018-04-15T09:52:15Z</time>
      </trkpt>
      <trkpt lat="43.86964" lon="7.72499">
        <ele>949.439</ele>
        <time>2018-04-15T09:52:18Z</time>
      </trkpt>
      <trkpt lat="43.86968" lon="7.72497">
        <ele>949.439</ele>
        <time>2018-04-15T09:52:20Z</time>
      </trkpt>
      <trkpt lat="43.86971" lon="7.72494">
        <ele>949.527</ele>
        <time>2018-04-15T09:52:22Z</time>
      </trkpt>
      <trkpt lat="43.86973" lon="7.72492">
        <ele>949.671</ele>
        <time>2018-04-15T09:52:24Z</time>
      </trkpt>
      <trkpt lat="43.86975" lon="7.7249">
        <ele>949.735</ele>
        <time>2018-04-15T09:52:27Z</time>
      </trkpt>
      <trkpt lat="43.86978" lon="7.72487">
        <ele>949.895</ele>
        <time>2018-04-15T09:52:29Z</time>
      </trkpt>
      <trkpt lat="43.86981" lon="7.72484">
        <ele>949.779</ele>
        <time>2018-04-15T09:52:31Z</time>
      </trkpt>
      <trkpt lat="43.86984" lon="7.7248">
        <ele>949.71</ele>
        <time>2018-04-15T09:52:33Z</time>
      </trkpt>
      <trkpt lat="43.86986" lon="7.72475">
        <ele>949.416</ele>
        <time>2018-04-15T09:52:36Z</time>
      </trkpt>
      <trkpt lat="43.86987" lon="7.72471">
        <ele>949.211</ele>
        <time>2018-04-15T09:52:38Z</time>
      </trkpt>
      <trkpt lat="43.86988" lon="7.72466">
        <ele>949.186</ele>
        <time>2018-04-15T09:52:40Z</time>
      </trkpt>
      <trkpt lat="43.86989" lon="7.72463">
        <ele>948.985</ele>
        <time>2018-04-15T09:52:43Z</time>
      </trkpt>
      <trkpt lat="43.86991" lon="7.72457">
        <ele>948.765</ele>
        <time>2018-04-15T09:52:46Z</time>
      </trkpt>
      <trkpt lat="43.86992" lon="7.72453">
        <ele>948.781</ele>
        <time>2018-04-15T09:52:48Z</time>
      </trkpt>
      <trkpt lat="43.86995" lon="7.7245">
        <ele>948.604</ele>
        <time>2018-04-15T09:52:51Z</time>
      </trkpt>
      <trkpt lat="43.86995" lon="7.72446">
        <ele>948.17</ele>
        <time>2018-04-15T09:52:55Z</time>
      </trkpt>
      <trkpt lat="43.86994" lon="7.72442">
        <ele>946.479</ele>
        <time>2018-04-15T09:53:10Z</time>
      </trkpt>
      <trkpt lat="43.86992" lon="7.72442">
        <ele>946.417</ele>
        <time>2018-04-15T09:53:14Z</time>
      </trkpt>
      <trkpt lat="43.86992" lon="7.72438">
        <ele>945.67</ele>
        <time>2018-04-15T09:53:26Z</time>
      </trkpt>
      <trkpt lat="43.86991" lon="7.72433">
        <ele>945.596</ele>
        <time>2018-04-15T09:53:30Z</time>
      </trkpt>
      <trkpt lat="43.86993" lon="7.7243">
        <ele>945.256</ele>
        <time>2018-04-15T09:54:12Z</time>
      </trkpt>
      <trkpt lat="43.86993" lon="7.72426">
        <ele>945.011</ele>
        <time>2018-04-15T09:54:15Z</time>
      </trkpt>
      <trkpt lat="43.86994" lon="7.72422">
        <ele>944.958</ele>
        <time>2018-04-15T09:54:17Z</time>
      </trkpt>
      <trkpt lat="43.86997" lon="7.72421">
        <ele>944.989</ele>
        <time>2018-04-15T09:54:19Z</time>
      </trkpt>
      <trkpt lat="43.86999" lon="7.72419">
        <ele>945.199</ele>
        <time>2018-04-15T09:54:22Z</time>
      </trkpt>
      <trkpt lat="43.87002" lon="7.72417">
        <ele>945.517</ele>
        <time>2018-04-15T09:54:25Z</time>
      </trkpt>
      <trkpt lat="43.87005" lon="7.72414">
        <ele>945.964</ele>
        <time>2018-04-15T09:54:28Z</time>
      </trkpt>
      <trkpt lat="43.87007" lon="7.72412">
        <ele>945.757</ele>
        <time>2018-04-15T09:54:34Z</time>
      </trkpt>
      <trkpt lat="43.87009" lon="7.7241">
        <ele>945.513</ele>
        <time>2018-04-15T09:54:39Z</time>
      </trkpt>
      <trkpt lat="43.87012" lon="7.72406">
        <ele>945.2</ele>
        <time>2018-04-15T09:54:43Z</time>
      </trkpt>
      <trkpt lat="43.87015" lon="7.72403">
        <ele>944.822</ele>
        <time>2018-04-15T09:54:45Z</time>
      </trkpt>
      <trkpt lat="43.87018" lon="7.72401">
        <ele>944.14</ele>
        <time>2018-04-15T09:54:49Z</time>
      </trkpt>
      <trkpt lat="43.87021" lon="7.72399">
        <ele>943.817</ele>
        <time>2018-04-15T09:54:53Z</time>
      </trkpt>
      <trkpt lat="43.87024" lon="7.72396">
        <ele>943.725</ele>
        <time>2018-04-15T09:54:58Z</time>
      </trkpt>
      <trkpt lat="43.87028" lon="7.72394">
        <ele>943.28</ele>
        <time>2018-04-15T09:56:08Z</time>
      </trkpt>
      <trkpt lat="43.8703" lon="7.72394">
        <ele>943.23</ele>
        <time>2018-04-15T09:56:12Z</time>
      </trkpt>
      <trkpt lat="43.87039" lon="7.72394">
        <ele>943.033</ele>
        <time>2018-04-15T09:56:14Z</time>
      </trkpt>
      <trkpt lat="43.87046" lon="7.7239">
        <ele>942.566</ele>
        <time>2018-04-15T09:56:20Z</time>
      </trkpt>
      <trkpt lat="43.87056" lon="7.72388">
        <ele>942.406</ele>
        <time>2018-04-15T09:56:22Z</time>
      </trkpt>
      <trkpt lat="43.87059" lon="7.72387">
        <ele>941.974</ele>
        <time>2018-04-15T09:56:24Z</time>
      </trkpt>
      <trkpt lat="43.87062" lon="7.72384">
        <ele>941.301</ele>
        <time>2018-04-15T09:56:27Z</time>
      </trkpt>
      <trkpt lat="43.87066" lon="7.72382">
        <ele>940.917</ele>
        <time>2018-04-15T09:56:29Z</time>
      </trkpt>
      <trkpt lat="43.87069" lon="7.72382">
        <ele>940.304</ele>
        <time>2018-04-15T09:56:32Z</time>
      </trkpt>
      <trkpt lat="43.87073" lon="7.72381">
        <ele>939.932</ele>
        <time>2018-04-15T09:56:40Z</time>
      </trkpt>
      <trkpt lat="43.87077" lon="7.7238">
        <ele>939.682</ele>
        <time>2018-04-15T09:56:43Z</time>
      </trkpt>
      <trkpt lat="43.8708" lon="7.72379">
        <ele>939.497</ele>
        <time>2018-04-15T09:56:45Z</time>
      </trkpt>
      <trkpt lat="43.87083" lon="7.72377">
        <ele>939.197</ele>
        <time>2018-04-15T09:56:48Z</time>
      </trkpt>
      <trkpt lat="43.87092" lon="7.72376">
        <ele>939.08</ele>
        <time>2018-04-15T09:56:51Z</time>
      </trkpt>
      <trkpt lat="43.87096" lon="7.72379">
        <ele>938.913</ele>
        <time>2018-04-15T09:56:53Z</time>
      </trkpt>
      <trkpt lat="43.87099" lon="7.7238">
        <ele>938.598</ele>
        <time>2018-04-15T09:56:56Z</time>
      </trkpt>
      <trkpt lat="43.87102" lon="7.72381">
        <ele>938.331</ele>
        <time>2018-04-15T09:57:02Z</time>
      </trkpt>
      <trkpt lat="43.87106" lon="7.72383">
        <ele>937.914</ele>
        <time>2018-04-15T09:57:05Z</time>
      </trkpt>
      <trkpt lat="43.87112" lon="7.72387">
        <ele>937.761</ele>
        <time>2018-04-15T09:57:07Z</time>
      </trkpt>
      <trkpt lat="43.87115" lon="7.72387">
        <ele>937.619</ele>
        <time>2018-04-15T09:57:09Z</time>
      </trkpt>
      <trkpt lat="43.87117" lon="7.72383">
        <ele>937.469</ele>
        <time>2018-04-15T09:57:11Z</time>
      </trkpt>
      <trkpt lat="43.87118" lon="7.7238">
        <ele>937.072</ele>
        <time>2018-04-15T09:57:14Z</time>
      </trkpt>
      <trkpt lat="43.87119" lon="7.72376">
        <ele>936.248</ele>
        <time>2018-04-15T09:57:18Z</time>
      </trkpt>
      <trkpt lat="43.87121" lon="7.72372">
        <ele>935.637</ele>
        <time>2018-04-15T09:57:22Z</time>
      </trkpt>
      <trkpt lat="43.87127" lon="7.72367">
        <ele>935.03</ele>
        <time>2018-04-15T09:57:27Z</time>
      </trkpt>
      <trkpt lat="43.87129" lon="7.72365">
        <ele>934.688</ele>
        <time>2018-04-15T09:57:29Z</time>
      </trkpt>
      <trkpt lat="43.87131" lon="7.72362">
        <ele>934.167</ele>
        <time>2018-04-15T09:57:32Z</time>
      </trkpt>
      <trkpt lat="43.87133" lon="7.72359">
        <ele>933.825</ele>
        <time>2018-04-15T09:57:35Z</time>
      </trkpt>
      <trkpt lat="43.87137" lon="7.7236">
        <ele>933.626</ele>
        <time>2018-04-15T09:57:38Z</time>
      </trkpt>
      <trkpt lat="43.87143" lon="7.72359">
        <ele>933.132</ele>
        <time>2018-04-15T09:57:41Z</time>
      </trkpt>
      <trkpt lat="43.87148" lon="7.72358">
        <ele>932.777</ele>
        <time>2018-04-15T09:57:43Z</time>
      </trkpt>
      <trkpt lat="43.87152" lon="7.72357">
        <ele>932.485</ele>
        <time>2018-04-15T09:57:45Z</time>
      </trkpt>
      <trkpt lat="43.87156" lon="7.72357">
        <ele>932.18</ele>
        <time>2018-04-15T09:57:47Z</time>
      </trkpt>
      <trkpt lat="43.87159" lon="7.72358">
        <ele>931.669</ele>
        <time>2018-04-15T09:57:50Z</time>
      </trkpt>
      <trkpt lat="43.87162" lon="7.7236">
        <ele>931.43</ele>
        <time>2018-04-15T09:57:52Z</time>
      </trkpt>
      <trkpt lat="43.87169" lon="7.72362">
        <ele>931.068</ele>
        <time>2018-04-15T09:57:54Z</time>
      </trkpt>
      <trkpt lat="43.87172" lon="7.72364">
        <ele>930.456</ele>
        <time>2018-04-15T09:57:57Z</time>
      </trkpt>
      <trkpt lat="43.87174" lon="7.72362">
        <ele>929.318</ele>
        <time>2018-04-15T09:58:04Z</time>
      </trkpt>
      <trkpt lat="43.87177" lon="7.72363">
        <ele>928.641</ele>
        <time>2018-04-15T09:58:11Z</time>
      </trkpt>
      <trkpt lat="43.8718" lon="7.72361">
        <ele>927.902</ele>
        <time>2018-04-15T09:58:16Z</time>
      </trkpt>
      <trkpt lat="43.87184" lon="7.72363">
        <ele>927.186</ele>
        <time>2018-04-15T09:58:19Z</time>
      </trkpt>
      <trkpt lat="43.87187" lon="7.72363">
        <ele>926.764</ele>
        <time>2018-04-15T09:58:21Z</time>
      </trkpt>
      <trkpt lat="43.87194" lon="7.72362">
        <ele>926.195</ele>
        <time>2018-04-15T09:58:23Z</time>
      </trkpt>
      <trkpt lat="43.87197" lon="7.72361">
        <ele>924.871</ele>
        <time>2018-04-15T09:58:28Z</time>
      </trkpt>
      <trkpt lat="43.87201" lon="7.72357">
        <ele>923.758</ele>
        <time>2018-04-15T09:58:33Z</time>
      </trkpt>
      <trkpt lat="43.87203" lon="7.72356">
        <ele>923.173</ele>
        <time>2018-04-15T09:58:35Z</time>
      </trkpt>
      <trkpt lat="43.87206" lon="7.72354">
        <ele>922.533</ele>
        <time>2018-04-15T09:58:37Z</time>
      </trkpt>
      <trkpt lat="43.8721" lon="7.72352">
        <ele>921.667</ele>
        <time>2018-04-15T09:58:40Z</time>
      </trkpt>
      <trkpt lat="43.87219" lon="7.72351">
        <ele>920.726</ele>
        <time>2018-04-15T09:58:43Z</time>
      </trkpt>
      <trkpt lat="43.87223" lon="7.72351">
        <ele>919.576</ele>
        <time>2018-04-15T09:58:46Z</time>
      </trkpt>
      <trkpt lat="43.87226" lon="7.72353">
        <ele>919.175</ele>
        <time>2018-04-15T09:58:48Z</time>
      </trkpt>
      <trkpt lat="43.8723" lon="7.72352">
        <ele>918.089</ele>
        <time>2018-04-15T09:58:53Z</time>
      </trkpt>
      <trkpt lat="43.87235" lon="7.72352">
        <ele>917.143</ele>
        <time>2018-04-15T09:58:56Z</time>
      </trkpt>
      <trkpt lat="43.87238" lon="7.7235">
        <ele>916.457</ele>
        <time>2018-04-15T09:58:58Z</time>
      </trkpt>
      <trkpt lat="43.87242" lon="7.7235">
        <ele>915.516</ele>
        <time>2018-04-15T09:59:01Z</time>
      </trkpt>
      <trkpt lat="43.87245" lon="7.7235">
        <ele>914.644</ele>
        <time>2018-04-15T09:59:05Z</time>
      </trkpt>
      <trkpt lat="43.87248" lon="7.72348">
        <ele>914.287</ele>
        <time>2018-04-15T09:59:09Z</time>
      </trkpt>
      <trkpt lat="43.87251" lon="7.72347">
        <ele>913.382</ele>
        <time>2018-04-15T09:59:13Z</time>
      </trkpt>
      <trkpt lat="43.87255" lon="7.72347">
        <ele>912.786</ele>
        <time>2018-04-15T09:59:15Z</time>
      </trkpt>
      <trkpt lat="43.87263" lon="7.72348">
        <ele>911.847</ele>
        <time>2018-04-15T09:59:18Z</time>
      </trkpt>
      <trkpt lat="43.87266" lon="7.72349">
        <ele>911.418</ele>
        <time>2018-04-15T09:59:20Z</time>
      </trkpt>
      <trkpt lat="43.87269" lon="7.7235">
        <ele>910.925</ele>
        <time>2018-04-15T09:59:22Z</time>
      </trkpt>
      <trkpt lat="43.87273" lon="7.72351">
        <ele>910.489</ele>
        <time>2018-04-15T09:59:24Z</time>
      </trkpt>
      <trkpt lat="43.87281" lon="7.7235">
        <ele>909.821</ele>
        <time>2018-04-15T09:59:27Z</time>
      </trkpt>
      <trkpt lat="43.87284" lon="7.72349">
        <ele>909.379</ele>
        <time>2018-04-15T09:59:29Z</time>
      </trkpt>
      <trkpt lat="43.87288" lon="7.72348">
        <ele>908.967</ele>
        <time>2018-04-15T09:59:31Z</time>
      </trkpt>
      <trkpt lat="43.87292" lon="7.72352">
        <ele>908.044</ele>
        <time>2018-04-15T09:59:37Z</time>
      </trkpt>
      <trkpt lat="43.87298" lon="7.72352">
        <ele>907.816</ele>
        <time>2018-04-15T09:59:39Z</time>
      </trkpt>
      <trkpt lat="43.87301" lon="7.72351">
        <ele>907.62</ele>
        <time>2018-04-15T09:59:41Z</time>
      </trkpt>
      <trkpt lat="43.87303" lon="7.72348">
        <ele>906.658</ele>
        <time>2018-04-15T09:59:47Z</time>
      </trkpt>
      <trkpt lat="43.87306" lon="7.72348">
        <ele>905.844</ele>
        <time>2018-04-15T09:59:53Z</time>
      </trkpt>
      <trkpt lat="43.87313" lon="7.72347">
        <ele>905.449</ele>
        <time>2018-04-15T09:59:55Z</time>
      </trkpt>
      <trkpt lat="43.87314" lon="7.7235">
        <ele>904.739</ele>
        <time>2018-04-15T10:00:03Z</time>
      </trkpt>
      <trkpt lat="43.87319" lon="7.72351">
        <ele>904.441</ele>
        <time>2018-04-15T10:00:05Z</time>
      </trkpt>
      <trkpt lat="43.87322" lon="7.72352">
        <ele>904.171</ele>
        <time>2018-04-15T10:00:07Z</time>
      </trkpt>
      <trkpt lat="43.87325" lon="7.72353">
        <ele>904.002</ele>
        <time>2018-04-15T10:00:09Z</time>
      </trkpt>
      <trkpt lat="43.87328" lon="7.72355">
        <ele>903.793</ele>
        <time>2018-04-15T10:00:11Z</time>
      </trkpt>
      <trkpt lat="43.87331" lon="7.72357">
        <ele>903.51</ele>
        <time>2018-04-15T10:00:13Z</time>
      </trkpt>
      <trkpt lat="43.87334" lon="7.72361">
        <ele>903.297</ele>
        <time>2018-04-15T10:00:15Z</time>
      </trkpt>
      <trkpt lat="43.87336" lon="7.72364">
        <ele>902.947</ele>
        <time>2018-04-15T10:00:18Z</time>
      </trkpt>
      <trkpt lat="43.87339" lon="7.72366">
        <ele>902.73</ele>
        <time>2018-04-15T10:00:20Z</time>
      </trkpt>
      <trkpt lat="43.87341" lon="7.72368">
        <ele>902.444</ele>
        <time>2018-04-15T10:00:22Z</time>
      </trkpt>
      <trkpt lat="43.87344" lon="7.72371">
        <ele>902.322</ele>
        <time>2018-04-15T10:00:24Z</time>
      </trkpt>
      <trkpt lat="43.87348" lon="7.72371">
        <ele>902.301</ele>
        <time>2018-04-15T10:00:26Z</time>
      </trkpt>
      <trkpt lat="43.87352" lon="7.72373">
        <ele>902.231</ele>
        <time>2018-04-15T10:00:28Z</time>
      </trkpt>
      <trkpt lat="43.87355" lon="7.72374">
        <ele>902.08</ele>
        <time>2018-04-15T10:00:30Z</time>
      </trkpt>
      <trkpt lat="43.87358" lon="7.72376">
        <ele>902.019</ele>
        <time>2018-04-15T10:00:31Z</time>
      </trkpt>
      <trkpt lat="43.87361" lon="7.72378">
        <ele>901.861</ele>
        <time>2018-04-15T10:00:33Z</time>
      </trkpt>
      <trkpt lat="43.87364" lon="7.7238">
        <ele>901.801</ele>
        <time>2018-04-15T10:00:35Z</time>
      </trkpt>
      <trkpt lat="43.87367" lon="7.72384">
        <ele>901.759</ele>
        <time>2018-04-15T10:00:37Z</time>
      </trkpt>
      <trkpt lat="43.87369" lon="7.72386">
        <ele>901.747</ele>
        <time>2018-04-15T10:00:39Z</time>
      </trkpt>
      <trkpt lat="43.87372" lon="7.72391">
        <ele>901.674</ele>
        <time>2018-04-15T10:00:42Z</time>
      </trkpt>
      <trkpt lat="43.87374" lon="7.72393">
        <ele>901.657</ele>
        <time>2018-04-15T10:00:44Z</time>
      </trkpt>
      <trkpt lat="43.87378" lon="7.72396">
        <ele>901.617</ele>
        <time>2018-04-15T10:00:47Z</time>
      </trkpt>
      <trkpt lat="43.8738" lon="7.72399">
        <ele>901.522</ele>
        <time>2018-04-15T10:00:50Z</time>
      </trkpt>
      <trkpt lat="43.87383" lon="7.72403">
        <ele>901.453</ele>
        <time>2018-04-15T10:00:53Z</time>
      </trkpt>
      <trkpt lat="43.87386" lon="7.72405">
        <ele>901.48</ele>
        <time>2018-04-15T10:00:56Z</time>
      </trkpt>
      <trkpt lat="43.87389" lon="7.72407">
        <ele>901.459</ele>
        <time>2018-04-15T10:00:57Z</time>
      </trkpt>
      <trkpt lat="43.87393" lon="7.7241">
        <ele>901.487</ele>
        <time>2018-04-15T10:00:59Z</time>
      </trkpt>
      <trkpt lat="43.87396" lon="7.72413">
        <ele>901.351</ele>
        <time>2018-04-15T10:01:05Z</time>
      </trkpt>
      <trkpt lat="43.87401" lon="7.72414">
        <ele>901.35</ele>
        <time>2018-04-15T10:01:08Z</time>
      </trkpt>
      <trkpt lat="43.87403" lon="7.72417">
        <ele>901.524</ele>
        <time>2018-04-15T10:01:12Z</time>
      </trkpt>
      <trkpt lat="43.87408" lon="7.72417">
        <ele>901.748</ele>
        <time>2018-04-15T10:01:15Z</time>
      </trkpt>
      <trkpt lat="43.87411" lon="7.72417">
        <ele>902.017</ele>
        <time>2018-04-15T10:01:18Z</time>
      </trkpt>
      <trkpt lat="43.87414" lon="7.7242">
        <ele>902.204</ele>
        <time>2018-04-15T10:01:20Z</time>
      </trkpt>
      <trkpt lat="43.87417" lon="7.72423">
        <ele>902.285</ele>
        <time>2018-04-15T10:01:22Z</time>
      </trkpt>
      <trkpt lat="43.8742" lon="7.72424">
        <ele>902.397</ele>
        <time>2018-04-15T10:01:24Z</time>
      </trkpt>
      <trkpt lat="43.87423" lon="7.72425">
        <ele>902.538</ele>
        <time>2018-04-15T10:01:28Z</time>
      </trkpt>
      <trkpt lat="43.87426" lon="7.72426">
        <ele>902.939</ele>
        <time>2018-04-15T10:01:31Z</time>
      </trkpt>
      <trkpt lat="43.87428" lon="7.72424">
        <ele>903.468</ele>
        <time>2018-04-15T10:01:38Z</time>
      </trkpt>
      <trkpt lat="43.87432" lon="7.72422">
        <ele>903.676</ele>
        <time>2018-04-15T10:01:40Z</time>
      </trkpt>
      <trkpt lat="43.87435" lon="7.7242">
        <ele>903.904</ele>
        <time>2018-04-15T10:01:42Z</time>
      </trkpt>
      <trkpt lat="43.87439" lon="7.72419">
        <ele>904.315</ele>
        <time>2018-04-15T10:01:45Z</time>
      </trkpt>
      <trkpt lat="43.87443" lon="7.72417">
        <ele>904.644</ele>
        <time>2018-04-15T10:01:47Z</time>
      </trkpt>
      <trkpt lat="43.87447" lon="7.72415">
        <ele>904.836</ele>
        <time>2018-04-15T10:01:49Z</time>
      </trkpt>
      <trkpt lat="43.87451" lon="7.72413">
        <ele>904.892</ele>
        <time>2018-04-15T10:01:51Z</time>
      </trkpt>
      <trkpt lat="43.87453" lon="7.72409">
        <ele>904.9</ele>
        <time>2018-04-15T10:01:53Z</time>
      </trkpt>
      <trkpt lat="43.87456" lon="7.72406">
        <ele>904.819</ele>
        <time>2018-04-15T10:01:55Z</time>
      </trkpt>
      <trkpt lat="43.87459" lon="7.72404">
        <ele>904.664</ele>
        <time>2018-04-15T10:01:57Z</time>
      </trkpt>
      <trkpt lat="43.87462" lon="7.724">
        <ele>904.543</ele>
        <time>2018-04-15T10:01:59Z</time>
      </trkpt>
      <trkpt lat="43.87465" lon="7.72397">
        <ele>904.591</ele>
        <time>2018-04-15T10:02:02Z</time>
      </trkpt>
      <trkpt lat="43.87467" lon="7.72393">
        <ele>904.664</ele>
        <time>2018-04-15T10:02:04Z</time>
      </trkpt>
      <trkpt lat="43.87469" lon="7.72389">
        <ele>904.728</ele>
        <time>2018-04-15T10:02:06Z</time>
      </trkpt>
      <trkpt lat="43.87471" lon="7.72385">
        <ele>904.558</ele>
        <time>2018-04-15T10:02:09Z</time>
      </trkpt>
      <trkpt lat="43.87474" lon="7.72381">
        <ele>904.139</ele>
        <time>2018-04-15T10:02:12Z</time>
      </trkpt>
      <trkpt lat="43.87478" lon="7.72376">
        <ele>903.969</ele>
        <time>2018-04-15T10:02:14Z</time>
      </trkpt>
      <trkpt lat="43.87481" lon="7.72372">
        <ele>903.855</ele>
        <time>2018-04-15T10:02:17Z</time>
      </trkpt>
      <trkpt lat="43.87485" lon="7.72371">
        <ele>903.619</ele>
        <time>2018-04-15T10:02:21Z</time>
      </trkpt>
      <trkpt lat="43.87488" lon="7.7237">
        <ele>903.567</ele>
        <time>2018-04-15T10:02:23Z</time>
      </trkpt>
      <trkpt lat="43.87491" lon="7.72367">
        <ele>903.447</ele>
        <time>2018-04-15T10:02:26Z</time>
      </trkpt>
      <trkpt lat="43.87493" lon="7.72366">
        <ele>903.221</ele>
        <time>2018-04-15T10:02:29Z</time>
      </trkpt>
      <trkpt lat="43.87496" lon="7.72365">
        <ele>903.011</ele>
        <time>2018-04-15T10:02:32Z</time>
      </trkpt>
      <trkpt lat="43.875" lon="7.72364">
        <ele>902.873</ele>
        <time>2018-04-15T10:02:35Z</time>
      </trkpt>
      <trkpt lat="43.87504" lon="7.72362">
        <ele>902.665</ele>
        <time>2018-04-15T10:02:38Z</time>
      </trkpt>
      <trkpt lat="43.87508" lon="7.72363">
        <ele>902.486</ele>
        <time>2018-04-15T10:02:40Z</time>
      </trkpt>
      <trkpt lat="43.87511" lon="7.72363">
        <ele>902.301</ele>
        <time>2018-04-15T10:02:42Z</time>
      </trkpt>
      <trkpt lat="43.87515" lon="7.72365">
        <ele>902.072</ele>
        <time>2018-04-15T10:02:45Z</time>
      </trkpt>
      <trkpt lat="43.87519" lon="7.72367">
        <ele>902.183</ele>
        <time>2018-04-15T10:02:47Z</time>
      </trkpt>
      <trkpt lat="43.87522" lon="7.72369">
        <ele>902.32</ele>
        <time>2018-04-15T10:02:49Z</time>
      </trkpt>
      <trkpt lat="43.87526" lon="7.72372">
        <ele>902.403</ele>
        <time>2018-04-15T10:02:51Z</time>
      </trkpt>
      <trkpt lat="43.87529" lon="7.72376">
        <ele>902.253</ele>
        <time>2018-04-15T10:02:54Z</time>
      </trkpt>
      <trkpt lat="43.87532" lon="7.7238">
        <ele>902.226</ele>
        <time>2018-04-15T10:02:56Z</time>
      </trkpt>
      <trkpt lat="43.87534" lon="7.72383">
        <ele>902.291</ele>
        <time>2018-04-15T10:02:58Z</time>
      </trkpt>
      <trkpt lat="43.87535" lon="7.72388">
        <ele>902.372</ele>
        <time>2018-04-15T10:03:01Z</time>
      </trkpt>
      <trkpt lat="43.87537" lon="7.72391">
        <ele>902.42</ele>
        <time>2018-04-15T10:03:03Z</time>
      </trkpt>
      <trkpt lat="43.87539" lon="7.72395">
        <ele>902.411</ele>
        <time>2018-04-15T10:03:05Z</time>
      </trkpt>
      <trkpt lat="43.87542" lon="7.72398">
        <ele>902.54</ele>
        <time>2018-04-15T10:03:07Z</time>
      </trkpt>
      <trkpt lat="43.87545" lon="7.72403">
        <ele>902.684</ele>
        <time>2018-04-15T10:03:10Z</time>
      </trkpt>
      <trkpt lat="43.87551" lon="7.72408">
        <ele>902.887</ele>
        <time>2018-04-15T10:03:14Z</time>
      </trkpt>
      <trkpt lat="43.87553" lon="7.72411">
        <ele>902.993</ele>
        <time>2018-04-15T10:03:16Z</time>
      </trkpt>
      <trkpt lat="43.87556" lon="7.72415">
        <ele>903.246</ele>
        <time>2018-04-15T10:03:19Z</time>
      </trkpt>
      <trkpt lat="43.87559" lon="7.72418">
        <ele>903.767</ele>
        <time>2018-04-15T10:03:23Z</time>
      </trkpt>
      <trkpt lat="43.87561" lon="7.7242">
        <ele>904.072</ele>
        <time>2018-04-15T10:03:26Z</time>
      </trkpt>
      <trkpt lat="43.87564" lon="7.72423">
        <ele>904.257</ele>
        <time>2018-04-15T10:03:28Z</time>
      </trkpt>
      <trkpt lat="43.87565" lon="7.72426">
        <ele>904.345</ele>
        <time>2018-04-15T10:03:30Z</time>
      </trkpt>
      <trkpt lat="43.87568" lon="7.7243">
        <ele>904.373</ele>
        <time>2018-04-15T10:03:32Z</time>
      </trkpt>
      <trkpt lat="43.87566" lon="7.72438">
        <ele>904.269</ele>
        <time>2018-04-15T10:03:34Z</time>
      </trkpt>
      <trkpt lat="43.87567" lon="7.72443">
        <ele>904.129</ele>
        <time>2018-04-15T10:03:36Z</time>
      </trkpt>
      <trkpt lat="43.87566" lon="7.72447">
        <ele>903.873</ele>
        <time>2018-04-15T10:03:39Z</time>
      </trkpt>
      <trkpt lat="43.87566" lon="7.72451">
        <ele>903.704</ele>
        <time>2018-04-15T10:03:42Z</time>
      </trkpt>
      <trkpt lat="43.87565" lon="7.72458">
        <ele>903.527</ele>
        <time>2018-04-15T10:03:45Z</time>
      </trkpt>
      <trkpt lat="43.87565" lon="7.72462">
        <ele>903.344</ele>
        <time>2018-04-15T10:03:47Z</time>
      </trkpt>
      <trkpt lat="43.87564" lon="7.72468">
        <ele>903.013</ele>
        <time>2018-04-15T10:03:50Z</time>
      </trkpt>
      <trkpt lat="43.87563" lon="7.72473">
        <ele>902.75</ele>
        <time>2018-04-15T10:03:54Z</time>
      </trkpt>
      <trkpt lat="43.8756" lon="7.72481">
        <ele>902.393</ele>
        <time>2018-04-15T10:03:58Z</time>
      </trkpt>
      <trkpt lat="43.87559" lon="7.72486">
        <ele>902.244</ele>
        <time>2018-04-15T10:04:00Z</time>
      </trkpt>
      <trkpt lat="43.87559" lon="7.7249">
        <ele>901.693</ele>
        <time>2018-04-15T10:04:03Z</time>
      </trkpt>
      <trkpt lat="43.87556" lon="7.72494">
        <ele>901.197</ele>
        <time>2018-04-15T10:04:06Z</time>
      </trkpt>
      <trkpt lat="43.87555" lon="7.72498">
        <ele>900.975</ele>
        <time>2018-04-15T10:04:08Z</time>
      </trkpt>
      <trkpt lat="43.87553" lon="7.72502">
        <ele>900.82</ele>
        <time>2018-04-15T10:04:10Z</time>
      </trkpt>
      <trkpt lat="43.8755" lon="7.72506">
        <ele>900.572</ele>
        <time>2018-04-15T10:04:15Z</time>
      </trkpt>
      <trkpt lat="43.87549" lon="7.72511">
        <ele>900.879</ele>
        <time>2018-04-15T10:04:19Z</time>
      </trkpt>
      <trkpt lat="43.87549" lon="7.72516">
        <ele>901.101</ele>
        <time>2018-04-15T10:04:21Z</time>
      </trkpt>
      <trkpt lat="43.87548" lon="7.72521">
        <ele>901.084</ele>
        <time>2018-04-15T10:04:24Z</time>
      </trkpt>
      <trkpt lat="43.87546" lon="7.72527">
        <ele>901.005</ele>
        <time>2018-04-15T10:04:26Z</time>
      </trkpt>
      <trkpt lat="43.87546" lon="7.72532">
        <ele>900.843</ele>
        <time>2018-04-15T10:04:28Z</time>
      </trkpt>
      <trkpt lat="43.87547" lon="7.72538">
        <ele>900.712</ele>
        <time>2018-04-15T10:04:30Z</time>
      </trkpt>
      <trkpt lat="43.8755" lon="7.72544">
        <ele>900.542</ele>
        <time>2018-04-15T10:04:32Z</time>
      </trkpt>
      <trkpt lat="43.87551" lon="7.72548">
        <ele>900.441</ele>
        <time>2018-04-15T10:04:34Z</time>
      </trkpt>
      <trkpt lat="43.87553" lon="7.72554">
        <ele>900.353</ele>
        <time>2018-04-15T10:04:36Z</time>
      </trkpt>
      <trkpt lat="43.87552" lon="7.72558">
        <ele>900.529</ele>
        <time>2018-04-15T10:04:39Z</time>
      </trkpt>
      <trkpt lat="43.87551" lon="7.72563">
        <ele>900.586</ele>
        <time>2018-04-15T10:04:44Z</time>
      </trkpt>
      <trkpt lat="43.8755" lon="7.72566">
        <ele>900.618</ele>
        <time>2018-04-15T10:04:46Z</time>
      </trkpt>
      <trkpt lat="43.87549" lon="7.72571">
        <ele>900.802</ele>
        <time>2018-04-15T10:04:48Z</time>
      </trkpt>
      <trkpt lat="43.87548" lon="7.72575">
        <ele>900.958</ele>
        <time>2018-04-15T10:04:50Z</time>
      </trkpt>
      <trkpt lat="43.87546" lon="7.72578">
        <ele>900.963</ele>
        <time>2018-04-15T10:04:53Z</time>
      </trkpt>
      <trkpt lat="43.87544" lon="7.72581">
        <ele>901.07</ele>
        <time>2018-04-15T10:04:55Z</time>
      </trkpt>
      <trkpt lat="43.87541" lon="7.72585">
        <ele>900.99</ele>
        <time>2018-04-15T10:04:58Z</time>
      </trkpt>
      <trkpt lat="43.87541" lon="7.72589">
        <ele>900.587</ele>
        <time>2018-04-15T10:05:11Z</time>
      </trkpt>
      <trkpt lat="43.87542" lon="7.72593">
        <ele>900.7</ele>
        <time>2018-04-15T10:05:20Z</time>
      </trkpt>
      <trkpt lat="43.87539" lon="7.72593">
        <ele>900.849</ele>
        <time>2018-04-15T10:06:13Z</time>
      </trkpt>
      <trkpt lat="43.87538" lon="7.72597">
        <ele>901.761</ele>
        <time>2018-04-15T10:06:25Z</time>
      </trkpt>
      <trkpt lat="43.87537" lon="7.72605">
        <ele>902.2</ele>
        <time>2018-04-15T10:06:27Z</time>
      </trkpt>
      <trkpt lat="43.87536" lon="7.7261">
        <ele>902.558</ele>
        <time>2018-04-15T10:06:28Z</time>
      </trkpt>
      <trkpt lat="43.87536" lon="7.7262">
        <ele>903.28</ele>
        <time>2018-04-15T10:06:30Z</time>
      </trkpt>
      <trkpt lat="43.87536" lon="7.7263">
        <ele>903.856</ele>
        <time>2018-04-15T10:06:32Z</time>
      </trkpt>
      <trkpt lat="43.87537" lon="7.72634">
        <ele>905.826</ele>
        <time>2018-04-15T10:06:47Z</time>
      </trkpt>
      <trkpt lat="43.87535" lon="7.7264">
        <ele>906.284</ele>
        <time>2018-04-15T10:06:50Z</time>
      </trkpt>
      <trkpt lat="43.87533" lon="7.72644">
        <ele>906.386</ele>
        <time>2018-04-15T10:06:52Z</time>
      </trkpt>
      <trkpt lat="43.87532" lon="7.72648">
        <ele>906.505</ele>
        <time>2018-04-15T10:06:54Z</time>
      </trkpt>
      <trkpt lat="43.87531" lon="7.72653">
        <ele>906.151</ele>
        <time>2018-04-15T10:06:57Z</time>
      </trkpt>
      <trkpt lat="43.87532" lon="7.72657">
        <ele>905.935</ele>
        <time>2018-04-15T10:07:00Z</time>
      </trkpt>
      <trkpt lat="43.87533" lon="7.72661">
        <ele>905.936</ele>
        <time>2018-04-15T10:07:02Z</time>
      </trkpt>
      <trkpt lat="43.87533" lon="7.72666">
        <ele>905.889</ele>
        <time>2018-04-15T10:07:05Z</time>
      </trkpt>
      <trkpt lat="43.87534" lon="7.7267">
        <ele>905.858</ele>
        <time>2018-04-15T10:07:09Z</time>
      </trkpt>
      <trkpt lat="43.87536" lon="7.72674">
        <ele>905.82</ele>
        <time>2018-04-15T10:07:13Z</time>
      </trkpt>
      <trkpt lat="43.87537" lon="7.72679">
        <ele>905.779</ele>
        <time>2018-04-15T10:07:16Z</time>
      </trkpt>
      <trkpt lat="43.87538" lon="7.72683">
        <ele>905.97</ele>
        <time>2018-04-15T10:07:18Z</time>
      </trkpt>
      <trkpt lat="43.87538" lon="7.72687">
        <ele>906.107</ele>
        <time>2018-04-15T10:07:20Z</time>
      </trkpt>
      <trkpt lat="43.87538" lon="7.72692">
        <ele>906.424</ele>
        <time>2018-04-15T10:07:23Z</time>
      </trkpt>
      <trkpt lat="43.87538" lon="7.72696">
        <ele>906.55</ele>
        <time>2018-04-15T10:07:25Z</time>
      </trkpt>
      <trkpt lat="43.87539" lon="7.72701">
        <ele>906.532</ele>
        <time>2018-04-15T10:07:27Z</time>
      </trkpt>
      <trkpt lat="43.8754" lon="7.72706">
        <ele>906.528</ele>
        <time>2018-04-15T10:07:29Z</time>
      </trkpt>
      <trkpt lat="43.8754" lon="7.72711">
        <ele>906.623</ele>
        <time>2018-04-15T10:07:31Z</time>
      </trkpt>
      <trkpt lat="43.8754" lon="7.72715">
        <ele>907.078</ele>
        <time>2018-04-15T10:07:34Z</time>
      </trkpt>
      <trkpt lat="43.87541" lon="7.72719">
        <ele>907.568</ele>
        <time>2018-04-15T10:07:36Z</time>
      </trkpt>
      <trkpt lat="43.87541" lon="7.72724">
        <ele>908.254</ele>
        <time>2018-04-15T10:07:40Z</time>
      </trkpt>
      <trkpt lat="43.8754" lon="7.72729">
        <ele>908.747</ele>
        <time>2018-04-15T10:07:43Z</time>
      </trkpt>
      <trkpt lat="43.87538" lon="7.72734">
        <ele>908.908</ele>
        <time>2018-04-15T10:07:45Z</time>
      </trkpt>
      <trkpt lat="43.87537" lon="7.72739">
        <ele>909.153</ele>
        <time>2018-04-15T10:07:47Z</time>
      </trkpt>
      <trkpt lat="43.87536" lon="7.72745">
        <ele>909.363</ele>
        <time>2018-04-15T10:07:49Z</time>
      </trkpt>
      <trkpt lat="43.87538" lon="7.72749">
        <ele>909.65</ele>
        <time>2018-04-15T10:07:51Z</time>
      </trkpt>
      <trkpt lat="43.87539" lon="7.72752">
        <ele>909.867</ele>
        <time>2018-04-15T10:07:54Z</time>
      </trkpt>
      <trkpt lat="43.87541" lon="7.72755">
        <ele>910.13</ele>
        <time>2018-04-15T10:07:57Z</time>
      </trkpt>
      <trkpt lat="43.87544" lon="7.72754">
        <ele>910.725</ele>
        <time>2018-04-15T10:08:03Z</time>
      </trkpt>
      <trkpt lat="43.87548" lon="7.72753">
        <ele>910.9</ele>
        <time>2018-04-15T10:08:08Z</time>
      </trkpt>
      <trkpt lat="43.87551" lon="7.72758">
        <ele>910.7</ele>
        <time>2018-04-15T10:08:12Z</time>
      </trkpt>
      <trkpt lat="43.87553" lon="7.72762">
        <ele>910.548</ele>
        <time>2018-04-15T10:08:14Z</time>
      </trkpt>
      <trkpt lat="43.87555" lon="7.72766">
        <ele>910.285</ele>
        <time>2018-04-15T10:08:16Z</time>
      </trkpt>
      <trkpt lat="43.87556" lon="7.72769">
        <ele>910.056</ele>
        <time>2018-04-15T10:08:18Z</time>
      </trkpt>
      <trkpt lat="43.87557" lon="7.72773">
        <ele>909.936</ele>
        <time>2018-04-15T10:08:20Z</time>
      </trkpt>
      <trkpt lat="43.87558" lon="7.72777">
        <ele>910.008</ele>
        <time>2018-04-15T10:08:22Z</time>
      </trkpt>
      <trkpt lat="43.8756" lon="7.7278">
        <ele>910.029</ele>
        <time>2018-04-15T10:08:24Z</time>
      </trkpt>
      <trkpt lat="43.87561" lon="7.72784">
        <ele>910.109</ele>
        <time>2018-04-15T10:08:26Z</time>
      </trkpt>
      <trkpt lat="43.87563" lon="7.72787">
        <ele>910.039</ele>
        <time>2018-04-15T10:08:28Z</time>
      </trkpt>
      <trkpt lat="43.87564" lon="7.72792">
        <ele>910.002</ele>
        <time>2018-04-15T10:08:31Z</time>
      </trkpt>
      <trkpt lat="43.87565" lon="7.72796">
        <ele>910.273</ele>
        <time>2018-04-15T10:08:35Z</time>
      </trkpt>
      <trkpt lat="43.87566" lon="7.728">
        <ele>910.51</ele>
        <time>2018-04-15T10:08:38Z</time>
      </trkpt>
      <trkpt lat="43.87567" lon="7.72806">
        <ele>910.592</ele>
        <time>2018-04-15T10:08:41Z</time>
      </trkpt>
      <trkpt lat="43.87569" lon="7.72809">
        <ele>910.851</ele>
        <time>2018-04-15T10:08:44Z</time>
      </trkpt>
      <trkpt lat="43.87572" lon="7.72811">
        <ele>910.879</ele>
        <time>2018-04-15T10:08:48Z</time>
      </trkpt>
      <trkpt lat="43.87575" lon="7.72814">
        <ele>910.604</ele>
        <time>2018-04-15T10:08:51Z</time>
      </trkpt>
      <trkpt lat="43.87578" lon="7.72814">
        <ele>910.464</ele>
        <time>2018-04-15T10:08:53Z</time>
      </trkpt>
      <trkpt lat="43.87581" lon="7.72814">
        <ele>910.465</ele>
        <time>2018-04-15T10:08:55Z</time>
      </trkpt>
      <trkpt lat="43.87585" lon="7.72816">
        <ele>910.428</ele>
        <time>2018-04-15T10:08:57Z</time>
      </trkpt>
      <trkpt lat="43.87587" lon="7.72818">
        <ele>910.41</ele>
        <time>2018-04-15T10:08:59Z</time>
      </trkpt>
      <trkpt lat="43.87591" lon="7.7282">
        <ele>910.286</ele>
        <time>2018-04-15T10:09:02Z</time>
      </trkpt>
      <trkpt lat="43.87593" lon="7.72823">
        <ele>910.313</ele>
        <time>2018-04-15T10:09:05Z</time>
      </trkpt>
      <trkpt lat="43.87596" lon="7.72824">
        <ele>910.469</ele>
        <time>2018-04-15T10:09:08Z</time>
      </trkpt>
      <trkpt lat="43.876" lon="7.72826">
        <ele>910.473</ele>
        <time>2018-04-15T10:09:10Z</time>
      </trkpt>
      <trkpt lat="43.87602" lon="7.72827">
        <ele>910.642</ele>
        <time>2018-04-15T10:09:12Z</time>
      </trkpt>
      <trkpt lat="43.87606" lon="7.72826">
        <ele>910.88</ele>
        <time>2018-04-15T10:09:14Z</time>
      </trkpt>
      <trkpt lat="43.87609" lon="7.72827">
        <ele>911.242</ele>
        <time>2018-04-15T10:09:16Z</time>
      </trkpt>
      <trkpt lat="43.87612" lon="7.72828">
        <ele>911.359</ele>
        <time>2018-04-15T10:09:18Z</time>
      </trkpt>
      <trkpt lat="43.87615" lon="7.72829">
        <ele>911.302</ele>
        <time>2018-04-15T10:09:20Z</time>
      </trkpt>
      <trkpt lat="43.87618" lon="7.72829">
        <ele>911.245</ele>
        <time>2018-04-15T10:09:22Z</time>
      </trkpt>
      <trkpt lat="43.87622" lon="7.72831">
        <ele>911.225</ele>
        <time>2018-04-15T10:09:24Z</time>
      </trkpt>
      <trkpt lat="43.87625" lon="7.72834">
        <ele>911.005</ele>
        <time>2018-04-15T10:09:26Z</time>
      </trkpt>
      <trkpt lat="43.87629" lon="7.72838">
        <ele>910.693</ele>
        <time>2018-04-15T10:09:28Z</time>
      </trkpt>
      <trkpt lat="43.87631" lon="7.72841">
        <ele>910.446</ele>
        <time>2018-04-15T10:09:30Z</time>
      </trkpt>
      <trkpt lat="43.87633" lon="7.72845">
        <ele>910.414</ele>
        <time>2018-04-15T10:09:32Z</time>
      </trkpt>
      <trkpt lat="43.87634" lon="7.72849">
        <ele>910.453</ele>
        <time>2018-04-15T10:09:34Z</time>
      </trkpt>
      <trkpt lat="43.87636" lon="7.72853">
        <ele>910.615</ele>
        <time>2018-04-15T10:09:37Z</time>
      </trkpt>
      <trkpt lat="43.87639" lon="7.72857">
        <ele>910.816</ele>
        <time>2018-04-15T10:09:40Z</time>
      </trkpt>
      <trkpt lat="43.87642" lon="7.72861">
        <ele>910.936</ele>
        <time>2018-04-15T10:09:43Z</time>
      </trkpt>
      <trkpt lat="43.87644" lon="7.72864">
        <ele>911.13</ele>
        <time>2018-04-15T10:09:46Z</time>
      </trkpt>
      <trkpt lat="43.87647" lon="7.72865">
        <ele>911.492</ele>
        <time>2018-04-15T10:09:49Z</time>
      </trkpt>
      <trkpt lat="43.8765" lon="7.72866">
        <ele>911.705</ele>
        <time>2018-04-15T10:09:53Z</time>
      </trkpt>
      <trkpt lat="43.87653" lon="7.72869">
        <ele>913.022</ele>
        <time>2018-04-15T10:10:28Z</time>
      </trkpt>
      <trkpt lat="43.87655" lon="7.72871">
        <ele>913.499</ele>
        <time>2018-04-15T10:10:30Z</time>
      </trkpt>
      <trkpt lat="43.87658" lon="7.72874">
        <ele>913.861</ele>
        <time>2018-04-15T10:10:33Z</time>
      </trkpt>
      <trkpt lat="43.8766" lon="7.72876">
        <ele>913.973</ele>
        <time>2018-04-15T10:10:35Z</time>
      </trkpt>
      <trkpt lat="43.87662" lon="7.72879">
        <ele>914.042</ele>
        <time>2018-04-15T10:10:37Z</time>
      </trkpt>
      <trkpt lat="43.87665" lon="7.72881">
        <ele>914.065</ele>
        <time>2018-04-15T10:10:39Z</time>
      </trkpt>
      <trkpt lat="43.87668" lon="7.72883">
        <ele>914.064</ele>
        <time>2018-04-15T10:10:41Z</time>
      </trkpt>
      <trkpt lat="43.8767" lon="7.72885">
        <ele>914.137</ele>
        <time>2018-04-15T10:10:43Z</time>
      </trkpt>
      <trkpt lat="43.87673" lon="7.72885">
        <ele>914.388</ele>
        <time>2018-04-15T10:10:45Z</time>
      </trkpt>
      <trkpt lat="43.87677" lon="7.72887">
        <ele>914.626</ele>
        <time>2018-04-15T10:10:47Z</time>
      </trkpt>
      <trkpt lat="43.87681" lon="7.72886">
        <ele>915.025</ele>
        <time>2018-04-15T10:10:50Z</time>
      </trkpt>
      <trkpt lat="43.87684" lon="7.72884">
        <ele>915.374</ele>
        <time>2018-04-15T10:10:52Z</time>
      </trkpt>
      <trkpt lat="43.87687" lon="7.72885">
        <ele>915.727</ele>
        <time>2018-04-15T10:10:54Z</time>
      </trkpt>
      <trkpt lat="43.8769" lon="7.72885">
        <ele>916.041</ele>
        <time>2018-04-15T10:10:56Z</time>
      </trkpt>
      <trkpt lat="43.87694" lon="7.72886">
        <ele>916.269</ele>
        <time>2018-04-15T10:10:59Z</time>
      </trkpt>
      <trkpt lat="43.87698" lon="7.72885">
        <ele>916.322</ele>
        <time>2018-04-15T10:11:01Z</time>
      </trkpt>
      <trkpt lat="43.87701" lon="7.72885">
        <ele>916.375</ele>
        <time>2018-04-15T10:11:03Z</time>
      </trkpt>
      <trkpt lat="43.87705" lon="7.72884">
        <ele>916.453</ele>
        <time>2018-04-15T10:11:06Z</time>
      </trkpt>
      <trkpt lat="43.87709" lon="7.72884">
        <ele>916.295</ele>
        <time>2018-04-15T10:11:10Z</time>
      </trkpt>
      <trkpt lat="43.87713" lon="7.72884">
        <ele>915.895</ele>
        <time>2018-04-15T10:11:13Z</time>
      </trkpt>
      <trkpt lat="43.87717" lon="7.72883">
        <ele>915.699</ele>
        <time>2018-04-15T10:11:15Z</time>
      </trkpt>
      <trkpt lat="43.87721" lon="7.72883">
        <ele>915.204</ele>
        <time>2018-04-15T10:11:18Z</time>
      </trkpt>
      <trkpt lat="43.87724" lon="7.72882">
        <ele>915.08</ele>
        <time>2018-04-15T10:11:20Z</time>
      </trkpt>
      <trkpt lat="43.87727" lon="7.72882">
        <ele>914.986</ele>
        <time>2018-04-15T10:11:22Z</time>
      </trkpt>
      <trkpt lat="43.87731" lon="7.72883">
        <ele>914.926</ele>
        <time>2018-04-15T10:11:25Z</time>
      </trkpt>
      <trkpt lat="43.87734" lon="7.72882">
        <ele>914.543</ele>
        <time>2018-04-15T10:11:28Z</time>
      </trkpt>
      <trkpt lat="43.87737" lon="7.7288">
        <ele>914.387</ele>
        <time>2018-04-15T10:11:29Z</time>
      </trkpt>
      <trkpt lat="43.87741" lon="7.72881">
        <ele>914.034</ele>
        <time>2018-04-15T10:11:31Z</time>
      </trkpt>
      <trkpt lat="43.87746" lon="7.72881">
        <ele>913.675</ele>
        <time>2018-04-15T10:11:33Z</time>
      </trkpt>
      <trkpt lat="43.87749" lon="7.72878">
        <ele>913.142</ele>
        <time>2018-04-15T10:11:36Z</time>
      </trkpt>
      <trkpt lat="43.87753" lon="7.72877">
        <ele>912.728</ele>
        <time>2018-04-15T10:11:38Z</time>
      </trkpt>
      <trkpt lat="43.87756" lon="7.72876">
        <ele>912.204</ele>
        <time>2018-04-15T10:11:41Z</time>
      </trkpt>
      <trkpt lat="43.8776" lon="7.72876">
        <ele>911.55</ele>
        <time>2018-04-15T10:11:44Z</time>
      </trkpt>
      <trkpt lat="43.87763" lon="7.72875">
        <ele>911.164</ele>
        <time>2018-04-15T10:11:46Z</time>
      </trkpt>
      <trkpt lat="43.87766" lon="7.72875">
        <ele>910.791</ele>
        <time>2018-04-15T10:11:48Z</time>
      </trkpt>
      <trkpt lat="43.87769" lon="7.72874">
        <ele>910.419</ele>
        <time>2018-04-15T10:11:50Z</time>
      </trkpt>
      <trkpt lat="43.87773" lon="7.72874">
        <ele>910.044</ele>
        <time>2018-04-15T10:11:52Z</time>
      </trkpt>
      <trkpt lat="43.87777" lon="7.72873">
        <ele>909.443</ele>
        <time>2018-04-15T10:11:55Z</time>
      </trkpt>
      <trkpt lat="43.87781" lon="7.72872">
        <ele>909.113</ele>
        <time>2018-04-15T10:11:57Z</time>
      </trkpt>
      <trkpt lat="43.87784" lon="7.72872">
        <ele>908.814</ele>
        <time>2018-04-15T10:11:59Z</time>
      </trkpt>
      <trkpt lat="43.87787" lon="7.72872">
        <ele>908.305</ele>
        <time>2018-04-15T10:12:02Z</time>
      </trkpt>
      <trkpt lat="43.8779" lon="7.7287">
        <ele>907.741</ele>
        <time>2018-04-15T10:12:05Z</time>
      </trkpt>
      <trkpt lat="43.87793" lon="7.72867">
        <ele>907.433</ele>
        <time>2018-04-15T10:12:08Z</time>
      </trkpt>
      <trkpt lat="43.87797" lon="7.72866">
        <ele>907.315</ele>
        <time>2018-04-15T10:12:10Z</time>
      </trkpt>
      <trkpt lat="43.87799" lon="7.72864">
        <ele>907.24</ele>
        <time>2018-04-15T10:12:12Z</time>
      </trkpt>
      <trkpt lat="43.87803" lon="7.72861">
        <ele>907.247</ele>
        <time>2018-04-15T10:12:14Z</time>
      </trkpt>
      <trkpt lat="43.87806" lon="7.72858">
        <ele>907.178</ele>
        <time>2018-04-15T10:12:16Z</time>
      </trkpt>
      <trkpt lat="43.87809" lon="7.72856">
        <ele>907.128</ele>
        <time>2018-04-15T10:12:18Z</time>
      </trkpt>
      <trkpt lat="43.87812" lon="7.72852">
        <ele>906.906</ele>
        <time>2018-04-15T10:12:21Z</time>
      </trkpt>
      <trkpt lat="43.87814" lon="7.72848">
        <ele>906.47</ele>
        <time>2018-04-15T10:12:25Z</time>
      </trkpt>
      <trkpt lat="43.87816" lon="7.72844">
        <ele>906.196</ele>
        <time>2018-04-15T10:12:27Z</time>
      </trkpt>
      <trkpt lat="43.87818" lon="7.7284">
        <ele>905.639</ele>
        <time>2018-04-15T10:12:30Z</time>
      </trkpt>
      <trkpt lat="43.87821" lon="7.72837">
        <ele>905.231</ele>
        <time>2018-04-15T10:12:32Z</time>
      </trkpt>
      <trkpt lat="43.87824" lon="7.72834">
        <ele>904.706</ele>
        <time>2018-04-15T10:12:34Z</time>
      </trkpt>
      <trkpt lat="43.87827" lon="7.72832">
        <ele>904.224</ele>
        <time>2018-04-15T10:12:36Z</time>
      </trkpt>
      <trkpt lat="43.87829" lon="7.7283">
        <ele>903.585</ele>
        <time>2018-04-15T10:12:39Z</time>
      </trkpt>
      <trkpt lat="43.87832" lon="7.72828">
        <ele>903.186</ele>
        <time>2018-04-15T10:12:41Z</time>
      </trkpt>
      <trkpt lat="43.87835" lon="7.72826">
        <ele>902.741</ele>
        <time>2018-04-15T10:12:44Z</time>
      </trkpt>
      <trkpt lat="43.87838" lon="7.72825">
        <ele>902.434</ele>
        <time>2018-04-15T10:12:46Z</time>
      </trkpt>
      <trkpt lat="43.8784" lon="7.72822">
        <ele>902.113</ele>
        <time>2018-04-15T10:12:48Z</time>
      </trkpt>
      <trkpt lat="43.87843" lon="7.72822">
        <ele>901.69</ele>
        <time>2018-04-15T10:12:50Z</time>
      </trkpt>
      <trkpt lat="43.87846" lon="7.72823">
        <ele>901.324</ele>
        <time>2018-04-15T10:12:52Z</time>
      </trkpt>
      <trkpt lat="43.87848" lon="7.72826">
        <ele>900.067</ele>
        <time>2018-04-15T10:12:58Z</time>
      </trkpt>
      <trkpt lat="43.87851" lon="7.7283">
        <ele>899.525</ele>
        <time>2018-04-15T10:13:00Z</time>
      </trkpt>
      <trkpt lat="43.87853" lon="7.72833">
        <ele>899.343</ele>
        <time>2018-04-15T10:13:02Z</time>
      </trkpt>
      <trkpt lat="43.87854" lon="7.72837">
        <ele>899.041</ele>
        <time>2018-04-15T10:13:05Z</time>
      </trkpt>
      <trkpt lat="43.87855" lon="7.72841">
        <ele>898.728</ele>
        <time>2018-04-15T10:13:07Z</time>
      </trkpt>
      <trkpt lat="43.87857" lon="7.72845">
        <ele>898.455</ele>
        <time>2018-04-15T10:13:09Z</time>
      </trkpt>
      <trkpt lat="43.87859" lon="7.72849">
        <ele>898.363</ele>
        <time>2018-04-15T10:13:11Z</time>
      </trkpt>
      <trkpt lat="43.87861" lon="7.72853">
        <ele>898.11</ele>
        <time>2018-04-15T10:13:14Z</time>
      </trkpt>
      <trkpt lat="43.87864" lon="7.72856">
        <ele>897.744</ele>
        <time>2018-04-15T10:13:17Z</time>
      </trkpt>
      <trkpt lat="43.87866" lon="7.72859">
        <ele>897.724</ele>
        <time>2018-04-15T10:13:19Z</time>
      </trkpt>
      <trkpt lat="43.87869" lon="7.72862">
        <ele>897.671</ele>
        <time>2018-04-15T10:13:21Z</time>
      </trkpt>
      <trkpt lat="43.87871" lon="7.72866">
        <ele>897.587</ele>
        <time>2018-04-15T10:13:23Z</time>
      </trkpt>
      <trkpt lat="43.87873" lon="7.72869">
        <ele>897.189</ele>
        <time>2018-04-15T10:13:27Z</time>
      </trkpt>
      <trkpt lat="43.87874" lon="7.72873">
        <ele>897.038</ele>
        <time>2018-04-15T10:13:29Z</time>
      </trkpt>
      <trkpt lat="43.87876" lon="7.72879">
        <ele>896.972</ele>
        <time>2018-04-15T10:13:32Z</time>
      </trkpt>
      <trkpt lat="43.87877" lon="7.72883">
        <ele>896.968</ele>
        <time>2018-04-15T10:13:34Z</time>
      </trkpt>
      <trkpt lat="43.87879" lon="7.72887">
        <ele>896.739</ele>
        <time>2018-04-15T10:13:36Z</time>
      </trkpt>
      <trkpt lat="43.87881" lon="7.72891">
        <ele>896.558</ele>
        <time>2018-04-15T10:13:38Z</time>
      </trkpt>
      <trkpt lat="43.87882" lon="7.72896">
        <ele>896.27</ele>
        <time>2018-04-15T10:13:41Z</time>
      </trkpt>
      <trkpt lat="43.87883" lon="7.72901">
        <ele>895.897</ele>
        <time>2018-04-15T10:13:43Z</time>
      </trkpt>
      <trkpt lat="43.87884" lon="7.72905">
        <ele>895.696</ele>
        <time>2018-04-15T10:13:46Z</time>
      </trkpt>
      <trkpt lat="43.87885" lon="7.72908">
        <ele>895.701</ele>
        <time>2018-04-15T10:13:48Z</time>
      </trkpt>
      <trkpt lat="43.87887" lon="7.72912">
        <ele>895.581</ele>
        <time>2018-04-15T10:13:51Z</time>
      </trkpt>
      <trkpt lat="43.8789" lon="7.72917">
        <ele>895.535</ele>
        <time>2018-04-15T10:13:53Z</time>
      </trkpt>
      <trkpt lat="43.8789" lon="7.72922">
        <ele>895.531</ele>
        <time>2018-04-15T10:13:56Z</time>
      </trkpt>
      <trkpt lat="43.87892" lon="7.72925">
        <ele>895.446</ele>
        <time>2018-04-15T10:13:59Z</time>
      </trkpt>
      <trkpt lat="43.87893" lon="7.72929">
        <ele>895.536</ele>
        <time>2018-04-15T10:14:01Z</time>
      </trkpt>
      <trkpt lat="43.87896" lon="7.72933">
        <ele>895.378</ele>
        <time>2018-04-15T10:14:04Z</time>
      </trkpt>
      <trkpt lat="43.87898" lon="7.72938">
        <ele>894.9</ele>
        <time>2018-04-15T10:14:08Z</time>
      </trkpt>
      <trkpt lat="43.87901" lon="7.72943">
        <ele>894.789</ele>
        <time>2018-04-15T10:14:10Z</time>
      </trkpt>
      <trkpt lat="43.87903" lon="7.72948">
        <ele>894.812</ele>
        <time>2018-04-15T10:14:12Z</time>
      </trkpt>
      <trkpt lat="43.87905" lon="7.72953">
        <ele>894.918</ele>
        <time>2018-04-15T10:14:14Z</time>
      </trkpt>
      <trkpt lat="43.87907" lon="7.72957">
        <ele>895.027</ele>
        <time>2018-04-15T10:14:16Z</time>
      </trkpt>
      <trkpt lat="43.87908" lon="7.72961">
        <ele>894.996</ele>
        <time>2018-04-15T10:14:18Z</time>
      </trkpt>
      <trkpt lat="43.8791" lon="7.72964">
        <ele>894.951</ele>
        <time>2018-04-15T10:14:20Z</time>
      </trkpt>
      <trkpt lat="43.87912" lon="7.72967">
        <ele>895.013</ele>
        <time>2018-04-15T10:14:25Z</time>
      </trkpt>
      <trkpt lat="43.87917" lon="7.72974">
        <ele>895.136</ele>
        <time>2018-04-15T10:14:28Z</time>
      </trkpt>
      <trkpt lat="43.87918" lon="7.7298">
        <ele>895.207</ele>
        <time>2018-04-15T10:14:30Z</time>
      </trkpt>
      <trkpt lat="43.87919" lon="7.72984">
        <ele>895.24</ele>
        <time>2018-04-15T10:14:33Z</time>
      </trkpt>
      <trkpt lat="43.87922" lon="7.72984">
        <ele>894.505</ele>
        <time>2018-04-15T10:14:39Z</time>
      </trkpt>
      <trkpt lat="43.87927" lon="7.72988">
        <ele>893.995</ele>
        <time>2018-04-15T10:14:42Z</time>
      </trkpt>
      <trkpt lat="43.87934" lon="7.72992">
        <ele>893.522</ele>
        <time>2018-04-15T10:14:45Z</time>
      </trkpt>
      <trkpt lat="43.87938" lon="7.72993">
        <ele>893.117</ele>
        <time>2018-04-15T10:14:47Z</time>
      </trkpt>
      <trkpt lat="43.87942" lon="7.72991">
        <ele>892.701</ele>
        <time>2018-04-15T10:14:50Z</time>
      </trkpt>
      <trkpt lat="43.87946" lon="7.72991">
        <ele>892.504</ele>
        <time>2018-04-15T10:14:53Z</time>
      </trkpt>
      <trkpt lat="43.87949" lon="7.72991">
        <ele>892.382</ele>
        <time>2018-04-15T10:14:55Z</time>
      </trkpt>
      <trkpt lat="43.87953" lon="7.72992">
        <ele>892.787</ele>
        <time>2018-04-15T10:15:00Z</time>
      </trkpt>
      <trkpt lat="43.87956" lon="7.72991">
        <ele>893.236</ele>
        <time>2018-04-15T10:15:03Z</time>
      </trkpt>
      <trkpt lat="43.8796" lon="7.72991">
        <ele>893.476</ele>
        <time>2018-04-15T10:15:05Z</time>
      </trkpt>
      <trkpt lat="43.87965" lon="7.72993">
        <ele>893.639</ele>
        <time>2018-04-15T10:15:08Z</time>
      </trkpt>
      <trkpt lat="43.87968" lon="7.72994">
        <ele>893.556</ele>
        <time>2018-04-15T10:15:10Z</time>
      </trkpt>
      <trkpt lat="43.87971" lon="7.72996">
        <ele>893.45</ele>
        <time>2018-04-15T10:15:12Z</time>
      </trkpt>
      <trkpt lat="43.87976" lon="7.72997">
        <ele>893.328</ele>
        <time>2018-04-15T10:15:15Z</time>
      </trkpt>
      <trkpt lat="43.87978" lon="7.72999">
        <ele>893.147</ele>
        <time>2018-04-15T10:15:18Z</time>
      </trkpt>
      <trkpt lat="43.87981" lon="7.73002">
        <ele>892.746</ele>
        <time>2018-04-15T10:15:21Z</time>
      </trkpt>
      <trkpt lat="43.87985" lon="7.73003">
        <ele>892.306</ele>
        <time>2018-04-15T10:15:24Z</time>
      </trkpt>
      <trkpt lat="43.87989" lon="7.73004">
        <ele>892.164</ele>
        <time>2018-04-15T10:15:26Z</time>
      </trkpt>
      <trkpt lat="43.87996" lon="7.73005">
        <ele>891.874</ele>
        <time>2018-04-15T10:15:29Z</time>
      </trkpt>
      <trkpt lat="43.87999" lon="7.73005">
        <ele>891.575</ele>
        <time>2018-04-15T10:15:31Z</time>
      </trkpt>
      <trkpt lat="43.88002" lon="7.73008">
        <ele>891.555</ele>
        <time>2018-04-15T10:15:34Z</time>
      </trkpt>
      <trkpt lat="43.88004" lon="7.7301">
        <ele>891.742</ele>
        <time>2018-04-15T10:15:39Z</time>
      </trkpt>
      <trkpt lat="43.88007" lon="7.73012">
        <ele>891.757</ele>
        <time>2018-04-15T10:15:41Z</time>
      </trkpt>
      <trkpt lat="43.8801" lon="7.73013">
        <ele>892.105</ele>
        <time>2018-04-15T10:15:44Z</time>
      </trkpt>
      <trkpt lat="43.88013" lon="7.73016">
        <ele>892.43</ele>
        <time>2018-04-15T10:15:46Z</time>
      </trkpt>
      <trkpt lat="43.88016" lon="7.73018">
        <ele>892.737</ele>
        <time>2018-04-15T10:15:48Z</time>
      </trkpt>
      <trkpt lat="43.88019" lon="7.7302">
        <ele>893.076</ele>
        <time>2018-04-15T10:15:52Z</time>
      </trkpt>
      <trkpt lat="43.88022" lon="7.73022">
        <ele>893.217</ele>
        <time>2018-04-15T10:15:54Z</time>
      </trkpt>
      <trkpt lat="43.88025" lon="7.73024">
        <ele>893.309</ele>
        <time>2018-04-15T10:15:56Z</time>
      </trkpt>
      <trkpt lat="43.88028" lon="7.73027">
        <ele>893.434</ele>
        <time>2018-04-15T10:15:58Z</time>
      </trkpt>
      <trkpt lat="43.88031" lon="7.73028">
        <ele>893.956</ele>
        <time>2018-04-15T10:16:02Z</time>
      </trkpt>
      <trkpt lat="43.88034" lon="7.7303">
        <ele>894.582</ele>
        <time>2018-04-15T10:16:05Z</time>
      </trkpt>
      <trkpt lat="43.88036" lon="7.73033">
        <ele>895.313</ele>
        <time>2018-04-15T10:16:09Z</time>
      </trkpt>
      <trkpt lat="43.88039" lon="7.73037">
        <ele>895.809</ele>
        <time>2018-04-15T10:16:14Z</time>
      </trkpt>
      <trkpt lat="43.88042" lon="7.7304">
        <ele>896.048</ele>
        <time>2018-04-15T10:16:16Z</time>
      </trkpt>
      <trkpt lat="43.88045" lon="7.73044">
        <ele>896.572</ele>
        <time>2018-04-15T10:16:19Z</time>
      </trkpt>
      <trkpt lat="43.88047" lon="7.73047">
        <ele>896.858</ele>
        <time>2018-04-15T10:16:21Z</time>
      </trkpt>
      <trkpt lat="43.88049" lon="7.7305">
        <ele>897.286</ele>
        <time>2018-04-15T10:16:23Z</time>
      </trkpt>
      <trkpt lat="43.88051" lon="7.73055">
        <ele>898.205</ele>
        <time>2018-04-15T10:16:29Z</time>
      </trkpt>
      <trkpt lat="43.88052" lon="7.73059">
        <ele>898.615</ele>
        <time>2018-04-15T10:16:32Z</time>
      </trkpt>
      <trkpt lat="43.88053" lon="7.73063">
        <ele>898.903</ele>
        <time>2018-04-15T10:16:35Z</time>
      </trkpt>
      <trkpt lat="43.88054" lon="7.73067">
        <ele>899.342</ele>
        <time>2018-04-15T10:16:38Z</time>
      </trkpt>
      <trkpt lat="43.88056" lon="7.7307">
        <ele>899.558</ele>
        <time>2018-04-15T10:16:40Z</time>
      </trkpt>
      <trkpt lat="43.88058" lon="7.73073">
        <ele>899.883</ele>
        <time>2018-04-15T10:16:42Z</time>
      </trkpt>
      <trkpt lat="43.88061" lon="7.73077">
        <ele>900.474</ele>
        <time>2018-04-15T10:16:45Z</time>
      </trkpt>
      <trkpt lat="43.88064" lon="7.73079">
        <ele>901.109</ele>
        <time>2018-04-15T10:16:48Z</time>
      </trkpt>
      <trkpt lat="43.88067" lon="7.73081">
        <ele>901.308</ele>
        <time>2018-04-15T10:16:50Z</time>
      </trkpt>
      <trkpt lat="43.8807" lon="7.73082">
        <ele>901.634</ele>
        <time>2018-04-15T10:16:54Z</time>
      </trkpt>
      <trkpt lat="43.88071" lon="7.73078">
        <ele>902.649</ele>
        <time>2018-04-15T10:17:02Z</time>
      </trkpt>
      <trkpt lat="43.88074" lon="7.73076">
        <ele>902.925</ele>
        <time>2018-04-15T10:17:05Z</time>
      </trkpt>
      <trkpt lat="43.88078" lon="7.73073">
        <ele>903.049</ele>
        <time>2018-04-15T10:17:08Z</time>
      </trkpt>
      <trkpt lat="43.88082" lon="7.73074">
        <ele>902.922</ele>
        <time>2018-04-15T10:17:10Z</time>
      </trkpt>
      <trkpt lat="43.88085" lon="7.7307">
        <ele>902.735</ele>
        <time>2018-04-15T10:17:13Z</time>
      </trkpt>
      <trkpt lat="43.88089" lon="7.73069">
        <ele>902.521</ele>
        <time>2018-04-15T10:17:15Z</time>
      </trkpt>
      <trkpt lat="43.88092" lon="7.73066">
        <ele>902.233</ele>
        <time>2018-04-15T10:17:18Z</time>
      </trkpt>
      <trkpt lat="43.88095" lon="7.73064">
        <ele>902.077</ele>
        <time>2018-04-15T10:17:20Z</time>
      </trkpt>
      <trkpt lat="43.88097" lon="7.73062">
        <ele>901.951</ele>
        <time>2018-04-15T10:17:22Z</time>
      </trkpt>
      <trkpt lat="43.881" lon="7.73058">
        <ele>901.639</ele>
        <time>2018-04-15T10:17:25Z</time>
      </trkpt>
      <trkpt lat="43.88102" lon="7.73056">
        <ele>901.535</ele>
        <time>2018-04-15T10:17:27Z</time>
      </trkpt>
      <trkpt lat="43.88105" lon="7.73051">
        <ele>901.4</ele>
        <time>2018-04-15T10:17:30Z</time>
      </trkpt>
      <trkpt lat="43.88106" lon="7.73048">
        <ele>901.189</ele>
        <time>2018-04-15T10:17:32Z</time>
      </trkpt>
      <trkpt lat="43.88108" lon="7.73045">
        <ele>900.905</ele>
        <time>2018-04-15T10:17:34Z</time>
      </trkpt>
      <trkpt lat="43.88112" lon="7.73042">
        <ele>900.52</ele>
        <time>2018-04-15T10:17:37Z</time>
      </trkpt>
      <trkpt lat="43.88113" lon="7.73038">
        <ele>900.311</ele>
        <time>2018-04-15T10:17:40Z</time>
      </trkpt>
      <trkpt lat="43.88114" lon="7.73034">
        <ele>900.033</ele>
        <time>2018-04-15T10:17:43Z</time>
      </trkpt>
      <trkpt lat="43.88115" lon="7.73028">
        <ele>899.869</ele>
        <time>2018-04-15T10:17:46Z</time>
      </trkpt>
      <trkpt lat="43.88115" lon="7.73023">
        <ele>899.89</ele>
        <time>2018-04-15T10:17:49Z</time>
      </trkpt>
      <trkpt lat="43.88116" lon="7.73018">
        <ele>899.899</ele>
        <time>2018-04-15T10:17:53Z</time>
      </trkpt>
      <trkpt lat="43.88117" lon="7.73015">
        <ele>899.752</ele>
        <time>2018-04-15T10:17:55Z</time>
      </trkpt>
      <trkpt lat="43.88119" lon="7.73012">
        <ele>899.571</ele>
        <time>2018-04-15T10:17:57Z</time>
      </trkpt>
      <trkpt lat="43.88121" lon="7.73009">
        <ele>899.469</ele>
        <time>2018-04-15T10:17:59Z</time>
      </trkpt>
      <trkpt lat="43.88122" lon="7.73005">
        <ele>899.281</ele>
        <time>2018-04-15T10:18:01Z</time>
      </trkpt>
      <trkpt lat="43.88124" lon="7.73001">
        <ele>899.102</ele>
        <time>2018-04-15T10:18:03Z</time>
      </trkpt>
      <trkpt lat="43.88126" lon="7.72998">
        <ele>898.952</ele>
        <time>2018-04-15T10:18:05Z</time>
      </trkpt>
      <trkpt lat="43.88128" lon="7.72995">
        <ele>898.754</ele>
        <time>2018-04-15T10:18:07Z</time>
      </trkpt>
      <trkpt lat="43.88129" lon="7.72992">
        <ele>898.522</ele>
        <time>2018-04-15T10:18:09Z</time>
      </trkpt>
      <trkpt lat="43.88132" lon="7.72988">
        <ele>898.33</ele>
        <time>2018-04-15T10:18:12Z</time>
      </trkpt>
      <trkpt lat="43.88133" lon="7.72984">
        <ele>898.278</ele>
        <time>2018-04-15T10:18:14Z</time>
      </trkpt>
      <trkpt lat="43.88135" lon="7.72981">
        <ele>897.849</ele>
        <time>2018-04-15T10:18:17Z</time>
      </trkpt>
      <trkpt lat="43.88136" lon="7.72977">
        <ele>897.666</ele>
        <time>2018-04-15T10:18:19Z</time>
      </trkpt>
      <trkpt lat="43.88137" lon="7.72974">
        <ele>897.561</ele>
        <time>2018-04-15T10:18:21Z</time>
      </trkpt>
      <trkpt lat="43.88138" lon="7.72969">
        <ele>897.568</ele>
        <time>2018-04-15T10:18:23Z</time>
      </trkpt>
      <trkpt lat="43.8814" lon="7.72965">
        <ele>897.745</ele>
        <time>2018-04-15T10:18:26Z</time>
      </trkpt>
      <trkpt lat="43.88142" lon="7.72959">
        <ele>897.659</ele>
        <time>2018-04-15T10:18:29Z</time>
      </trkpt>
      <trkpt lat="43.88144" lon="7.72955">
        <ele>897.518</ele>
        <time>2018-04-15T10:18:32Z</time>
      </trkpt>
      <trkpt lat="43.88146" lon="7.72952">
        <ele>897.502</ele>
        <time>2018-04-15T10:18:34Z</time>
      </trkpt>
      <trkpt lat="43.88148" lon="7.7295">
        <ele>897.392</ele>
        <time>2018-04-15T10:18:36Z</time>
      </trkpt>
      <trkpt lat="43.8815" lon="7.72946">
        <ele>897.375</ele>
        <time>2018-04-15T10:18:38Z</time>
      </trkpt>
      <trkpt lat="43.88153" lon="7.72944">
        <ele>897.39</ele>
        <time>2018-04-15T10:18:40Z</time>
      </trkpt>
      <trkpt lat="43.88156" lon="7.7294">
        <ele>897.256</ele>
        <time>2018-04-15T10:18:42Z</time>
      </trkpt>
      <trkpt lat="43.88159" lon="7.72937">
        <ele>896.988</ele>
        <time>2018-04-15T10:18:46Z</time>
      </trkpt>
      <trkpt lat="43.88161" lon="7.72934">
        <ele>896.733</ele>
        <time>2018-04-15T10:18:48Z</time>
      </trkpt>
      <trkpt lat="43.88161" lon="7.72929">
        <ele>896.617</ele>
        <time>2018-04-15T10:18:50Z</time>
      </trkpt>
      <trkpt lat="43.88164" lon="7.72926">
        <ele>896.443</ele>
        <time>2018-04-15T10:18:53Z</time>
      </trkpt>
      <trkpt lat="43.88167" lon="7.72922">
        <ele>896.197</ele>
        <time>2018-04-15T10:18:56Z</time>
      </trkpt>
      <trkpt lat="43.88169" lon="7.72919">
        <ele>896.048</ele>
        <time>2018-04-15T10:18:59Z</time>
      </trkpt>
      <trkpt lat="43.88172" lon="7.72916">
        <ele>895.95</ele>
        <time>2018-04-15T10:19:02Z</time>
      </trkpt>
      <trkpt lat="43.88174" lon="7.72914">
        <ele>895.838</ele>
        <time>2018-04-15T10:19:04Z</time>
      </trkpt>
      <trkpt lat="43.88176" lon="7.72911">
        <ele>895.638</ele>
        <time>2018-04-15T10:19:07Z</time>
      </trkpt>
      <trkpt lat="43.88178" lon="7.72908">
        <ele>895.682</ele>
        <time>2018-04-15T10:19:09Z</time>
      </trkpt>
      <trkpt lat="43.88182" lon="7.72904">
        <ele>895.868</ele>
        <time>2018-04-15T10:19:12Z</time>
      </trkpt>
      <trkpt lat="43.88184" lon="7.72902">
        <ele>895.866</ele>
        <time>2018-04-15T10:19:14Z</time>
      </trkpt>
      <trkpt lat="43.88188" lon="7.72898">
        <ele>895.803</ele>
        <time>2018-04-15T10:19:17Z</time>
      </trkpt>
      <trkpt lat="43.8819" lon="7.72896">
        <ele>895.921</ele>
        <time>2018-04-15T10:19:19Z</time>
      </trkpt>
      <trkpt lat="43.88193" lon="7.72893">
        <ele>896.06</ele>
        <time>2018-04-15T10:19:22Z</time>
      </trkpt>
      <trkpt lat="43.88196" lon="7.7289">
        <ele>896.163</ele>
        <time>2018-04-15T10:19:24Z</time>
      </trkpt>
      <trkpt lat="43.88199" lon="7.72886">
        <ele>896.238</ele>
        <time>2018-04-15T10:19:26Z</time>
      </trkpt>
      <trkpt lat="43.882" lon="7.72883">
        <ele>896.376</ele>
        <time>2018-04-15T10:19:28Z</time>
      </trkpt>
      <trkpt lat="43.88203" lon="7.72881">
        <ele>896.573</ele>
        <time>2018-04-15T10:19:31Z</time>
      </trkpt>
      <trkpt lat="43.88206" lon="7.72879">
        <ele>896.644</ele>
        <time>2018-04-15T10:19:33Z</time>
      </trkpt>
      <trkpt lat="43.88209" lon="7.72875">
        <ele>896.79</ele>
        <time>2018-04-15T10:19:36Z</time>
      </trkpt>
      <trkpt lat="43.88211" lon="7.72872">
        <ele>896.903</ele>
        <time>2018-04-15T10:19:38Z</time>
      </trkpt>
      <trkpt lat="43.88212" lon="7.72868">
        <ele>897.055</ele>
        <time>2018-04-15T10:19:41Z</time>
      </trkpt>
      <trkpt lat="43.88214" lon="7.72865">
        <ele>897.269</ele>
        <time>2018-04-15T10:19:43Z</time>
      </trkpt>
      <trkpt lat="43.88216" lon="7.72861">
        <ele>897.545</ele>
        <time>2018-04-15T10:19:46Z</time>
      </trkpt>
      <trkpt lat="43.88219" lon="7.72858">
        <ele>897.698</ele>
        <time>2018-04-15T10:19:48Z</time>
      </trkpt>
      <trkpt lat="43.88222" lon="7.72855">
        <ele>898.026</ele>
        <time>2018-04-15T10:19:51Z</time>
      </trkpt>
      <trkpt lat="43.88225" lon="7.72851">
        <ele>898.278</ele>
        <time>2018-04-15T10:19:54Z</time>
      </trkpt>
      <trkpt lat="43.88228" lon="7.72851">
        <ele>898.885</ele>
        <time>2018-04-15T10:21:44Z</time>
      </trkpt>
      <trkpt lat="43.88233" lon="7.72851">
        <ele>898.795</ele>
        <time>2018-04-15T10:21:48Z</time>
      </trkpt>
      <trkpt lat="43.88236" lon="7.72851">
        <ele>898.844</ele>
        <time>2018-04-15T10:21:50Z</time>
      </trkpt>
      <trkpt lat="43.88239" lon="7.7285">
        <ele>899.096</ele>
        <time>2018-04-15T10:21:53Z</time>
      </trkpt>
      <trkpt lat="43.88244" lon="7.7285">
        <ele>899.219</ele>
        <time>2018-04-15T10:21:56Z</time>
      </trkpt>
      <trkpt lat="43.88247" lon="7.72847">
        <ele>899.396</ele>
        <time>2018-04-15T10:21:59Z</time>
      </trkpt>
      <trkpt lat="43.8825" lon="7.72842">
        <ele>899.481</ele>
        <time>2018-04-15T10:22:05Z</time>
      </trkpt>
      <trkpt lat="43.88253" lon="7.72837">
        <ele>899.527</ele>
        <time>2018-04-15T10:22:07Z</time>
      </trkpt>
      <trkpt lat="43.88255" lon="7.72832">
        <ele>899.493</ele>
        <time>2018-04-15T10:22:10Z</time>
      </trkpt>
      <trkpt lat="43.88256" lon="7.72829">
        <ele>899.46</ele>
        <time>2018-04-15T10:22:12Z</time>
      </trkpt>
      <trkpt lat="43.88257" lon="7.72824">
        <ele>899.442</ele>
        <time>2018-04-15T10:22:15Z</time>
      </trkpt>
      <trkpt lat="43.88259" lon="7.7282">
        <ele>899.707</ele>
        <time>2018-04-15T10:22:18Z</time>
      </trkpt>
      <trkpt lat="43.88263" lon="7.72818">
        <ele>899.702</ele>
        <time>2018-04-15T10:22:21Z</time>
      </trkpt>
      <trkpt lat="43.88265" lon="7.72817">
        <ele>899.708</ele>
        <time>2018-04-15T10:22:23Z</time>
      </trkpt>
      <trkpt lat="43.88268" lon="7.72813">
        <ele>899.774</ele>
        <time>2018-04-15T10:22:25Z</time>
      </trkpt>
      <trkpt lat="43.88271" lon="7.72811">
        <ele>899.928</ele>
        <time>2018-04-15T10:22:28Z</time>
      </trkpt>
      <trkpt lat="43.88275" lon="7.7281">
        <ele>900.025</ele>
        <time>2018-04-15T10:22:31Z</time>
      </trkpt>
      <trkpt lat="43.88278" lon="7.72808">
        <ele>899.985</ele>
        <time>2018-04-15T10:22:33Z</time>
      </trkpt>
      <trkpt lat="43.8828" lon="7.72805">
        <ele>899.995</ele>
        <time>2018-04-15T10:22:36Z</time>
      </trkpt>
      <trkpt lat="43.88283" lon="7.72802">
        <ele>900.309</ele>
        <time>2018-04-15T10:22:39Z</time>
      </trkpt>
      <trkpt lat="43.88285" lon="7.72799">
        <ele>900.524</ele>
        <time>2018-04-15T10:22:41Z</time>
      </trkpt>
      <trkpt lat="43.88288" lon="7.72797">
        <ele>900.651</ele>
        <time>2018-04-15T10:22:44Z</time>
      </trkpt>
      <trkpt lat="43.88292" lon="7.72795">
        <ele>900.417</ele>
        <time>2018-04-15T10:22:48Z</time>
      </trkpt>
      <trkpt lat="43.88297" lon="7.72794">
        <ele>900.428</ele>
        <time>2018-04-15T10:22:50Z</time>
      </trkpt>
      <trkpt lat="43.88299" lon="7.72792">
        <ele>900.375</ele>
        <time>2018-04-15T10:22:52Z</time>
      </trkpt>
      <trkpt lat="43.88302" lon="7.72792">
        <ele>900.254</ele>
        <time>2018-04-15T10:22:54Z</time>
      </trkpt>
      <trkpt lat="43.88306" lon="7.72793">
        <ele>900.088</ele>
        <time>2018-04-15T10:22:56Z</time>
      </trkpt>
      <trkpt lat="43.88309" lon="7.72793">
        <ele>900.04</ele>
        <time>2018-04-15T10:22:58Z</time>
      </trkpt>
      <trkpt lat="43.88313" lon="7.72795">
        <ele>900.068</ele>
        <time>2018-04-15T10:23:00Z</time>
      </trkpt>
      <trkpt lat="43.88316" lon="7.72797">
        <ele>900.048</ele>
        <time>2018-04-15T10:23:02Z</time>
      </trkpt>
      <trkpt lat="43.88319" lon="7.72799">
        <ele>900.138</ele>
        <time>2018-04-15T10:23:04Z</time>
      </trkpt>
      <trkpt lat="43.88322" lon="7.728">
        <ele>900.087</ele>
        <time>2018-04-15T10:23:06Z</time>
      </trkpt>
      <trkpt lat="43.88325" lon="7.72802">
        <ele>900.159</ele>
        <time>2018-04-15T10:23:08Z</time>
      </trkpt>
      <trkpt lat="43.88328" lon="7.72801">
        <ele>900.053</ele>
        <time>2018-04-15T10:23:10Z</time>
      </trkpt>
      <trkpt lat="43.8833" lon="7.728">
        <ele>899.663</ele>
        <time>2018-04-15T10:23:14Z</time>
      </trkpt>
      <trkpt lat="43.88333" lon="7.72801">
        <ele>899.608</ele>
        <time>2018-04-15T10:23:16Z</time>
      </trkpt>
      <trkpt lat="43.88339" lon="7.72804">
        <ele>899.755</ele>
        <time>2018-04-15T10:23:22Z</time>
      </trkpt>
      <trkpt lat="43.88342" lon="7.72805">
        <ele>899.796</ele>
        <time>2018-04-15T10:23:25Z</time>
      </trkpt>
      <trkpt lat="43.88345" lon="7.72805">
        <ele>899.804</ele>
        <time>2018-04-15T10:23:27Z</time>
      </trkpt>
      <trkpt lat="43.88349" lon="7.72805">
        <ele>899.867</ele>
        <time>2018-04-15T10:23:30Z</time>
      </trkpt>
      <trkpt lat="43.88352" lon="7.72805">
        <ele>900.208</ele>
        <time>2018-04-15T10:23:33Z</time>
      </trkpt>
      <trkpt lat="43.88355" lon="7.72803">
        <ele>900.385</ele>
        <time>2018-04-15T10:23:37Z</time>
      </trkpt>
      <trkpt lat="43.88359" lon="7.72801">
        <ele>900.02</ele>
        <time>2018-04-15T10:23:41Z</time>
      </trkpt>
      <trkpt lat="43.88362" lon="7.72799">
        <ele>899.686</ele>
        <time>2018-04-15T10:23:44Z</time>
      </trkpt>
      <trkpt lat="43.88365" lon="7.72799">
        <ele>899.46</ele>
        <time>2018-04-15T10:23:46Z</time>
      </trkpt>
      <trkpt lat="43.88373" lon="7.72798">
        <ele>899.309</ele>
        <time>2018-04-15T10:23:49Z</time>
      </trkpt>
      <trkpt lat="43.88376" lon="7.72799">
        <ele>899.254</ele>
        <time>2018-04-15T10:23:51Z</time>
      </trkpt>
      <trkpt lat="43.8838" lon="7.728">
        <ele>899.159</ele>
        <time>2018-04-15T10:23:54Z</time>
      </trkpt>
      <trkpt lat="43.88383" lon="7.728">
        <ele>899.092</ele>
        <time>2018-04-15T10:23:57Z</time>
      </trkpt>
      <trkpt lat="43.88386" lon="7.72801">
        <ele>899.007</ele>
        <time>2018-04-15T10:24:00Z</time>
      </trkpt>
      <trkpt lat="43.8839" lon="7.72802">
        <ele>898.97</ele>
        <time>2018-04-15T10:24:03Z</time>
      </trkpt>
      <trkpt lat="43.88393" lon="7.72804">
        <ele>899.209</ele>
        <time>2018-04-15T10:24:06Z</time>
      </trkpt>
      <trkpt lat="43.88396" lon="7.72803">
        <ele>899.276</ele>
        <time>2018-04-15T10:24:08Z</time>
      </trkpt>
      <trkpt lat="43.88401" lon="7.72798">
        <ele>899.293</ele>
        <time>2018-04-15T10:24:11Z</time>
      </trkpt>
      <trkpt lat="43.88404" lon="7.72797">
        <ele>899.177</ele>
        <time>2018-04-15T10:24:13Z</time>
      </trkpt>
      <trkpt lat="43.88407" lon="7.72795">
        <ele>898.945</ele>
        <time>2018-04-15T10:24:16Z</time>
      </trkpt>
      <trkpt lat="43.88411" lon="7.72795">
        <ele>898.769</ele>
        <time>2018-04-15T10:24:19Z</time>
      </trkpt>
      <trkpt lat="43.88414" lon="7.72796">
        <ele>898.725</ele>
        <time>2018-04-15T10:24:21Z</time>
      </trkpt>
      <trkpt lat="43.88417" lon="7.72795">
        <ele>898.841</ele>
        <time>2018-04-15T10:24:23Z</time>
      </trkpt>
      <trkpt lat="43.8842" lon="7.72794">
        <ele>898.901</ele>
        <time>2018-04-15T10:24:26Z</time>
      </trkpt>
      <trkpt lat="43.88424" lon="7.72795">
        <ele>898.882</ele>
        <time>2018-04-15T10:24:30Z</time>
      </trkpt>
      <trkpt lat="43.88428" lon="7.72794">
        <ele>898.747</ele>
        <time>2018-04-15T10:24:36Z</time>
      </trkpt>
      <trkpt lat="43.88431" lon="7.72792">
        <ele>898.712</ele>
        <time>2018-04-15T10:24:38Z</time>
      </trkpt>
      <trkpt lat="43.88434" lon="7.7279">
        <ele>898.668</ele>
        <time>2018-04-15T10:24:41Z</time>
      </trkpt>
      <trkpt lat="43.88437" lon="7.72788">
        <ele>898.735</ele>
        <time>2018-04-15T10:24:43Z</time>
      </trkpt>
      <trkpt lat="43.8844" lon="7.72788">
        <ele>898.83</ele>
        <time>2018-04-15T10:24:45Z</time>
      </trkpt>
      <trkpt lat="43.88444" lon="7.72786">
        <ele>899.249</ele>
        <time>2018-04-15T10:24:49Z</time>
      </trkpt>
      <trkpt lat="43.88448" lon="7.72784">
        <ele>899.432</ele>
        <time>2018-04-15T10:24:51Z</time>
      </trkpt>
      <trkpt lat="43.88451" lon="7.72784">
        <ele>899.565</ele>
        <time>2018-04-15T10:24:53Z</time>
      </trkpt>
      <trkpt lat="43.88454" lon="7.72783">
        <ele>899.787</ele>
        <time>2018-04-15T10:24:57Z</time>
      </trkpt>
      <trkpt lat="43.88457" lon="7.72781">
        <ele>899.912</ele>
        <time>2018-04-15T10:24:59Z</time>
      </trkpt>
      <trkpt lat="43.8846" lon="7.72778">
        <ele>899.898</ele>
        <time>2018-04-15T10:25:02Z</time>
      </trkpt>
      <trkpt lat="43.88462" lon="7.72775">
        <ele>899.814</ele>
        <time>2018-04-15T10:25:04Z</time>
      </trkpt>
      <trkpt lat="43.88466" lon="7.72774">
        <ele>899.79</ele>
        <time>2018-04-15T10:25:06Z</time>
      </trkpt>
      <trkpt lat="43.88469" lon="7.72771">
        <ele>899.771</ele>
        <time>2018-04-15T10:25:09Z</time>
      </trkpt>
      <trkpt lat="43.88475" lon="7.72767">
        <ele>899.707</ele>
        <time>2018-04-15T10:25:12Z</time>
      </trkpt>
      <trkpt lat="43.88481" lon="7.72764">
        <ele>899.583</ele>
        <time>2018-04-15T10:25:15Z</time>
      </trkpt>
      <trkpt lat="43.88484" lon="7.72763">
        <ele>899.586</ele>
        <time>2018-04-15T10:25:17Z</time>
      </trkpt>
      <trkpt lat="43.88488" lon="7.72763">
        <ele>899.401</ele>
        <time>2018-04-15T10:25:19Z</time>
      </trkpt>
      <trkpt lat="43.8849" lon="7.72763">
        <ele>899.321</ele>
        <time>2018-04-15T10:25:21Z</time>
      </trkpt>
      <trkpt lat="43.88494" lon="7.72763">
        <ele>899.248</ele>
        <time>2018-04-15T10:25:24Z</time>
      </trkpt>
      <trkpt lat="43.88499" lon="7.72763">
        <ele>899.271</ele>
        <time>2018-04-15T10:25:26Z</time>
      </trkpt>
      <trkpt lat="43.88502" lon="7.72765">
        <ele>899.274</ele>
        <time>2018-04-15T10:25:28Z</time>
      </trkpt>
      <trkpt lat="43.88505" lon="7.72766">
        <ele>899.195</ele>
        <time>2018-04-15T10:25:30Z</time>
      </trkpt>
      <trkpt lat="43.88508" lon="7.72766">
        <ele>899.11</ele>
        <time>2018-04-15T10:25:32Z</time>
      </trkpt>
      <trkpt lat="43.88511" lon="7.72766">
        <ele>899.105</ele>
        <time>2018-04-15T10:25:34Z</time>
      </trkpt>
      <trkpt lat="43.88514" lon="7.72765">
        <ele>899.223</ele>
        <time>2018-04-15T10:25:37Z</time>
      </trkpt>
      <trkpt lat="43.88517" lon="7.72763">
        <ele>899.391</ele>
        <time>2018-04-15T10:25:42Z</time>
      </trkpt>
      <trkpt lat="43.88521" lon="7.72766">
        <ele>899.684</ele>
        <time>2018-04-15T10:25:45Z</time>
      </trkpt>
      <trkpt lat="43.88523" lon="7.72768">
        <ele>899.601</ele>
        <time>2018-04-15T10:25:50Z</time>
      </trkpt>
      <trkpt lat="43.88528" lon="7.7277">
        <ele>899.717</ele>
        <time>2018-04-15T10:25:54Z</time>
      </trkpt>
      <trkpt lat="43.88533" lon="7.7277">
        <ele>899.795</ele>
        <time>2018-04-15T10:25:57Z</time>
      </trkpt>
      <trkpt lat="43.88539" lon="7.72767">
        <ele>899.938</ele>
        <time>2018-04-15T10:26:00Z</time>
      </trkpt>
      <trkpt lat="43.88543" lon="7.72765">
        <ele>900.119</ele>
        <time>2018-04-15T10:26:03Z</time>
      </trkpt>
      <trkpt lat="43.88544" lon="7.72761">
        <ele>900.374</ele>
        <time>2018-04-15T10:26:16Z</time>
      </trkpt>
      <trkpt lat="43.88547" lon="7.72759">
        <ele>900.508</ele>
        <time>2018-04-15T10:26:21Z</time>
      </trkpt>
      <trkpt lat="43.8855" lon="7.72755">
        <ele>900.538</ele>
        <time>2018-04-15T10:26:25Z</time>
      </trkpt>
      <trkpt lat="43.88553" lon="7.72751">
        <ele>900.607</ele>
        <time>2018-04-15T10:26:28Z</time>
      </trkpt>
      <trkpt lat="43.88556" lon="7.72747">
        <ele>900.679</ele>
        <time>2018-04-15T10:26:30Z</time>
      </trkpt>
      <trkpt lat="43.88558" lon="7.72744">
        <ele>900.756</ele>
        <time>2018-04-15T10:26:32Z</time>
      </trkpt>
      <trkpt lat="43.8856" lon="7.7274">
        <ele>900.917</ele>
        <time>2018-04-15T10:26:35Z</time>
      </trkpt>
      <trkpt lat="43.88562" lon="7.72736">
        <ele>901.114</ele>
        <time>2018-04-15T10:26:37Z</time>
      </trkpt>
      <trkpt lat="43.88564" lon="7.72733">
        <ele>901.223</ele>
        <time>2018-04-15T10:26:39Z</time>
      </trkpt>
      <trkpt lat="43.88567" lon="7.7273">
        <ele>901.14</ele>
        <time>2018-04-15T10:26:42Z</time>
      </trkpt>
      <trkpt lat="43.8857" lon="7.72728">
        <ele>901.069</ele>
        <time>2018-04-15T10:26:44Z</time>
      </trkpt>
      <trkpt lat="43.88573" lon="7.72724">
        <ele>900.98</ele>
        <time>2018-04-15T10:26:47Z</time>
      </trkpt>
      <trkpt lat="43.88576" lon="7.72722">
        <ele>901.113</ele>
        <time>2018-04-15T10:26:49Z</time>
      </trkpt>
      <trkpt lat="43.88578" lon="7.72719">
        <ele>901.294</ele>
        <time>2018-04-15T10:26:52Z</time>
      </trkpt>
      <trkpt lat="43.88581" lon="7.72717">
        <ele>901.416</ele>
        <time>2018-04-15T10:26:54Z</time>
      </trkpt>
      <trkpt lat="43.88583" lon="7.72713">
        <ele>901.511</ele>
        <time>2018-04-15T10:26:56Z</time>
      </trkpt>
      <trkpt lat="43.88584" lon="7.72708">
        <ele>901.541</ele>
        <time>2018-04-15T10:26:58Z</time>
      </trkpt>
      <trkpt lat="43.88585" lon="7.72705">
        <ele>901.664</ele>
        <time>2018-04-15T10:27:00Z</time>
      </trkpt>
      <trkpt lat="43.88587" lon="7.727">
        <ele>901.918</ele>
        <time>2018-04-15T10:27:03Z</time>
      </trkpt>
      <trkpt lat="43.88588" lon="7.72697">
        <ele>901.989</ele>
        <time>2018-04-15T10:27:05Z</time>
      </trkpt>
      <trkpt lat="43.8859" lon="7.72694">
        <ele>902.012</ele>
        <time>2018-04-15T10:27:07Z</time>
      </trkpt>
      <trkpt lat="43.88593" lon="7.72691">
        <ele>901.892</ele>
        <time>2018-04-15T10:27:10Z</time>
      </trkpt>
      <trkpt lat="43.88596" lon="7.72688">
        <ele>901.962</ele>
        <time>2018-04-15T10:27:13Z</time>
      </trkpt>
      <trkpt lat="43.88598" lon="7.72686">
        <ele>901.513</ele>
        <time>2018-04-15T10:27:38Z</time>
      </trkpt>
      <trkpt lat="43.88601" lon="7.72682">
        <ele>901.394</ele>
        <time>2018-04-15T10:27:42Z</time>
      </trkpt>
      <trkpt lat="43.88602" lon="7.72678">
        <ele>901.33</ele>
        <time>2018-04-15T10:27:45Z</time>
      </trkpt>
      <trkpt lat="43.88603" lon="7.72674">
        <ele>901.313</ele>
        <time>2018-04-15T10:27:49Z</time>
      </trkpt>
      <trkpt lat="43.88606" lon="7.7267">
        <ele>901.407</ele>
        <time>2018-04-15T10:27:52Z</time>
      </trkpt>
      <trkpt lat="43.88609" lon="7.72667">
        <ele>901.435</ele>
        <time>2018-04-15T10:27:55Z</time>
      </trkpt>
      <trkpt lat="43.88612" lon="7.72665">
        <ele>901.548</ele>
        <time>2018-04-15T10:27:59Z</time>
      </trkpt>
      <trkpt lat="43.88615" lon="7.72664">
        <ele>901.686</ele>
        <time>2018-04-15T10:28:01Z</time>
      </trkpt>
      <trkpt lat="43.88619" lon="7.72662">
        <ele>901.887</ele>
        <time>2018-04-15T10:28:04Z</time>
      </trkpt>
      <trkpt lat="43.88622" lon="7.72661">
        <ele>902.12</ele>
        <time>2018-04-15T10:28:07Z</time>
      </trkpt>
      <trkpt lat="43.88624" lon="7.72658">
        <ele>902.312</ele>
        <time>2018-04-15T10:28:09Z</time>
      </trkpt>
      <trkpt lat="43.88627" lon="7.72656">
        <ele>902.562</ele>
        <time>2018-04-15T10:28:12Z</time>
      </trkpt>
      <trkpt lat="43.88629" lon="7.72651">
        <ele>902.747</ele>
        <time>2018-04-15T10:28:15Z</time>
      </trkpt>
      <trkpt lat="43.8863" lon="7.72646">
        <ele>902.841</ele>
        <time>2018-04-15T10:28:17Z</time>
      </trkpt>
      <trkpt lat="43.88631" lon="7.72643">
        <ele>902.893</ele>
        <time>2018-04-15T10:28:19Z</time>
      </trkpt>
      <trkpt lat="43.88633" lon="7.72638">
        <ele>903.136</ele>
        <time>2018-04-15T10:28:23Z</time>
      </trkpt>
      <trkpt lat="43.88636" lon="7.72634">
        <ele>903.28</ele>
        <time>2018-04-15T10:28:26Z</time>
      </trkpt>
      <trkpt lat="43.88638" lon="7.7263">
        <ele>903.488</ele>
        <time>2018-04-15T10:28:28Z</time>
      </trkpt>
      <trkpt lat="43.88642" lon="7.72627">
        <ele>903.627</ele>
        <time>2018-04-15T10:28:31Z</time>
      </trkpt>
      <trkpt lat="43.88645" lon="7.72626">
        <ele>903.842</ele>
        <time>2018-04-15T10:28:35Z</time>
      </trkpt>
      <trkpt lat="43.88649" lon="7.72625">
        <ele>903.959</ele>
        <time>2018-04-15T10:28:38Z</time>
      </trkpt>
      <trkpt lat="43.88653" lon="7.72624">
        <ele>904.154</ele>
        <time>2018-04-15T10:28:40Z</time>
      </trkpt>
      <trkpt lat="43.88657" lon="7.72623">
        <ele>904.479</ele>
        <time>2018-04-15T10:28:43Z</time>
      </trkpt>
      <trkpt lat="43.88661" lon="7.72622">
        <ele>904.824</ele>
        <time>2018-04-15T10:28:46Z</time>
      </trkpt>
      <trkpt lat="43.88664" lon="7.72619">
        <ele>905.011</ele>
        <time>2018-04-15T10:28:48Z</time>
      </trkpt>
      <trkpt lat="43.88667" lon="7.72618">
        <ele>905.196</ele>
        <time>2018-04-15T10:28:50Z</time>
      </trkpt>
      <trkpt lat="43.8867" lon="7.72616">
        <ele>905.53</ele>
        <time>2018-04-15T10:28:53Z</time>
      </trkpt>
      <trkpt lat="43.88673" lon="7.72615">
        <ele>906.049</ele>
        <time>2018-04-15T10:28:57Z</time>
      </trkpt>
      <trkpt lat="43.88676" lon="7.72612">
        <ele>906.433</ele>
        <time>2018-04-15T10:29:00Z</time>
      </trkpt>
      <trkpt lat="43.88678" lon="7.72609">
        <ele>906.68</ele>
        <time>2018-04-15T10:29:03Z</time>
      </trkpt>
      <trkpt lat="43.88683" lon="7.72607">
        <ele>907.003</ele>
        <time>2018-04-15T10:29:06Z</time>
      </trkpt>
      <trkpt lat="43.88686" lon="7.72609">
        <ele>907.284</ele>
        <time>2018-04-15T10:29:08Z</time>
      </trkpt>
      <trkpt lat="43.88689" lon="7.7261">
        <ele>907.536</ele>
        <time>2018-04-15T10:29:10Z</time>
      </trkpt>
      <trkpt lat="43.88692" lon="7.72611">
        <ele>907.952</ele>
        <time>2018-04-15T10:29:13Z</time>
      </trkpt>
      <trkpt lat="43.88696" lon="7.72612">
        <ele>908.107</ele>
        <time>2018-04-15T10:29:15Z</time>
      </trkpt>
      <trkpt lat="43.88699" lon="7.72613">
        <ele>908.325</ele>
        <time>2018-04-15T10:29:18Z</time>
      </trkpt>
      <trkpt lat="43.88703" lon="7.72613">
        <ele>908.595</ele>
        <time>2018-04-15T10:29:21Z</time>
      </trkpt>
      <trkpt lat="43.88706" lon="7.72612">
        <ele>908.861</ele>
        <time>2018-04-15T10:29:24Z</time>
      </trkpt>
      <trkpt lat="43.8871" lon="7.72613">
        <ele>909.16</ele>
        <time>2018-04-15T10:29:27Z</time>
      </trkpt>
      <trkpt lat="43.88713" lon="7.72612">
        <ele>909.671</ele>
        <time>2018-04-15T10:29:31Z</time>
      </trkpt>
      <trkpt lat="43.88713" lon="7.72616">
        <ele>911.079</ele>
        <time>2018-04-15T10:30:06Z</time>
      </trkpt>
      <trkpt lat="43.88715" lon="7.7262">
        <ele>911.539</ele>
        <time>2018-04-15T10:30:09Z</time>
      </trkpt>
      <trkpt lat="43.88718" lon="7.72622">
        <ele>912.144</ele>
        <time>2018-04-15T10:30:22Z</time>
      </trkpt>
      <trkpt lat="43.88721" lon="7.72625">
        <ele>912.429</ele>
        <time>2018-04-15T10:30:25Z</time>
      </trkpt>
      <trkpt lat="43.8872" lon="7.72621">
        <ele>913.92</ele>
        <time>2018-04-15T10:30:45Z</time>
      </trkpt>
      <trkpt lat="43.88723" lon="7.72622">
        <ele>913.829</ele>
        <time>2018-04-15T10:30:58Z</time>
      </trkpt>
      <trkpt lat="43.8872" lon="7.72623">
        <ele>913.585</ele>
        <time>2018-04-15T10:31:22Z</time>
      </trkpt>
      <trkpt lat="43.88718" lon="7.7262">
        <ele>913.828</ele>
        <time>2018-04-15T10:31:33Z</time>
      </trkpt>
      <trkpt lat="43.8872" lon="7.72623">
        <ele>913.635</ele>
        <time>2018-04-15T10:31:48Z</time>
      </trkpt>
      <trkpt lat="43.88723" lon="7.72625">
        <ele>913.676</ele>
        <time>2018-04-15T10:31:51Z</time>
      </trkpt>
      <trkpt lat="43.88726" lon="7.72627">
        <ele>914.047</ele>
        <time>2018-04-15T10:31:54Z</time>
      </trkpt>
      <trkpt lat="43.88729" lon="7.7263">
        <ele>914.242</ele>
        <time>2018-04-15T10:31:57Z</time>
      </trkpt>
      <trkpt lat="43.88732" lon="7.72633">
        <ele>914.3</ele>
        <time>2018-04-15T10:32:01Z</time>
      </trkpt>
      <trkpt lat="43.88734" lon="7.72637">
        <ele>914.522</ele>
        <time>2018-04-15T10:32:03Z</time>
      </trkpt>
      <trkpt lat="43.88737" lon="7.72639">
        <ele>914.758</ele>
        <time>2018-04-15T10:32:06Z</time>
      </trkpt>
      <trkpt lat="43.8874" lon="7.72642">
        <ele>915.273</ele>
        <time>2018-04-15T10:32:11Z</time>
      </trkpt>
      <trkpt lat="43.88743" lon="7.72645">
        <ele>915.52</ele>
        <time>2018-04-15T10:32:13Z</time>
      </trkpt>
      <trkpt lat="43.88747" lon="7.72647">
        <ele>915.563</ele>
        <time>2018-04-15T10:32:15Z</time>
      </trkpt>
      <trkpt lat="43.88749" lon="7.72651">
        <ele>915.8</ele>
        <time>2018-04-15T10:32:18Z</time>
      </trkpt>
      <trkpt lat="43.88749" lon="7.72656">
        <ele>916.136</ele>
        <time>2018-04-15T10:32:20Z</time>
      </trkpt>
      <trkpt lat="43.8875" lon="7.72662">
        <ele>916.286</ele>
        <time>2018-04-15T10:32:22Z</time>
      </trkpt>
      <trkpt lat="43.88749" lon="7.72667">
        <ele>916.664</ele>
        <time>2018-04-15T10:32:24Z</time>
      </trkpt>
      <trkpt lat="43.8875" lon="7.72671">
        <ele>916.912</ele>
        <time>2018-04-15T10:32:26Z</time>
      </trkpt>
      <trkpt lat="43.88753" lon="7.72675">
        <ele>916.821</ele>
        <time>2018-04-15T10:32:29Z</time>
      </trkpt>
      <trkpt lat="43.88755" lon="7.7268">
        <ele>916.549</ele>
        <time>2018-04-15T10:32:32Z</time>
      </trkpt>
      <trkpt lat="43.88758" lon="7.72681">
        <ele>916.269</ele>
        <time>2018-04-15T10:32:35Z</time>
      </trkpt>
      <trkpt lat="43.88761" lon="7.72683">
        <ele>916.057</ele>
        <time>2018-04-15T10:32:38Z</time>
      </trkpt>
      <trkpt lat="43.88765" lon="7.72684">
        <ele>916.379</ele>
        <time>2018-04-15T10:32:41Z</time>
      </trkpt>
      <trkpt lat="43.88769" lon="7.72686">
        <ele>916.756</ele>
        <time>2018-04-15T10:32:45Z</time>
      </trkpt>
      <trkpt lat="43.88771" lon="7.72688">
        <ele>916.945</ele>
        <time>2018-04-15T10:32:47Z</time>
      </trkpt>
      <trkpt lat="43.88774" lon="7.7269">
        <ele>917.085</ele>
        <time>2018-04-15T10:32:51Z</time>
      </trkpt>
      <trkpt lat="43.88778" lon="7.72696">
        <ele>917.248</ele>
        <time>2018-04-15T10:32:53Z</time>
      </trkpt>
      <trkpt lat="43.88781" lon="7.727">
        <ele>917.472</ele>
        <time>2018-04-15T10:32:55Z</time>
      </trkpt>
      <trkpt lat="43.88787" lon="7.72706">
        <ele>917.672</ele>
        <time>2018-04-15T10:32:58Z</time>
      </trkpt>
      <trkpt lat="43.88791" lon="7.72709">
        <ele>917.593</ele>
        <time>2018-04-15T10:33:01Z</time>
      </trkpt>
      <trkpt lat="43.88793" lon="7.72711">
        <ele>917.694</ele>
        <time>2018-04-15T10:33:03Z</time>
      </trkpt>
      <trkpt lat="43.88796" lon="7.72714">
        <ele>917.639</ele>
        <time>2018-04-15T10:33:06Z</time>
      </trkpt>
      <trkpt lat="43.88799" lon="7.72713">
        <ele>918.145</ele>
        <time>2018-04-15T10:33:13Z</time>
      </trkpt>
      <trkpt lat="43.88803" lon="7.72713">
        <ele>918.551</ele>
        <time>2018-04-15T10:33:16Z</time>
      </trkpt>
      <trkpt lat="43.88807" lon="7.72714">
        <ele>918.834</ele>
        <time>2018-04-15T10:33:19Z</time>
      </trkpt>
      <trkpt lat="43.8881" lon="7.72714">
        <ele>919.005</ele>
        <time>2018-04-15T10:33:21Z</time>
      </trkpt>
      <trkpt lat="43.88813" lon="7.72715">
        <ele>919.066</ele>
        <time>2018-04-15T10:33:23Z</time>
      </trkpt>
      <trkpt lat="43.88816" lon="7.72715">
        <ele>919.5</ele>
        <time>2018-04-15T10:33:28Z</time>
      </trkpt>
      <trkpt lat="43.8882" lon="7.72717">
        <ele>919.568</ele>
        <time>2018-04-15T10:33:31Z</time>
      </trkpt>
      <trkpt lat="43.88824" lon="7.72719">
        <ele>919.767</ele>
        <time>2018-04-15T10:33:33Z</time>
      </trkpt>
      <trkpt lat="43.88828" lon="7.7272">
        <ele>919.889</ele>
        <time>2018-04-15T10:33:35Z</time>
      </trkpt>
      <trkpt lat="43.88832" lon="7.72721">
        <ele>919.957</ele>
        <time>2018-04-15T10:33:37Z</time>
      </trkpt>
      <trkpt lat="43.88835" lon="7.72722">
        <ele>920.119</ele>
        <time>2018-04-15T10:33:39Z</time>
      </trkpt>
      <trkpt lat="43.88839" lon="7.72723">
        <ele>920.388</ele>
        <time>2018-04-15T10:33:41Z</time>
      </trkpt>
      <trkpt lat="43.88843" lon="7.72724">
        <ele>920.623</ele>
        <time>2018-04-15T10:33:43Z</time>
      </trkpt>
      <trkpt lat="43.88846" lon="7.72724">
        <ele>920.772</ele>
        <time>2018-04-15T10:33:45Z</time>
      </trkpt>
      <trkpt lat="43.88848" lon="7.72721">
        <ele>920.982</ele>
        <time>2018-04-15T10:33:50Z</time>
      </trkpt>
      <trkpt lat="43.88851" lon="7.72719">
        <ele>921.328</ele>
        <time>2018-04-15T10:33:53Z</time>
      </trkpt>
      <trkpt lat="43.88853" lon="7.72717">
        <ele>921.741</ele>
        <time>2018-04-15T10:33:56Z</time>
      </trkpt>
      <trkpt lat="43.88856" lon="7.72715">
        <ele>922.054</ele>
        <time>2018-04-15T10:33:59Z</time>
      </trkpt>
      <trkpt lat="43.88859" lon="7.72714">
        <ele>922.045</ele>
        <time>2018-04-15T10:34:02Z</time>
      </trkpt>
      <trkpt lat="43.88863" lon="7.72713">
        <ele>922.121</ele>
        <time>2018-04-15T10:34:05Z</time>
      </trkpt>
      <trkpt lat="43.88867" lon="7.72712">
        <ele>922.088</ele>
        <time>2018-04-15T10:34:07Z</time>
      </trkpt>
      <trkpt lat="43.8887" lon="7.72712">
        <ele>921.972</ele>
        <time>2018-04-15T10:34:13Z</time>
      </trkpt>
      <trkpt lat="43.88873" lon="7.72712">
        <ele>921.865</ele>
        <time>2018-04-15T10:34:16Z</time>
      </trkpt>
      <trkpt lat="43.88876" lon="7.72713">
        <ele>921.86</ele>
        <time>2018-04-15T10:34:18Z</time>
      </trkpt>
      <trkpt lat="43.88881" lon="7.72713">
        <ele>921.847</ele>
        <time>2018-04-15T10:34:21Z</time>
      </trkpt>
      <trkpt lat="43.88885" lon="7.72715">
        <ele>921.583</ele>
        <time>2018-04-15T10:34:25Z</time>
      </trkpt>
      <trkpt lat="43.88888" lon="7.72715">
        <ele>921.361</ele>
        <time>2018-04-15T10:34:28Z</time>
      </trkpt>
      <trkpt lat="43.88891" lon="7.72712">
        <ele>921.132</ele>
        <time>2018-04-15T10:34:32Z</time>
      </trkpt>
      <trkpt lat="43.88894" lon="7.7271">
        <ele>921.187</ele>
        <time>2018-04-15T10:34:34Z</time>
      </trkpt>
      <trkpt lat="43.88897" lon="7.72708">
        <ele>921.074</ele>
        <time>2018-04-15T10:34:37Z</time>
      </trkpt>
      <trkpt lat="43.88899" lon="7.72705">
        <ele>920.895</ele>
        <time>2018-04-15T10:34:39Z</time>
      </trkpt>
      <trkpt lat="43.88902" lon="7.727">
        <ele>920.769</ele>
        <time>2018-04-15T10:34:41Z</time>
      </trkpt>
      <trkpt lat="43.88905" lon="7.72698">
        <ele>920.729</ele>
        <time>2018-04-15T10:34:43Z</time>
      </trkpt>
      <trkpt lat="43.88909" lon="7.72694">
        <ele>920.706</ele>
        <time>2018-04-15T10:34:45Z</time>
      </trkpt>
      <trkpt lat="43.88912" lon="7.72694">
        <ele>920.474</ele>
        <time>2018-04-15T10:34:48Z</time>
      </trkpt>
      <trkpt lat="43.88915" lon="7.72693">
        <ele>920.199</ele>
        <time>2018-04-15T10:34:50Z</time>
      </trkpt>
      <trkpt lat="43.88919" lon="7.72693">
        <ele>919.866</ele>
        <time>2018-04-15T10:34:52Z</time>
      </trkpt>
      <trkpt lat="43.88922" lon="7.72694">
        <ele>919.624</ele>
        <time>2018-04-15T10:34:54Z</time>
      </trkpt>
      <trkpt lat="43.88925" lon="7.72694">
        <ele>919.45</ele>
        <time>2018-04-15T10:34:56Z</time>
      </trkpt>
      <trkpt lat="43.88929" lon="7.72697">
        <ele>919.362</ele>
        <time>2018-04-15T10:34:58Z</time>
      </trkpt>
      <trkpt lat="43.88931" lon="7.72699">
        <ele>919.246</ele>
        <time>2018-04-15T10:35:00Z</time>
      </trkpt>
      <trkpt lat="43.88934" lon="7.72704">
        <ele>919.059</ele>
        <time>2018-04-15T10:35:03Z</time>
      </trkpt>
      <trkpt lat="43.88937" lon="7.72707">
        <ele>919.235</ele>
        <time>2018-04-15T10:35:05Z</time>
      </trkpt>
      <trkpt lat="43.88939" lon="7.72709">
        <ele>919.488</ele>
        <time>2018-04-15T10:35:07Z</time>
      </trkpt>
      <trkpt lat="43.88943" lon="7.72711">
        <ele>919.885</ele>
        <time>2018-04-15T10:35:11Z</time>
      </trkpt>
      <trkpt lat="43.88947" lon="7.72714">
        <ele>920.284</ele>
        <time>2018-04-15T10:35:14Z</time>
      </trkpt>
      <trkpt lat="43.88951" lon="7.72716">
        <ele>920.646</ele>
        <time>2018-04-15T10:35:16Z</time>
      </trkpt>
      <trkpt lat="43.88953" lon="7.72718">
        <ele>921.066</ele>
        <time>2018-04-15T10:35:21Z</time>
      </trkpt>
      <trkpt lat="43.88956" lon="7.72718">
        <ele>921.203</ele>
        <time>2018-04-15T10:35:24Z</time>
      </trkpt>
      <trkpt lat="43.8896" lon="7.72717">
        <ele>921.173</ele>
        <time>2018-04-15T10:35:30Z</time>
      </trkpt>
      <trkpt lat="43.88963" lon="7.72715">
        <ele>921.282</ele>
        <time>2018-04-15T10:35:32Z</time>
      </trkpt>
      <trkpt lat="43.88966" lon="7.72711">
        <ele>921.565</ele>
        <time>2018-04-15T10:35:36Z</time>
      </trkpt>
      <trkpt lat="43.88969" lon="7.72709">
        <ele>921.762</ele>
        <time>2018-04-15T10:35:39Z</time>
      </trkpt>
      <trkpt lat="43.88971" lon="7.72706">
        <ele>921.915</ele>
        <time>2018-04-15T10:35:41Z</time>
      </trkpt>
      <trkpt lat="43.88974" lon="7.72704">
        <ele>922.037</ele>
        <time>2018-04-15T10:35:43Z</time>
      </trkpt>
      <trkpt lat="43.88976" lon="7.72701">
        <ele>922.209</ele>
        <time>2018-04-15T10:35:46Z</time>
      </trkpt>
      <trkpt lat="43.88978" lon="7.72698">
        <ele>922.228</ele>
        <time>2018-04-15T10:35:48Z</time>
      </trkpt>
      <trkpt lat="43.88982" lon="7.72696">
        <ele>922.338</ele>
        <time>2018-04-15T10:35:51Z</time>
      </trkpt>
      <trkpt lat="43.88987" lon="7.72694">
        <ele>922.271</ele>
        <time>2018-04-15T10:35:53Z</time>
      </trkpt>
      <trkpt lat="43.8899" lon="7.72692">
        <ele>922.324</ele>
        <time>2018-04-15T10:35:55Z</time>
      </trkpt>
      <trkpt lat="43.88993" lon="7.72688">
        <ele>922.529</ele>
        <time>2018-04-15T10:35:58Z</time>
      </trkpt>
      <trkpt lat="43.88997" lon="7.72686">
        <ele>922.675</ele>
        <time>2018-04-15T10:36:01Z</time>
      </trkpt>
      <trkpt lat="43.89001" lon="7.72684">
        <ele>922.745</ele>
        <time>2018-04-15T10:36:03Z</time>
      </trkpt>
      <trkpt lat="43.89005" lon="7.72683">
        <ele>922.754</ele>
        <time>2018-04-15T10:36:05Z</time>
      </trkpt>
      <trkpt lat="43.89008" lon="7.72683">
        <ele>922.857</ele>
        <time>2018-04-15T10:36:08Z</time>
      </trkpt>
      <trkpt lat="43.89011" lon="7.72684">
        <ele>922.949</ele>
        <time>2018-04-15T10:36:10Z</time>
      </trkpt>
      <trkpt lat="43.89014" lon="7.72686">
        <ele>923.021</ele>
        <time>2018-04-15T10:36:15Z</time>
      </trkpt>
      <trkpt lat="43.89011" lon="7.72685">
        <ele>922.692</ele>
        <time>2018-04-15T10:36:24Z</time>
      </trkpt>
      <trkpt lat="43.89014" lon="7.72684">
        <ele>922.051</ele>
        <time>2018-04-15T10:36:47Z</time>
      </trkpt>
      <trkpt lat="43.89013" lon="7.72681">
        <ele>922.066</ele>
        <time>2018-04-15T10:36:55Z</time>
      </trkpt>
      <trkpt lat="43.8901" lon="7.72681">
        <ele>922.49</ele>
        <time>2018-04-15T10:37:03Z</time>
      </trkpt>
      <trkpt lat="43.89013" lon="7.72683">
        <ele>923.04</ele>
        <time>2018-04-15T10:37:21Z</time>
      </trkpt>
      <trkpt lat="43.89017" lon="7.72686">
        <ele>922.998</ele>
        <time>2018-04-15T10:37:24Z</time>
      </trkpt>
      <trkpt lat="43.8902" lon="7.72689">
        <ele>922.956</ele>
        <time>2018-04-15T10:37:26Z</time>
      </trkpt>
      <trkpt lat="43.89023" lon="7.72693">
        <ele>922.946</ele>
        <time>2018-04-15T10:37:28Z</time>
      </trkpt>
      <trkpt lat="43.89025" lon="7.72695">
        <ele>922.821</ele>
        <time>2018-04-15T10:37:30Z</time>
      </trkpt>
      <trkpt lat="43.89027" lon="7.72699">
        <ele>922.728</ele>
        <time>2018-04-15T10:37:32Z</time>
      </trkpt>
      <trkpt lat="43.89029" lon="7.72702">
        <ele>922.62</ele>
        <time>2018-04-15T10:37:34Z</time>
      </trkpt>
      <trkpt lat="43.8903" lon="7.72706">
        <ele>922.6</ele>
        <time>2018-04-15T10:37:37Z</time>
      </trkpt>
      <trkpt lat="43.89032" lon="7.72709">
        <ele>922.572</ele>
        <time>2018-04-15T10:37:40Z</time>
      </trkpt>
      <trkpt lat="43.89035" lon="7.72711">
        <ele>922.416</ele>
        <time>2018-04-15T10:37:43Z</time>
      </trkpt>
      <trkpt lat="43.89038" lon="7.72713">
        <ele>922.316</ele>
        <time>2018-04-15T10:37:46Z</time>
      </trkpt>
      <trkpt lat="43.89042" lon="7.72713">
        <ele>922.384</ele>
        <time>2018-04-15T10:37:49Z</time>
      </trkpt>
      <trkpt lat="43.89046" lon="7.72715">
        <ele>922.342</ele>
        <time>2018-04-15T10:37:51Z</time>
      </trkpt>
      <trkpt lat="43.8905" lon="7.72716">
        <ele>922.39</ele>
        <time>2018-04-15T10:37:54Z</time>
      </trkpt>
      <trkpt lat="43.89054" lon="7.72715">
        <ele>922.588</ele>
        <time>2018-04-15T10:37:57Z</time>
      </trkpt>
      <trkpt lat="43.89057" lon="7.72713">
        <ele>922.67</ele>
        <time>2018-04-15T10:37:59Z</time>
      </trkpt>
      <trkpt lat="43.8906" lon="7.72712">
        <ele>922.857</ele>
        <time>2018-04-15T10:38:02Z</time>
      </trkpt>
      <trkpt lat="43.89063" lon="7.7271">
        <ele>922.962</ele>
        <time>2018-04-15T10:38:06Z</time>
      </trkpt>
      <trkpt lat="43.89066" lon="7.72708">
        <ele>922.983</ele>
        <time>2018-04-15T10:38:08Z</time>
      </trkpt>
      <trkpt lat="43.89069" lon="7.72707">
        <ele>923.091</ele>
        <time>2018-04-15T10:38:10Z</time>
      </trkpt>
      <trkpt lat="43.89072" lon="7.72705">
        <ele>923.311</ele>
        <time>2018-04-15T10:38:12Z</time>
      </trkpt>
      <trkpt lat="43.89076" lon="7.72703">
        <ele>923.781</ele>
        <time>2018-04-15T10:38:16Z</time>
      </trkpt>
      <trkpt lat="43.89079" lon="7.72701">
        <ele>923.987</ele>
        <time>2018-04-15T10:38:19Z</time>
      </trkpt>
      <trkpt lat="43.89083" lon="7.72701">
        <ele>924.227</ele>
        <time>2018-04-15T10:38:22Z</time>
      </trkpt>
      <trkpt lat="43.89087" lon="7.72702">
        <ele>924.368</ele>
        <time>2018-04-15T10:38:24Z</time>
      </trkpt>
      <trkpt lat="43.89089" lon="7.72703">
        <ele>924.565</ele>
        <time>2018-04-15T10:38:26Z</time>
      </trkpt>
      <trkpt lat="43.89092" lon="7.72703">
        <ele>924.628</ele>
        <time>2018-04-15T10:38:29Z</time>
      </trkpt>
      <trkpt lat="43.89095" lon="7.72703">
        <ele>924.751</ele>
        <time>2018-04-15T10:38:31Z</time>
      </trkpt>
      <trkpt lat="43.89098" lon="7.72705">
        <ele>924.985</ele>
        <time>2018-04-15T10:38:33Z</time>
      </trkpt>
      <trkpt lat="43.89101" lon="7.72708">
        <ele>925.213</ele>
        <time>2018-04-15T10:38:35Z</time>
      </trkpt>
      <trkpt lat="43.89104" lon="7.72711">
        <ele>925.393</ele>
        <time>2018-04-15T10:38:37Z</time>
      </trkpt>
      <trkpt lat="43.89107" lon="7.72713">
        <ele>925.663</ele>
        <time>2018-04-15T10:38:40Z</time>
      </trkpt>
      <trkpt lat="43.89112" lon="7.72714">
        <ele>925.828</ele>
        <time>2018-04-15T10:38:42Z</time>
      </trkpt>
      <trkpt lat="43.89116" lon="7.72714">
        <ele>925.964</ele>
        <time>2018-04-15T10:38:44Z</time>
      </trkpt>
      <trkpt lat="43.89119" lon="7.72715">
        <ele>926.32</ele>
        <time>2018-04-15T10:38:47Z</time>
      </trkpt>
      <trkpt lat="43.89122" lon="7.72716">
        <ele>926.749</ele>
        <time>2018-04-15T10:38:51Z</time>
      </trkpt>
      <trkpt lat="43.89126" lon="7.72717">
        <ele>926.96</ele>
        <time>2018-04-15T10:38:53Z</time>
      </trkpt>
      <trkpt lat="43.89129" lon="7.72719">
        <ele>927.08</ele>
        <time>2018-04-15T10:38:55Z</time>
      </trkpt>
      <trkpt lat="43.89131" lon="7.72721">
        <ele>927.352</ele>
        <time>2018-04-15T10:38:57Z</time>
      </trkpt>
      <trkpt lat="43.89135" lon="7.72723">
        <ele>927.512</ele>
        <time>2018-04-15T10:38:59Z</time>
      </trkpt>
      <trkpt lat="43.89138" lon="7.72725">
        <ele>927.61</ele>
        <time>2018-04-15T10:39:02Z</time>
      </trkpt>
      <trkpt lat="43.89141" lon="7.72727">
        <ele>927.672</ele>
        <time>2018-04-15T10:39:04Z</time>
      </trkpt>
      <trkpt lat="43.89145" lon="7.72728">
        <ele>927.741</ele>
        <time>2018-04-15T10:39:07Z</time>
      </trkpt>
      <trkpt lat="43.89148" lon="7.72729">
        <ele>927.842</ele>
        <time>2018-04-15T10:39:09Z</time>
      </trkpt>
      <trkpt lat="43.89151" lon="7.72728">
        <ele>927.927</ele>
        <time>2018-04-15T10:39:11Z</time>
      </trkpt>
      <trkpt lat="43.89155" lon="7.72729">
        <ele>928.053</ele>
        <time>2018-04-15T10:39:14Z</time>
      </trkpt>
      <trkpt lat="43.89158" lon="7.72728">
        <ele>928.017</ele>
        <time>2018-04-15T10:39:16Z</time>
      </trkpt>
      <trkpt lat="43.89162" lon="7.72728">
        <ele>928.053</ele>
        <time>2018-04-15T10:39:18Z</time>
      </trkpt>
      <trkpt lat="43.89167" lon="7.7273">
        <ele>928.078</ele>
        <time>2018-04-15T10:39:20Z</time>
      </trkpt>
      <trkpt lat="43.8917" lon="7.72732">
        <ele>928.067</ele>
        <time>2018-04-15T10:39:22Z</time>
      </trkpt>
      <trkpt lat="43.89172" lon="7.72735">
        <ele>928.172</ele>
        <time>2018-04-15T10:39:25Z</time>
      </trkpt>
      <trkpt lat="43.89175" lon="7.72736">
        <ele>928.212</ele>
        <time>2018-04-15T10:39:27Z</time>
      </trkpt>
      <trkpt lat="43.89178" lon="7.72738">
        <ele>928.231</ele>
        <time>2018-04-15T10:39:29Z</time>
      </trkpt>
      <trkpt lat="43.89181" lon="7.7274">
        <ele>928.34</ele>
        <time>2018-04-15T10:39:32Z</time>
      </trkpt>
      <trkpt lat="43.89185" lon="7.72741">
        <ele>928.526</ele>
        <time>2018-04-15T10:39:35Z</time>
      </trkpt>
      <trkpt lat="43.89189" lon="7.72743">
        <ele>928.536</ele>
        <time>2018-04-15T10:39:38Z</time>
      </trkpt>
      <trkpt lat="43.89192" lon="7.72747">
        <ele>928.627</ele>
        <time>2018-04-15T10:39:40Z</time>
      </trkpt>
      <trkpt lat="43.89194" lon="7.72751">
        <ele>928.545</ele>
        <time>2018-04-15T10:39:42Z</time>
      </trkpt>
      <trkpt lat="43.89196" lon="7.72755">
        <ele>928.575</ele>
        <time>2018-04-15T10:39:44Z</time>
      </trkpt>
      <trkpt lat="43.89197" lon="7.7276">
        <ele>928.476</ele>
        <time>2018-04-15T10:39:47Z</time>
      </trkpt>
      <trkpt lat="43.89199" lon="7.72764">
        <ele>928.63</ele>
        <time>2018-04-15T10:39:49Z</time>
      </trkpt>
      <trkpt lat="43.89201" lon="7.72769">
        <ele>928.756</ele>
        <time>2018-04-15T10:39:52Z</time>
      </trkpt>
      <trkpt lat="43.89203" lon="7.72773">
        <ele>928.693</ele>
        <time>2018-04-15T10:39:55Z</time>
      </trkpt>
      <trkpt lat="43.89206" lon="7.72777">
        <ele>928.526</ele>
        <time>2018-04-15T10:39:58Z</time>
      </trkpt>
      <trkpt lat="43.89207" lon="7.7278">
        <ele>928.353</ele>
        <time>2018-04-15T10:40:02Z</time>
      </trkpt>
      <trkpt lat="43.89209" lon="7.72784">
        <ele>928.445</ele>
        <time>2018-04-15T10:40:05Z</time>
      </trkpt>
      <trkpt lat="43.89212" lon="7.72786">
        <ele>928.463</ele>
        <time>2018-04-15T10:40:07Z</time>
      </trkpt>
      <trkpt lat="43.89215" lon="7.72788">
        <ele>928.45</ele>
        <time>2018-04-15T10:40:09Z</time>
      </trkpt>
      <trkpt lat="43.89218" lon="7.72791">
        <ele>928.319</ele>
        <time>2018-04-15T10:40:12Z</time>
      </trkpt>
      <trkpt lat="43.89221" lon="7.72794">
        <ele>928.26</ele>
        <time>2018-04-15T10:40:15Z</time>
      </trkpt>
      <trkpt lat="43.89224" lon="7.72797">
        <ele>928.35</ele>
        <time>2018-04-15T10:40:17Z</time>
      </trkpt>
      <trkpt lat="43.89227" lon="7.72799">
        <ele>928.37</ele>
        <time>2018-04-15T10:40:20Z</time>
      </trkpt>
      <trkpt lat="43.8923" lon="7.72803">
        <ele>928.387</ele>
        <time>2018-04-15T10:40:22Z</time>
      </trkpt>
      <trkpt lat="43.89235" lon="7.72806">
        <ele>928.42</ele>
        <time>2018-04-15T10:40:24Z</time>
      </trkpt>
      <trkpt lat="43.89238" lon="7.72808">
        <ele>928.588</ele>
        <time>2018-04-15T10:40:26Z</time>
      </trkpt>
      <trkpt lat="43.89241" lon="7.72809">
        <ele>928.782</ele>
        <time>2018-04-15T10:40:28Z</time>
      </trkpt>
      <trkpt lat="43.89244" lon="7.72811">
        <ele>928.884</ele>
        <time>2018-04-15T10:40:30Z</time>
      </trkpt>
      <trkpt lat="43.89247" lon="7.72813">
        <ele>928.997</ele>
        <time>2018-04-15T10:40:33Z</time>
      </trkpt>
      <trkpt lat="43.89251" lon="7.72813">
        <ele>929.347</ele>
        <time>2018-04-15T10:40:38Z</time>
      </trkpt>
      <trkpt lat="43.89254" lon="7.72814">
        <ele>929.46</ele>
        <time>2018-04-15T10:40:40Z</time>
      </trkpt>
      <trkpt lat="43.89257" lon="7.72816">
        <ele>929.665</ele>
        <time>2018-04-15T10:40:42Z</time>
      </trkpt>
      <trkpt lat="43.8926" lon="7.72817">
        <ele>929.638</ele>
        <time>2018-04-15T10:40:45Z</time>
      </trkpt>
      <trkpt lat="43.89264" lon="7.72817">
        <ele>929.521</ele>
        <time>2018-04-15T10:40:49Z</time>
      </trkpt>
      <trkpt lat="43.89268" lon="7.72821">
        <ele>929.47</ele>
        <time>2018-04-15T10:40:51Z</time>
      </trkpt>
      <trkpt lat="43.89271" lon="7.72823">
        <ele>929.55</ele>
        <time>2018-04-15T10:40:53Z</time>
      </trkpt>
      <trkpt lat="43.89275" lon="7.72826">
        <ele>929.502</ele>
        <time>2018-04-15T10:40:55Z</time>
      </trkpt>
      <trkpt lat="43.89278" lon="7.72828">
        <ele>929.751</ele>
        <time>2018-04-15T10:40:58Z</time>
      </trkpt>
      <trkpt lat="43.8928" lon="7.72829">
        <ele>929.817</ele>
        <time>2018-04-15T10:41:00Z</time>
      </trkpt>
      <trkpt lat="43.89284" lon="7.72828">
        <ele>929.962</ele>
        <time>2018-04-15T10:41:03Z</time>
      </trkpt>
      <trkpt lat="43.89287" lon="7.72827">
        <ele>930.05</ele>
        <time>2018-04-15T10:41:06Z</time>
      </trkpt>
      <trkpt lat="43.89291" lon="7.72827">
        <ele>930.28</ele>
        <time>2018-04-15T10:41:08Z</time>
      </trkpt>
      <trkpt lat="43.89294" lon="7.72827">
        <ele>930.747</ele>
        <time>2018-04-15T10:41:11Z</time>
      </trkpt>
      <trkpt lat="43.89298" lon="7.72828">
        <ele>931.44</ele>
        <time>2018-04-15T10:41:14Z</time>
      </trkpt>
      <trkpt lat="43.89302" lon="7.72828">
        <ele>932.242</ele>
        <time>2018-04-15T10:41:17Z</time>
      </trkpt>
      <trkpt lat="43.89306" lon="7.72827">
        <ele>932.769</ele>
        <time>2018-04-15T10:41:19Z</time>
      </trkpt>
      <trkpt lat="43.89309" lon="7.72827">
        <ele>933.097</ele>
        <time>2018-04-15T10:41:21Z</time>
      </trkpt>
      <trkpt lat="43.89313" lon="7.72826">
        <ele>933.413</ele>
        <time>2018-04-15T10:41:23Z</time>
      </trkpt>
      <trkpt lat="43.89316" lon="7.72824">
        <ele>934.207</ele>
        <time>2018-04-15T10:41:27Z</time>
      </trkpt>
      <trkpt lat="43.8932" lon="7.72822">
        <ele>934.527</ele>
        <time>2018-04-15T10:41:29Z</time>
      </trkpt>
      <trkpt lat="43.89322" lon="7.72822">
        <ele>934.741</ele>
        <time>2018-04-15T10:41:31Z</time>
      </trkpt>
      <trkpt lat="43.89326" lon="7.72821">
        <ele>934.926</ele>
        <time>2018-04-15T10:41:34Z</time>
      </trkpt>
      <trkpt lat="43.89329" lon="7.72822">
        <ele>935.23</ele>
        <time>2018-04-15T10:41:37Z</time>
      </trkpt>
      <trkpt lat="43.89332" lon="7.72821">
        <ele>935.228</ele>
        <time>2018-04-15T10:41:39Z</time>
      </trkpt>
      <trkpt lat="43.89338" lon="7.72822">
        <ele>935.154</ele>
        <time>2018-04-15T10:41:41Z</time>
      </trkpt>
      <trkpt lat="43.89343" lon="7.72823">
        <ele>935.08</ele>
        <time>2018-04-15T10:41:43Z</time>
      </trkpt>
      <trkpt lat="43.89347" lon="7.72824">
        <ele>934.958</ele>
        <time>2018-04-15T10:41:46Z</time>
      </trkpt>
      <trkpt lat="43.89351" lon="7.72825">
        <ele>934.566</ele>
        <time>2018-04-15T10:41:49Z</time>
      </trkpt>
      <trkpt lat="43.89353" lon="7.72823">
        <ele>934.203</ele>
        <time>2018-04-15T10:41:52Z</time>
      </trkpt>
      <trkpt lat="43.89357" lon="7.72822">
        <ele>933.986</ele>
        <time>2018-04-15T10:41:54Z</time>
      </trkpt>
      <trkpt lat="43.89361" lon="7.72822">
        <ele>933.609</ele>
        <time>2018-04-15T10:41:58Z</time>
      </trkpt>
      <trkpt lat="43.89364" lon="7.72822">
        <ele>933.507</ele>
        <time>2018-04-15T10:42:00Z</time>
      </trkpt>
      <trkpt lat="43.89367" lon="7.7282">
        <ele>933.263</ele>
        <time>2018-04-15T10:42:03Z</time>
      </trkpt>
      <trkpt lat="43.8937" lon="7.72817">
        <ele>933.128</ele>
        <time>2018-04-15T10:42:05Z</time>
      </trkpt>
      <trkpt lat="43.89373" lon="7.72816">
        <ele>933.03</ele>
        <time>2018-04-15T10:42:07Z</time>
      </trkpt>
      <trkpt lat="43.89376" lon="7.72814">
        <ele>933.011</ele>
        <time>2018-04-15T10:42:09Z</time>
      </trkpt>
      <trkpt lat="43.89378" lon="7.72813">
        <ele>932.988</ele>
        <time>2018-04-15T10:42:11Z</time>
      </trkpt>
      <trkpt lat="43.89382" lon="7.72811">
        <ele>932.948</ele>
        <time>2018-04-15T10:42:14Z</time>
      </trkpt>
      <trkpt lat="43.89384" lon="7.72809">
        <ele>933.002</ele>
        <time>2018-04-15T10:42:16Z</time>
      </trkpt>
      <trkpt lat="43.89388" lon="7.72809">
        <ele>932.926</ele>
        <time>2018-04-15T10:42:18Z</time>
      </trkpt>
      <trkpt lat="43.89391" lon="7.72808">
        <ele>932.775</ele>
        <time>2018-04-15T10:42:20Z</time>
      </trkpt>
      <trkpt lat="43.89395" lon="7.72806">
        <ele>932.691</ele>
        <time>2018-04-15T10:42:22Z</time>
      </trkpt>
      <trkpt lat="43.89397" lon="7.72805">
        <ele>932.652</ele>
        <time>2018-04-15T10:42:25Z</time>
      </trkpt>
      <trkpt lat="43.894" lon="7.72802">
        <ele>932.566</ele>
        <time>2018-04-15T10:42:28Z</time>
      </trkpt>
      <trkpt lat="43.89403" lon="7.72799">
        <ele>932.541</ele>
        <time>2018-04-15T10:42:30Z</time>
      </trkpt>
      <trkpt lat="43.89408" lon="7.72794">
        <ele>932.488</ele>
        <time>2018-04-15T10:42:33Z</time>
      </trkpt>
      <trkpt lat="43.8941" lon="7.7279">
        <ele>932.587</ele>
        <time>2018-04-15T10:42:37Z</time>
      </trkpt>
      <trkpt lat="43.89414" lon="7.72787">
        <ele>932.586</ele>
        <time>2018-04-15T10:42:39Z</time>
      </trkpt>
      <trkpt lat="43.89415" lon="7.72783">
        <ele>932.608</ele>
        <time>2018-04-15T10:42:41Z</time>
      </trkpt>
      <trkpt lat="43.89416" lon="7.72779">
        <ele>932.621</ele>
        <time>2018-04-15T10:42:43Z</time>
      </trkpt>
      <trkpt lat="43.89418" lon="7.72774">
        <ele>932.698</ele>
        <time>2018-04-15T10:42:46Z</time>
      </trkpt>
      <trkpt lat="43.8942" lon="7.72771">
        <ele>932.676</ele>
        <time>2018-04-15T10:42:49Z</time>
      </trkpt>
      <trkpt lat="43.89422" lon="7.72768">
        <ele>932.519</ele>
        <time>2018-04-15T10:42:51Z</time>
      </trkpt>
      <trkpt lat="43.89424" lon="7.72764">
        <ele>932.274</ele>
        <time>2018-04-15T10:42:54Z</time>
      </trkpt>
      <trkpt lat="43.89427" lon="7.7276">
        <ele>932.199</ele>
        <time>2018-04-15T10:42:56Z</time>
      </trkpt>
      <trkpt lat="43.89429" lon="7.72758">
        <ele>931.91</ele>
        <time>2018-04-15T10:42:59Z</time>
      </trkpt>
      <trkpt lat="43.89433" lon="7.72754">
        <ele>931.854</ele>
        <time>2018-04-15T10:43:01Z</time>
      </trkpt>
      <trkpt lat="43.89436" lon="7.72751">
        <ele>931.759</ele>
        <time>2018-04-15T10:43:03Z</time>
      </trkpt>
      <trkpt lat="43.89438" lon="7.72748">
        <ele>931.676</ele>
        <time>2018-04-15T10:43:05Z</time>
      </trkpt>
      <trkpt lat="43.8944" lon="7.72746">
        <ele>931.69</ele>
        <time>2018-04-15T10:43:07Z</time>
      </trkpt>
      <trkpt lat="43.89443" lon="7.72744">
        <ele>931.521</ele>
        <time>2018-04-15T10:43:10Z</time>
      </trkpt>
      <trkpt lat="43.89446" lon="7.72741">
        <ele>931.265</ele>
        <time>2018-04-15T10:43:13Z</time>
      </trkpt>
      <trkpt lat="43.89449" lon="7.7274">
        <ele>931.137</ele>
        <time>2018-04-15T10:43:15Z</time>
      </trkpt>
      <trkpt lat="43.89452" lon="7.72737">
        <ele>930.892</ele>
        <time>2018-04-15T10:43:18Z</time>
      </trkpt>
      <trkpt lat="43.89455" lon="7.72735">
        <ele>930.636</ele>
        <time>2018-04-15T10:43:20Z</time>
      </trkpt>
      <trkpt lat="43.89457" lon="7.72731">
        <ele>930.381</ele>
        <time>2018-04-15T10:43:22Z</time>
      </trkpt>
      <trkpt lat="43.8946" lon="7.72728">
        <ele>930.315</ele>
        <time>2018-04-15T10:43:24Z</time>
      </trkpt>
      <trkpt lat="43.89462" lon="7.72726">
        <ele>930.159</ele>
        <time>2018-04-15T10:43:26Z</time>
      </trkpt>
      <trkpt lat="43.89464" lon="7.72722">
        <ele>930.175</ele>
        <time>2018-04-15T10:43:28Z</time>
      </trkpt>
      <trkpt lat="43.89466" lon="7.72719">
        <ele>930.029</ele>
        <time>2018-04-15T10:43:31Z</time>
      </trkpt>
      <trkpt lat="43.89467" lon="7.72715">
        <ele>929.893</ele>
        <time>2018-04-15T10:43:33Z</time>
      </trkpt>
      <trkpt lat="43.89469" lon="7.72711">
        <ele>929.842</ele>
        <time>2018-04-15T10:43:35Z</time>
      </trkpt>
      <trkpt lat="43.89471" lon="7.72706">
        <ele>929.772</ele>
        <time>2018-04-15T10:43:37Z</time>
      </trkpt>
      <trkpt lat="43.89472" lon="7.72702">
        <ele>929.701</ele>
        <time>2018-04-15T10:43:39Z</time>
      </trkpt>
      <trkpt lat="43.89474" lon="7.72699">
        <ele>929.576</ele>
        <time>2018-04-15T10:43:41Z</time>
      </trkpt>
      <trkpt lat="43.89476" lon="7.72697">
        <ele>929.455</ele>
        <time>2018-04-15T10:43:43Z</time>
      </trkpt>
      <trkpt lat="43.89479" lon="7.72694">
        <ele>929.141</ele>
        <time>2018-04-15T10:43:45Z</time>
      </trkpt>
      <trkpt lat="43.89481" lon="7.72691">
        <ele>928.927</ele>
        <time>2018-04-15T10:43:47Z</time>
      </trkpt>
      <trkpt lat="43.89485" lon="7.7269">
        <ele>928.514</ele>
        <time>2018-04-15T10:43:50Z</time>
      </trkpt>
      <trkpt lat="43.89489" lon="7.7269">
        <ele>928.565</ele>
        <time>2018-04-15T10:43:53Z</time>
      </trkpt>
      <trkpt lat="43.89492" lon="7.72693">
        <ele>928.529</ele>
        <time>2018-04-15T10:43:56Z</time>
      </trkpt>
      <trkpt lat="43.89494" lon="7.72695">
        <ele>928.48</ele>
        <time>2018-04-15T10:43:58Z</time>
      </trkpt>
      <trkpt lat="43.89497" lon="7.72698">
        <ele>928.444</ele>
        <time>2018-04-15T10:44:00Z</time>
      </trkpt>
      <trkpt lat="43.895" lon="7.727">
        <ele>928.387</ele>
        <time>2018-04-15T10:44:04Z</time>
      </trkpt>
      <trkpt lat="43.89502" lon="7.72702">
        <ele>928.398</ele>
        <time>2018-04-15T10:44:06Z</time>
      </trkpt>
      <trkpt lat="43.89505" lon="7.72705">
        <ele>928.73</ele>
        <time>2018-04-15T10:44:10Z</time>
      </trkpt>
      <trkpt lat="43.89508" lon="7.72706">
        <ele>929.098</ele>
        <time>2018-04-15T10:44:13Z</time>
      </trkpt>
      <trkpt lat="43.89512" lon="7.7271">
        <ele>929.361</ele>
        <time>2018-04-15T10:44:16Z</time>
      </trkpt>
      <trkpt lat="43.89514" lon="7.72714">
        <ele>929.342</ele>
        <time>2018-04-15T10:44:18Z</time>
      </trkpt>
      <trkpt lat="43.8952" lon="7.7272">
        <ele>929.358</ele>
        <time>2018-04-15T10:44:22Z</time>
      </trkpt>
      <trkpt lat="43.89522" lon="7.72722">
        <ele>929.193</ele>
        <time>2018-04-15T10:44:24Z</time>
      </trkpt>
      <trkpt lat="43.89526" lon="7.72724">
        <ele>929.083</ele>
        <time>2018-04-15T10:44:26Z</time>
      </trkpt>
      <trkpt lat="43.89528" lon="7.72727">
        <ele>929.046</ele>
        <time>2018-04-15T10:44:27Z</time>
      </trkpt>
      <trkpt lat="43.89531" lon="7.7273">
        <ele>928.82</ele>
        <time>2018-04-15T10:44:29Z</time>
      </trkpt>
      <trkpt lat="43.89534" lon="7.72732">
        <ele>928.629</ele>
        <time>2018-04-15T10:44:31Z</time>
      </trkpt>
      <trkpt lat="43.89536" lon="7.72734">
        <ele>928.483</ele>
        <time>2018-04-15T10:44:34Z</time>
      </trkpt>
      <trkpt lat="43.89539" lon="7.72737">
        <ele>928.382</ele>
        <time>2018-04-15T10:44:37Z</time>
      </trkpt>
      <trkpt lat="43.89541" lon="7.7274">
        <ele>928.346</ele>
        <time>2018-04-15T10:44:39Z</time>
      </trkpt>
      <trkpt lat="43.89544" lon="7.72742">
        <ele>928.454</ele>
        <time>2018-04-15T10:44:41Z</time>
      </trkpt>
      <trkpt lat="43.89546" lon="7.72744">
        <ele>928.515</ele>
        <time>2018-04-15T10:44:44Z</time>
      </trkpt>
      <trkpt lat="43.8955" lon="7.72746">
        <ele>928.621</ele>
        <time>2018-04-15T10:44:47Z</time>
      </trkpt>
      <trkpt lat="43.89553" lon="7.72748">
        <ele>928.464</ele>
        <time>2018-04-15T10:44:49Z</time>
      </trkpt>
      <trkpt lat="43.89556" lon="7.7275">
        <ele>928.224</ele>
        <time>2018-04-15T10:44:53Z</time>
      </trkpt>
      <trkpt lat="43.8956" lon="7.72754">
        <ele>928.149</ele>
        <time>2018-04-15T10:44:55Z</time>
      </trkpt>
      <trkpt lat="43.89565" lon="7.72758">
        <ele>927.992</ele>
        <time>2018-04-15T10:44:58Z</time>
      </trkpt>
      <trkpt lat="43.89567" lon="7.72761">
        <ele>928.142</ele>
        <time>2018-04-15T10:45:02Z</time>
      </trkpt>
      <trkpt lat="43.8957" lon="7.72766">
        <ele>928.164</ele>
        <time>2018-04-15T10:45:05Z</time>
      </trkpt>
      <trkpt lat="43.89574" lon="7.7277">
        <ele>928.204</ele>
        <time>2018-04-15T10:45:08Z</time>
      </trkpt>
      <trkpt lat="43.89578" lon="7.72772">
        <ele>928.349</ele>
        <time>2018-04-15T10:45:12Z</time>
      </trkpt>
      <trkpt lat="43.89582" lon="7.72774">
        <ele>928.582</ele>
        <time>2018-04-15T10:45:14Z</time>
      </trkpt>
      <trkpt lat="43.89585" lon="7.72775">
        <ele>929.097</ele>
        <time>2018-04-15T10:45:18Z</time>
      </trkpt>
      <trkpt lat="43.89588" lon="7.72776">
        <ele>929.581</ele>
        <time>2018-04-15T10:45:21Z</time>
      </trkpt>
      <trkpt lat="43.89591" lon="7.72776">
        <ele>929.844</ele>
        <time>2018-04-15T10:45:23Z</time>
      </trkpt>
      <trkpt lat="43.89594" lon="7.72777">
        <ele>930.032</ele>
        <time>2018-04-15T10:45:25Z</time>
      </trkpt>
      <trkpt lat="43.89597" lon="7.72778">
        <ele>930.258</ele>
        <time>2018-04-15T10:45:27Z</time>
      </trkpt>
      <trkpt lat="43.896" lon="7.72778">
        <ele>930.578</ele>
        <time>2018-04-15T10:45:29Z</time>
      </trkpt>
      <trkpt lat="43.89603" lon="7.72778">
        <ele>930.745</ele>
        <time>2018-04-15T10:45:31Z</time>
      </trkpt>
      <trkpt lat="43.89607" lon="7.72779">
        <ele>930.96</ele>
        <time>2018-04-15T10:45:33Z</time>
      </trkpt>
      <trkpt lat="43.89611" lon="7.72778">
        <ele>931.222</ele>
        <time>2018-04-15T10:45:36Z</time>
      </trkpt>
      <trkpt lat="43.89614" lon="7.72778">
        <ele>931.49</ele>
        <time>2018-04-15T10:45:39Z</time>
      </trkpt>
      <trkpt lat="43.89617" lon="7.7278">
        <ele>931.728</ele>
        <time>2018-04-15T10:45:41Z</time>
      </trkpt>
      <trkpt lat="43.89619" lon="7.72782">
        <ele>931.702</ele>
        <time>2018-04-15T10:45:43Z</time>
      </trkpt>
      <trkpt lat="43.89623" lon="7.72783">
        <ele>931.698</ele>
        <time>2018-04-15T10:45:46Z</time>
      </trkpt>
      <trkpt lat="43.89628" lon="7.72782">
        <ele>931.69</ele>
        <time>2018-04-15T10:45:48Z</time>
      </trkpt>
      <trkpt lat="43.89631" lon="7.72782">
        <ele>931.566</ele>
        <time>2018-04-15T10:45:51Z</time>
      </trkpt>
      <trkpt lat="43.89635" lon="7.72781">
        <ele>931.472</ele>
        <time>2018-04-15T10:45:54Z</time>
      </trkpt>
      <trkpt lat="43.89638" lon="7.72781">
        <ele>931.49</ele>
        <time>2018-04-15T10:45:56Z</time>
      </trkpt>
      <trkpt lat="43.89642" lon="7.72781">
        <ele>931.491</ele>
        <time>2018-04-15T10:45:58Z</time>
      </trkpt>
      <trkpt lat="43.89646" lon="7.7278">
        <ele>931.436</ele>
        <time>2018-04-15T10:46:01Z</time>
      </trkpt>
      <trkpt lat="43.89649" lon="7.72779">
        <ele>931.361</ele>
        <time>2018-04-15T10:46:03Z</time>
      </trkpt>
      <trkpt lat="43.89653" lon="7.72778">
        <ele>931.244</ele>
        <time>2018-04-15T10:46:05Z</time>
      </trkpt>
      <trkpt lat="43.89656" lon="7.72777">
        <ele>931.287</ele>
        <time>2018-04-15T10:46:07Z</time>
      </trkpt>
      <trkpt lat="43.89659" lon="7.72775">
        <ele>931.173</ele>
        <time>2018-04-15T10:46:09Z</time>
      </trkpt>
      <trkpt lat="43.89662" lon="7.72773">
        <ele>931.081</ele>
        <time>2018-04-15T10:46:11Z</time>
      </trkpt>
      <trkpt lat="43.89666" lon="7.72771">
        <ele>931.053</ele>
        <time>2018-04-15T10:46:15Z</time>
      </trkpt>
      <trkpt lat="43.89669" lon="7.72771">
        <ele>931.044</ele>
        <time>2018-04-15T10:46:17Z</time>
      </trkpt>
      <trkpt lat="43.89673" lon="7.7277">
        <ele>931.247</ele>
        <time>2018-04-15T10:46:21Z</time>
      </trkpt>
      <trkpt lat="43.89676" lon="7.72768">
        <ele>931.448</ele>
        <time>2018-04-15T10:46:24Z</time>
      </trkpt>
      <trkpt lat="43.8968" lon="7.72767">
        <ele>931.67</ele>
        <time>2018-04-15T10:46:26Z</time>
      </trkpt>
      <trkpt lat="43.89683" lon="7.72766">
        <ele>931.911</ele>
        <time>2018-04-15T10:46:28Z</time>
      </trkpt>
      <trkpt lat="43.89685" lon="7.72764">
        <ele>932.044</ele>
        <time>2018-04-15T10:46:30Z</time>
      </trkpt>
      <trkpt lat="43.89687" lon="7.72761">
        <ele>932.039</ele>
        <time>2018-04-15T10:46:32Z</time>
      </trkpt>
      <trkpt lat="43.8969" lon="7.7276">
        <ele>932.013</ele>
        <time>2018-04-15T10:46:34Z</time>
      </trkpt>
      <trkpt lat="43.89694" lon="7.72758">
        <ele>931.986</ele>
        <time>2018-04-15T10:46:37Z</time>
      </trkpt>
      <trkpt lat="43.89699" lon="7.72758">
        <ele>932.002</ele>
        <time>2018-04-15T10:46:39Z</time>
      </trkpt>
      <trkpt lat="43.89702" lon="7.7276">
        <ele>932.039</ele>
        <time>2018-04-15T10:46:42Z</time>
      </trkpt>
      <trkpt lat="43.89705" lon="7.7276">
        <ele>932.251</ele>
        <time>2018-04-15T10:46:45Z</time>
      </trkpt>
      <trkpt lat="43.89709" lon="7.72761">
        <ele>932.347</ele>
        <time>2018-04-15T10:46:47Z</time>
      </trkpt>
      <trkpt lat="43.89711" lon="7.72759">
        <ele>932.559</ele>
        <time>2018-04-15T10:46:50Z</time>
      </trkpt>
      <trkpt lat="43.89715" lon="7.72759">
        <ele>933.056</ele>
        <time>2018-04-15T10:46:54Z</time>
      </trkpt>
      <trkpt lat="43.89718" lon="7.72758">
        <ele>933.463</ele>
        <time>2018-04-15T10:46:57Z</time>
      </trkpt>
      <trkpt lat="43.89721" lon="7.72757">
        <ele>933.582</ele>
        <time>2018-04-15T10:46:59Z</time>
      </trkpt>
      <trkpt lat="43.89724" lon="7.72756">
        <ele>933.777</ele>
        <time>2018-04-15T10:47:01Z</time>
      </trkpt>
      <trkpt lat="43.89728" lon="7.72754">
        <ele>933.989</ele>
        <time>2018-04-15T10:47:04Z</time>
      </trkpt>
      <trkpt lat="43.89731" lon="7.72753">
        <ele>934.634</ele>
        <time>2018-04-15T10:47:08Z</time>
      </trkpt>
      <trkpt lat="43.89736" lon="7.72754">
        <ele>935.254</ele>
        <time>2018-04-15T10:47:11Z</time>
      </trkpt>
      <trkpt lat="43.89739" lon="7.72755">
        <ele>935.598</ele>
        <time>2018-04-15T10:47:13Z</time>
      </trkpt>
      <trkpt lat="43.89743" lon="7.72755">
        <ele>935.827</ele>
        <time>2018-04-15T10:47:15Z</time>
      </trkpt>
      <trkpt lat="43.89746" lon="7.72754">
        <ele>936.216</ele>
        <time>2018-04-15T10:47:18Z</time>
      </trkpt>
      <trkpt lat="43.89748" lon="7.72757">
        <ele>936.698</ele>
        <time>2018-04-15T10:47:21Z</time>
      </trkpt>
      <trkpt lat="43.89751" lon="7.7276">
        <ele>936.948</ele>
        <time>2018-04-15T10:47:24Z</time>
      </trkpt>
      <trkpt lat="43.89755" lon="7.72762">
        <ele>937.209</ele>
        <time>2018-04-15T10:47:26Z</time>
      </trkpt>
      <trkpt lat="43.89758" lon="7.72763">
        <ele>937.349</ele>
        <time>2018-04-15T10:47:28Z</time>
      </trkpt>
      <trkpt lat="43.89763" lon="7.72764">
        <ele>937.705</ele>
        <time>2018-04-15T10:47:31Z</time>
      </trkpt>
      <trkpt lat="43.89766" lon="7.72762">
        <ele>938.222</ele>
        <time>2018-04-15T10:47:34Z</time>
      </trkpt>
      <trkpt lat="43.89769" lon="7.72761">
        <ele>938.589</ele>
        <time>2018-04-15T10:47:37Z</time>
      </trkpt>
      <trkpt lat="43.89772" lon="7.72762">
        <ele>938.777</ele>
        <time>2018-04-15T10:47:39Z</time>
      </trkpt>
      <trkpt lat="43.89775" lon="7.72761">
        <ele>939.021</ele>
        <time>2018-04-15T10:47:41Z</time>
      </trkpt>
      <trkpt lat="43.89779" lon="7.72761">
        <ele>939.153</ele>
        <time>2018-04-15T10:47:44Z</time>
      </trkpt>
      <trkpt lat="43.89782" lon="7.7276">
        <ele>939.319</ele>
        <time>2018-04-15T10:47:47Z</time>
      </trkpt>
      <trkpt lat="43.89785" lon="7.7276">
        <ele>939.485</ele>
        <time>2018-04-15T10:47:50Z</time>
      </trkpt>
      <trkpt lat="43.89788" lon="7.72763">
        <ele>939.591</ele>
        <time>2018-04-15T10:47:53Z</time>
      </trkpt>
      <trkpt lat="43.89791" lon="7.72764">
        <ele>939.66</ele>
        <time>2018-04-15T10:47:55Z</time>
      </trkpt>
      <trkpt lat="43.89794" lon="7.72766">
        <ele>939.892</ele>
        <time>2018-04-15T10:47:58Z</time>
      </trkpt>
      <trkpt lat="43.89798" lon="7.72768">
        <ele>940.171</ele>
        <time>2018-04-15T10:48:00Z</time>
      </trkpt>
      <trkpt lat="43.89801" lon="7.72769">
        <ele>940.484</ele>
        <time>2018-04-15T10:48:03Z</time>
      </trkpt>
      <trkpt lat="43.89805" lon="7.72768">
        <ele>940.794</ele>
        <time>2018-04-15T10:48:06Z</time>
      </trkpt>
      <trkpt lat="43.89807" lon="7.72768">
        <ele>941.293</ele>
        <time>2018-04-15T10:48:09Z</time>
      </trkpt>
      <trkpt lat="43.8981" lon="7.72769">
        <ele>942.008</ele>
        <time>2018-04-15T10:48:13Z</time>
      </trkpt>
      <trkpt lat="43.89813" lon="7.72771">
        <ele>942.251</ele>
        <time>2018-04-15T10:48:16Z</time>
      </trkpt>
      <trkpt lat="43.89818" lon="7.72774">
        <ele>942.513</ele>
        <time>2018-04-15T10:48:20Z</time>
      </trkpt>
      <trkpt lat="43.8982" lon="7.72775">
        <ele>942.514</ele>
        <time>2018-04-15T10:48:22Z</time>
      </trkpt>
      <trkpt lat="43.89823" lon="7.72776">
        <ele>942.923</ele>
        <time>2018-04-15T10:48:25Z</time>
      </trkpt>
      <trkpt lat="43.89826" lon="7.72776">
        <ele>943.309</ele>
        <time>2018-04-15T10:48:27Z</time>
      </trkpt>
      <trkpt lat="43.89829" lon="7.72776">
        <ele>943.98</ele>
        <time>2018-04-15T10:48:31Z</time>
      </trkpt>
      <trkpt lat="43.89833" lon="7.72776">
        <ele>944.2</ele>
        <time>2018-04-15T10:48:34Z</time>
      </trkpt>
      <trkpt lat="43.89837" lon="7.72776">
        <ele>944.504</ele>
        <time>2018-04-15T10:48:36Z</time>
      </trkpt>
      <trkpt lat="43.89839" lon="7.72775">
        <ele>944.676</ele>
        <time>2018-04-15T10:48:38Z</time>
      </trkpt>
      <trkpt lat="43.89842" lon="7.72773">
        <ele>944.883</ele>
        <time>2018-04-15T10:48:40Z</time>
      </trkpt>
      <trkpt lat="43.89845" lon="7.72772">
        <ele>945.174</ele>
        <time>2018-04-15T10:48:42Z</time>
      </trkpt>
      <trkpt lat="43.89849" lon="7.72771">
        <ele>945.647</ele>
        <time>2018-04-15T10:48:45Z</time>
      </trkpt>
      <trkpt lat="43.89852" lon="7.72772">
        <ele>946.025</ele>
        <time>2018-04-15T10:48:47Z</time>
      </trkpt>
      <trkpt lat="43.89856" lon="7.72772">
        <ele>946.315</ele>
        <time>2018-04-15T10:48:49Z</time>
      </trkpt>
      <trkpt lat="43.89859" lon="7.72771">
        <ele>946.687</ele>
        <time>2018-04-15T10:48:52Z</time>
      </trkpt>
      <trkpt lat="43.89862" lon="7.7277">
        <ele>947.256</ele>
        <time>2018-04-15T10:48:56Z</time>
      </trkpt>
      <trkpt lat="43.89865" lon="7.72768">
        <ele>947.799</ele>
        <time>2018-04-15T10:49:00Z</time>
      </trkpt>
      <trkpt lat="43.89868" lon="7.72768">
        <ele>948.037</ele>
        <time>2018-04-15T10:49:02Z</time>
      </trkpt>
      <trkpt lat="43.89871" lon="7.72769">
        <ele>948.228</ele>
        <time>2018-04-15T10:49:04Z</time>
      </trkpt>
      <trkpt lat="43.89878" lon="7.72768">
        <ele>948.683</ele>
        <time>2018-04-15T10:49:07Z</time>
      </trkpt>
      <trkpt lat="43.89881" lon="7.72766">
        <ele>949.13</ele>
        <time>2018-04-15T10:49:10Z</time>
      </trkpt>
      <trkpt lat="43.89883" lon="7.72765">
        <ele>949.473</ele>
        <time>2018-04-15T10:49:18Z</time>
      </trkpt>
      <trkpt lat="43.89886" lon="7.72763">
        <ele>949.361</ele>
        <time>2018-04-15T10:49:20Z</time>
      </trkpt>
      <trkpt lat="43.89889" lon="7.72761">
        <ele>949.411</ele>
        <time>2018-04-15T10:49:24Z</time>
      </trkpt>
      <trkpt lat="43.89892" lon="7.72759">
        <ele>949.599</ele>
        <time>2018-04-15T10:49:26Z</time>
      </trkpt>
      <trkpt lat="43.89895" lon="7.72757">
        <ele>949.829</ele>
        <time>2018-04-15T10:49:29Z</time>
      </trkpt>
      <trkpt lat="43.89897" lon="7.72755">
        <ele>950.426</ele>
        <time>2018-04-15T10:49:34Z</time>
      </trkpt>
      <trkpt lat="43.899" lon="7.72752">
        <ele>950.98</ele>
        <time>2018-04-15T10:49:38Z</time>
      </trkpt>
      <trkpt lat="43.89902" lon="7.7275">
        <ele>951.323</ele>
        <time>2018-04-15T10:49:40Z</time>
      </trkpt>
      <trkpt lat="43.89905" lon="7.72746">
        <ele>951.561</ele>
        <time>2018-04-15T10:49:42Z</time>
      </trkpt>
      <trkpt lat="43.89909" lon="7.72742">
        <ele>951.704</ele>
        <time>2018-04-15T10:49:45Z</time>
      </trkpt>
      <trkpt lat="43.89911" lon="7.72739">
        <ele>951.732</ele>
        <time>2018-04-15T10:49:47Z</time>
      </trkpt>
      <trkpt lat="43.89914" lon="7.72737">
        <ele>951.746</ele>
        <time>2018-04-15T10:49:50Z</time>
      </trkpt>
      <trkpt lat="43.89917" lon="7.72733">
        <ele>951.789</ele>
        <time>2018-04-15T10:49:53Z</time>
      </trkpt>
      <trkpt lat="43.89919" lon="7.7273">
        <ele>951.955</ele>
        <time>2018-04-15T10:49:56Z</time>
      </trkpt>
      <trkpt lat="43.89922" lon="7.72728">
        <ele>952.303</ele>
        <time>2018-04-15T10:49:59Z</time>
      </trkpt>
      <trkpt lat="43.89924" lon="7.72725">
        <ele>953.024</ele>
        <time>2018-04-15T10:50:02Z</time>
      </trkpt>
      <trkpt lat="43.89927" lon="7.72723">
        <ele>953.491</ele>
        <time>2018-04-15T10:50:05Z</time>
      </trkpt>
      <trkpt lat="43.8993" lon="7.72722">
        <ele>954.02</ele>
        <time>2018-04-15T10:50:08Z</time>
      </trkpt>
      <trkpt lat="43.89933" lon="7.72723">
        <ele>954.289</ele>
        <time>2018-04-15T10:50:11Z</time>
      </trkpt>
      <trkpt lat="43.89939" lon="7.72723">
        <ele>954.499</ele>
        <time>2018-04-15T10:50:14Z</time>
      </trkpt>
      <trkpt lat="43.89939" lon="7.72727">
        <ele>954.603</ele>
        <time>2018-04-15T10:50:23Z</time>
      </trkpt>
      <trkpt lat="43.8994" lon="7.72731">
        <ele>952.75</ele>
        <time>2018-04-15T10:50:38Z</time>
      </trkpt>
      <trkpt lat="43.89941" lon="7.72734">
        <ele>952.658</ele>
        <time>2018-04-15T10:50:44Z</time>
      </trkpt>
      <trkpt lat="43.89944" lon="7.72734">
        <ele>952.579</ele>
        <time>2018-04-15T10:50:50Z</time>
      </trkpt>
      <trkpt lat="43.89944" lon="7.7273">
        <ele>952.193</ele>
        <time>2018-04-15T10:50:59Z</time>
      </trkpt>
      <trkpt lat="43.89945" lon="7.72726">
        <ele>951.249</ele>
        <time>2018-04-15T10:51:34Z</time>
      </trkpt>
      <trkpt lat="43.89942" lon="7.72727">
        <ele>951.479</ele>
        <time>2018-04-15T10:51:53Z</time>
      </trkpt>
      <trkpt lat="43.8994" lon="7.7273">
        <ele>951.008</ele>
        <time>2018-04-15T10:52:05Z</time>
      </trkpt>
      <trkpt lat="43.89942" lon="7.72727">
        <ele>951.821</ele>
        <time>2018-04-15T10:52:36Z</time>
      </trkpt>
      <trkpt lat="43.89945" lon="7.72729">
        <ele>952.211</ele>
        <time>2018-04-15T10:52:45Z</time>
      </trkpt>
      <trkpt lat="43.89948" lon="7.7273">
        <ele>952.839</ele>
        <time>2018-04-15T10:53:14Z</time>
      </trkpt>
      <trkpt lat="43.89945" lon="7.72731">
        <ele>953.407</ele>
        <time>2018-04-15T10:54:01Z</time>
      </trkpt>
      <trkpt lat="43.89943" lon="7.72734">
        <ele>953.463</ele>
        <time>2018-04-15T10:54:10Z</time>
      </trkpt>
      <trkpt lat="43.89946" lon="7.72735">
        <ele>953.654</ele>
        <time>2018-04-15T10:54:23Z</time>
      </trkpt>
      <trkpt lat="43.89948" lon="7.72739">
        <ele>953.794</ele>
        <time>2018-04-15T10:54:33Z</time>
      </trkpt>
      <trkpt lat="43.89947" lon="7.72735">
        <ele>954.21</ele>
        <time>2018-04-15T10:54:51Z</time>
      </trkpt>
      <trkpt lat="43.89949" lon="7.7273">
        <ele>955</ele>
        <time>2018-04-15T10:56:37Z</time>
      </trkpt>
      <trkpt lat="43.89952" lon="7.72728">
        <ele>955.086</ele>
        <time>2018-04-15T10:56:43Z</time>
      </trkpt>
      <trkpt lat="43.89949" lon="7.72727">
        <ele>955.287</ele>
        <time>2018-04-15T10:56:57Z</time>
      </trkpt>
      <trkpt lat="43.89952" lon="7.72728">
        <ele>955.477</ele>
        <time>2018-04-15T10:57:17Z</time>
      </trkpt>
      <trkpt lat="43.89954" lon="7.72729">
        <ele>955.524</ele>
        <time>2018-04-15T10:57:27Z</time>
      </trkpt>
      <trkpt lat="43.89952" lon="7.72729">
        <ele>955.487</ele>
        <time>2018-04-15T10:57:37Z</time>
      </trkpt>
      <trkpt lat="43.89948" lon="7.72729">
        <ele>955.344</ele>
        <time>2018-04-15T10:57:43Z</time>
      </trkpt>
      <trkpt lat="43.89946" lon="7.72727">
        <ele>955.147</ele>
        <time>2018-04-15T10:57:49Z</time>
      </trkpt>
      <trkpt lat="43.89943" lon="7.72727">
        <ele>955.205</ele>
        <time>2018-04-15T10:58:08Z</time>
      </trkpt>
      <trkpt lat="43.8994" lon="7.72729">
        <ele>955.297</ele>
        <time>2018-04-15T10:58:12Z</time>
      </trkpt>
      <trkpt lat="43.89943" lon="7.7273">
        <ele>955.623</ele>
        <time>2018-04-15T10:58:37Z</time>
      </trkpt>
      <trkpt lat="43.89946" lon="7.72726">
        <ele>955.552</ele>
        <time>2018-04-15T10:59:04Z</time>
      </trkpt>
      <trkpt lat="43.89949" lon="7.72724">
        <ele>955.576</ele>
        <time>2018-04-15T10:59:08Z</time>
      </trkpt>
      <trkpt lat="43.89952" lon="7.72724">
        <ele>955.04</ele>
        <time>2018-04-15T10:59:29Z</time>
      </trkpt>
      <trkpt lat="43.89953" lon="7.72727">
        <ele>954.601</ele>
        <time>2018-04-15T10:59:37Z</time>
      </trkpt>
      <trkpt lat="43.89953" lon="7.72731">
        <ele>954.497</ele>
        <time>2018-04-15T10:59:41Z</time>
      </trkpt>
      <trkpt lat="43.8995" lon="7.72732">
        <ele>954.332</ele>
        <time>2018-04-15T10:59:47Z</time>
      </trkpt>
      <trkpt lat="43.89947" lon="7.72733">
        <ele>954.427</ele>
        <time>2018-04-15T10:59:52Z</time>
      </trkpt>
      <trkpt lat="43.89944" lon="7.72734">
        <ele>954.477</ele>
        <time>2018-04-15T10:59:56Z</time>
      </trkpt>
      <trkpt lat="43.89941" lon="7.72732">
        <ele>954.651</ele>
        <time>2018-04-15T11:00:08Z</time>
      </trkpt>
      <trkpt lat="43.89939" lon="7.7273">
        <ele>954.612</ele>
        <time>2018-04-15T11:00:12Z</time>
      </trkpt>
      <trkpt lat="43.89943" lon="7.72727">
        <ele>954.701</ele>
        <time>2018-04-15T11:00:36Z</time>
      </trkpt>
      <trkpt lat="43.89946" lon="7.72726">
        <ele>954.746</ele>
        <time>2018-04-15T11:00:39Z</time>
      </trkpt>
      <trkpt lat="43.89949" lon="7.72727">
        <ele>954.808</ele>
        <time>2018-04-15T11:00:43Z</time>
      </trkpt>
      <trkpt lat="43.89951" lon="7.72725">
        <ele>954.865</ele>
        <time>2018-04-15T11:00:49Z</time>
      </trkpt>
      <trkpt lat="43.89952" lon="7.72729">
        <ele>953.427</ele>
        <time>2018-04-15T11:01:14Z</time>
      </trkpt>
      <trkpt lat="43.89954" lon="7.72727">
        <ele>952.523</ele>
        <time>2018-04-15T11:02:50Z</time>
      </trkpt>
      <trkpt lat="43.89957" lon="7.72725">
        <ele>952.594</ele>
        <time>2018-04-15T11:02:55Z</time>
      </trkpt>
      <trkpt lat="43.89954" lon="7.72726">
        <ele>952.508</ele>
        <time>2018-04-15T11:03:05Z</time>
      </trkpt>
      <trkpt lat="43.89951" lon="7.72728">
        <ele>952.511</ele>
        <time>2018-04-15T11:03:08Z</time>
      </trkpt>
      <trkpt lat="43.89949" lon="7.7273">
        <ele>952.525</ele>
        <time>2018-04-15T11:03:10Z</time>
      </trkpt>
      <trkpt lat="43.89945" lon="7.72731">
        <ele>952.56</ele>
        <time>2018-04-15T11:03:13Z</time>
      </trkpt>
      <trkpt lat="43.89942" lon="7.72731">
        <ele>953.251</ele>
        <time>2018-04-15T11:04:03Z</time>
      </trkpt>
      <trkpt lat="43.89941" lon="7.72727">
        <ele>953.115</ele>
        <time>2018-04-15T11:04:11Z</time>
      </trkpt>
      <trkpt lat="43.89944" lon="7.72722">
        <ele>952.99</ele>
        <time>2018-04-15T11:04:35Z</time>
      </trkpt>
      <trkpt lat="43.8995" lon="7.72717">
        <ele>953.079</ele>
        <time>2018-04-15T11:04:37Z</time>
      </trkpt>
      <trkpt lat="43.89955" lon="7.72711">
        <ele>953.049</ele>
        <time>2018-04-15T11:04:39Z</time>
      </trkpt>
      <trkpt lat="43.89962" lon="7.72704">
        <ele>952.412</ele>
        <time>2018-04-15T11:04:41Z</time>
      </trkpt>
      <trkpt lat="43.8997" lon="7.72694">
        <ele>951.14</ele>
        <time>2018-04-15T11:04:43Z</time>
      </trkpt>
      <trkpt lat="43.89979" lon="7.72685">
        <ele>950.831</ele>
        <time>2018-04-15T11:04:45Z</time>
      </trkpt>
      <trkpt lat="43.89988" lon="7.72675">
        <ele>949.94</ele>
        <time>2018-04-15T11:04:47Z</time>
      </trkpt>
      <trkpt lat="43.89996" lon="7.72667">
        <ele>950.359</ele>
        <time>2018-04-15T11:04:49Z</time>
      </trkpt>
      <trkpt lat="43.89999" lon="7.72665">
        <ele>950.477</ele>
        <time>2018-04-15T11:04:50Z</time>
      </trkpt>
      <trkpt lat="43.90007" lon="7.72657">
        <ele>951.238</ele>
        <time>2018-04-15T11:04:52Z</time>
      </trkpt>
      <trkpt lat="43.90016" lon="7.72647">
        <ele>952.117</ele>
        <time>2018-04-15T11:04:54Z</time>
      </trkpt>
      <trkpt lat="43.90024" lon="7.72636">
        <ele>954.139</ele>
        <time>2018-04-15T11:04:56Z</time>
      </trkpt>
      <trkpt lat="43.90032" lon="7.72625">
        <ele>955.258</ele>
        <time>2018-04-15T11:04:58Z</time>
      </trkpt>
      <trkpt lat="43.90039" lon="7.72617">
        <ele>955.852</ele>
        <time>2018-04-15T11:04:59Z</time>
      </trkpt>
      <trkpt lat="43.90048" lon="7.72608">
        <ele>955.791</ele>
        <time>2018-04-15T11:05:01Z</time>
      </trkpt>
      <trkpt lat="43.90057" lon="7.72598">
        <ele>955.804</ele>
        <time>2018-04-15T11:05:03Z</time>
      </trkpt>
      <trkpt lat="43.90064" lon="7.72593">
        <ele>955.165</ele>
        <time>2018-04-15T11:05:04Z</time>
      </trkpt>
      <trkpt lat="43.90077" lon="7.7259">
        <ele>953.48</ele>
        <time>2018-04-15T11:05:06Z</time>
      </trkpt>
      <trkpt lat="43.90089" lon="7.7259">
        <ele>952.061</ele>
        <time>2018-04-15T11:05:08Z</time>
      </trkpt>
      <trkpt lat="43.90105" lon="7.7259">
        <ele>951.317</ele>
        <time>2018-04-15T11:05:10Z</time>
      </trkpt>
      <trkpt lat="43.90116" lon="7.72592">
        <ele>950.513</ele>
        <time>2018-04-15T11:05:12Z</time>
      </trkpt>
      <trkpt lat="43.90125" lon="7.72597">
        <ele>950.129</ele>
        <time>2018-04-15T11:05:14Z</time>
      </trkpt>
      <trkpt lat="43.90125" lon="7.72591">
        <ele>949.925</ele>
        <time>2018-04-15T11:05:19Z</time>
      </trkpt>
      <trkpt lat="43.90121" lon="7.72583">
        <ele>949.344</ele>
        <time>2018-04-15T11:05:21Z</time>
      </trkpt>
      <trkpt lat="43.90113" lon="7.72573">
        <ele>947.403</ele>
        <time>2018-04-15T11:05:23Z</time>
      </trkpt>
      <trkpt lat="43.90106" lon="7.72562">
        <ele>945.717</ele>
        <time>2018-04-15T11:05:25Z</time>
      </trkpt>
      <trkpt lat="43.90099" lon="7.72549">
        <ele>942.527</ele>
        <time>2018-04-15T11:05:27Z</time>
      </trkpt>
      <trkpt lat="43.90093" lon="7.72537">
        <ele>940.447</ele>
        <time>2018-04-15T11:05:29Z</time>
      </trkpt>
      <trkpt lat="43.90089" lon="7.72533">
        <ele>939.615</ele>
        <time>2018-04-15T11:05:30Z</time>
      </trkpt>
      <trkpt lat="43.90079" lon="7.72532">
        <ele>938.479</ele>
        <time>2018-04-15T11:05:32Z</time>
      </trkpt>
      <trkpt lat="43.9007" lon="7.72533">
        <ele>937.985</ele>
        <time>2018-04-15T11:05:34Z</time>
      </trkpt>
      <trkpt lat="43.90058" lon="7.72532">
        <ele>935.496</ele>
        <time>2018-04-15T11:05:36Z</time>
      </trkpt>
      <trkpt lat="43.90046" lon="7.72527">
        <ele>933.469</ele>
        <time>2018-04-15T11:05:38Z</time>
      </trkpt>
      <trkpt lat="43.90039" lon="7.72522">
        <ele>933.254</ele>
        <time>2018-04-15T11:05:40Z</time>
      </trkpt>
      <trkpt lat="43.90029" lon="7.72517">
        <ele>932.875</ele>
        <time>2018-04-15T11:05:42Z</time>
      </trkpt>
      <trkpt lat="43.90017" lon="7.72514">
        <ele>931.612</ele>
        <time>2018-04-15T11:05:44Z</time>
      </trkpt>
      <trkpt lat="43.90004" lon="7.7251">
        <ele>930.12</ele>
        <time>2018-04-15T11:05:46Z</time>
      </trkpt>
      <trkpt lat="43.9" lon="7.72509">
        <ele>930.095</ele>
        <time>2018-04-15T11:05:47Z</time>
      </trkpt>
      <trkpt lat="43.8999" lon="7.72509">
        <ele>929.939</ele>
        <time>2018-04-15T11:05:49Z</time>
      </trkpt>
      <trkpt lat="43.89985" lon="7.72503">
        <ele>929.742</ele>
        <time>2018-04-15T11:05:51Z</time>
      </trkpt>
      <trkpt lat="43.8999" lon="7.725">
        <ele>929.495</ele>
        <time>2018-04-15T11:05:53Z</time>
      </trkpt>
      <trkpt lat="43.89996" lon="7.725">
        <ele>928.129</ele>
        <time>2018-04-15T11:05:55Z</time>
      </trkpt>
      <trkpt lat="43.90005" lon="7.72502">
        <ele>926.193</ele>
        <time>2018-04-15T11:05:57Z</time>
      </trkpt>
      <trkpt lat="43.90015" lon="7.72505">
        <ele>925.101</ele>
        <time>2018-04-15T11:05:59Z</time>
      </trkpt>
      <trkpt lat="43.90027" lon="7.72508">
        <ele>923.539</ele>
        <time>2018-04-15T11:06:01Z</time>
      </trkpt>
      <trkpt lat="43.90038" lon="7.72509">
        <ele>921.403</ele>
        <time>2018-04-15T11:06:03Z</time>
      </trkpt>
      <trkpt lat="43.90049" lon="7.7251">
        <ele>919.847</ele>
        <time>2018-04-15T11:06:05Z</time>
      </trkpt>
      <trkpt lat="43.90059" lon="7.72507">
        <ele>918.891</ele>
        <time>2018-04-15T11:06:07Z</time>
      </trkpt>
      <trkpt lat="43.90072" lon="7.72502">
        <ele>918.553</ele>
        <time>2018-04-15T11:06:09Z</time>
      </trkpt>
      <trkpt lat="43.90082" lon="7.72496">
        <ele>918.917</ele>
        <time>2018-04-15T11:06:11Z</time>
      </trkpt>
      <trkpt lat="43.90091" lon="7.72493">
        <ele>918.913</ele>
        <time>2018-04-15T11:06:13Z</time>
      </trkpt>
      <trkpt lat="43.90099" lon="7.725">
        <ele>919.965</ele>
        <time>2018-04-15T11:06:16Z</time>
      </trkpt>
      <trkpt lat="43.90105" lon="7.72514">
        <ele>919.798</ele>
        <time>2018-04-15T11:06:18Z</time>
      </trkpt>
      <trkpt lat="43.90112" lon="7.72531">
        <ele>917.819</ele>
        <time>2018-04-15T11:06:20Z</time>
      </trkpt>
      <trkpt lat="43.90116" lon="7.72539">
        <ele>915.716</ele>
        <time>2018-04-15T11:06:21Z</time>
      </trkpt>
      <trkpt lat="43.90125" lon="7.72553">
        <ele>914.435</ele>
        <time>2018-04-15T11:06:23Z</time>
      </trkpt>
      <trkpt lat="43.90135" lon="7.72554">
        <ele>915.029</ele>
        <time>2018-04-15T11:06:25Z</time>
      </trkpt>
      <trkpt lat="43.9015" lon="7.72551">
        <ele>916.461</ele>
        <time>2018-04-15T11:06:27Z</time>
      </trkpt>
      <trkpt lat="43.90165" lon="7.72549">
        <ele>917.696</ele>
        <time>2018-04-15T11:06:29Z</time>
      </trkpt>
      <trkpt lat="43.90181" lon="7.72545">
        <ele>918.728</ele>
        <time>2018-04-15T11:06:31Z</time>
      </trkpt>
      <trkpt lat="43.90196" lon="7.72543">
        <ele>918.808</ele>
        <time>2018-04-15T11:06:33Z</time>
      </trkpt>
      <trkpt lat="43.90213" lon="7.72544">
        <ele>920.608</ele>
        <time>2018-04-15T11:06:35Z</time>
      </trkpt>
      <trkpt lat="43.90229" lon="7.7255">
        <ele>923.091</ele>
        <time>2018-04-15T11:06:37Z</time>
      </trkpt>
      <trkpt lat="43.90244" lon="7.72556">
        <ele>924.622</ele>
        <time>2018-04-15T11:06:39Z</time>
      </trkpt>
      <trkpt lat="43.90256" lon="7.7256">
        <ele>924.606</ele>
        <time>2018-04-15T11:06:41Z</time>
      </trkpt>
      <trkpt lat="43.90266" lon="7.72559">
        <ele>923.931</ele>
        <time>2018-04-15T11:06:43Z</time>
      </trkpt>
      <trkpt lat="43.90276" lon="7.72549">
        <ele>923.451</ele>
        <time>2018-04-15T11:06:45Z</time>
      </trkpt>
      <trkpt lat="43.9028" lon="7.72542">
        <ele>922.169</ele>
        <time>2018-04-15T11:06:46Z</time>
      </trkpt>
      <trkpt lat="43.90288" lon="7.72529">
        <ele>920.416</ele>
        <time>2018-04-15T11:06:48Z</time>
      </trkpt>
      <trkpt lat="43.90293" lon="7.72513">
        <ele>919.4</ele>
        <time>2018-04-15T11:06:50Z</time>
      </trkpt>
      <trkpt lat="43.90297" lon="7.72495">
        <ele>919.453</ele>
        <time>2018-04-15T11:06:52Z</time>
      </trkpt>
      <trkpt lat="43.90299" lon="7.72475">
        <ele>918.243</ele>
        <time>2018-04-15T11:06:54Z</time>
      </trkpt>
      <trkpt lat="43.90301" lon="7.72456">
        <ele>916.267</ele>
        <time>2018-04-15T11:06:56Z</time>
      </trkpt>
      <trkpt lat="43.90304" lon="7.72439">
        <ele>915.372</ele>
        <time>2018-04-15T11:06:58Z</time>
      </trkpt>
      <trkpt lat="43.90306" lon="7.72421">
        <ele>914.115</ele>
        <time>2018-04-15T11:07:00Z</time>
      </trkpt>
      <trkpt lat="43.90306" lon="7.72404">
        <ele>912.225</ele>
        <time>2018-04-15T11:07:02Z</time>
      </trkpt>
      <trkpt lat="43.90307" lon="7.72384">
        <ele>912.216</ele>
        <time>2018-04-15T11:07:04Z</time>
      </trkpt>
      <trkpt lat="43.90307" lon="7.72364">
        <ele>910.891</ele>
        <time>2018-04-15T11:07:06Z</time>
      </trkpt>
      <trkpt lat="43.9031" lon="7.72342">
        <ele>909.124</ele>
        <time>2018-04-15T11:07:08Z</time>
      </trkpt>
      <trkpt lat="43.90314" lon="7.72324">
        <ele>908.596</ele>
        <time>2018-04-15T11:07:10Z</time>
      </trkpt>
      <trkpt lat="43.90315" lon="7.7231">
        <ele>908.939</ele>
        <time>2018-04-15T11:07:13Z</time>
      </trkpt>
      <trkpt lat="43.90315" lon="7.72295">
        <ele>908.957</ele>
        <time>2018-04-15T11:07:15Z</time>
      </trkpt>
      <trkpt lat="43.90313" lon="7.72278">
        <ele>907.7</ele>
        <time>2018-04-15T11:07:17Z</time>
      </trkpt>
      <trkpt lat="43.90311" lon="7.7226">
        <ele>907.198</ele>
        <time>2018-04-15T11:07:19Z</time>
      </trkpt>
      <trkpt lat="43.9031" lon="7.72245">
        <ele>907.221</ele>
        <time>2018-04-15T11:07:21Z</time>
      </trkpt>
      <trkpt lat="43.90312" lon="7.7223">
        <ele>905.866</ele>
        <time>2018-04-15T11:07:23Z</time>
      </trkpt>
      <trkpt lat="43.90316" lon="7.72211">
        <ele>904.596</ele>
        <time>2018-04-15T11:07:25Z</time>
      </trkpt>
      <trkpt lat="43.9032" lon="7.7219">
        <ele>903.392</ele>
        <time>2018-04-15T11:07:27Z</time>
      </trkpt>
      <trkpt lat="43.90324" lon="7.7217">
        <ele>902.861</ele>
        <time>2018-04-15T11:07:29Z</time>
      </trkpt>
      <trkpt lat="43.90327" lon="7.72151">
        <ele>902.344</ele>
        <time>2018-04-15T11:07:31Z</time>
      </trkpt>
      <trkpt lat="43.90331" lon="7.72132">
        <ele>902.021</ele>
        <time>2018-04-15T11:07:33Z</time>
      </trkpt>
      <trkpt lat="43.90334" lon="7.72111">
        <ele>902.515</ele>
        <time>2018-04-15T11:07:35Z</time>
      </trkpt>
      <trkpt lat="43.90337" lon="7.72096">
        <ele>901.846</ele>
        <time>2018-04-15T11:07:37Z</time>
      </trkpt>
      <trkpt lat="43.90339" lon="7.72083">
        <ele>900.567</ele>
        <time>2018-04-15T11:07:39Z</time>
      </trkpt>
      <trkpt lat="43.90342" lon="7.72068">
        <ele>899.448</ele>
        <time>2018-04-15T11:07:41Z</time>
      </trkpt>
      <trkpt lat="43.90344" lon="7.72063">
        <ele>899.401</ele>
        <time>2018-04-15T11:07:42Z</time>
      </trkpt>
    </trkseg>
  </trk>
</gpx>